<?xml version="1.0" encoding="UTF-8" standalone="no" ?>
<gpx xmlns="http://www.topografix.com/GPX/1/1" xmlns:xsi="http://www.w3.org/2001/XMLSchema-instance" xsi:schemaLocation="http://www.topografix.com/GPX/1/1 http://www.topografix.com/GPX/1/1/gpx.xsd" version="1.1" creator="VisuGPX - https://www.visugpx.com">
  <metadata>
    <name>balade a pornic </name>
    <desc><![CDATA[vent important de face a l\\\'aller et a moitier perdu au retour malgré tout une moyenne de 29.1 plutot content de moi ]]></desc>
  </metadata>
  <trk>
    <name><![CDATA[Sequence 1]]></name>
    <trkseg>
      <trkpt lat="47.18835" lon="-1.6879">
        <ele>20</ele>
        <time>2014-04-08T12:39:28Z</time>
      </trkpt>
      <trkpt lat="47.18826" lon="-1.68804">
        <ele>20</ele>
        <time>2014-04-08T12:39:32Z</time>
      </trkpt>
      <trkpt lat="47.18825" lon="-1.68811">
        <ele>19</ele>
        <time>2014-04-08T12:39:33Z</time>
      </trkpt>
      <trkpt lat="47.18828" lon="-1.68836">
        <ele>20</ele>
        <time>2014-04-08T12:39:37Z</time>
      </trkpt>
      <trkpt lat="47.18842" lon="-1.68868">
        <ele>21</ele>
        <time>2014-04-08T12:39:41Z</time>
      </trkpt>
      <trkpt lat="47.18859" lon="-1.6893">
        <ele>23</ele>
        <time>2014-04-08T12:39:48Z</time>
      </trkpt>
      <trkpt lat="47.18864" lon="-1.68948">
        <ele>22</ele>
        <time>2014-04-08T12:39:50Z</time>
      </trkpt>
      <trkpt lat="47.18881" lon="-1.69004">
        <ele>19</ele>
        <time>2014-04-08T12:39:56Z</time>
      </trkpt>
      <trkpt lat="47.18894" lon="-1.69036">
        <ele>18</ele>
        <time>2014-04-08T12:40:00Z</time>
      </trkpt>
      <trkpt lat="47.18899" lon="-1.69049">
        <ele>19</ele>
        <time>2014-04-08T12:40:01Z</time>
      </trkpt>
      <trkpt lat="47.18925" lon="-1.69099">
        <ele>15</ele>
        <time>2014-04-08T12:40:08Z</time>
      </trkpt>
      <trkpt lat="47.18937" lon="-1.69116">
        <ele>14</ele>
        <time>2014-04-08T12:40:10Z</time>
      </trkpt>
      <trkpt lat="47.18952" lon="-1.69143">
        <ele>15</ele>
        <time>2014-04-08T12:40:15Z</time>
      </trkpt>
      <trkpt lat="47.18964" lon="-1.69165">
        <ele>14</ele>
        <time>2014-04-08T12:40:18Z</time>
      </trkpt>
      <trkpt lat="47.18987" lon="-1.69209">
        <ele>14</ele>
        <time>2014-04-08T12:40:24Z</time>
      </trkpt>
      <trkpt lat="47.18995" lon="-1.69241">
        <ele>15</ele>
        <time>2014-04-08T12:40:28Z</time>
      </trkpt>
      <trkpt lat="47.18998" lon="-1.69249">
        <ele>14</ele>
        <time>2014-04-08T12:40:29Z</time>
      </trkpt>
      <trkpt lat="47.19019" lon="-1.69301">
        <ele>16</ele>
        <time>2014-04-08T12:40:35Z</time>
      </trkpt>
      <trkpt lat="47.19041" lon="-1.6934">
        <ele>17</ele>
        <time>2014-04-08T12:40:40Z</time>
      </trkpt>
      <trkpt lat="47.19066" lon="-1.69381">
        <ele>17</ele>
        <time>2014-04-08T12:40:44Z</time>
      </trkpt>
      <trkpt lat="47.19081" lon="-1.69405">
        <ele>17</ele>
        <time>2014-04-08T12:40:47Z</time>
      </trkpt>
      <trkpt lat="47.19108" lon="-1.69446">
        <ele>12</ele>
        <time>2014-04-08T12:40:51Z</time>
      </trkpt>
      <trkpt lat="47.19131" lon="-1.69486">
        <ele>8</ele>
        <time>2014-04-08T12:40:55Z</time>
      </trkpt>
      <trkpt lat="47.19152" lon="-1.69516">
        <ele>7</ele>
        <time>2014-04-08T12:40:58Z</time>
      </trkpt>
      <trkpt lat="47.19184" lon="-1.69562">
        <ele>6</ele>
        <time>2014-04-08T12:41:03Z</time>
      </trkpt>
      <trkpt lat="47.19213" lon="-1.69591">
        <ele>5</ele>
        <time>2014-04-08T12:41:08Z</time>
      </trkpt>
      <trkpt lat="47.19218" lon="-1.69609">
        <ele>3</ele>
        <time>2014-04-08T12:41:10Z</time>
      </trkpt>
      <trkpt lat="47.19213" lon="-1.69665">
        <ele>2</ele>
        <time>2014-04-08T12:41:15Z</time>
      </trkpt>
      <trkpt lat="47.19209" lon="-1.69711">
        <ele>-1</ele>
        <time>2014-04-08T12:41:19Z</time>
      </trkpt>
      <trkpt lat="47.19203" lon="-1.69765">
        <ele>-2</ele>
        <time>2014-04-08T12:41:24Z</time>
      </trkpt>
      <trkpt lat="47.192" lon="-1.69797">
        <ele>-3</ele>
        <time>2014-04-08T12:41:27Z</time>
      </trkpt>
      <trkpt lat="47.19197" lon="-1.69838">
        <ele>9.4</ele>
        <time>2014-04-08T12:41:31Z</time>
      </trkpt>
      <trkpt lat="47.19189" lon="-1.69888">
        <ele>2</ele>
        <time>2014-04-08T12:41:36Z</time>
      </trkpt>
      <trkpt lat="47.19184" lon="-1.69918">
        <ele>2</ele>
        <time>2014-04-08T12:41:39Z</time>
      </trkpt>
      <trkpt lat="47.19175" lon="-1.69959">
        <ele>3</ele>
        <time>2014-04-08T12:41:43Z</time>
      </trkpt>
      <trkpt lat="47.19157" lon="-1.69995">
        <ele>6</ele>
        <time>2014-04-08T12:41:47Z</time>
      </trkpt>
      <trkpt lat="47.19143" lon="-1.70018">
        <ele>6</ele>
        <time>2014-04-08T12:41:50Z</time>
      </trkpt>
      <trkpt lat="47.19121" lon="-1.70057">
        <ele>5</ele>
        <time>2014-04-08T12:41:55Z</time>
      </trkpt>
      <trkpt lat="47.19106" lon="-1.70089">
        <ele>8</ele>
        <time>2014-04-08T12:41:59Z</time>
      </trkpt>
      <trkpt lat="47.19087" lon="-1.70117">
        <ele>13</ele>
        <time>2014-04-08T12:42:03Z</time>
      </trkpt>
      <trkpt lat="47.19068" lon="-1.7016">
        <ele>14</ele>
        <time>2014-04-08T12:42:08Z</time>
      </trkpt>
      <trkpt lat="47.19067" lon="-1.70182">
        <ele>13</ele>
        <time>2014-04-08T12:42:10Z</time>
      </trkpt>
      <trkpt lat="47.19069" lon="-1.7023">
        <ele>13</ele>
        <time>2014-04-08T12:42:15Z</time>
      </trkpt>
      <trkpt lat="47.19072" lon="-1.70269">
        <ele>12</ele>
        <time>2014-04-08T12:42:19Z</time>
      </trkpt>
      <trkpt lat="47.19074" lon="-1.70287">
        <ele>14</ele>
        <time>2014-04-08T12:42:21Z</time>
      </trkpt>
      <trkpt lat="47.19075" lon="-1.70332">
        <ele>16</ele>
        <time>2014-04-08T12:42:27Z</time>
      </trkpt>
      <trkpt lat="47.19075" lon="-1.70363">
        <ele>17</ele>
        <time>2014-04-08T12:42:31Z</time>
      </trkpt>
      <trkpt lat="47.19076" lon="-1.70391">
        <ele>16</ele>
        <time>2014-04-08T12:42:35Z</time>
      </trkpt>
      <trkpt lat="47.19082" lon="-1.70417">
        <ele>18</ele>
        <time>2014-04-08T12:42:39Z</time>
      </trkpt>
      <trkpt lat="47.19089" lon="-1.7044">
        <ele>18</ele>
        <time>2014-04-08T12:42:43Z</time>
      </trkpt>
      <trkpt lat="47.19094" lon="-1.70465">
        <ele>17</ele>
        <time>2014-04-08T12:42:47Z</time>
      </trkpt>
      <trkpt lat="47.19101" lon="-1.70485">
        <ele>16</ele>
        <time>2014-04-08T12:42:50Z</time>
      </trkpt>
      <trkpt lat="47.19105" lon="-1.70521">
        <ele>17</ele>
        <time>2014-04-08T12:42:56Z</time>
      </trkpt>
      <trkpt lat="47.19108" lon="-1.70552">
        <ele>18</ele>
        <time>2014-04-08T12:43:00Z</time>
      </trkpt>
      <trkpt lat="47.19109" lon="-1.70573">
        <ele>17</ele>
        <time>2014-04-08T12:43:03Z</time>
      </trkpt>
      <trkpt lat="47.19111" lon="-1.70602">
        <ele>18</ele>
        <time>2014-04-08T12:43:07Z</time>
      </trkpt>
      <trkpt lat="47.19115" lon="-1.70632">
        <ele>21</ele>
        <time>2014-04-08T12:43:11Z</time>
      </trkpt>
      <trkpt lat="47.1912" lon="-1.7066">
        <ele>22</ele>
        <time>2014-04-08T12:43:15Z</time>
      </trkpt>
      <trkpt lat="47.19128" lon="-1.70698">
        <ele>22</ele>
        <time>2014-04-08T12:43:20Z</time>
      </trkpt>
      <trkpt lat="47.19133" lon="-1.70731">
        <ele>23</ele>
        <time>2014-04-08T12:43:24Z</time>
      </trkpt>
      <trkpt lat="47.1914" lon="-1.70756">
        <ele>23</ele>
        <time>2014-04-08T12:43:27Z</time>
      </trkpt>
      <trkpt lat="47.19137" lon="-1.70796">
        <ele>20</ele>
        <time>2014-04-08T12:43:32Z</time>
      </trkpt>
      <trkpt lat="47.19138" lon="-1.70828">
        <ele>19</ele>
        <time>2014-04-08T12:43:36Z</time>
      </trkpt>
      <trkpt lat="47.19138" lon="-1.70869">
        <ele>21</ele>
        <time>2014-04-08T12:43:41Z</time>
      </trkpt>
      <trkpt lat="47.19139" lon="-1.70905">
        <ele>21</ele>
        <time>2014-04-08T12:43:45Z</time>
      </trkpt>
      <trkpt lat="47.19136" lon="-1.70931">
        <ele>24</ele>
        <time>2014-04-08T12:43:48Z</time>
      </trkpt>
      <trkpt lat="47.19134" lon="-1.70957">
        <ele>23</ele>
        <time>2014-04-08T12:43:51Z</time>
      </trkpt>
      <trkpt lat="47.19131" lon="-1.71013">
        <ele>22</ele>
        <time>2014-04-08T12:43:57Z</time>
      </trkpt>
      <trkpt lat="47.19133" lon="-1.71048">
        <ele>24</ele>
        <time>2014-04-08T12:44:01Z</time>
      </trkpt>
      <trkpt lat="47.19135" lon="-1.71072">
        <ele>26</ele>
        <time>2014-04-08T12:44:04Z</time>
      </trkpt>
      <trkpt lat="47.19138" lon="-1.711">
        <ele>25</ele>
        <time>2014-04-08T12:44:08Z</time>
      </trkpt>
      <trkpt lat="47.1914" lon="-1.71121">
        <ele>27</ele>
        <time>2014-04-08T12:44:14Z</time>
      </trkpt>
      <trkpt lat="47.19141" lon="-1.71136">
        <ele>23</ele>
        <time>2014-04-08T12:44:31Z</time>
      </trkpt>
      <trkpt lat="47.19137" lon="-1.71158">
        <ele>23</ele>
        <time>2014-04-08T12:44:36Z</time>
      </trkpt>
      <trkpt lat="47.19145" lon="-1.71196">
        <ele>22</ele>
        <time>2014-04-08T12:44:40Z</time>
      </trkpt>
      <trkpt lat="47.19152" lon="-1.71241">
        <ele>21</ele>
        <time>2014-04-08T12:44:44Z</time>
      </trkpt>
      <trkpt lat="47.19155" lon="-1.71275">
        <ele>22</ele>
        <time>2014-04-08T12:44:47Z</time>
      </trkpt>
      <trkpt lat="47.19167" lon="-1.71335">
        <ele>23</ele>
        <time>2014-04-08T12:44:52Z</time>
      </trkpt>
      <trkpt lat="47.19175" lon="-1.71377">
        <ele>22</ele>
        <time>2014-04-08T12:44:56Z</time>
      </trkpt>
      <trkpt lat="47.19188" lon="-1.71419">
        <ele>24</ele>
        <time>2014-04-08T12:45:00Z</time>
      </trkpt>
      <trkpt lat="47.19201" lon="-1.71469">
        <ele>24</ele>
        <time>2014-04-08T12:45:05Z</time>
      </trkpt>
      <trkpt lat="47.19209" lon="-1.715">
        <ele>24</ele>
        <time>2014-04-08T12:45:08Z</time>
      </trkpt>
      <trkpt lat="47.19221" lon="-1.71538">
        <ele>23</ele>
        <time>2014-04-08T12:45:12Z</time>
      </trkpt>
      <trkpt lat="47.19226" lon="-1.71551">
        <ele>21</ele>
        <time>2014-04-08T12:45:14Z</time>
      </trkpt>
      <trkpt lat="47.19239" lon="-1.71585">
        <ele>19</ele>
        <time>2014-04-08T12:45:19Z</time>
      </trkpt>
      <trkpt lat="47.19252" lon="-1.71633">
        <ele>17</ele>
        <time>2014-04-08T12:45:24Z</time>
      </trkpt>
      <trkpt lat="47.19266" lon="-1.71674">
        <ele>15</ele>
        <time>2014-04-08T12:45:28Z</time>
      </trkpt>
      <trkpt lat="47.1928" lon="-1.71714">
        <ele>15</ele>
        <time>2014-04-08T12:45:32Z</time>
      </trkpt>
      <trkpt lat="47.19294" lon="-1.71756">
        <ele>15</ele>
        <time>2014-04-08T12:45:36Z</time>
      </trkpt>
      <trkpt lat="47.19304" lon="-1.7179">
        <ele>13</ele>
        <time>2014-04-08T12:45:39Z</time>
      </trkpt>
      <trkpt lat="47.19321" lon="-1.71843">
        <ele>13</ele>
        <time>2014-04-08T12:45:44Z</time>
      </trkpt>
      <trkpt lat="47.19335" lon="-1.71888">
        <ele>12</ele>
        <time>2014-04-08T12:45:48Z</time>
      </trkpt>
      <trkpt lat="47.19346" lon="-1.71919">
        <ele>12</ele>
        <time>2014-04-08T12:45:51Z</time>
      </trkpt>
      <trkpt lat="47.19368" lon="-1.71976">
        <ele>10</ele>
        <time>2014-04-08T12:45:56Z</time>
      </trkpt>
      <trkpt lat="47.19386" lon="-1.72025">
        <ele>9</ele>
        <time>2014-04-08T12:46:00Z</time>
      </trkpt>
      <trkpt lat="47.19411" lon="-1.72082">
        <ele>6</ele>
        <time>2014-04-08T12:46:05Z</time>
      </trkpt>
      <trkpt lat="47.1943" lon="-1.72122">
        <ele>8</ele>
        <time>2014-04-08T12:46:09Z</time>
      </trkpt>
      <trkpt lat="47.19442" lon="-1.72161">
        <ele>11</ele>
        <time>2014-04-08T12:46:13Z</time>
      </trkpt>
      <trkpt lat="47.19455" lon="-1.722">
        <ele>11</ele>
        <time>2014-04-08T12:46:17Z</time>
      </trkpt>
      <trkpt lat="47.19469" lon="-1.7224">
        <ele>12</ele>
        <time>2014-04-08T12:46:21Z</time>
      </trkpt>
      <trkpt lat="47.19483" lon="-1.72274">
        <ele>12</ele>
        <time>2014-04-08T12:46:25Z</time>
      </trkpt>
      <trkpt lat="47.19505" lon="-1.72313">
        <ele>13</ele>
        <time>2014-04-08T12:46:30Z</time>
      </trkpt>
      <trkpt lat="47.19521" lon="-1.72344">
        <ele>12</ele>
        <time>2014-04-08T12:46:34Z</time>
      </trkpt>
      <trkpt lat="47.19533" lon="-1.72356">
        <ele>12</ele>
        <time>2014-04-08T12:46:36Z</time>
      </trkpt>
      <trkpt lat="47.19566" lon="-1.72384">
        <ele>13</ele>
        <time>2014-04-08T12:46:41Z</time>
      </trkpt>
      <trkpt lat="47.1959" lon="-1.72405">
        <ele>12</ele>
        <time>2014-04-08T12:46:45Z</time>
      </trkpt>
      <trkpt lat="47.19598" lon="-1.7244">
        <ele>13</ele>
        <time>2014-04-08T12:46:49Z</time>
      </trkpt>
      <trkpt lat="47.19592" lon="-1.72487">
        <ele>14</ele>
        <time>2014-04-08T12:46:54Z</time>
      </trkpt>
      <trkpt lat="47.1959" lon="-1.7252">
        <ele>11</ele>
        <time>2014-04-08T12:46:57Z</time>
      </trkpt>
      <trkpt lat="47.19582" lon="-1.72559">
        <ele>11</ele>
        <time>2014-04-08T12:47:01Z</time>
      </trkpt>
      <trkpt lat="47.19564" lon="-1.72603">
        <ele>9</ele>
        <time>2014-04-08T12:47:05Z</time>
      </trkpt>
      <trkpt lat="47.19552" lon="-1.72655">
        <ele>4</ele>
        <time>2014-04-08T12:47:09Z</time>
      </trkpt>
      <trkpt lat="47.19538" lon="-1.72725">
        <ele>1</ele>
        <time>2014-04-08T12:47:14Z</time>
      </trkpt>
      <trkpt lat="47.19537" lon="-1.72774">
        <ele>1</ele>
        <time>2014-04-08T12:47:17Z</time>
      </trkpt>
      <trkpt lat="47.19544" lon="-1.72841">
        <ele>5.4</ele>
        <time>2014-04-08T12:47:21Z</time>
      </trkpt>
      <trkpt lat="47.1955" lon="-1.72917">
        <ele>2</ele>
        <time>2014-04-08T12:47:26Z</time>
      </trkpt>
      <trkpt lat="47.19548" lon="-1.72958">
        <ele>2</ele>
        <time>2014-04-08T12:47:29Z</time>
      </trkpt>
      <trkpt lat="47.19546" lon="-1.7301">
        <ele>1</ele>
        <time>2014-04-08T12:47:33Z</time>
      </trkpt>
      <trkpt lat="47.19546" lon="-1.73073">
        <ele>5</ele>
        <time>2014-04-08T12:47:38Z</time>
      </trkpt>
      <trkpt lat="47.19548" lon="-1.73099">
        <ele>5</ele>
        <time>2014-04-08T12:47:40Z</time>
      </trkpt>
      <trkpt lat="47.19548" lon="-1.73134">
        <ele>4</ele>
        <time>2014-04-08T12:47:43Z</time>
      </trkpt>
      <trkpt lat="47.19548" lon="-1.7318">
        <ele>5</ele>
        <time>2014-04-08T12:47:47Z</time>
      </trkpt>
      <trkpt lat="47.19551" lon="-1.73252">
        <ele>5</ele>
        <time>2014-04-08T12:47:55Z</time>
      </trkpt>
      <trkpt lat="47.19557" lon="-1.73279">
        <ele>3</ele>
        <time>2014-04-08T12:47:58Z</time>
      </trkpt>
      <trkpt lat="47.1956" lon="-1.73308">
        <ele>3</ele>
        <time>2014-04-08T12:48:01Z</time>
      </trkpt>
      <trkpt lat="47.19563" lon="-1.73341">
        <ele>3</ele>
        <time>2014-04-08T12:48:06Z</time>
      </trkpt>
      <trkpt lat="47.19563" lon="-1.73354">
        <ele>3</ele>
        <time>2014-04-08T12:48:08Z</time>
      </trkpt>
      <trkpt lat="47.19567" lon="-1.73396">
        <ele>2</ele>
        <time>2014-04-08T12:48:14Z</time>
      </trkpt>
      <trkpt lat="47.1957" lon="-1.73406">
        <ele>1</ele>
        <time>2014-04-08T12:48:16Z</time>
      </trkpt>
      <trkpt lat="47.19576" lon="-1.73438">
        <ele>4</ele>
        <time>2014-04-08T12:48:22Z</time>
      </trkpt>
      <trkpt lat="47.1958" lon="-1.73459">
        <ele>5</ele>
        <time>2014-04-08T12:48:26Z</time>
      </trkpt>
      <trkpt lat="47.1959" lon="-1.73487">
        <ele>3</ele>
        <time>2014-04-08T12:48:31Z</time>
      </trkpt>
      <trkpt lat="47.19598" lon="-1.73501">
        <ele>3</ele>
        <time>2014-04-08T12:48:34Z</time>
      </trkpt>
      <trkpt lat="47.19608" lon="-1.73526">
        <ele>5</ele>
        <time>2014-04-08T12:48:39Z</time>
      </trkpt>
      <trkpt lat="47.19613" lon="-1.73545">
        <ele>7</ele>
        <time>2014-04-08T12:48:42Z</time>
      </trkpt>
      <trkpt lat="47.19618" lon="-1.73571">
        <ele>7</ele>
        <time>2014-04-08T12:48:46Z</time>
      </trkpt>
      <trkpt lat="47.19623" lon="-1.73601">
        <ele>7</ele>
        <time>2014-04-08T12:48:50Z</time>
      </trkpt>
      <trkpt lat="47.19624" lon="-1.73632">
        <ele>7</ele>
        <time>2014-04-08T12:48:54Z</time>
      </trkpt>
      <trkpt lat="47.19629" lon="-1.73662">
        <ele>9</ele>
        <time>2014-04-08T12:48:58Z</time>
      </trkpt>
      <trkpt lat="47.19626" lon="-1.73689">
        <ele>11</ele>
        <time>2014-04-08T12:49:02Z</time>
      </trkpt>
      <trkpt lat="47.19624" lon="-1.73723">
        <ele>11</ele>
        <time>2014-04-08T12:49:06Z</time>
      </trkpt>
      <trkpt lat="47.19624" lon="-1.73756">
        <ele>12</ele>
        <time>2014-04-08T12:49:10Z</time>
      </trkpt>
      <trkpt lat="47.19621" lon="-1.73791">
        <ele>10</ele>
        <time>2014-04-08T12:49:14Z</time>
      </trkpt>
      <trkpt lat="47.19613" lon="-1.73831">
        <ele>9</ele>
        <time>2014-04-08T12:49:18Z</time>
      </trkpt>
      <trkpt lat="47.19607" lon="-1.7387">
        <ele>12</ele>
        <time>2014-04-08T12:49:22Z</time>
      </trkpt>
      <trkpt lat="47.19599" lon="-1.73916">
        <ele>10</ele>
        <time>2014-04-08T12:49:26Z</time>
      </trkpt>
      <trkpt lat="47.19589" lon="-1.73968">
        <ele>9</ele>
        <time>2014-04-08T12:49:31Z</time>
      </trkpt>
      <trkpt lat="47.19588" lon="-1.74001">
        <ele>9</ele>
        <time>2014-04-08T12:49:34Z</time>
      </trkpt>
      <trkpt lat="47.19592" lon="-1.74044">
        <ele>8</ele>
        <time>2014-04-08T12:49:38Z</time>
      </trkpt>
      <trkpt lat="47.19599" lon="-1.74086">
        <ele>8</ele>
        <time>2014-04-08T12:49:42Z</time>
      </trkpt>
      <trkpt lat="47.19607" lon="-1.7414">
        <ele>7</ele>
        <time>2014-04-08T12:49:47Z</time>
      </trkpt>
      <trkpt lat="47.19611" lon="-1.74173">
        <ele>8</ele>
        <time>2014-04-08T12:49:50Z</time>
      </trkpt>
      <trkpt lat="47.19618" lon="-1.74215">
        <ele>8</ele>
        <time>2014-04-08T12:49:54Z</time>
      </trkpt>
      <trkpt lat="47.19625" lon="-1.74257">
        <ele>8</ele>
        <time>2014-04-08T12:49:58Z</time>
      </trkpt>
      <trkpt lat="47.19636" lon="-1.74305">
        <ele>11</ele>
        <time>2014-04-08T12:50:03Z</time>
      </trkpt>
      <trkpt lat="47.19649" lon="-1.74345">
        <ele>11</ele>
        <time>2014-04-08T12:50:07Z</time>
      </trkpt>
      <trkpt lat="47.19662" lon="-1.74389">
        <ele>13</ele>
        <time>2014-04-08T12:50:11Z</time>
      </trkpt>
      <trkpt lat="47.19675" lon="-1.74429">
        <ele>14</ele>
        <time>2014-04-08T12:50:15Z</time>
      </trkpt>
      <trkpt lat="47.19689" lon="-1.74471">
        <ele>14</ele>
        <time>2014-04-08T12:50:19Z</time>
      </trkpt>
      <trkpt lat="47.19703" lon="-1.74508">
        <ele>15</ele>
        <time>2014-04-08T12:50:23Z</time>
      </trkpt>
      <trkpt lat="47.1972" lon="-1.74546">
        <ele>14</ele>
        <time>2014-04-08T12:50:27Z</time>
      </trkpt>
      <trkpt lat="47.19736" lon="-1.74586">
        <ele>15</ele>
        <time>2014-04-08T12:50:31Z</time>
      </trkpt>
      <trkpt lat="47.19754" lon="-1.74625">
        <ele>14</ele>
        <time>2014-04-08T12:50:35Z</time>
      </trkpt>
      <trkpt lat="47.19767" lon="-1.74653">
        <ele>12</ele>
        <time>2014-04-08T12:50:38Z</time>
      </trkpt>
      <trkpt lat="47.19781" lon="-1.74701">
        <ele>12</ele>
        <time>2014-04-08T12:50:43Z</time>
      </trkpt>
      <trkpt lat="47.19791" lon="-1.74746">
        <ele>11</ele>
        <time>2014-04-08T12:50:47Z</time>
      </trkpt>
      <trkpt lat="47.19794" lon="-1.7477">
        <ele>11</ele>
        <time>2014-04-08T12:50:49Z</time>
      </trkpt>
      <trkpt lat="47.198" lon="-1.74829">
        <ele>9</ele>
        <time>2014-04-08T12:50:54Z</time>
      </trkpt>
      <trkpt lat="47.19814" lon="-1.74899">
        <ele>7</ele>
        <time>2014-04-08T12:50:59Z</time>
      </trkpt>
      <trkpt lat="47.19821" lon="-1.74948">
        <ele>9</ele>
        <time>2014-04-08T12:51:03Z</time>
      </trkpt>
      <trkpt lat="47.19831" lon="-1.74999">
        <ele>10</ele>
        <time>2014-04-08T12:51:08Z</time>
      </trkpt>
      <trkpt lat="47.19834" lon="-1.75008">
        <ele>11</ele>
        <time>2014-04-08T12:51:09Z</time>
      </trkpt>
      <trkpt lat="47.19856" lon="-1.7506">
        <ele>11</ele>
        <time>2014-04-08T12:51:15Z</time>
      </trkpt>
      <trkpt lat="47.19874" lon="-1.75103">
        <ele>10</ele>
        <time>2014-04-08T12:51:20Z</time>
      </trkpt>
      <trkpt lat="47.19886" lon="-1.75134">
        <ele>11</ele>
        <time>2014-04-08T12:51:24Z</time>
      </trkpt>
      <trkpt lat="47.19897" lon="-1.7516">
        <ele>11</ele>
        <time>2014-04-08T12:51:27Z</time>
      </trkpt>
      <trkpt lat="47.19905" lon="-1.75179">
        <ele>11</ele>
        <time>2014-04-08T12:51:29Z</time>
      </trkpt>
      <trkpt lat="47.19923" lon="-1.75222">
        <ele>12</ele>
        <time>2014-04-08T12:51:34Z</time>
      </trkpt>
      <trkpt lat="47.19945" lon="-1.75282">
        <ele>10</ele>
        <time>2014-04-08T12:51:40Z</time>
      </trkpt>
      <trkpt lat="47.19953" lon="-1.75311">
        <ele>9</ele>
        <time>2014-04-08T12:51:43Z</time>
      </trkpt>
      <trkpt lat="47.19958" lon="-1.7533">
        <ele>9</ele>
        <time>2014-04-08T12:51:45Z</time>
      </trkpt>
      <trkpt lat="47.19962" lon="-1.75374">
        <ele>8</ele>
        <time>2014-04-08T12:51:49Z</time>
      </trkpt>
      <trkpt lat="47.19972" lon="-1.75435">
        <ele>6</ele>
        <time>2014-04-08T12:51:55Z</time>
      </trkpt>
      <trkpt lat="47.19975" lon="-1.7546">
        <ele>8</ele>
        <time>2014-04-08T12:51:57Z</time>
      </trkpt>
      <trkpt lat="47.19991" lon="-1.75524">
        <ele>10</ele>
        <time>2014-04-08T12:52:04Z</time>
      </trkpt>
      <trkpt lat="47.19999" lon="-1.75541">
        <ele>11</ele>
        <time>2014-04-08T12:52:06Z</time>
      </trkpt>
      <trkpt lat="47.20016" lon="-1.75605">
        <ele>10</ele>
        <time>2014-04-08T12:52:12Z</time>
      </trkpt>
      <trkpt lat="47.20027" lon="-1.75646">
        <ele>10</ele>
        <time>2014-04-08T12:52:16Z</time>
      </trkpt>
      <trkpt lat="47.20034" lon="-1.75679">
        <ele>11</ele>
        <time>2014-04-08T12:52:19Z</time>
      </trkpt>
      <trkpt lat="47.20041" lon="-1.75704">
        <ele>11</ele>
        <time>2014-04-08T12:52:21Z</time>
      </trkpt>
      <trkpt lat="47.20051" lon="-1.7578">
        <ele>10</ele>
        <time>2014-04-08T12:52:27Z</time>
      </trkpt>
      <trkpt lat="47.20052" lon="-1.75828">
        <ele>10</ele>
        <time>2014-04-08T12:52:31Z</time>
      </trkpt>
      <trkpt lat="47.20052" lon="-1.75851">
        <ele>9</ele>
        <time>2014-04-08T12:52:33Z</time>
      </trkpt>
      <trkpt lat="47.20056" lon="-1.75938">
        <ele>4</ele>
        <time>2014-04-08T12:52:41Z</time>
      </trkpt>
      <trkpt lat="47.20059" lon="-1.75967">
        <ele>5</ele>
        <time>2014-04-08T12:52:44Z</time>
      </trkpt>
      <trkpt lat="47.20062" lon="-1.76024">
        <ele>3</ele>
        <time>2014-04-08T12:52:49Z</time>
      </trkpt>
      <trkpt lat="47.20062" lon="-1.76057">
        <ele>4</ele>
        <time>2014-04-08T12:52:52Z</time>
      </trkpt>
      <trkpt lat="47.20065" lon="-1.76111">
        <ele>8</ele>
        <time>2014-04-08T12:52:57Z</time>
      </trkpt>
      <trkpt lat="47.20065" lon="-1.76144">
        <ele>7</ele>
        <time>2014-04-08T12:53:00Z</time>
      </trkpt>
      <trkpt lat="47.20065" lon="-1.76183">
        <ele>6</ele>
        <time>2014-04-08T12:53:04Z</time>
      </trkpt>
      <trkpt lat="47.20064" lon="-1.76222">
        <ele>6</ele>
        <time>2014-04-08T12:53:08Z</time>
      </trkpt>
      <trkpt lat="47.20062" lon="-1.76271">
        <ele>6</ele>
        <time>2014-04-08T12:53:13Z</time>
      </trkpt>
      <trkpt lat="47.20059" lon="-1.76303">
        <ele>6</ele>
        <time>2014-04-08T12:53:16Z</time>
      </trkpt>
      <trkpt lat="47.20054" lon="-1.76344">
        <ele>5</ele>
        <time>2014-04-08T12:53:20Z</time>
      </trkpt>
      <trkpt lat="47.20052" lon="-1.76385">
        <ele>7</ele>
        <time>2014-04-08T12:53:24Z</time>
      </trkpt>
      <trkpt lat="47.20048" lon="-1.76437">
        <ele>7</ele>
        <time>2014-04-08T12:53:29Z</time>
      </trkpt>
      <trkpt lat="47.20046" lon="-1.76467">
        <ele>7</ele>
        <time>2014-04-08T12:53:32Z</time>
      </trkpt>
      <trkpt lat="47.20044" lon="-1.76505">
        <ele>8</ele>
        <time>2014-04-08T12:53:36Z</time>
      </trkpt>
      <trkpt lat="47.20042" lon="-1.76541">
        <ele>9</ele>
        <time>2014-04-08T12:53:40Z</time>
      </trkpt>
      <trkpt lat="47.20042" lon="-1.76559">
        <ele>9</ele>
        <time>2014-04-08T12:53:42Z</time>
      </trkpt>
      <trkpt lat="47.20039" lon="-1.76624">
        <ele>9</ele>
        <time>2014-04-08T12:53:48Z</time>
      </trkpt>
      <trkpt lat="47.20039" lon="-1.76666">
        <ele>9</ele>
        <time>2014-04-08T12:53:52Z</time>
      </trkpt>
      <trkpt lat="47.2004" lon="-1.76685">
        <ele>7</ele>
        <time>2014-04-08T12:53:54Z</time>
      </trkpt>
      <trkpt lat="47.20037" lon="-1.76743">
        <ele>7</ele>
        <time>2014-04-08T12:54:00Z</time>
      </trkpt>
      <trkpt lat="47.20035" lon="-1.76782">
        <ele>7</ele>
        <time>2014-04-08T12:54:04Z</time>
      </trkpt>
      <trkpt lat="47.20033" lon="-1.7682">
        <ele>9</ele>
        <time>2014-04-08T12:54:08Z</time>
      </trkpt>
      <trkpt lat="47.20032" lon="-1.76868">
        <ele>8</ele>
        <time>2014-04-08T12:54:13Z</time>
      </trkpt>
      <trkpt lat="47.20029" lon="-1.76886">
        <ele>10</ele>
        <time>2014-04-08T12:54:15Z</time>
      </trkpt>
      <trkpt lat="47.20027" lon="-1.76918">
        <ele>10</ele>
        <time>2014-04-08T12:54:18Z</time>
      </trkpt>
      <trkpt lat="47.20028" lon="-1.76962">
        <ele>9</ele>
        <time>2014-04-08T12:54:22Z</time>
      </trkpt>
      <trkpt lat="47.20028" lon="-1.77015">
        <ele>8</ele>
        <time>2014-04-08T12:54:27Z</time>
      </trkpt>
      <trkpt lat="47.20032" lon="-1.77066">
        <ele>7</ele>
        <time>2014-04-08T12:54:32Z</time>
      </trkpt>
      <trkpt lat="47.20033" lon="-1.77088">
        <ele>7</ele>
        <time>2014-04-08T12:54:34Z</time>
      </trkpt>
      <trkpt lat="47.20028" lon="-1.77159">
        <ele>6</ele>
        <time>2014-04-08T12:54:41Z</time>
      </trkpt>
      <trkpt lat="47.20027" lon="-1.77168">
        <ele>5</ele>
        <time>2014-04-08T12:54:42Z</time>
      </trkpt>
      <trkpt lat="47.20025" lon="-1.77233">
        <ele>6</ele>
        <time>2014-04-08T12:54:48Z</time>
      </trkpt>
      <trkpt lat="47.20025" lon="-1.77287">
        <ele>6</ele>
        <time>2014-04-08T12:54:53Z</time>
      </trkpt>
      <trkpt lat="47.20024" lon="-1.77318">
        <ele>6</ele>
        <time>2014-04-08T12:54:56Z</time>
      </trkpt>
      <trkpt lat="47.20023" lon="-1.77358">
        <ele>7</ele>
        <time>2014-04-08T12:55:00Z</time>
      </trkpt>
      <trkpt lat="47.20024" lon="-1.77386">
        <ele>6</ele>
        <time>2014-04-08T12:55:03Z</time>
      </trkpt>
      <trkpt lat="47.20024" lon="-1.77437">
        <ele>8</ele>
        <time>2014-04-08T12:55:08Z</time>
      </trkpt>
      <trkpt lat="47.20023" lon="-1.77475">
        <ele>9</ele>
        <time>2014-04-08T12:55:12Z</time>
      </trkpt>
      <trkpt lat="47.20021" lon="-1.77524">
        <ele>9</ele>
        <time>2014-04-08T12:55:17Z</time>
      </trkpt>
      <trkpt lat="47.2002" lon="-1.77554">
        <ele>8</ele>
        <time>2014-04-08T12:55:20Z</time>
      </trkpt>
      <trkpt lat="47.20023" lon="-1.77593">
        <ele>6</ele>
        <time>2014-04-08T12:55:24Z</time>
      </trkpt>
      <trkpt lat="47.20024" lon="-1.77639">
        <ele>5</ele>
        <time>2014-04-08T12:55:28Z</time>
      </trkpt>
      <trkpt lat="47.20026" lon="-1.77659">
        <ele>5</ele>
        <time>2014-04-08T12:55:30Z</time>
      </trkpt>
      <trkpt lat="47.20027" lon="-1.77747">
        <ele>4</ele>
        <time>2014-04-08T12:55:37Z</time>
      </trkpt>
      <trkpt lat="47.20003" lon="-1.77788">
        <ele>2</ele>
        <time>2014-04-08T12:55:41Z</time>
      </trkpt>
      <trkpt lat="47.19977" lon="-1.77816">
        <ele>4.9</ele>
        <time>2014-04-08T12:55:44Z</time>
      </trkpt>
      <trkpt lat="47.19946" lon="-1.77846">
        <ele>-1</ele>
        <time>2014-04-08T12:55:48Z</time>
      </trkpt>
      <trkpt lat="47.19914" lon="-1.7788">
        <ele>7.1</ele>
        <time>2014-04-08T12:55:52Z</time>
      </trkpt>
      <trkpt lat="47.199" lon="-1.77893">
        <ele>2</ele>
        <time>2014-04-08T12:55:54Z</time>
      </trkpt>
      <trkpt lat="47.19877" lon="-1.77925">
        <ele>7.7</ele>
        <time>2014-04-08T12:55:58Z</time>
      </trkpt>
      <trkpt lat="47.19845" lon="-1.7797">
        <ele>-1</ele>
        <time>2014-04-08T12:56:04Z</time>
      </trkpt>
      <trkpt lat="47.19824" lon="-1.78">
        <ele>-2</ele>
        <time>2014-04-08T12:56:08Z</time>
      </trkpt>
      <trkpt lat="47.19806" lon="-1.78031">
        <ele>-2</ele>
        <time>2014-04-08T12:56:12Z</time>
      </trkpt>
      <trkpt lat="47.19798" lon="-1.78046">
        <ele>-2</ele>
        <time>2014-04-08T12:56:14Z</time>
      </trkpt>
      <trkpt lat="47.19768" lon="-1.78102">
        <ele>1</ele>
        <time>2014-04-08T12:56:22Z</time>
      </trkpt>
      <trkpt lat="47.1976" lon="-1.78126">
        <ele>13</ele>
        <time>2014-04-08T12:56:25Z</time>
      </trkpt>
      <trkpt lat="47.19748" lon="-1.7816">
        <ele>1</ele>
        <time>2014-04-08T12:56:29Z</time>
      </trkpt>
      <trkpt lat="47.19738" lon="-1.78191">
        <ele>5</ele>
        <time>2014-04-08T12:56:33Z</time>
      </trkpt>
      <trkpt lat="47.19727" lon="-1.78215">
        <ele>5</ele>
        <time>2014-04-08T12:56:36Z</time>
      </trkpt>
      <trkpt lat="47.19723" lon="-1.78258">
        <ele>5</ele>
        <time>2014-04-08T12:56:41Z</time>
      </trkpt>
      <trkpt lat="47.19725" lon="-1.78285">
        <ele>4</ele>
        <time>2014-04-08T12:56:44Z</time>
      </trkpt>
      <trkpt lat="47.19735" lon="-1.78334">
        <ele>4</ele>
        <time>2014-04-08T12:56:49Z</time>
      </trkpt>
      <trkpt lat="47.1974" lon="-1.78372">
        <ele>5</ele>
        <time>2014-04-08T12:56:53Z</time>
      </trkpt>
      <trkpt lat="47.1974" lon="-1.78392">
        <ele>5</ele>
        <time>2014-04-08T12:56:55Z</time>
      </trkpt>
      <trkpt lat="47.19733" lon="-1.78447">
        <ele>5</ele>
        <time>2014-04-08T12:57:00Z</time>
      </trkpt>
      <trkpt lat="47.1972" lon="-1.78512">
        <ele>3</ele>
        <time>2014-04-08T12:57:06Z</time>
      </trkpt>
      <trkpt lat="47.19715" lon="-1.78551">
        <ele>3</ele>
        <time>2014-04-08T12:57:09Z</time>
      </trkpt>
      <trkpt lat="47.19708" lon="-1.78602">
        <ele>2</ele>
        <time>2014-04-08T12:57:13Z</time>
      </trkpt>
      <trkpt lat="47.197" lon="-1.78655">
        <ele>7.6</ele>
        <time>2014-04-08T12:57:17Z</time>
      </trkpt>
      <trkpt lat="47.19688" lon="-1.78712">
        <ele>5.5</ele>
        <time>2014-04-08T12:57:21Z</time>
      </trkpt>
      <trkpt lat="47.19682" lon="-1.78757">
        <ele>4.4</ele>
        <time>2014-04-08T12:57:24Z</time>
      </trkpt>
      <trkpt lat="47.19672" lon="-1.78812">
        <ele>-2</ele>
        <time>2014-04-08T12:57:28Z</time>
      </trkpt>
      <trkpt lat="47.19665" lon="-1.78879">
        <ele>-3</ele>
        <time>2014-04-08T12:57:33Z</time>
      </trkpt>
      <trkpt lat="47.19665" lon="-1.78933">
        <ele>-2</ele>
        <time>2014-04-08T12:57:37Z</time>
      </trkpt>
      <trkpt lat="47.19673" lon="-1.78985">
        <ele>-3</ele>
        <time>2014-04-08T12:57:41Z</time>
      </trkpt>
      <trkpt lat="47.1969" lon="-1.79029">
        <ele>3.2</ele>
        <time>2014-04-08T12:57:45Z</time>
      </trkpt>
      <trkpt lat="47.19706" lon="-1.79071">
        <ele>-2</ele>
        <time>2014-04-08T12:57:49Z</time>
      </trkpt>
      <trkpt lat="47.19725" lon="-1.7911">
        <ele>4</ele>
        <time>2014-04-08T12:57:53Z</time>
      </trkpt>
      <trkpt lat="47.19746" lon="-1.79155">
        <ele>4.7</ele>
        <time>2014-04-08T12:57:58Z</time>
      </trkpt>
      <trkpt lat="47.19755" lon="-1.79183">
        <ele>4.9</ele>
        <time>2014-04-08T12:58:01Z</time>
      </trkpt>
      <trkpt lat="47.19767" lon="-1.79219">
        <ele>-1</ele>
        <time>2014-04-08T12:58:05Z</time>
      </trkpt>
      <trkpt lat="47.19776" lon="-1.79248">
        <ele>-2</ele>
        <time>2014-04-08T12:58:08Z</time>
      </trkpt>
      <trkpt lat="47.19786" lon="-1.79278">
        <ele>6.3</ele>
        <time>2014-04-08T12:58:11Z</time>
      </trkpt>
      <trkpt lat="47.19808" lon="-1.79341">
        <ele>7.4</ele>
        <time>2014-04-08T12:58:18Z</time>
      </trkpt>
      <trkpt lat="47.19814" lon="-1.79368">
        <ele>8.6</ele>
        <time>2014-04-08T12:58:21Z</time>
      </trkpt>
      <trkpt lat="47.19817" lon="-1.79407">
        <ele>2</ele>
        <time>2014-04-08T12:58:26Z</time>
      </trkpt>
      <trkpt lat="47.19818" lon="-1.79433">
        <ele>3</ele>
        <time>2014-04-08T12:58:29Z</time>
      </trkpt>
      <trkpt lat="47.19822" lon="-1.79457">
        <ele>2</ele>
        <time>2014-04-08T12:58:32Z</time>
      </trkpt>
      <trkpt lat="47.19823" lon="-1.79501">
        <ele>3</ele>
        <time>2014-04-08T12:58:38Z</time>
      </trkpt>
      <trkpt lat="47.19823" lon="-1.79507">
        <ele>4</ele>
        <time>2014-04-08T12:58:39Z</time>
      </trkpt>
      <trkpt lat="47.19829" lon="-1.79555">
        <ele>8</ele>
        <time>2014-04-08T12:58:45Z</time>
      </trkpt>
      <trkpt lat="47.19833" lon="-1.79587">
        <ele>8</ele>
        <time>2014-04-08T12:58:49Z</time>
      </trkpt>
      <trkpt lat="47.19836" lon="-1.79619">
        <ele>9</ele>
        <time>2014-04-08T12:58:53Z</time>
      </trkpt>
      <trkpt lat="47.19837" lon="-1.79642">
        <ele>9</ele>
        <time>2014-04-08T12:58:56Z</time>
      </trkpt>
      <trkpt lat="47.19833" lon="-1.79677">
        <ele>9</ele>
        <time>2014-04-08T12:59:01Z</time>
      </trkpt>
      <trkpt lat="47.19831" lon="-1.79713">
        <ele>10</ele>
        <time>2014-04-08T12:59:06Z</time>
      </trkpt>
      <trkpt lat="47.19831" lon="-1.79742">
        <ele>11</ele>
        <time>2014-04-08T12:59:10Z</time>
      </trkpt>
      <trkpt lat="47.19832" lon="-1.79766">
        <ele>15</ele>
        <time>2014-04-08T12:59:13Z</time>
      </trkpt>
      <trkpt lat="47.1983" lon="-1.79798">
        <ele>14</ele>
        <time>2014-04-08T12:59:17Z</time>
      </trkpt>
      <trkpt lat="47.19833" lon="-1.79838">
        <ele>13</ele>
        <time>2014-04-08T12:59:22Z</time>
      </trkpt>
      <trkpt lat="47.19836" lon="-1.79862">
        <ele>13</ele>
        <time>2014-04-08T12:59:25Z</time>
      </trkpt>
      <trkpt lat="47.19843" lon="-1.79894">
        <ele>13</ele>
        <time>2014-04-08T12:59:29Z</time>
      </trkpt>
      <trkpt lat="47.19851" lon="-1.79923">
        <ele>15</ele>
        <time>2014-04-08T12:59:33Z</time>
      </trkpt>
      <trkpt lat="47.19858" lon="-1.79944">
        <ele>16</ele>
        <time>2014-04-08T12:59:36Z</time>
      </trkpt>
      <trkpt lat="47.19862" lon="-1.79976">
        <ele>14</ele>
        <time>2014-04-08T12:59:40Z</time>
      </trkpt>
      <trkpt lat="47.19868" lon="-1.80011">
        <ele>14</ele>
        <time>2014-04-08T12:59:44Z</time>
      </trkpt>
      <trkpt lat="47.19878" lon="-1.80059">
        <ele>15</ele>
        <time>2014-04-08T12:59:50Z</time>
      </trkpt>
      <trkpt lat="47.19883" lon="-1.80083">
        <ele>15</ele>
        <time>2014-04-08T12:59:53Z</time>
      </trkpt>
      <trkpt lat="47.1989" lon="-1.80122">
        <ele>16</ele>
        <time>2014-04-08T12:59:58Z</time>
      </trkpt>
      <trkpt lat="47.19893" lon="-1.80141">
        <ele>16</ele>
        <time>2014-04-08T13:00:00Z</time>
      </trkpt>
      <trkpt lat="47.19901" lon="-1.80175">
        <ele>16</ele>
        <time>2014-04-08T13:00:04Z</time>
      </trkpt>
      <trkpt lat="47.19917" lon="-1.80233">
        <ele>15</ele>
        <time>2014-04-08T13:00:10Z</time>
      </trkpt>
      <trkpt lat="47.1992" lon="-1.80278">
        <ele>16</ele>
        <time>2014-04-08T13:00:15Z</time>
      </trkpt>
      <trkpt lat="47.19926" lon="-1.8032">
        <ele>16</ele>
        <time>2014-04-08T13:00:19Z</time>
      </trkpt>
      <trkpt lat="47.19926" lon="-1.80331">
        <ele>16</ele>
        <time>2014-04-08T13:00:20Z</time>
      </trkpt>
      <trkpt lat="47.19926" lon="-1.80401">
        <ele>16</ele>
        <time>2014-04-08T13:00:27Z</time>
      </trkpt>
      <trkpt lat="47.19917" lon="-1.80442">
        <ele>15</ele>
        <time>2014-04-08T13:00:31Z</time>
      </trkpt>
      <trkpt lat="47.19908" lon="-1.8047">
        <ele>14</ele>
        <time>2014-04-08T13:00:34Z</time>
      </trkpt>
      <trkpt lat="47.19889" lon="-1.80507">
        <ele>12</ele>
        <time>2014-04-08T13:00:38Z</time>
      </trkpt>
      <trkpt lat="47.1988" lon="-1.80527">
        <ele>10</ele>
        <time>2014-04-08T13:00:40Z</time>
      </trkpt>
      <trkpt lat="47.19858" lon="-1.80604">
        <ele>9</ele>
        <time>2014-04-08T13:00:47Z</time>
      </trkpt>
      <trkpt lat="47.19852" lon="-1.80655">
        <ele>8</ele>
        <time>2014-04-08T13:00:51Z</time>
      </trkpt>
      <trkpt lat="47.19849" lon="-1.80682">
        <ele>8</ele>
        <time>2014-04-08T13:00:53Z</time>
      </trkpt>
      <trkpt lat="47.19838" lon="-1.80744">
        <ele>7</ele>
        <time>2014-04-08T13:00:58Z</time>
      </trkpt>
      <trkpt lat="47.19822" lon="-1.80792">
        <ele>5</ele>
        <time>2014-04-08T13:01:02Z</time>
      </trkpt>
      <trkpt lat="47.19814" lon="-1.80816">
        <ele>5</ele>
        <time>2014-04-08T13:01:04Z</time>
      </trkpt>
      <trkpt lat="47.19785" lon="-1.80897">
        <ele>4</ele>
        <time>2014-04-08T13:01:10Z</time>
      </trkpt>
      <trkpt lat="47.19771" lon="-1.80933">
        <ele>6</ele>
        <time>2014-04-08T13:01:13Z</time>
      </trkpt>
      <trkpt lat="47.19737" lon="-1.8099">
        <ele>4</ele>
        <time>2014-04-08T13:01:18Z</time>
      </trkpt>
      <trkpt lat="47.19719" lon="-1.81025">
        <ele>2</ele>
        <time>2014-04-08T13:01:21Z</time>
      </trkpt>
      <trkpt lat="47.19707" lon="-1.81093">
        <ele>1</ele>
        <time>2014-04-08T13:01:26Z</time>
      </trkpt>
      <trkpt lat="47.19712" lon="-1.81146">
        <ele>4.7</ele>
        <time>2014-04-08T13:01:30Z</time>
      </trkpt>
      <trkpt lat="47.19723" lon="-1.81198">
        <ele>2</ele>
        <time>2014-04-08T13:01:34Z</time>
      </trkpt>
      <trkpt lat="47.19734" lon="-1.81219">
        <ele>4.5</ele>
        <time>2014-04-08T13:01:36Z</time>
      </trkpt>
      <trkpt lat="47.19769" lon="-1.8128">
        <ele>5.7</ele>
        <time>2014-04-08T13:01:42Z</time>
      </trkpt>
      <trkpt lat="47.19787" lon="-1.8133">
        <ele>7.3</ele>
        <time>2014-04-08T13:01:47Z</time>
      </trkpt>
      <trkpt lat="47.19793" lon="-1.8135">
        <ele>2</ele>
        <time>2014-04-08T13:01:49Z</time>
      </trkpt>
      <trkpt lat="47.19801" lon="-1.81391">
        <ele>1</ele>
        <time>2014-04-08T13:01:54Z</time>
      </trkpt>
      <trkpt lat="47.19815" lon="-1.8143">
        <ele>2</ele>
        <time>2014-04-08T13:01:59Z</time>
      </trkpt>
      <trkpt lat="47.19823" lon="-1.81454">
        <ele>3</ele>
        <time>2014-04-08T13:02:02Z</time>
      </trkpt>
      <trkpt lat="47.19829" lon="-1.81467">
        <ele>3</ele>
        <time>2014-04-08T13:02:04Z</time>
      </trkpt>
      <trkpt lat="47.19841" lon="-1.81497">
        <ele>3</ele>
        <time>2014-04-08T13:02:08Z</time>
      </trkpt>
      <trkpt lat="47.19858" lon="-1.81547">
        <ele>3</ele>
        <time>2014-04-08T13:02:14Z</time>
      </trkpt>
      <trkpt lat="47.19874" lon="-1.81598">
        <ele>4</ele>
        <time>2014-04-08T13:02:19Z</time>
      </trkpt>
      <trkpt lat="47.1988" lon="-1.81625">
        <ele>4</ele>
        <time>2014-04-08T13:02:22Z</time>
      </trkpt>
      <trkpt lat="47.19883" lon="-1.81653">
        <ele>4</ele>
        <time>2014-04-08T13:02:25Z</time>
      </trkpt>
      <trkpt lat="47.19887" lon="-1.817">
        <ele>3</ele>
        <time>2014-04-08T13:02:31Z</time>
      </trkpt>
      <trkpt lat="47.1989" lon="-1.81721">
        <ele>4</ele>
        <time>2014-04-08T13:02:33Z</time>
      </trkpt>
      <trkpt lat="47.19898" lon="-1.81761">
        <ele>5</ele>
        <time>2014-04-08T13:02:37Z</time>
      </trkpt>
      <trkpt lat="47.19907" lon="-1.81813">
        <ele>5</ele>
        <time>2014-04-08T13:02:43Z</time>
      </trkpt>
      <trkpt lat="47.19916" lon="-1.81849">
        <ele>4</ele>
        <time>2014-04-08T13:02:47Z</time>
      </trkpt>
      <trkpt lat="47.19922" lon="-1.81884">
        <ele>4</ele>
        <time>2014-04-08T13:02:51Z</time>
      </trkpt>
      <trkpt lat="47.19924" lon="-1.81893">
        <ele>4</ele>
        <time>2014-04-08T13:02:52Z</time>
      </trkpt>
      <trkpt lat="47.19935" lon="-1.81934">
        <ele>3</ele>
        <time>2014-04-08T13:02:56Z</time>
      </trkpt>
      <trkpt lat="47.19948" lon="-1.81991">
        <ele>15.6</ele>
        <time>2014-04-08T13:03:02Z</time>
      </trkpt>
      <trkpt lat="47.19954" lon="-1.82022">
        <ele>1</ele>
        <time>2014-04-08T13:03:06Z</time>
      </trkpt>
      <trkpt lat="47.19958" lon="-1.82053">
        <ele>3</ele>
        <time>2014-04-08T13:03:10Z</time>
      </trkpt>
      <trkpt lat="47.19967" lon="-1.82102">
        <ele>4</ele>
        <time>2014-04-08T13:03:15Z</time>
      </trkpt>
      <trkpt lat="47.19966" lon="-1.82134">
        <ele>6</ele>
        <time>2014-04-08T13:03:19Z</time>
      </trkpt>
      <trkpt lat="47.19954" lon="-1.82174">
        <ele>9</ele>
        <time>2014-04-08T13:03:24Z</time>
      </trkpt>
      <trkpt lat="47.19945" lon="-1.82188">
        <ele>10</ele>
        <time>2014-04-08T13:03:26Z</time>
      </trkpt>
      <trkpt lat="47.19935" lon="-1.82209">
        <ele>9</ele>
        <time>2014-04-08T13:03:29Z</time>
      </trkpt>
      <trkpt lat="47.19918" lon="-1.82239">
        <ele>8</ele>
        <time>2014-04-08T13:03:33Z</time>
      </trkpt>
      <trkpt lat="47.19899" lon="-1.82294">
        <ele>10</ele>
        <time>2014-04-08T13:03:40Z</time>
      </trkpt>
      <trkpt lat="47.19898" lon="-1.82303">
        <ele>11</ele>
        <time>2014-04-08T13:03:41Z</time>
      </trkpt>
      <trkpt lat="47.19875" lon="-1.82357">
        <ele>11</ele>
        <time>2014-04-08T13:03:48Z</time>
      </trkpt>
      <trkpt lat="47.19863" lon="-1.82381">
        <ele>10</ele>
        <time>2014-04-08T13:03:51Z</time>
      </trkpt>
      <trkpt lat="47.19854" lon="-1.82422">
        <ele>10</ele>
        <time>2014-04-08T13:03:56Z</time>
      </trkpt>
      <trkpt lat="47.19843" lon="-1.82446">
        <ele>9</ele>
        <time>2014-04-08T13:03:59Z</time>
      </trkpt>
      <trkpt lat="47.19824" lon="-1.82481">
        <ele>7</ele>
        <time>2014-04-08T13:04:03Z</time>
      </trkpt>
      <trkpt lat="47.19803" lon="-1.8252">
        <ele>8</ele>
        <time>2014-04-08T13:04:08Z</time>
      </trkpt>
      <trkpt lat="47.19787" lon="-1.82542">
        <ele>8</ele>
        <time>2014-04-08T13:04:11Z</time>
      </trkpt>
      <trkpt lat="47.19766" lon="-1.82572">
        <ele>7</ele>
        <time>2014-04-08T13:04:15Z</time>
      </trkpt>
      <trkpt lat="47.19752" lon="-1.82591">
        <ele>6</ele>
        <time>2014-04-08T13:04:18Z</time>
      </trkpt>
      <trkpt lat="47.19729" lon="-1.82646">
        <ele>2</ele>
        <time>2014-04-08T13:04:24Z</time>
      </trkpt>
      <trkpt lat="47.19721" lon="-1.82673">
        <ele>3</ele>
        <time>2014-04-08T13:04:27Z</time>
      </trkpt>
      <trkpt lat="47.19715" lon="-1.82709">
        <ele>5</ele>
        <time>2014-04-08T13:04:31Z</time>
      </trkpt>
      <trkpt lat="47.19703" lon="-1.82754">
        <ele>5</ele>
        <time>2014-04-08T13:04:36Z</time>
      </trkpt>
      <trkpt lat="47.19696" lon="-1.82795">
        <ele>6</ele>
        <time>2014-04-08T13:04:40Z</time>
      </trkpt>
      <trkpt lat="47.19691" lon="-1.82827">
        <ele>6</ele>
        <time>2014-04-08T13:04:43Z</time>
      </trkpt>
      <trkpt lat="47.19685" lon="-1.8286">
        <ele>7</ele>
        <time>2014-04-08T13:04:47Z</time>
      </trkpt>
      <trkpt lat="47.19682" lon="-1.8288">
        <ele>8</ele>
        <time>2014-04-08T13:04:49Z</time>
      </trkpt>
      <trkpt lat="47.19669" lon="-1.82951">
        <ele>7</ele>
        <time>2014-04-08T13:04:56Z</time>
      </trkpt>
      <trkpt lat="47.19667" lon="-1.82959">
        <ele>7</ele>
        <time>2014-04-08T13:04:57Z</time>
      </trkpt>
      <trkpt lat="47.19657" lon="-1.83016">
        <ele>6</ele>
        <time>2014-04-08T13:05:03Z</time>
      </trkpt>
      <trkpt lat="47.19653" lon="-1.83057">
        <ele>9</ele>
        <time>2014-04-08T13:05:07Z</time>
      </trkpt>
      <trkpt lat="47.19642" lon="-1.83101">
        <ele>7</ele>
        <time>2014-04-08T13:05:11Z</time>
      </trkpt>
      <trkpt lat="47.19634" lon="-1.83141">
        <ele>6</ele>
        <time>2014-04-08T13:05:15Z</time>
      </trkpt>
      <trkpt lat="47.19628" lon="-1.83182">
        <ele>7</ele>
        <time>2014-04-08T13:05:19Z</time>
      </trkpt>
      <trkpt lat="47.19628" lon="-1.83202">
        <ele>6</ele>
        <time>2014-04-08T13:05:21Z</time>
      </trkpt>
      <trkpt lat="47.1963" lon="-1.83276">
        <ele>7</ele>
        <time>2014-04-08T13:05:28Z</time>
      </trkpt>
      <trkpt lat="47.1963" lon="-1.83315">
        <ele>4</ele>
        <time>2014-04-08T13:05:32Z</time>
      </trkpt>
      <trkpt lat="47.1963" lon="-1.83355">
        <ele>4</ele>
        <time>2014-04-08T13:05:36Z</time>
      </trkpt>
      <trkpt lat="47.19633" lon="-1.83385">
        <ele>3</ele>
        <time>2014-04-08T13:05:39Z</time>
      </trkpt>
      <trkpt lat="47.19635" lon="-1.83429">
        <ele>4</ele>
        <time>2014-04-08T13:05:43Z</time>
      </trkpt>
      <trkpt lat="47.19638" lon="-1.83473">
        <ele>7</ele>
        <time>2014-04-08T13:05:47Z</time>
      </trkpt>
      <trkpt lat="47.19635" lon="-1.83527">
        <ele>6</ele>
        <time>2014-04-08T13:05:52Z</time>
      </trkpt>
      <trkpt lat="47.19632" lon="-1.83556">
        <ele>6</ele>
        <time>2014-04-08T13:05:55Z</time>
      </trkpt>
      <trkpt lat="47.19626" lon="-1.83615">
        <ele>5</ele>
        <time>2014-04-08T13:06:00Z</time>
      </trkpt>
      <trkpt lat="47.19624" lon="-1.83624">
        <ele>5</ele>
        <time>2014-04-08T13:06:01Z</time>
      </trkpt>
      <trkpt lat="47.1961" lon="-1.83689">
        <ele>4</ele>
        <time>2014-04-08T13:06:07Z</time>
      </trkpt>
      <trkpt lat="47.19614" lon="-1.83735">
        <ele>4</ele>
        <time>2014-04-08T13:06:11Z</time>
      </trkpt>
      <trkpt lat="47.19625" lon="-1.83785">
        <ele>6</ele>
        <time>2014-04-08T13:06:16Z</time>
      </trkpt>
      <trkpt lat="47.19631" lon="-1.83816">
        <ele>7</ele>
        <time>2014-04-08T13:06:19Z</time>
      </trkpt>
      <trkpt lat="47.19639" lon="-1.83863">
        <ele>7</ele>
        <time>2014-04-08T13:06:23Z</time>
      </trkpt>
      <trkpt lat="47.19648" lon="-1.83905">
        <ele>7</ele>
        <time>2014-04-08T13:06:27Z</time>
      </trkpt>
      <trkpt lat="47.19652" lon="-1.83927">
        <ele>7</ele>
        <time>2014-04-08T13:06:29Z</time>
      </trkpt>
      <trkpt lat="47.19666" lon="-1.84009">
        <ele>4</ele>
        <time>2014-04-08T13:06:36Z</time>
      </trkpt>
      <trkpt lat="47.19669" lon="-1.84054">
        <ele>3</ele>
        <time>2014-04-08T13:06:40Z</time>
      </trkpt>
      <trkpt lat="47.19664" lon="-1.84094">
        <ele>4</ele>
        <time>2014-04-08T13:06:44Z</time>
      </trkpt>
      <trkpt lat="47.19645" lon="-1.84136">
        <ele>3</ele>
        <time>2014-04-08T13:06:49Z</time>
      </trkpt>
      <trkpt lat="47.19636" lon="-1.84151">
        <ele>3</ele>
        <time>2014-04-08T13:06:51Z</time>
      </trkpt>
      <trkpt lat="47.19611" lon="-1.84202">
        <ele>7</ele>
        <time>2014-04-08T13:06:57Z</time>
      </trkpt>
      <trkpt lat="47.19588" lon="-1.84236">
        <ele>8</ele>
        <time>2014-04-08T13:07:01Z</time>
      </trkpt>
      <trkpt lat="47.19574" lon="-1.84263">
        <ele>5</ele>
        <time>2014-04-08T13:07:04Z</time>
      </trkpt>
      <trkpt lat="47.19563" lon="-1.84278">
        <ele>6</ele>
        <time>2014-04-08T13:07:06Z</time>
      </trkpt>
      <trkpt lat="47.19528" lon="-1.8433">
        <ele>6</ele>
        <time>2014-04-08T13:07:12Z</time>
      </trkpt>
      <trkpt lat="47.19508" lon="-1.84372">
        <ele>5</ele>
        <time>2014-04-08T13:07:17Z</time>
      </trkpt>
      <trkpt lat="47.19489" lon="-1.84404">
        <ele>6</ele>
        <time>2014-04-08T13:07:21Z</time>
      </trkpt>
      <trkpt lat="47.19472" lon="-1.84432">
        <ele>6</ele>
        <time>2014-04-08T13:07:24Z</time>
      </trkpt>
      <trkpt lat="47.1946" lon="-1.8445">
        <ele>5</ele>
        <time>2014-04-08T13:07:26Z</time>
      </trkpt>
      <trkpt lat="47.19435" lon="-1.84495">
        <ele>13.7</ele>
        <time>2014-04-08T13:07:31Z</time>
      </trkpt>
      <trkpt lat="47.19406" lon="-1.84544">
        <ele>2</ele>
        <time>2014-04-08T13:07:37Z</time>
      </trkpt>
      <trkpt lat="47.19388" lon="-1.84566">
        <ele>4</ele>
        <time>2014-04-08T13:07:41Z</time>
      </trkpt>
      <trkpt lat="47.19379" lon="-1.84581">
        <ele>4</ele>
        <time>2014-04-08T13:07:44Z</time>
      </trkpt>
      <trkpt lat="47.19375" lon="-1.8462">
        <ele>8</ele>
        <time>2014-04-08T13:07:49Z</time>
      </trkpt>
      <trkpt lat="47.19379" lon="-1.84649">
        <ele>8</ele>
        <time>2014-04-08T13:07:52Z</time>
      </trkpt>
      <trkpt lat="47.19381" lon="-1.84691">
        <ele>5</ele>
        <time>2014-04-08T13:07:56Z</time>
      </trkpt>
      <trkpt lat="47.19381" lon="-1.84733">
        <ele>5</ele>
        <time>2014-04-08T13:08:00Z</time>
      </trkpt>
      <trkpt lat="47.19382" lon="-1.84777">
        <ele>3</ele>
        <time>2014-04-08T13:08:04Z</time>
      </trkpt>
      <trkpt lat="47.19381" lon="-1.84797">
        <ele>4</ele>
        <time>2014-04-08T13:08:06Z</time>
      </trkpt>
      <trkpt lat="47.1938" lon="-1.84858">
        <ele>2</ele>
        <time>2014-04-08T13:08:12Z</time>
      </trkpt>
      <trkpt lat="47.19382" lon="-1.84914">
        <ele>5</ele>
        <time>2014-04-08T13:08:17Z</time>
      </trkpt>
      <trkpt lat="47.19383" lon="-1.84935">
        <ele>4</ele>
        <time>2014-04-08T13:08:19Z</time>
      </trkpt>
      <trkpt lat="47.19386" lon="-1.84991">
        <ele>5</ele>
        <time>2014-04-08T13:08:24Z</time>
      </trkpt>
      <trkpt lat="47.19389" lon="-1.85016">
        <ele>6</ele>
        <time>2014-04-08T13:08:26Z</time>
      </trkpt>
      <trkpt lat="47.19393" lon="-1.85103">
        <ele>6</ele>
        <time>2014-04-08T13:08:33Z</time>
      </trkpt>
      <trkpt lat="47.19401" lon="-1.85137">
        <ele>6</ele>
        <time>2014-04-08T13:08:36Z</time>
      </trkpt>
      <trkpt lat="47.19414" lon="-1.85187">
        <ele>4</ele>
        <time>2014-04-08T13:08:40Z</time>
      </trkpt>
      <trkpt lat="47.19419" lon="-1.85205">
        <ele>5</ele>
        <time>2014-04-08T13:08:42Z</time>
      </trkpt>
      <trkpt lat="47.19444" lon="-1.85298">
        <ele>3</ele>
        <time>2014-04-08T13:08:49Z</time>
      </trkpt>
      <trkpt lat="47.19461" lon="-1.85344">
        <ele>2</ele>
        <time>2014-04-08T13:08:53Z</time>
      </trkpt>
      <trkpt lat="47.19479" lon="-1.85369">
        <ele>2.4</ele>
        <time>2014-04-08T13:08:56Z</time>
      </trkpt>
      <trkpt lat="47.19497" lon="-1.85403">
        <ele>-1</ele>
        <time>2014-04-08T13:08:59Z</time>
      </trkpt>
      <trkpt lat="47.19528" lon="-1.85447">
        <ele>-2</ele>
        <time>2014-04-08T13:09:04Z</time>
      </trkpt>
      <trkpt lat="47.19552" lon="-1.85483">
        <ele>-6</ele>
        <time>2014-04-08T13:09:08Z</time>
      </trkpt>
      <trkpt lat="47.19575" lon="-1.85518">
        <ele>-6</ele>
        <time>2014-04-08T13:09:12Z</time>
      </trkpt>
      <trkpt lat="47.19593" lon="-1.8555">
        <ele>-8</ele>
        <time>2014-04-08T13:09:16Z</time>
      </trkpt>
      <trkpt lat="47.1961" lon="-1.85576">
        <ele>-8</ele>
        <time>2014-04-08T13:09:19Z</time>
      </trkpt>
      <trkpt lat="47.19641" lon="-1.8562">
        <ele>-7</ele>
        <time>2014-04-08T13:09:24Z</time>
      </trkpt>
      <trkpt lat="47.19664" lon="-1.85656">
        <ele>-8</ele>
        <time>2014-04-08T13:09:28Z</time>
      </trkpt>
      <trkpt lat="47.19689" lon="-1.85692">
        <ele>-7</ele>
        <time>2014-04-08T13:09:32Z</time>
      </trkpt>
      <trkpt lat="47.19709" lon="-1.85724">
        <ele>-7</ele>
        <time>2014-04-08T13:09:36Z</time>
      </trkpt>
      <trkpt lat="47.19731" lon="-1.85755">
        <ele>-8</ele>
        <time>2014-04-08T13:09:40Z</time>
      </trkpt>
      <trkpt lat="47.19757" lon="-1.85791">
        <ele>-5</ele>
        <time>2014-04-08T13:09:44Z</time>
      </trkpt>
      <trkpt lat="47.19779" lon="-1.85822">
        <ele>-4</ele>
        <time>2014-04-08T13:09:48Z</time>
      </trkpt>
      <trkpt lat="47.19802" lon="-1.85859">
        <ele>-4</ele>
        <time>2014-04-08T13:09:52Z</time>
      </trkpt>
      <trkpt lat="47.19825" lon="-1.85892">
        <ele>-4</ele>
        <time>2014-04-08T13:09:56Z</time>
      </trkpt>
      <trkpt lat="47.19844" lon="-1.85925">
        <ele>-4</ele>
        <time>2014-04-08T13:10:00Z</time>
      </trkpt>
      <trkpt lat="47.19862" lon="-1.85955">
        <ele>-2</ele>
        <time>2014-04-08T13:10:04Z</time>
      </trkpt>
      <trkpt lat="47.19882" lon="-1.85986">
        <ele>-3</ele>
        <time>2014-04-08T13:10:08Z</time>
      </trkpt>
      <trkpt lat="47.19905" lon="-1.86028">
        <ele>-3</ele>
        <time>2014-04-08T13:10:13Z</time>
      </trkpt>
      <trkpt lat="47.19918" lon="-1.86066">
        <ele>-5</ele>
        <time>2014-04-08T13:10:17Z</time>
      </trkpt>
      <trkpt lat="47.19931" lon="-1.86098">
        <ele>-5</ele>
        <time>2014-04-08T13:10:21Z</time>
      </trkpt>
      <trkpt lat="47.19941" lon="-1.8613">
        <ele>-3</ele>
        <time>2014-04-08T13:10:25Z</time>
      </trkpt>
      <trkpt lat="47.19948" lon="-1.86165">
        <ele>7.4</ele>
        <time>2014-04-08T13:10:29Z</time>
      </trkpt>
      <trkpt lat="47.19951" lon="-1.86182">
        <ele>-1</ele>
        <time>2014-04-08T13:10:31Z</time>
      </trkpt>
      <trkpt lat="47.1996" lon="-1.86237">
        <ele>-1</ele>
        <time>2014-04-08T13:10:37Z</time>
      </trkpt>
      <trkpt lat="47.19966" lon="-1.86291">
        <ele>-1</ele>
        <time>2014-04-08T13:10:42Z</time>
      </trkpt>
      <trkpt lat="47.19967" lon="-1.86315">
        <ele>-2</ele>
        <time>2014-04-08T13:10:44Z</time>
      </trkpt>
      <trkpt lat="47.19971" lon="-1.86386">
        <ele>-4</ele>
        <time>2014-04-08T13:10:49Z</time>
      </trkpt>
      <trkpt lat="47.19969" lon="-1.86426">
        <ele>-5</ele>
        <time>2014-04-08T13:10:53Z</time>
      </trkpt>
      <trkpt lat="47.19976" lon="-1.86487">
        <ele>-4</ele>
        <time>2014-04-08T13:10:58Z</time>
      </trkpt>
      <trkpt lat="47.19979" lon="-1.86507">
        <ele>-3</ele>
        <time>2014-04-08T13:11:00Z</time>
      </trkpt>
      <trkpt lat="47.1998" lon="-1.86573">
        <ele>-4</ele>
        <time>2014-04-08T13:11:06Z</time>
      </trkpt>
      <trkpt lat="47.19983" lon="-1.86594">
        <ele>-4</ele>
        <time>2014-04-08T13:11:08Z</time>
      </trkpt>
      <trkpt lat="47.19981" lon="-1.8666">
        <ele>-5</ele>
        <time>2014-04-08T13:11:15Z</time>
      </trkpt>
      <trkpt lat="47.19981" lon="-1.86696">
        <ele>-2</ele>
        <time>2014-04-08T13:11:19Z</time>
      </trkpt>
      <trkpt lat="47.19984" lon="-1.86739">
        <ele>-2</ele>
        <time>2014-04-08T13:11:22Z</time>
      </trkpt>
      <trkpt lat="47.19993" lon="-1.86771">
        <ele>-5</ele>
        <time>2014-04-08T13:11:26Z</time>
      </trkpt>
      <trkpt lat="47.20001" lon="-1.86805">
        <ele>-3</ele>
        <time>2014-04-08T13:11:30Z</time>
      </trkpt>
      <trkpt lat="47.2001" lon="-1.86837">
        <ele>-4</ele>
        <time>2014-04-08T13:11:33Z</time>
      </trkpt>
      <trkpt lat="47.20023" lon="-1.8689">
        <ele>-6</ele>
        <time>2014-04-08T13:11:39Z</time>
      </trkpt>
      <trkpt lat="47.20029" lon="-1.86912">
        <ele>-6</ele>
        <time>2014-04-08T13:11:42Z</time>
      </trkpt>
      <trkpt lat="47.20032" lon="-1.86932">
        <ele>-5</ele>
        <time>2014-04-08T13:11:44Z</time>
      </trkpt>
      <trkpt lat="47.20045" lon="-1.86988">
        <ele>-1</ele>
        <time>2014-04-08T13:11:51Z</time>
      </trkpt>
      <trkpt lat="47.20043" lon="-1.87009">
        <ele>11</ele>
        <time>2014-04-08T13:11:54Z</time>
      </trkpt>
      <trkpt lat="47.20044" lon="-1.87042">
        <ele>11.5</ele>
        <time>2014-04-08T13:11:58Z</time>
      </trkpt>
      <trkpt lat="47.20043" lon="-1.87081">
        <ele>4</ele>
        <time>2014-04-08T13:12:03Z</time>
      </trkpt>
      <trkpt lat="47.20044" lon="-1.87111">
        <ele>3</ele>
        <time>2014-04-08T13:12:06Z</time>
      </trkpt>
      <trkpt lat="47.20045" lon="-1.87145">
        <ele>4</ele>
        <time>2014-04-08T13:12:10Z</time>
      </trkpt>
      <trkpt lat="47.20046" lon="-1.87165">
        <ele>4</ele>
        <time>2014-04-08T13:12:12Z</time>
      </trkpt>
      <trkpt lat="47.2005" lon="-1.87214">
        <ele>3</ele>
        <time>2014-04-08T13:12:17Z</time>
      </trkpt>
      <trkpt lat="47.2005" lon="-1.87262">
        <ele>3</ele>
        <time>2014-04-08T13:12:22Z</time>
      </trkpt>
      <trkpt lat="47.20047" lon="-1.87293">
        <ele>3</ele>
        <time>2014-04-08T13:12:26Z</time>
      </trkpt>
      <trkpt lat="47.20049" lon="-1.87315">
        <ele>4</ele>
        <time>2014-04-08T13:12:28Z</time>
      </trkpt>
      <trkpt lat="47.20051" lon="-1.87372">
        <ele>4</ele>
        <time>2014-04-08T13:12:34Z</time>
      </trkpt>
      <trkpt lat="47.20048" lon="-1.87424">
        <ele>7</ele>
        <time>2014-04-08T13:12:39Z</time>
      </trkpt>
      <trkpt lat="47.20041" lon="-1.87463">
        <ele>7</ele>
        <time>2014-04-08T13:12:43Z</time>
      </trkpt>
      <trkpt lat="47.20037" lon="-1.87502">
        <ele>8</ele>
        <time>2014-04-08T13:12:47Z</time>
      </trkpt>
      <trkpt lat="47.20035" lon="-1.87513">
        <ele>8</ele>
        <time>2014-04-08T13:12:48Z</time>
      </trkpt>
      <trkpt lat="47.20029" lon="-1.87551">
        <ele>5</ele>
        <time>2014-04-08T13:12:52Z</time>
      </trkpt>
      <trkpt lat="47.20016" lon="-1.87619">
        <ele>6</ele>
        <time>2014-04-08T13:12:59Z</time>
      </trkpt>
      <trkpt lat="47.2001" lon="-1.87659">
        <ele>8</ele>
        <time>2014-04-08T13:13:03Z</time>
      </trkpt>
      <trkpt lat="47.20005" lon="-1.87694">
        <ele>8</ele>
        <time>2014-04-08T13:13:07Z</time>
      </trkpt>
      <trkpt lat="47.19993" lon="-1.87729">
        <ele>7</ele>
        <time>2014-04-08T13:13:11Z</time>
      </trkpt>
      <trkpt lat="47.19971" lon="-1.87766">
        <ele>4</ele>
        <time>2014-04-08T13:13:15Z</time>
      </trkpt>
      <trkpt lat="47.19952" lon="-1.87789">
        <ele>4</ele>
        <time>2014-04-08T13:13:18Z</time>
      </trkpt>
      <trkpt lat="47.19915" lon="-1.87839">
        <ele>3</ele>
        <time>2014-04-08T13:13:24Z</time>
      </trkpt>
      <trkpt lat="47.19906" lon="-1.87872">
        <ele>3</ele>
        <time>2014-04-08T13:13:27Z</time>
      </trkpt>
      <trkpt lat="47.19898" lon="-1.87914">
        <ele>4</ele>
        <time>2014-04-08T13:13:31Z</time>
      </trkpt>
      <trkpt lat="47.1989" lon="-1.87975">
        <ele>1</ele>
        <time>2014-04-08T13:13:36Z</time>
      </trkpt>
      <trkpt lat="47.1989" lon="-1.87985">
        <ele>4.1</ele>
        <time>2014-04-08T13:13:37Z</time>
      </trkpt>
      <trkpt lat="47.19876" lon="-1.88083">
        <ele>-2</ele>
        <time>2014-04-08T13:13:44Z</time>
      </trkpt>
      <trkpt lat="47.19872" lon="-1.88135">
        <ele>-3</ele>
        <time>2014-04-08T13:13:48Z</time>
      </trkpt>
      <trkpt lat="47.1987" lon="-1.88149">
        <ele>-3</ele>
        <time>2014-04-08T13:13:49Z</time>
      </trkpt>
      <trkpt lat="47.19864" lon="-1.8822">
        <ele>-5</ele>
        <time>2014-04-08T13:13:55Z</time>
      </trkpt>
      <trkpt lat="47.19866" lon="-1.88239">
        <ele>-3</ele>
        <time>2014-04-08T13:13:57Z</time>
      </trkpt>
      <trkpt lat="47.19872" lon="-1.88301">
        <ele>-5</ele>
        <time>2014-04-08T13:14:03Z</time>
      </trkpt>
      <trkpt lat="47.19875" lon="-1.88327">
        <ele>-2</ele>
        <time>2014-04-08T13:14:05Z</time>
      </trkpt>
      <trkpt lat="47.19891" lon="-1.88385">
        <ele>-2</ele>
        <time>2014-04-08T13:14:11Z</time>
      </trkpt>
      <trkpt lat="47.19899" lon="-1.88437">
        <ele>-2</ele>
        <time>2014-04-08T13:14:15Z</time>
      </trkpt>
      <trkpt lat="47.19896" lon="-1.88457">
        <ele>-2</ele>
        <time>2014-04-08T13:14:17Z</time>
      </trkpt>
      <trkpt lat="47.19899" lon="-1.8853">
        <ele>-2</ele>
        <time>2014-04-08T13:14:24Z</time>
      </trkpt>
      <trkpt lat="47.19899" lon="-1.88535">
        <ele>4</ele>
        <time>2014-04-08T13:14:25Z</time>
      </trkpt>
      <trkpt lat="47.19908" lon="-1.88611">
        <ele>-2</ele>
        <time>2014-04-08T13:14:32Z</time>
      </trkpt>
      <trkpt lat="47.19913" lon="-1.88643">
        <ele>-1</ele>
        <time>2014-04-08T13:14:35Z</time>
      </trkpt>
      <trkpt lat="47.19918" lon="-1.88675">
        <ele>-2</ele>
        <time>2014-04-08T13:14:38Z</time>
      </trkpt>
      <trkpt lat="47.1992" lon="-1.88708">
        <ele>-2</ele>
        <time>2014-04-08T13:14:41Z</time>
      </trkpt>
      <trkpt lat="47.19924" lon="-1.88778">
        <ele>-4</ele>
        <time>2014-04-08T13:14:48Z</time>
      </trkpt>
      <trkpt lat="47.19927" lon="-1.88811">
        <ele>-5</ele>
        <time>2014-04-08T13:14:51Z</time>
      </trkpt>
      <trkpt lat="47.19929" lon="-1.88832">
        <ele>-4</ele>
        <time>2014-04-08T13:14:53Z</time>
      </trkpt>
      <trkpt lat="47.19938" lon="-1.889">
        <ele>-3</ele>
        <time>2014-04-08T13:15:00Z</time>
      </trkpt>
      <trkpt lat="47.19939" lon="-1.88937">
        <ele>-5</ele>
        <time>2014-04-08T13:15:03Z</time>
      </trkpt>
      <trkpt lat="47.19928" lon="-1.88969">
        <ele>-6</ele>
        <time>2014-04-08T13:15:07Z</time>
      </trkpt>
      <trkpt lat="47.19902" lon="-1.88986">
        <ele>-6</ele>
        <time>2014-04-08T13:15:11Z</time>
      </trkpt>
      <trkpt lat="47.19869" lon="-1.89009">
        <ele>-7</ele>
        <time>2014-04-08T13:15:16Z</time>
      </trkpt>
      <trkpt lat="47.19847" lon="-1.89023">
        <ele>-9</ele>
        <time>2014-04-08T13:15:19Z</time>
      </trkpt>
      <trkpt lat="47.19806" lon="-1.89053">
        <ele>-7</ele>
        <time>2014-04-08T13:15:25Z</time>
      </trkpt>
      <trkpt lat="47.19793" lon="-1.89063">
        <ele>-6</ele>
        <time>2014-04-08T13:15:27Z</time>
      </trkpt>
      <trkpt lat="47.19767" lon="-1.89076">
        <ele>3.8</ele>
        <time>2014-04-08T13:15:31Z</time>
      </trkpt>
      <trkpt lat="47.19735" lon="-1.89081">
        <ele>-2</ele>
        <time>2014-04-08T13:15:36Z</time>
      </trkpt>
      <trkpt lat="47.197" lon="-1.89081">
        <ele>-1</ele>
        <time>2014-04-08T13:15:41Z</time>
      </trkpt>
      <trkpt lat="47.19665" lon="-1.89081">
        <ele>4.1</ele>
        <time>2014-04-08T13:15:45Z</time>
      </trkpt>
      <trkpt lat="47.19645" lon="-1.89082">
        <ele>-1</ele>
        <time>2014-04-08T13:15:48Z</time>
      </trkpt>
      <trkpt lat="47.1962" lon="-1.89086">
        <ele>-1</ele>
        <time>2014-04-08T13:15:51Z</time>
      </trkpt>
      <trkpt lat="47.19576" lon="-1.89085">
        <ele>-1</ele>
        <time>2014-04-08T13:15:57Z</time>
      </trkpt>
      <trkpt lat="47.19549" lon="-1.8909">
        <ele>-2</ele>
        <time>2014-04-08T13:16:00Z</time>
      </trkpt>
      <trkpt lat="47.19519" lon="-1.89097">
        <ele>-3</ele>
        <time>2014-04-08T13:16:04Z</time>
      </trkpt>
      <trkpt lat="47.19486" lon="-1.89097">
        <ele>-2</ele>
        <time>2014-04-08T13:16:08Z</time>
      </trkpt>
      <trkpt lat="47.19475" lon="-1.89101">
        <ele>-3</ele>
        <time>2014-04-08T13:16:10Z</time>
      </trkpt>
      <trkpt lat="47.19432" lon="-1.89104">
        <ele>-6</ele>
        <time>2014-04-08T13:16:16Z</time>
      </trkpt>
      <trkpt lat="47.19406" lon="-1.89113">
        <ele>-5</ele>
        <time>2014-04-08T13:16:20Z</time>
      </trkpt>
      <trkpt lat="47.19379" lon="-1.89129">
        <ele>-5</ele>
        <time>2014-04-08T13:16:24Z</time>
      </trkpt>
      <trkpt lat="47.1936" lon="-1.89161">
        <ele>-5</ele>
        <time>2014-04-08T13:16:28Z</time>
      </trkpt>
      <trkpt lat="47.1934" lon="-1.89207">
        <ele>-7</ele>
        <time>2014-04-08T13:16:33Z</time>
      </trkpt>
      <trkpt lat="47.19331" lon="-1.89236">
        <ele>-8</ele>
        <time>2014-04-08T13:16:36Z</time>
      </trkpt>
      <trkpt lat="47.19327" lon="-1.89254">
        <ele>-9</ele>
        <time>2014-04-08T13:16:38Z</time>
      </trkpt>
      <trkpt lat="47.19313" lon="-1.89306">
        <ele>-9</ele>
        <time>2014-04-08T13:16:44Z</time>
      </trkpt>
      <trkpt lat="47.19305" lon="-1.89349">
        <ele>-8</ele>
        <time>2014-04-08T13:16:49Z</time>
      </trkpt>
      <trkpt lat="47.193" lon="-1.89375">
        <ele>-8</ele>
        <time>2014-04-08T13:16:52Z</time>
      </trkpt>
      <trkpt lat="47.19294" lon="-1.89411">
        <ele>-3</ele>
        <time>2014-04-08T13:16:56Z</time>
      </trkpt>
      <trkpt lat="47.1929" lon="-1.89434">
        <ele>-1</ele>
        <time>2014-04-08T13:16:58Z</time>
      </trkpt>
      <trkpt lat="47.19279" lon="-1.8949">
        <ele>7.3</ele>
        <time>2014-04-08T13:17:04Z</time>
      </trkpt>
      <trkpt lat="47.19269" lon="-1.8953">
        <ele>7.1</ele>
        <time>2014-04-08T13:17:08Z</time>
      </trkpt>
      <trkpt lat="47.19254" lon="-1.89568">
        <ele>-1</ele>
        <time>2014-04-08T13:17:12Z</time>
      </trkpt>
      <trkpt lat="47.19248" lon="-1.89595">
        <ele>9</ele>
        <time>2014-04-08T13:17:15Z</time>
      </trkpt>
      <trkpt lat="47.19237" lon="-1.89632">
        <ele>9</ele>
        <time>2014-04-08T13:17:19Z</time>
      </trkpt>
      <trkpt lat="47.19232" lon="-1.8967">
        <ele>1</ele>
        <time>2014-04-08T13:17:23Z</time>
      </trkpt>
      <trkpt lat="47.19219" lon="-1.89728">
        <ele>10.1</ele>
        <time>2014-04-08T13:17:29Z</time>
      </trkpt>
      <trkpt lat="47.19214" lon="-1.89756">
        <ele>-2</ele>
        <time>2014-04-08T13:17:32Z</time>
      </trkpt>
      <trkpt lat="47.1921" lon="-1.89792">
        <ele>1</ele>
        <time>2014-04-08T13:17:36Z</time>
      </trkpt>
      <trkpt lat="47.19202" lon="-1.89826">
        <ele>1</ele>
        <time>2014-04-08T13:17:40Z</time>
      </trkpt>
      <trkpt lat="47.19195" lon="-1.8987">
        <ele>2</ele>
        <time>2014-04-08T13:17:45Z</time>
      </trkpt>
      <trkpt lat="47.1919" lon="-1.89904">
        <ele>2</ele>
        <time>2014-04-08T13:17:49Z</time>
      </trkpt>
      <trkpt lat="47.19187" lon="-1.8993">
        <ele>4</ele>
        <time>2014-04-08T13:17:52Z</time>
      </trkpt>
      <trkpt lat="47.19181" lon="-1.89979">
        <ele>3</ele>
        <time>2014-04-08T13:17:57Z</time>
      </trkpt>
      <trkpt lat="47.19175" lon="-1.90001">
        <ele>3</ele>
        <time>2014-04-08T13:18:00Z</time>
      </trkpt>
      <trkpt lat="47.19172" lon="-1.90038">
        <ele>12.8</ele>
        <time>2014-04-08T13:18:04Z</time>
      </trkpt>
      <trkpt lat="47.19164" lon="-1.90075">
        <ele>1</ele>
        <time>2014-04-08T13:18:08Z</time>
      </trkpt>
      <trkpt lat="47.19158" lon="-1.90109">
        <ele>3</ele>
        <time>2014-04-08T13:18:12Z</time>
      </trkpt>
      <trkpt lat="47.19147" lon="-1.90141">
        <ele>3</ele>
        <time>2014-04-08T13:18:16Z</time>
      </trkpt>
      <trkpt lat="47.19136" lon="-1.90168">
        <ele>5</ele>
        <time>2014-04-08T13:18:20Z</time>
      </trkpt>
      <trkpt lat="47.19121" lon="-1.90197">
        <ele>4</ele>
        <time>2014-04-08T13:18:24Z</time>
      </trkpt>
      <trkpt lat="47.19101" lon="-1.90231">
        <ele>6</ele>
        <time>2014-04-08T13:18:29Z</time>
      </trkpt>
      <trkpt lat="47.19087" lon="-1.9025">
        <ele>5</ele>
        <time>2014-04-08T13:18:32Z</time>
      </trkpt>
      <trkpt lat="47.19066" lon="-1.90277">
        <ele>4</ele>
        <time>2014-04-08T13:18:37Z</time>
      </trkpt>
      <trkpt lat="47.19058" lon="-1.90288">
        <ele>5</ele>
        <time>2014-04-08T13:18:39Z</time>
      </trkpt>
      <trkpt lat="47.19037" lon="-1.90322">
        <ele>5</ele>
        <time>2014-04-08T13:18:44Z</time>
      </trkpt>
      <trkpt lat="47.19011" lon="-1.90353">
        <ele>8</ele>
        <time>2014-04-08T13:18:50Z</time>
      </trkpt>
      <trkpt lat="47.18998" lon="-1.90376">
        <ele>8</ele>
        <time>2014-04-08T13:18:54Z</time>
      </trkpt>
      <trkpt lat="47.18983" lon="-1.90398">
        <ele>8</ele>
        <time>2014-04-08T13:18:58Z</time>
      </trkpt>
      <trkpt lat="47.18972" lon="-1.90416">
        <ele>7</ele>
        <time>2014-04-08T13:19:01Z</time>
      </trkpt>
      <trkpt lat="47.18966" lon="-1.90428">
        <ele>7</ele>
        <time>2014-04-08T13:19:03Z</time>
      </trkpt>
      <trkpt lat="47.1895" lon="-1.90459">
        <ele>8</ele>
        <time>2014-04-08T13:19:09Z</time>
      </trkpt>
      <trkpt lat="47.18939" lon="-1.90482">
        <ele>10</ele>
        <time>2014-04-08T13:19:13Z</time>
      </trkpt>
      <trkpt lat="47.1893" lon="-1.90498">
        <ele>11</ele>
        <time>2014-04-08T13:19:17Z</time>
      </trkpt>
      <trkpt lat="47.1892" lon="-1.90517">
        <ele>11</ele>
        <time>2014-04-08T13:19:21Z</time>
      </trkpt>
      <trkpt lat="47.18913" lon="-1.90539">
        <ele>14</ele>
        <time>2014-04-08T13:19:26Z</time>
      </trkpt>
      <trkpt lat="47.18904" lon="-1.90552">
        <ele>17</ele>
        <time>2014-04-08T13:19:29Z</time>
      </trkpt>
      <trkpt lat="47.18893" lon="-1.90569">
        <ele>20</ele>
        <time>2014-04-08T13:19:33Z</time>
      </trkpt>
      <trkpt lat="47.18886" lon="-1.9059">
        <ele>20</ele>
        <time>2014-04-08T13:19:38Z</time>
      </trkpt>
      <trkpt lat="47.1888" lon="-1.90603">
        <ele>19</ele>
        <time>2014-04-08T13:19:41Z</time>
      </trkpt>
      <trkpt lat="47.18873" lon="-1.90619">
        <ele>18</ele>
        <time>2014-04-08T13:19:44Z</time>
      </trkpt>
      <trkpt lat="47.18866" lon="-1.90641">
        <ele>17</ele>
        <time>2014-04-08T13:19:49Z</time>
      </trkpt>
      <trkpt lat="47.18861" lon="-1.90663">
        <ele>17</ele>
        <time>2014-04-08T13:19:53Z</time>
      </trkpt>
      <trkpt lat="47.18857" lon="-1.90684">
        <ele>17</ele>
        <time>2014-04-08T13:19:57Z</time>
      </trkpt>
      <trkpt lat="47.1885" lon="-1.90709">
        <ele>18</ele>
        <time>2014-04-08T13:20:01Z</time>
      </trkpt>
      <trkpt lat="47.18848" lon="-1.90721">
        <ele>18</ele>
        <time>2014-04-08T13:20:03Z</time>
      </trkpt>
      <trkpt lat="47.18839" lon="-1.90761">
        <ele>20</ele>
        <time>2014-04-08T13:20:09Z</time>
      </trkpt>
      <trkpt lat="47.18834" lon="-1.90788">
        <ele>21</ele>
        <time>2014-04-08T13:20:13Z</time>
      </trkpt>
      <trkpt lat="47.18828" lon="-1.90816">
        <ele>21</ele>
        <time>2014-04-08T13:20:17Z</time>
      </trkpt>
      <trkpt lat="47.18823" lon="-1.90845">
        <ele>22</ele>
        <time>2014-04-08T13:20:21Z</time>
      </trkpt>
      <trkpt lat="47.18817" lon="-1.90877">
        <ele>24</ele>
        <time>2014-04-08T13:20:26Z</time>
      </trkpt>
      <trkpt lat="47.18806" lon="-1.90906">
        <ele>24</ele>
        <time>2014-04-08T13:20:30Z</time>
      </trkpt>
      <trkpt lat="47.18797" lon="-1.90926">
        <ele>21</ele>
        <time>2014-04-08T13:20:33Z</time>
      </trkpt>
      <trkpt lat="47.18779" lon="-1.90963">
        <ele>22</ele>
        <time>2014-04-08T13:20:38Z</time>
      </trkpt>
      <trkpt lat="47.18762" lon="-1.90996">
        <ele>23</ele>
        <time>2014-04-08T13:20:42Z</time>
      </trkpt>
      <trkpt lat="47.1875" lon="-1.91019">
        <ele>23</ele>
        <time>2014-04-08T13:20:45Z</time>
      </trkpt>
      <trkpt lat="47.18726" lon="-1.91054">
        <ele>21</ele>
        <time>2014-04-08T13:20:50Z</time>
      </trkpt>
      <trkpt lat="47.18716" lon="-1.91069">
        <ele>20</ele>
        <time>2014-04-08T13:20:52Z</time>
      </trkpt>
      <trkpt lat="47.18692" lon="-1.91115">
        <ele>19</ele>
        <time>2014-04-08T13:20:58Z</time>
      </trkpt>
      <trkpt lat="47.18677" lon="-1.91139">
        <ele>19</ele>
        <time>2014-04-08T13:21:02Z</time>
      </trkpt>
      <trkpt lat="47.18657" lon="-1.91164">
        <ele>18</ele>
        <time>2014-04-08T13:21:06Z</time>
      </trkpt>
      <trkpt lat="47.18641" lon="-1.91183">
        <ele>18</ele>
        <time>2014-04-08T13:21:09Z</time>
      </trkpt>
      <trkpt lat="47.18614" lon="-1.9122">
        <ele>19</ele>
        <time>2014-04-08T13:21:14Z</time>
      </trkpt>
      <trkpt lat="47.18583" lon="-1.91258">
        <ele>15</ele>
        <time>2014-04-08T13:21:19Z</time>
      </trkpt>
      <trkpt lat="47.18561" lon="-1.91286">
        <ele>14</ele>
        <time>2014-04-08T13:21:22Z</time>
      </trkpt>
      <trkpt lat="47.18538" lon="-1.91318">
        <ele>11</ele>
        <time>2014-04-08T13:21:25Z</time>
      </trkpt>
      <trkpt lat="47.18517" lon="-1.91348">
        <ele>10</ele>
        <time>2014-04-08T13:21:28Z</time>
      </trkpt>
      <trkpt lat="47.18474" lon="-1.91415">
        <ele>9</ele>
        <time>2014-04-08T13:21:34Z</time>
      </trkpt>
      <trkpt lat="47.18437" lon="-1.91468">
        <ele>7</ele>
        <time>2014-04-08T13:21:39Z</time>
      </trkpt>
      <trkpt lat="47.1842" lon="-1.91504">
        <ele>8</ele>
        <time>2014-04-08T13:21:42Z</time>
      </trkpt>
      <trkpt lat="47.18404" lon="-1.91553">
        <ele>8</ele>
        <time>2014-04-08T13:21:46Z</time>
      </trkpt>
      <trkpt lat="47.18393" lon="-1.91579">
        <ele>10</ele>
        <time>2014-04-08T13:21:49Z</time>
      </trkpt>
      <trkpt lat="47.18385" lon="-1.91616">
        <ele>18</ele>
        <time>2014-04-08T13:21:54Z</time>
      </trkpt>
      <trkpt lat="47.18379" lon="-1.91642">
        <ele>20</ele>
        <time>2014-04-08T13:21:58Z</time>
      </trkpt>
      <trkpt lat="47.18365" lon="-1.91683">
        <ele>18</ele>
        <time>2014-04-08T13:22:03Z</time>
      </trkpt>
      <trkpt lat="47.18358" lon="-1.91711">
        <ele>19</ele>
        <time>2014-04-08T13:22:07Z</time>
      </trkpt>
      <trkpt lat="47.18358" lon="-1.91727">
        <ele>21</ele>
        <time>2014-04-08T13:22:10Z</time>
      </trkpt>
      <trkpt lat="47.18354" lon="-1.91748">
        <ele>21</ele>
        <time>2014-04-08T13:22:13Z</time>
      </trkpt>
      <trkpt lat="47.18349" lon="-1.9178">
        <ele>23</ele>
        <time>2014-04-08T13:22:18Z</time>
      </trkpt>
      <trkpt lat="47.18348" lon="-1.91797">
        <ele>23</ele>
        <time>2014-04-08T13:22:21Z</time>
      </trkpt>
      <trkpt lat="47.18344" lon="-1.91824">
        <ele>22</ele>
        <time>2014-04-08T13:22:26Z</time>
      </trkpt>
      <trkpt lat="47.18338" lon="-1.91846">
        <ele>19</ele>
        <time>2014-04-08T13:22:30Z</time>
      </trkpt>
      <trkpt lat="47.18336" lon="-1.91873">
        <ele>22</ele>
        <time>2014-04-08T13:22:35Z</time>
      </trkpt>
      <trkpt lat="47.18336" lon="-1.91884">
        <ele>23</ele>
        <time>2014-04-08T13:22:37Z</time>
      </trkpt>
      <trkpt lat="47.18333" lon="-1.91901">
        <ele>24</ele>
        <time>2014-04-08T13:22:40Z</time>
      </trkpt>
      <trkpt lat="47.18326" lon="-1.9194">
        <ele>25</ele>
        <time>2014-04-08T13:22:49Z</time>
      </trkpt>
      <trkpt lat="47.18323" lon="-1.91953">
        <ele>28</ele>
        <time>2014-04-08T13:22:52Z</time>
      </trkpt>
      <trkpt lat="47.18315" lon="-1.91982">
        <ele>29</ele>
        <time>2014-04-08T13:22:57Z</time>
      </trkpt>
      <trkpt lat="47.18312" lon="-1.92001">
        <ele>30</ele>
        <time>2014-04-08T13:23:00Z</time>
      </trkpt>
      <trkpt lat="47.1831" lon="-1.92019">
        <ele>32</ele>
        <time>2014-04-08T13:23:03Z</time>
      </trkpt>
      <trkpt lat="47.18305" lon="-1.92047">
        <ele>30</ele>
        <time>2014-04-08T13:23:07Z</time>
      </trkpt>
      <trkpt lat="47.18297" lon="-1.92079">
        <ele>29</ele>
        <time>2014-04-08T13:23:12Z</time>
      </trkpt>
      <trkpt lat="47.18291" lon="-1.92104">
        <ele>28</ele>
        <time>2014-04-08T13:23:16Z</time>
      </trkpt>
      <trkpt lat="47.18286" lon="-1.9213">
        <ele>30</ele>
        <time>2014-04-08T13:23:20Z</time>
      </trkpt>
      <trkpt lat="47.18283" lon="-1.92154">
        <ele>32</ele>
        <time>2014-04-08T13:23:24Z</time>
      </trkpt>
      <trkpt lat="47.18278" lon="-1.92182">
        <ele>31</ele>
        <time>2014-04-08T13:23:28Z</time>
      </trkpt>
      <trkpt lat="47.18273" lon="-1.92209">
        <ele>34</ele>
        <time>2014-04-08T13:23:32Z</time>
      </trkpt>
      <trkpt lat="47.18265" lon="-1.9224">
        <ele>34</ele>
        <time>2014-04-08T13:23:36Z</time>
      </trkpt>
      <trkpt lat="47.18258" lon="-1.92269">
        <ele>36</ele>
        <time>2014-04-08T13:23:40Z</time>
      </trkpt>
      <trkpt lat="47.1825" lon="-1.92301">
        <ele>34</ele>
        <time>2014-04-08T13:23:44Z</time>
      </trkpt>
      <trkpt lat="47.18247" lon="-1.92332">
        <ele>38</ele>
        <time>2014-04-08T13:23:48Z</time>
      </trkpt>
      <trkpt lat="47.18238" lon="-1.92363">
        <ele>39</ele>
        <time>2014-04-08T13:23:52Z</time>
      </trkpt>
      <trkpt lat="47.1823" lon="-1.92395">
        <ele>37</ele>
        <time>2014-04-08T13:23:56Z</time>
      </trkpt>
      <trkpt lat="47.18227" lon="-1.92412">
        <ele>38</ele>
        <time>2014-04-08T13:23:58Z</time>
      </trkpt>
      <trkpt lat="47.18212" lon="-1.92459">
        <ele>37</ele>
        <time>2014-04-08T13:24:04Z</time>
      </trkpt>
      <trkpt lat="47.18202" lon="-1.92491">
        <ele>36</ele>
        <time>2014-04-08T13:24:08Z</time>
      </trkpt>
      <trkpt lat="47.18184" lon="-1.92527">
        <ele>36</ele>
        <time>2014-04-08T13:24:13Z</time>
      </trkpt>
      <trkpt lat="47.18172" lon="-1.92547">
        <ele>36</ele>
        <time>2014-04-08T13:24:16Z</time>
      </trkpt>
      <trkpt lat="47.18158" lon="-1.92575">
        <ele>37</ele>
        <time>2014-04-08T13:24:20Z</time>
      </trkpt>
      <trkpt lat="47.18143" lon="-1.92604">
        <ele>35</ele>
        <time>2014-04-08T13:24:24Z</time>
      </trkpt>
      <trkpt lat="47.18128" lon="-1.9263">
        <ele>34</ele>
        <time>2014-04-08T13:24:28Z</time>
      </trkpt>
      <trkpt lat="47.18112" lon="-1.92656">
        <ele>33</ele>
        <time>2014-04-08T13:24:32Z</time>
      </trkpt>
      <trkpt lat="47.18095" lon="-1.92681">
        <ele>34</ele>
        <time>2014-04-08T13:24:36Z</time>
      </trkpt>
      <trkpt lat="47.18072" lon="-1.92701">
        <ele>34</ele>
        <time>2014-04-08T13:24:40Z</time>
      </trkpt>
      <trkpt lat="47.18053" lon="-1.92721">
        <ele>36</ele>
        <time>2014-04-08T13:24:44Z</time>
      </trkpt>
      <trkpt lat="47.18033" lon="-1.92739">
        <ele>39</ele>
        <time>2014-04-08T13:24:48Z</time>
      </trkpt>
      <trkpt lat="47.1801" lon="-1.92756">
        <ele>40</ele>
        <time>2014-04-08T13:24:52Z</time>
      </trkpt>
      <trkpt lat="47.17985" lon="-1.92782">
        <ele>39</ele>
        <time>2014-04-08T13:24:57Z</time>
      </trkpt>
      <trkpt lat="47.17962" lon="-1.92801">
        <ele>39</ele>
        <time>2014-04-08T13:25:00Z</time>
      </trkpt>
      <trkpt lat="47.1794" lon="-1.92819">
        <ele>39</ele>
        <time>2014-04-08T13:25:04Z</time>
      </trkpt>
      <trkpt lat="47.17917" lon="-1.92841">
        <ele>37</ele>
        <time>2014-04-08T13:25:08Z</time>
      </trkpt>
      <trkpt lat="47.17888" lon="-1.92863">
        <ele>36</ele>
        <time>2014-04-08T13:25:13Z</time>
      </trkpt>
      <trkpt lat="47.17868" lon="-1.92883">
        <ele>35</ele>
        <time>2014-04-08T13:25:17Z</time>
      </trkpt>
      <trkpt lat="47.17855" lon="-1.92893">
        <ele>33</ele>
        <time>2014-04-08T13:25:19Z</time>
      </trkpt>
      <trkpt lat="47.17827" lon="-1.92922">
        <ele>34</ele>
        <time>2014-04-08T13:25:25Z</time>
      </trkpt>
      <trkpt lat="47.17812" lon="-1.92936">
        <ele>34</ele>
        <time>2014-04-08T13:25:28Z</time>
      </trkpt>
      <trkpt lat="47.17796" lon="-1.9295">
        <ele>36</ele>
        <time>2014-04-08T13:25:31Z</time>
      </trkpt>
      <trkpt lat="47.17766" lon="-1.92975">
        <ele>37</ele>
        <time>2014-04-08T13:25:36Z</time>
      </trkpt>
      <trkpt lat="47.17755" lon="-1.92987">
        <ele>37</ele>
        <time>2014-04-08T13:25:38Z</time>
      </trkpt>
      <trkpt lat="47.17718" lon="-1.93016">
        <ele>36</ele>
        <time>2014-04-08T13:25:44Z</time>
      </trkpt>
      <trkpt lat="47.17686" lon="-1.93048">
        <ele>37</ele>
        <time>2014-04-08T13:25:50Z</time>
      </trkpt>
      <trkpt lat="47.1767" lon="-1.93067">
        <ele>38</ele>
        <time>2014-04-08T13:25:53Z</time>
      </trkpt>
      <trkpt lat="47.17658" lon="-1.9308">
        <ele>38</ele>
        <time>2014-04-08T13:25:55Z</time>
      </trkpt>
      <trkpt lat="47.17627" lon="-1.93124">
        <ele>39</ele>
        <time>2014-04-08T13:26:01Z</time>
      </trkpt>
      <trkpt lat="47.17611" lon="-1.93156">
        <ele>36</ele>
        <time>2014-04-08T13:26:05Z</time>
      </trkpt>
      <trkpt lat="47.17594" lon="-1.93194">
        <ele>39</ele>
        <time>2014-04-08T13:26:10Z</time>
      </trkpt>
      <trkpt lat="47.17576" lon="-1.93217">
        <ele>38</ele>
        <time>2014-04-08T13:26:13Z</time>
      </trkpt>
      <trkpt lat="47.1756" lon="-1.9325">
        <ele>38</ele>
        <time>2014-04-08T13:26:17Z</time>
      </trkpt>
      <trkpt lat="47.17547" lon="-1.93277">
        <ele>37</ele>
        <time>2014-04-08T13:26:20Z</time>
      </trkpt>
      <trkpt lat="47.17524" lon="-1.9332">
        <ele>37</ele>
        <time>2014-04-08T13:26:25Z</time>
      </trkpt>
      <trkpt lat="47.17511" lon="-1.93343">
        <ele>39</ele>
        <time>2014-04-08T13:26:28Z</time>
      </trkpt>
      <trkpt lat="47.17486" lon="-1.93394">
        <ele>41</ele>
        <time>2014-04-08T13:26:34Z</time>
      </trkpt>
      <trkpt lat="47.17465" lon="-1.93421">
        <ele>37</ele>
        <time>2014-04-08T13:26:37Z</time>
      </trkpt>
      <trkpt lat="47.17459" lon="-1.93439">
        <ele>37</ele>
        <time>2014-04-08T13:26:39Z</time>
      </trkpt>
      <trkpt lat="47.1744" lon="-1.93482">
        <ele>38</ele>
        <time>2014-04-08T13:26:43Z</time>
      </trkpt>
      <trkpt lat="47.17406" lon="-1.93541">
        <ele>38</ele>
        <time>2014-04-08T13:26:49Z</time>
      </trkpt>
      <trkpt lat="47.1739" lon="-1.93561">
        <ele>37</ele>
        <time>2014-04-08T13:26:51Z</time>
      </trkpt>
      <trkpt lat="47.17362" lon="-1.93618">
        <ele>38</ele>
        <time>2014-04-08T13:26:57Z</time>
      </trkpt>
      <trkpt lat="47.17341" lon="-1.93656">
        <ele>35</ele>
        <time>2014-04-08T13:27:01Z</time>
      </trkpt>
      <trkpt lat="47.1732" lon="-1.93696">
        <ele>36</ele>
        <time>2014-04-08T13:27:05Z</time>
      </trkpt>
      <trkpt lat="47.17306" lon="-1.93726">
        <ele>35</ele>
        <time>2014-04-08T13:27:08Z</time>
      </trkpt>
      <trkpt lat="47.17271" lon="-1.93785">
        <ele>37</ele>
        <time>2014-04-08T13:27:14Z</time>
      </trkpt>
      <trkpt lat="47.17246" lon="-1.93824">
        <ele>38</ele>
        <time>2014-04-08T13:27:18Z</time>
      </trkpt>
      <trkpt lat="47.17229" lon="-1.93859">
        <ele>38</ele>
        <time>2014-04-08T13:27:22Z</time>
      </trkpt>
      <trkpt lat="47.17215" lon="-1.93884">
        <ele>37</ele>
        <time>2014-04-08T13:27:25Z</time>
      </trkpt>
      <trkpt lat="47.17196" lon="-1.93922">
        <ele>37</ele>
        <time>2014-04-08T13:27:29Z</time>
      </trkpt>
      <trkpt lat="47.17184" lon="-1.93941">
        <ele>38</ele>
        <time>2014-04-08T13:27:31Z</time>
      </trkpt>
      <trkpt lat="47.17162" lon="-1.93994">
        <ele>36</ele>
        <time>2014-04-08T13:27:37Z</time>
      </trkpt>
      <trkpt lat="47.17146" lon="-1.94023">
        <ele>36</ele>
        <time>2014-04-08T13:27:40Z</time>
      </trkpt>
      <trkpt lat="47.17118" lon="-1.94071">
        <ele>37</ele>
        <time>2014-04-08T13:27:46Z</time>
      </trkpt>
      <trkpt lat="47.17107" lon="-1.94098">
        <ele>38</ele>
        <time>2014-04-08T13:27:49Z</time>
      </trkpt>
      <trkpt lat="47.17094" lon="-1.94123">
        <ele>38</ele>
        <time>2014-04-08T13:27:52Z</time>
      </trkpt>
      <trkpt lat="47.17074" lon="-1.94165">
        <ele>38</ele>
        <time>2014-04-08T13:27:57Z</time>
      </trkpt>
      <trkpt lat="47.17056" lon="-1.94195">
        <ele>37</ele>
        <time>2014-04-08T13:28:01Z</time>
      </trkpt>
      <trkpt lat="47.17037" lon="-1.94225">
        <ele>34</ele>
        <time>2014-04-08T13:28:05Z</time>
      </trkpt>
      <trkpt lat="47.17016" lon="-1.94252">
        <ele>34</ele>
        <time>2014-04-08T13:28:09Z</time>
      </trkpt>
      <trkpt lat="47.16999" lon="-1.94283">
        <ele>36</ele>
        <time>2014-04-08T13:28:13Z</time>
      </trkpt>
      <trkpt lat="47.16992" lon="-1.94295">
        <ele>37</ele>
        <time>2014-04-08T13:28:15Z</time>
      </trkpt>
      <trkpt lat="47.16975" lon="-1.94326">
        <ele>38</ele>
        <time>2014-04-08T13:28:19Z</time>
      </trkpt>
      <trkpt lat="47.16948" lon="-1.94375">
        <ele>39</ele>
        <time>2014-04-08T13:28:26Z</time>
      </trkpt>
      <trkpt lat="47.1693" lon="-1.94395">
        <ele>39</ele>
        <time>2014-04-08T13:28:29Z</time>
      </trkpt>
      <trkpt lat="47.16917" lon="-1.94422">
        <ele>41</ele>
        <time>2014-04-08T13:28:33Z</time>
      </trkpt>
      <trkpt lat="47.16899" lon="-1.94451">
        <ele>44</ele>
        <time>2014-04-08T13:28:37Z</time>
      </trkpt>
      <trkpt lat="47.1688" lon="-1.94478">
        <ele>42</ele>
        <time>2014-04-08T13:28:41Z</time>
      </trkpt>
      <trkpt lat="47.16861" lon="-1.94512">
        <ele>44</ele>
        <time>2014-04-08T13:28:46Z</time>
      </trkpt>
      <trkpt lat="47.16845" lon="-1.9454">
        <ele>45</ele>
        <time>2014-04-08T13:28:50Z</time>
      </trkpt>
      <trkpt lat="47.16833" lon="-1.94563">
        <ele>46</ele>
        <time>2014-04-08T13:28:53Z</time>
      </trkpt>
      <trkpt lat="47.16815" lon="-1.94591">
        <ele>46</ele>
        <time>2014-04-08T13:28:58Z</time>
      </trkpt>
      <trkpt lat="47.16796" lon="-1.94616">
        <ele>47</ele>
        <time>2014-04-08T13:29:01Z</time>
      </trkpt>
      <trkpt lat="47.16773" lon="-1.94651">
        <ele>48</ele>
        <time>2014-04-08T13:29:06Z</time>
      </trkpt>
      <trkpt lat="47.16756" lon="-1.94679">
        <ele>47</ele>
        <time>2014-04-08T13:29:10Z</time>
      </trkpt>
      <trkpt lat="47.16746" lon="-1.94694">
        <ele>46</ele>
        <time>2014-04-08T13:29:12Z</time>
      </trkpt>
      <trkpt lat="47.16719" lon="-1.94736">
        <ele>43</ele>
        <time>2014-04-08T13:29:18Z</time>
      </trkpt>
      <trkpt lat="47.16696" lon="-1.94769">
        <ele>43</ele>
        <time>2014-04-08T13:29:23Z</time>
      </trkpt>
      <trkpt lat="47.16691" lon="-1.94777">
        <ele>45</ele>
        <time>2014-04-08T13:29:24Z</time>
      </trkpt>
      <trkpt lat="47.16673" lon="-1.94805">
        <ele>45</ele>
        <time>2014-04-08T13:29:28Z</time>
      </trkpt>
      <trkpt lat="47.16644" lon="-1.94857">
        <ele>45</ele>
        <time>2014-04-08T13:29:35Z</time>
      </trkpt>
      <trkpt lat="47.16631" lon="-1.94881">
        <ele>47</ele>
        <time>2014-04-08T13:29:38Z</time>
      </trkpt>
      <trkpt lat="47.16602" lon="-1.94914">
        <ele>47</ele>
        <time>2014-04-08T13:29:42Z</time>
      </trkpt>
      <trkpt lat="47.16581" lon="-1.94955">
        <ele>46</ele>
        <time>2014-04-08T13:29:47Z</time>
      </trkpt>
      <trkpt lat="47.16575" lon="-1.94964">
        <ele>45</ele>
        <time>2014-04-08T13:29:48Z</time>
      </trkpt>
      <trkpt lat="47.16546" lon="-1.95026">
        <ele>49</ele>
        <time>2014-04-08T13:29:55Z</time>
      </trkpt>
      <trkpt lat="47.16524" lon="-1.95063">
        <ele>45</ele>
        <time>2014-04-08T13:29:59Z</time>
      </trkpt>
      <trkpt lat="47.16516" lon="-1.95082">
        <ele>46</ele>
        <time>2014-04-08T13:30:01Z</time>
      </trkpt>
      <trkpt lat="47.16487" lon="-1.95137">
        <ele>42</ele>
        <time>2014-04-08T13:30:07Z</time>
      </trkpt>
      <trkpt lat="47.16464" lon="-1.95184">
        <ele>41</ele>
        <time>2014-04-08T13:30:12Z</time>
      </trkpt>
      <trkpt lat="47.16452" lon="-1.95214">
        <ele>41</ele>
        <time>2014-04-08T13:30:15Z</time>
      </trkpt>
      <trkpt lat="47.16442" lon="-1.95234">
        <ele>41</ele>
        <time>2014-04-08T13:30:17Z</time>
      </trkpt>
      <trkpt lat="47.16411" lon="-1.95293">
        <ele>41</ele>
        <time>2014-04-08T13:30:23Z</time>
      </trkpt>
      <trkpt lat="47.16401" lon="-1.95312">
        <ele>40</ele>
        <time>2014-04-08T13:30:25Z</time>
      </trkpt>
      <trkpt lat="47.16371" lon="-1.95376">
        <ele>41</ele>
        <time>2014-04-08T13:30:31Z</time>
      </trkpt>
      <trkpt lat="47.16343" lon="-1.95428">
        <ele>39</ele>
        <time>2014-04-08T13:30:36Z</time>
      </trkpt>
      <trkpt lat="47.16322" lon="-1.95466">
        <ele>41</ele>
        <time>2014-04-08T13:30:40Z</time>
      </trkpt>
      <trkpt lat="47.16312" lon="-1.95486">
        <ele>40</ele>
        <time>2014-04-08T13:30:42Z</time>
      </trkpt>
      <trkpt lat="47.16291" lon="-1.95522">
        <ele>41</ele>
        <time>2014-04-08T13:30:46Z</time>
      </trkpt>
      <trkpt lat="47.16268" lon="-1.95573">
        <ele>40</ele>
        <time>2014-04-08T13:30:51Z</time>
      </trkpt>
      <trkpt lat="47.16253" lon="-1.956">
        <ele>41</ele>
        <time>2014-04-08T13:30:54Z</time>
      </trkpt>
      <trkpt lat="47.16235" lon="-1.95626">
        <ele>39</ele>
        <time>2014-04-08T13:30:57Z</time>
      </trkpt>
      <trkpt lat="47.16208" lon="-1.95686">
        <ele>39</ele>
        <time>2014-04-08T13:31:03Z</time>
      </trkpt>
      <trkpt lat="47.16178" lon="-1.95722">
        <ele>37</ele>
        <time>2014-04-08T13:31:07Z</time>
      </trkpt>
      <trkpt lat="47.16157" lon="-1.95771">
        <ele>38</ele>
        <time>2014-04-08T13:31:12Z</time>
      </trkpt>
      <trkpt lat="47.16144" lon="-1.95801">
        <ele>38</ele>
        <time>2014-04-08T13:31:15Z</time>
      </trkpt>
      <trkpt lat="47.16129" lon="-1.95828">
        <ele>40</ele>
        <time>2014-04-08T13:31:18Z</time>
      </trkpt>
      <trkpt lat="47.1612" lon="-1.95859">
        <ele>40</ele>
        <time>2014-04-08T13:31:21Z</time>
      </trkpt>
      <trkpt lat="47.16084" lon="-1.95931">
        <ele>38</ele>
        <time>2014-04-08T13:31:28Z</time>
      </trkpt>
      <trkpt lat="47.16055" lon="-1.95963">
        <ele>35</ele>
        <time>2014-04-08T13:31:31Z</time>
      </trkpt>
      <trkpt lat="47.16033" lon="-1.96014">
        <ele>35</ele>
        <time>2014-04-08T13:31:36Z</time>
      </trkpt>
      <trkpt lat="47.16013" lon="-1.96054">
        <ele>31</ele>
        <time>2014-04-08T13:31:40Z</time>
      </trkpt>
      <trkpt lat="47.15997" lon="-1.96084">
        <ele>30</ele>
        <time>2014-04-08T13:31:43Z</time>
      </trkpt>
      <trkpt lat="47.15985" lon="-1.96116">
        <ele>32</ele>
        <time>2014-04-08T13:31:46Z</time>
      </trkpt>
      <trkpt lat="47.15964" lon="-1.96196">
        <ele>33</ele>
        <time>2014-04-08T13:31:53Z</time>
      </trkpt>
      <trkpt lat="47.15952" lon="-1.96226">
        <ele>35</ele>
        <time>2014-04-08T13:31:56Z</time>
      </trkpt>
      <trkpt lat="47.15937" lon="-1.96263">
        <ele>35</ele>
        <time>2014-04-08T13:32:00Z</time>
      </trkpt>
      <trkpt lat="47.15923" lon="-1.96287">
        <ele>34</ele>
        <time>2014-04-08T13:32:03Z</time>
      </trkpt>
      <trkpt lat="47.15908" lon="-1.96318">
        <ele>33</ele>
        <time>2014-04-08T13:32:06Z</time>
      </trkpt>
      <trkpt lat="47.15876" lon="-1.96373">
        <ele>33</ele>
        <time>2014-04-08T13:32:12Z</time>
      </trkpt>
      <trkpt lat="47.15866" lon="-1.96389">
        <ele>31</ele>
        <time>2014-04-08T13:32:14Z</time>
      </trkpt>
      <trkpt lat="47.15841" lon="-1.96442">
        <ele>34</ele>
        <time>2014-04-08T13:32:20Z</time>
      </trkpt>
      <trkpt lat="47.15814" lon="-1.96483">
        <ele>34</ele>
        <time>2014-04-08T13:32:25Z</time>
      </trkpt>
      <trkpt lat="47.15794" lon="-1.96514">
        <ele>32</ele>
        <time>2014-04-08T13:32:29Z</time>
      </trkpt>
      <trkpt lat="47.15782" lon="-1.96539">
        <ele>34</ele>
        <time>2014-04-08T13:32:32Z</time>
      </trkpt>
      <trkpt lat="47.15758" lon="-1.9658">
        <ele>31</ele>
        <time>2014-04-08T13:32:37Z</time>
      </trkpt>
      <trkpt lat="47.15753" lon="-1.9659">
        <ele>30</ele>
        <time>2014-04-08T13:32:38Z</time>
      </trkpt>
      <trkpt lat="47.15725" lon="-1.9664">
        <ele>31</ele>
        <time>2014-04-08T13:32:44Z</time>
      </trkpt>
      <trkpt lat="47.15698" lon="-1.96683">
        <ele>33</ele>
        <time>2014-04-08T13:32:49Z</time>
      </trkpt>
      <trkpt lat="47.15686" lon="-1.96708">
        <ele>32</ele>
        <time>2014-04-08T13:32:52Z</time>
      </trkpt>
      <trkpt lat="47.15674" lon="-1.96746">
        <ele>32</ele>
        <time>2014-04-08T13:32:56Z</time>
      </trkpt>
      <trkpt lat="47.15655" lon="-1.96783">
        <ele>30</ele>
        <time>2014-04-08T13:33:00Z</time>
      </trkpt>
      <trkpt lat="47.1564" lon="-1.96826">
        <ele>28</ele>
        <time>2014-04-08T13:33:04Z</time>
      </trkpt>
      <trkpt lat="47.15635" lon="-1.96866">
        <ele>30</ele>
        <time>2014-04-08T13:33:08Z</time>
      </trkpt>
      <trkpt lat="47.15631" lon="-1.96886">
        <ele>29</ele>
        <time>2014-04-08T13:33:10Z</time>
      </trkpt>
      <trkpt lat="47.1562" lon="-1.96961">
        <ele>32</ele>
        <time>2014-04-08T13:33:17Z</time>
      </trkpt>
      <trkpt lat="47.15614" lon="-1.96993">
        <ele>32</ele>
        <time>2014-04-08T13:33:20Z</time>
      </trkpt>
      <trkpt lat="47.15608" lon="-1.9701">
        <ele>31</ele>
        <time>2014-04-08T13:33:22Z</time>
      </trkpt>
      <trkpt lat="47.15596" lon="-1.97082">
        <ele>31</ele>
        <time>2014-04-08T13:33:29Z</time>
      </trkpt>
      <trkpt lat="47.15587" lon="-1.97124">
        <ele>30</ele>
        <time>2014-04-08T13:33:33Z</time>
      </trkpt>
      <trkpt lat="47.15579" lon="-1.97154">
        <ele>29</ele>
        <time>2014-04-08T13:33:36Z</time>
      </trkpt>
      <trkpt lat="47.1557" lon="-1.97198">
        <ele>28</ele>
        <time>2014-04-08T13:33:40Z</time>
      </trkpt>
      <trkpt lat="47.1556" lon="-1.97238">
        <ele>27</ele>
        <time>2014-04-08T13:33:44Z</time>
      </trkpt>
      <trkpt lat="47.15555" lon="-1.9727">
        <ele>28</ele>
        <time>2014-04-08T13:33:47Z</time>
      </trkpt>
      <trkpt lat="47.15547" lon="-1.97326">
        <ele>26</ele>
        <time>2014-04-08T13:33:52Z</time>
      </trkpt>
      <trkpt lat="47.15534" lon="-1.97379">
        <ele>25</ele>
        <time>2014-04-08T13:33:57Z</time>
      </trkpt>
      <trkpt lat="47.1553" lon="-1.97411">
        <ele>26</ele>
        <time>2014-04-08T13:34:00Z</time>
      </trkpt>
      <trkpt lat="47.15527" lon="-1.97434">
        <ele>27</ele>
        <time>2014-04-08T13:34:02Z</time>
      </trkpt>
      <trkpt lat="47.15514" lon="-1.97495">
        <ele>30</ele>
        <time>2014-04-08T13:34:08Z</time>
      </trkpt>
      <trkpt lat="47.1551" lon="-1.97538">
        <ele>30</ele>
        <time>2014-04-08T13:34:12Z</time>
      </trkpt>
      <trkpt lat="47.15504" lon="-1.97568">
        <ele>30</ele>
        <time>2014-04-08T13:34:15Z</time>
      </trkpt>
      <trkpt lat="47.15494" lon="-1.97639">
        <ele>30</ele>
        <time>2014-04-08T13:34:21Z</time>
      </trkpt>
      <trkpt lat="47.15485" lon="-1.97681">
        <ele>30</ele>
        <time>2014-04-08T13:34:25Z</time>
      </trkpt>
      <trkpt lat="47.15479" lon="-1.97704">
        <ele>29</ele>
        <time>2014-04-08T13:34:27Z</time>
      </trkpt>
      <trkpt lat="47.15469" lon="-1.97762">
        <ele>30</ele>
        <time>2014-04-08T13:34:33Z</time>
      </trkpt>
      <trkpt lat="47.15463" lon="-1.97802">
        <ele>29</ele>
        <time>2014-04-08T13:34:38Z</time>
      </trkpt>
      <trkpt lat="47.15453" lon="-1.97836">
        <ele>28</ele>
        <time>2014-04-08T13:34:40Z</time>
      </trkpt>
      <trkpt lat="47.15445" lon="-1.97889">
        <ele>28</ele>
        <time>2014-04-08T13:34:45Z</time>
      </trkpt>
      <trkpt lat="47.15443" lon="-1.97932">
        <ele>32</ele>
        <time>2014-04-08T13:34:50Z</time>
      </trkpt>
      <trkpt lat="47.15444" lon="-1.97955">
        <ele>34</ele>
        <time>2014-04-08T13:34:51Z</time>
      </trkpt>
      <trkpt lat="47.15442" lon="-1.98">
        <ele>33</ele>
        <time>2014-04-08T13:34:55Z</time>
      </trkpt>
      <trkpt lat="47.15444" lon="-1.98057">
        <ele>30</ele>
        <time>2014-04-08T13:35:01Z</time>
      </trkpt>
      <trkpt lat="47.15444" lon="-1.98088">
        <ele>28</ele>
        <time>2014-04-08T13:35:04Z</time>
      </trkpt>
      <trkpt lat="47.15436" lon="-1.9814">
        <ele>24</ele>
        <time>2014-04-08T13:35:09Z</time>
      </trkpt>
      <trkpt lat="47.15434" lon="-1.98168">
        <ele>24</ele>
        <time>2014-04-08T13:35:12Z</time>
      </trkpt>
      <trkpt lat="47.15432" lon="-1.9821">
        <ele>22</ele>
        <time>2014-04-08T13:35:17Z</time>
      </trkpt>
      <trkpt lat="47.15431" lon="-1.98236">
        <ele>21</ele>
        <time>2014-04-08T13:35:20Z</time>
      </trkpt>
      <trkpt lat="47.15431" lon="-1.98268">
        <ele>19</ele>
        <time>2014-04-08T13:35:23Z</time>
      </trkpt>
      <trkpt lat="47.15423" lon="-1.98312">
        <ele>19</ele>
        <time>2014-04-08T13:35:28Z</time>
      </trkpt>
      <trkpt lat="47.15417" lon="-1.9834">
        <ele>19</ele>
        <time>2014-04-08T13:35:31Z</time>
      </trkpt>
      <trkpt lat="47.15399" lon="-1.98383">
        <ele>18</ele>
        <time>2014-04-08T13:35:37Z</time>
      </trkpt>
      <trkpt lat="47.15388" lon="-1.98395">
        <ele>19</ele>
        <time>2014-04-08T13:35:38Z</time>
      </trkpt>
      <trkpt lat="47.15341" lon="-1.98443">
        <ele>16</ele>
        <time>2014-04-08T13:35:46Z</time>
      </trkpt>
      <trkpt lat="47.15328" lon="-1.98456">
        <ele>16</ele>
        <time>2014-04-08T13:35:48Z</time>
      </trkpt>
      <trkpt lat="47.15297" lon="-1.98464">
        <ele>15</ele>
        <time>2014-04-08T13:35:52Z</time>
      </trkpt>
      <trkpt lat="47.15254" lon="-1.98484">
        <ele>15</ele>
        <time>2014-04-08T13:35:59Z</time>
      </trkpt>
      <trkpt lat="47.15237" lon="-1.98489">
        <ele>16</ele>
        <time>2014-04-08T13:36:02Z</time>
      </trkpt>
      <trkpt lat="47.1521" lon="-1.985">
        <ele>17</ele>
        <time>2014-04-08T13:36:07Z</time>
      </trkpt>
      <trkpt lat="47.15199" lon="-1.98506">
        <ele>17</ele>
        <time>2014-04-08T13:36:09Z</time>
      </trkpt>
      <trkpt lat="47.15184" lon="-1.9851">
        <ele>18</ele>
        <time>2014-04-08T13:36:12Z</time>
      </trkpt>
      <trkpt lat="47.15144" lon="-1.98521">
        <ele>19</ele>
        <time>2014-04-08T13:36:19Z</time>
      </trkpt>
      <trkpt lat="47.15137" lon="-1.98538">
        <ele>19</ele>
        <time>2014-04-08T13:36:21Z</time>
      </trkpt>
      <trkpt lat="47.15142" lon="-1.98571">
        <ele>21</ele>
        <time>2014-04-08T13:36:25Z</time>
      </trkpt>
      <trkpt lat="47.15142" lon="-1.98603">
        <ele>25</ele>
        <time>2014-04-08T13:36:30Z</time>
      </trkpt>
      <trkpt lat="47.15137" lon="-1.98618">
        <ele>27</ele>
        <time>2014-04-08T13:36:37Z</time>
      </trkpt>
      <trkpt lat="47.15144" lon="-1.9865">
        <ele>25</ele>
        <time>2014-04-08T13:36:48Z</time>
      </trkpt>
      <trkpt lat="47.1513" lon="-1.98662">
        <ele>24</ele>
        <time>2014-04-08T13:36:55Z</time>
      </trkpt>
      <trkpt lat="47.15116" lon="-1.9867">
        <ele>27</ele>
        <time>2014-04-08T13:36:58Z</time>
      </trkpt>
      <trkpt lat="47.15094" lon="-1.9869">
        <ele>26</ele>
        <time>2014-04-08T13:37:01Z</time>
      </trkpt>
      <trkpt lat="47.15065" lon="-1.9872">
        <ele>25</ele>
        <time>2014-04-08T13:37:06Z</time>
      </trkpt>
      <trkpt lat="47.15036" lon="-1.98748">
        <ele>24</ele>
        <time>2014-04-08T13:37:12Z</time>
      </trkpt>
      <trkpt lat="47.15018" lon="-1.98767">
        <ele>21</ele>
        <time>2014-04-08T13:37:14Z</time>
      </trkpt>
      <trkpt lat="47.15" lon="-1.98786">
        <ele>24</ele>
        <time>2014-04-08T13:37:17Z</time>
      </trkpt>
      <trkpt lat="47.14963" lon="-1.98831">
        <ele>25</ele>
        <time>2014-04-08T13:37:23Z</time>
      </trkpt>
      <trkpt lat="47.14956" lon="-1.98839">
        <ele>26</ele>
        <time>2014-04-08T13:37:24Z</time>
      </trkpt>
      <trkpt lat="47.14917" lon="-1.98892">
        <ele>22</ele>
        <time>2014-04-08T13:37:31Z</time>
      </trkpt>
      <trkpt lat="47.14898" lon="-1.9892">
        <ele>23</ele>
        <time>2014-04-08T13:37:33Z</time>
      </trkpt>
      <trkpt lat="47.14876" lon="-1.9895">
        <ele>19</ele>
        <time>2014-04-08T13:37:36Z</time>
      </trkpt>
      <trkpt lat="47.14824" lon="-1.99029">
        <ele>19</ele>
        <time>2014-04-08T13:37:44Z</time>
      </trkpt>
      <trkpt lat="47.14799" lon="-1.99062">
        <ele>19</ele>
        <time>2014-04-08T13:37:48Z</time>
      </trkpt>
      <trkpt lat="47.14788" lon="-1.99081">
        <ele>20</ele>
        <time>2014-04-08T13:37:50Z</time>
      </trkpt>
      <trkpt lat="47.14758" lon="-1.99125">
        <ele>18</ele>
        <time>2014-04-08T13:37:56Z</time>
      </trkpt>
      <trkpt lat="47.14734" lon="-1.9916">
        <ele>17</ele>
        <time>2014-04-08T13:38:00Z</time>
      </trkpt>
      <trkpt lat="47.14712" lon="-1.99197">
        <ele>18</ele>
        <time>2014-04-08T13:38:04Z</time>
      </trkpt>
      <trkpt lat="47.1469" lon="-1.99236">
        <ele>18</ele>
        <time>2014-04-08T13:38:07Z</time>
      </trkpt>
      <trkpt lat="47.14682" lon="-1.99258">
        <ele>17</ele>
        <time>2014-04-08T13:38:09Z</time>
      </trkpt>
      <trkpt lat="47.1465" lon="-1.9931">
        <ele>16</ele>
        <time>2014-04-08T13:38:15Z</time>
      </trkpt>
      <trkpt lat="47.14623" lon="-1.99352">
        <ele>16</ele>
        <time>2014-04-08T13:38:20Z</time>
      </trkpt>
      <trkpt lat="47.14608" lon="-1.99385">
        <ele>13</ele>
        <time>2014-04-08T13:38:23Z</time>
      </trkpt>
      <trkpt lat="47.14587" lon="-1.99421">
        <ele>11</ele>
        <time>2014-04-08T13:38:27Z</time>
      </trkpt>
      <trkpt lat="47.1457" lon="-1.99462">
        <ele>8</ele>
        <time>2014-04-08T13:38:31Z</time>
      </trkpt>
      <trkpt lat="47.14542" lon="-1.99505">
        <ele>8</ele>
        <time>2014-04-08T13:38:36Z</time>
      </trkpt>
      <trkpt lat="47.14527" lon="-1.99529">
        <ele>8</ele>
        <time>2014-04-08T13:38:39Z</time>
      </trkpt>
      <trkpt lat="47.14508" lon="-1.99567">
        <ele>11</ele>
        <time>2014-04-08T13:38:43Z</time>
      </trkpt>
      <trkpt lat="47.14498" lon="-1.99586">
        <ele>11</ele>
        <time>2014-04-08T13:38:45Z</time>
      </trkpt>
      <trkpt lat="47.14473" lon="-1.99647">
        <ele>12</ele>
        <time>2014-04-08T13:38:52Z</time>
      </trkpt>
      <trkpt lat="47.14443" lon="-1.9969">
        <ele>8</ele>
        <time>2014-04-08T13:38:57Z</time>
      </trkpt>
      <trkpt lat="47.14422" lon="-1.99724">
        <ele>8</ele>
        <time>2014-04-08T13:39:00Z</time>
      </trkpt>
      <trkpt lat="47.14399" lon="-1.99758">
        <ele>8</ele>
        <time>2014-04-08T13:39:04Z</time>
      </trkpt>
      <trkpt lat="47.14376" lon="-1.99791">
        <ele>11</ele>
        <time>2014-04-08T13:39:08Z</time>
      </trkpt>
      <trkpt lat="47.14359" lon="-1.99818">
        <ele>14</ele>
        <time>2014-04-08T13:39:11Z</time>
      </trkpt>
      <trkpt lat="47.14334" lon="-1.99862">
        <ele>14</ele>
        <time>2014-04-08T13:39:16Z</time>
      </trkpt>
      <trkpt lat="47.14326" lon="-1.99882">
        <ele>14</ele>
        <time>2014-04-08T13:39:19Z</time>
      </trkpt>
      <trkpt lat="47.14299" lon="-1.99928">
        <ele>15</ele>
        <time>2014-04-08T13:39:23Z</time>
      </trkpt>
      <trkpt lat="47.14263" lon="-1.99984">
        <ele>12</ele>
        <time>2014-04-08T13:39:29Z</time>
      </trkpt>
      <trkpt lat="47.1424" lon="-2.00021">
        <ele>11</ele>
        <time>2014-04-08T13:39:33Z</time>
      </trkpt>
      <trkpt lat="47.14223" lon="-2.00048">
        <ele>11</ele>
        <time>2014-04-08T13:39:36Z</time>
      </trkpt>
      <trkpt lat="47.142" lon="-2.00084">
        <ele>11</ele>
        <time>2014-04-08T13:39:40Z</time>
      </trkpt>
      <trkpt lat="47.14178" lon="-2.0012">
        <ele>10</ele>
        <time>2014-04-08T13:39:44Z</time>
      </trkpt>
      <trkpt lat="47.14152" lon="-2.00165">
        <ele>10</ele>
        <time>2014-04-08T13:39:50Z</time>
      </trkpt>
      <trkpt lat="47.14147" lon="-2.00175">
        <ele>10</ele>
        <time>2014-04-08T13:39:51Z</time>
      </trkpt>
      <trkpt lat="47.14114" lon="-2.0023">
        <ele>9</ele>
        <time>2014-04-08T13:39:56Z</time>
      </trkpt>
      <trkpt lat="47.14093" lon="-2.00269">
        <ele>8</ele>
        <time>2014-04-08T13:40:00Z</time>
      </trkpt>
      <trkpt lat="47.14073" lon="-2.00309">
        <ele>10</ele>
        <time>2014-04-08T13:40:05Z</time>
      </trkpt>
      <trkpt lat="47.14054" lon="-2.00346">
        <ele>13</ele>
        <time>2014-04-08T13:40:08Z</time>
      </trkpt>
      <trkpt lat="47.14036" lon="-2.00385">
        <ele>13</ele>
        <time>2014-04-08T13:40:12Z</time>
      </trkpt>
      <trkpt lat="47.14011" lon="-2.00432">
        <ele>14</ele>
        <time>2014-04-08T13:40:18Z</time>
      </trkpt>
      <trkpt lat="47.14" lon="-2.00462">
        <ele>14</ele>
        <time>2014-04-08T13:40:21Z</time>
      </trkpt>
      <trkpt lat="47.13983" lon="-2.005">
        <ele>13</ele>
        <time>2014-04-08T13:40:24Z</time>
      </trkpt>
      <trkpt lat="47.13967" lon="-2.00537">
        <ele>12</ele>
        <time>2014-04-08T13:40:28Z</time>
      </trkpt>
      <trkpt lat="47.13953" lon="-2.00574">
        <ele>14</ele>
        <time>2014-04-08T13:40:32Z</time>
      </trkpt>
      <trkpt lat="47.13935" lon="-2.0061">
        <ele>11</ele>
        <time>2014-04-08T13:40:36Z</time>
      </trkpt>
      <trkpt lat="47.13922" lon="-2.00636">
        <ele>12</ele>
        <time>2014-04-08T13:40:39Z</time>
      </trkpt>
      <trkpt lat="47.13898" lon="-2.00681">
        <ele>10</ele>
        <time>2014-04-08T13:40:44Z</time>
      </trkpt>
      <trkpt lat="47.13889" lon="-2.00697">
        <ele>10</ele>
        <time>2014-04-08T13:40:46Z</time>
      </trkpt>
      <trkpt lat="47.13862" lon="-2.00749">
        <ele>9</ele>
        <time>2014-04-08T13:40:52Z</time>
      </trkpt>
      <trkpt lat="47.1385" lon="-2.00775">
        <ele>8</ele>
        <time>2014-04-08T13:40:55Z</time>
      </trkpt>
      <trkpt lat="47.13833" lon="-2.00817">
        <ele>8</ele>
        <time>2014-04-08T13:41:00Z</time>
      </trkpt>
      <trkpt lat="47.13812" lon="-2.00862">
        <ele>13</ele>
        <time>2014-04-08T13:41:05Z</time>
      </trkpt>
      <trkpt lat="47.13796" lon="-2.00893">
        <ele>13</ele>
        <time>2014-04-08T13:41:09Z</time>
      </trkpt>
      <trkpt lat="47.13783" lon="-2.0092">
        <ele>12</ele>
        <time>2014-04-08T13:41:12Z</time>
      </trkpt>
      <trkpt lat="47.13765" lon="-2.00954">
        <ele>13</ele>
        <time>2014-04-08T13:41:16Z</time>
      </trkpt>
      <trkpt lat="47.13751" lon="-2.00988">
        <ele>11</ele>
        <time>2014-04-08T13:41:20Z</time>
      </trkpt>
      <trkpt lat="47.13738" lon="-2.01026">
        <ele>10</ele>
        <time>2014-04-08T13:41:24Z</time>
      </trkpt>
      <trkpt lat="47.13735" lon="-2.01046">
        <ele>9</ele>
        <time>2014-04-08T13:41:27Z</time>
      </trkpt>
      <trkpt lat="47.13718" lon="-2.01092">
        <ele>9</ele>
        <time>2014-04-08T13:41:31Z</time>
      </trkpt>
      <trkpt lat="47.137" lon="-2.01143">
        <ele>7</ele>
        <time>2014-04-08T13:41:36Z</time>
      </trkpt>
      <trkpt lat="47.13694" lon="-2.01162">
        <ele>6</ele>
        <time>2014-04-08T13:41:38Z</time>
      </trkpt>
      <trkpt lat="47.13674" lon="-2.01231">
        <ele>5</ele>
        <time>2014-04-08T13:41:45Z</time>
      </trkpt>
      <trkpt lat="47.13659" lon="-2.01276">
        <ele>5</ele>
        <time>2014-04-08T13:41:50Z</time>
      </trkpt>
      <trkpt lat="47.13646" lon="-2.01311">
        <ele>7</ele>
        <time>2014-04-08T13:41:54Z</time>
      </trkpt>
      <trkpt lat="47.13643" lon="-2.01322">
        <ele>7</ele>
        <time>2014-04-08T13:41:55Z</time>
      </trkpt>
      <trkpt lat="47.13628" lon="-2.01377">
        <ele>7</ele>
        <time>2014-04-08T13:42:01Z</time>
      </trkpt>
      <trkpt lat="47.13616" lon="-2.01415">
        <ele>9</ele>
        <time>2014-04-08T13:42:05Z</time>
      </trkpt>
      <trkpt lat="47.13604" lon="-2.01454">
        <ele>9</ele>
        <time>2014-04-08T13:42:09Z</time>
      </trkpt>
      <trkpt lat="47.1359" lon="-2.01493">
        <ele>6</ele>
        <time>2014-04-08T13:42:13Z</time>
      </trkpt>
      <trkpt lat="47.13582" lon="-2.01512">
        <ele>4</ele>
        <time>2014-04-08T13:42:15Z</time>
      </trkpt>
      <trkpt lat="47.13567" lon="-2.01578">
        <ele>4</ele>
        <time>2014-04-08T13:42:23Z</time>
      </trkpt>
      <trkpt lat="47.13562" lon="-2.01608">
        <ele>5</ele>
        <time>2014-04-08T13:42:25Z</time>
      </trkpt>
      <trkpt lat="47.13556" lon="-2.01647">
        <ele>4</ele>
        <time>2014-04-08T13:42:29Z</time>
      </trkpt>
      <trkpt lat="47.13552" lon="-2.01691">
        <ele>3</ele>
        <time>2014-04-08T13:42:33Z</time>
      </trkpt>
      <trkpt lat="47.13546" lon="-2.01736">
        <ele>5</ele>
        <time>2014-04-08T13:42:37Z</time>
      </trkpt>
      <trkpt lat="47.13543" lon="-2.01773">
        <ele>4</ele>
        <time>2014-04-08T13:42:40Z</time>
      </trkpt>
      <trkpt lat="47.13538" lon="-2.01804">
        <ele>4</ele>
        <time>2014-04-08T13:42:43Z</time>
      </trkpt>
      <trkpt lat="47.13532" lon="-2.01859">
        <ele>4</ele>
        <time>2014-04-08T13:42:48Z</time>
      </trkpt>
      <trkpt lat="47.13522" lon="-2.01929">
        <ele>2</ele>
        <time>2014-04-08T13:42:54Z</time>
      </trkpt>
      <trkpt lat="47.13519" lon="-2.01951">
        <ele>10</ele>
        <time>2014-04-08T13:42:56Z</time>
      </trkpt>
      <trkpt lat="47.13517" lon="-2.0202">
        <ele>5</ele>
        <time>2014-04-08T13:43:02Z</time>
      </trkpt>
      <trkpt lat="47.13511" lon="-2.02065">
        <ele>6</ele>
        <time>2014-04-08T13:43:07Z</time>
      </trkpt>
      <trkpt lat="47.13507" lon="-2.02109">
        <ele>7</ele>
        <time>2014-04-08T13:43:11Z</time>
      </trkpt>
      <trkpt lat="47.13502" lon="-2.02163">
        <ele>8</ele>
        <time>2014-04-08T13:43:15Z</time>
      </trkpt>
      <trkpt lat="47.13498" lon="-2.02198">
        <ele>9</ele>
        <time>2014-04-08T13:43:19Z</time>
      </trkpt>
      <trkpt lat="47.13491" lon="-2.02227">
        <ele>9</ele>
        <time>2014-04-08T13:43:21Z</time>
      </trkpt>
      <trkpt lat="47.13474" lon="-2.02291">
        <ele>9</ele>
        <time>2014-04-08T13:43:27Z</time>
      </trkpt>
      <trkpt lat="47.13472" lon="-2.02308">
        <ele>10</ele>
        <time>2014-04-08T13:43:29Z</time>
      </trkpt>
      <trkpt lat="47.13455" lon="-2.02357">
        <ele>8</ele>
        <time>2014-04-08T13:43:34Z</time>
      </trkpt>
      <trkpt lat="47.13441" lon="-2.02394">
        <ele>10</ele>
        <time>2014-04-08T13:43:38Z</time>
      </trkpt>
      <trkpt lat="47.13421" lon="-2.02441">
        <ele>9</ele>
        <time>2014-04-08T13:43:43Z</time>
      </trkpt>
      <trkpt lat="47.13416" lon="-2.0245">
        <ele>8</ele>
        <time>2014-04-08T13:43:45Z</time>
      </trkpt>
      <trkpt lat="47.13395" lon="-2.02512">
        <ele>9</ele>
        <time>2014-04-08T13:43:51Z</time>
      </trkpt>
      <trkpt lat="47.13384" lon="-2.02541">
        <ele>8</ele>
        <time>2014-04-08T13:43:55Z</time>
      </trkpt>
      <trkpt lat="47.13375" lon="-2.02556">
        <ele>9</ele>
        <time>2014-04-08T13:43:56Z</time>
      </trkpt>
      <trkpt lat="47.13353" lon="-2.02604">
        <ele>7</ele>
        <time>2014-04-08T13:44:02Z</time>
      </trkpt>
      <trkpt lat="47.13328" lon="-2.02644">
        <ele>7</ele>
        <time>2014-04-08T13:44:08Z</time>
      </trkpt>
      <trkpt lat="47.13314" lon="-2.02673">
        <ele>6</ele>
        <time>2014-04-08T13:44:10Z</time>
      </trkpt>
      <trkpt lat="47.13306" lon="-2.02702">
        <ele>5</ele>
        <time>2014-04-08T13:44:13Z</time>
      </trkpt>
      <trkpt lat="47.13287" lon="-2.02746">
        <ele>5</ele>
        <time>2014-04-08T13:44:19Z</time>
      </trkpt>
      <trkpt lat="47.13278" lon="-2.02784">
        <ele>7</ele>
        <time>2014-04-08T13:44:23Z</time>
      </trkpt>
      <trkpt lat="47.13267" lon="-2.02823">
        <ele>7</ele>
        <time>2014-04-08T13:44:27Z</time>
      </trkpt>
      <trkpt lat="47.13256" lon="-2.02863">
        <ele>6</ele>
        <time>2014-04-08T13:44:31Z</time>
      </trkpt>
      <trkpt lat="47.13248" lon="-2.02904">
        <ele>5</ele>
        <time>2014-04-08T13:44:34Z</time>
      </trkpt>
      <trkpt lat="47.13237" lon="-2.02952">
        <ele>5</ele>
        <time>2014-04-08T13:44:40Z</time>
      </trkpt>
      <trkpt lat="47.13227" lon="-2.02988">
        <ele>5</ele>
        <time>2014-04-08T13:44:43Z</time>
      </trkpt>
      <trkpt lat="47.13218" lon="-2.03018">
        <ele>6</ele>
        <time>2014-04-08T13:44:46Z</time>
      </trkpt>
      <trkpt lat="47.13208" lon="-2.0306">
        <ele>6</ele>
        <time>2014-04-08T13:44:50Z</time>
      </trkpt>
      <trkpt lat="47.13199" lon="-2.0309">
        <ele>8</ele>
        <time>2014-04-08T13:44:53Z</time>
      </trkpt>
      <trkpt lat="47.13188" lon="-2.03128">
        <ele>9</ele>
        <time>2014-04-08T13:44:57Z</time>
      </trkpt>
      <trkpt lat="47.13174" lon="-2.03167">
        <ele>11</ele>
        <time>2014-04-08T13:45:01Z</time>
      </trkpt>
      <trkpt lat="47.13158" lon="-2.03206">
        <ele>10</ele>
        <time>2014-04-08T13:45:05Z</time>
      </trkpt>
      <trkpt lat="47.13146" lon="-2.0326">
        <ele>13</ele>
        <time>2014-04-08T13:45:11Z</time>
      </trkpt>
      <trkpt lat="47.13131" lon="-2.03287">
        <ele>11</ele>
        <time>2014-04-08T13:45:15Z</time>
      </trkpt>
      <trkpt lat="47.13117" lon="-2.03322">
        <ele>10</ele>
        <time>2014-04-08T13:45:20Z</time>
      </trkpt>
      <trkpt lat="47.13105" lon="-2.03364">
        <ele>10</ele>
        <time>2014-04-08T13:45:25Z</time>
      </trkpt>
      <trkpt lat="47.13098" lon="-2.03387">
        <ele>8</ele>
        <time>2014-04-08T13:45:26Z</time>
      </trkpt>
      <trkpt lat="47.1309" lon="-2.03433">
        <ele>5</ele>
        <time>2014-04-08T13:45:31Z</time>
      </trkpt>
      <trkpt lat="47.13084" lon="-2.03476">
        <ele>3</ele>
        <time>2014-04-08T13:45:35Z</time>
      </trkpt>
      <trkpt lat="47.13078" lon="-2.03522">
        <ele>3</ele>
        <time>2014-04-08T13:45:39Z</time>
      </trkpt>
      <trkpt lat="47.13074" lon="-2.03573">
        <ele>4.3</ele>
        <time>2014-04-08T13:45:43Z</time>
      </trkpt>
      <trkpt lat="47.1306" lon="-2.03612">
        <ele>4.6</ele>
        <time>2014-04-08T13:45:48Z</time>
      </trkpt>
      <trkpt lat="47.13037" lon="-2.03652">
        <ele>3.2</ele>
        <time>2014-04-08T13:45:52Z</time>
      </trkpt>
      <trkpt lat="47.13033" lon="-2.03687">
        <ele>2</ele>
        <time>2014-04-08T13:45:54Z</time>
      </trkpt>
      <trkpt lat="47.13043" lon="-2.03741">
        <ele>2</ele>
        <time>2014-04-08T13:46:00Z</time>
      </trkpt>
      <trkpt lat="47.13055" lon="-2.03782">
        <ele>5</ele>
        <time>2014-04-08T13:46:03Z</time>
      </trkpt>
      <trkpt lat="47.13064" lon="-2.03814">
        <ele>-1</ele>
        <time>2014-04-08T13:46:06Z</time>
      </trkpt>
      <trkpt lat="47.13073" lon="-2.03847">
        <ele>-3</ele>
        <time>2014-04-08T13:46:09Z</time>
      </trkpt>
      <trkpt lat="47.13081" lon="-2.03903">
        <ele>1</ele>
        <time>2014-04-08T13:46:14Z</time>
      </trkpt>
      <trkpt lat="47.13083" lon="-2.03976">
        <ele>1</ele>
        <time>2014-04-08T13:46:20Z</time>
      </trkpt>
      <trkpt lat="47.13081" lon="-2.03996">
        <ele>5</ele>
        <time>2014-04-08T13:46:22Z</time>
      </trkpt>
      <trkpt lat="47.1309" lon="-2.04055">
        <ele>5.5</ele>
        <time>2014-04-08T13:46:27Z</time>
      </trkpt>
      <trkpt lat="47.13092" lon="-2.04106">
        <ele>-1</ele>
        <time>2014-04-08T13:46:31Z</time>
      </trkpt>
      <trkpt lat="47.13095" lon="-2.0416">
        <ele>2</ele>
        <time>2014-04-08T13:46:37Z</time>
      </trkpt>
      <trkpt lat="47.13093" lon="-2.04188">
        <ele>4</ele>
        <time>2014-04-08T13:46:39Z</time>
      </trkpt>
      <trkpt lat="47.13099" lon="-2.04246">
        <ele>3</ele>
        <time>2014-04-08T13:46:44Z</time>
      </trkpt>
      <trkpt lat="47.13104" lon="-2.04278">
        <ele>6</ele>
        <time>2014-04-08T13:46:47Z</time>
      </trkpt>
      <trkpt lat="47.13113" lon="-2.04334">
        <ele>2</ele>
        <time>2014-04-08T13:46:52Z</time>
      </trkpt>
      <trkpt lat="47.13108" lon="-2.04382">
        <ele>2</ele>
        <time>2014-04-08T13:46:56Z</time>
      </trkpt>
      <trkpt lat="47.13079" lon="-2.04439">
        <ele>1</ele>
        <time>2014-04-08T13:47:01Z</time>
      </trkpt>
      <trkpt lat="47.13067" lon="-2.04458">
        <ele>4.7</ele>
        <time>2014-04-08T13:47:04Z</time>
      </trkpt>
      <trkpt lat="47.13043" lon="-2.04499">
        <ele>1</ele>
        <time>2014-04-08T13:47:08Z</time>
      </trkpt>
      <trkpt lat="47.1302" lon="-2.04543">
        <ele>1</ele>
        <time>2014-04-08T13:47:14Z</time>
      </trkpt>
      <trkpt lat="47.13003" lon="-2.04568">
        <ele>-1</ele>
        <time>2014-04-08T13:47:16Z</time>
      </trkpt>
      <trkpt lat="47.12978" lon="-2.04599">
        <ele>-3</ele>
        <time>2014-04-08T13:47:20Z</time>
      </trkpt>
      <trkpt lat="47.12962" lon="-2.0464">
        <ele>1</ele>
        <time>2014-04-08T13:47:25Z</time>
      </trkpt>
      <trkpt lat="47.1296" lon="-2.04648">
        <ele>2</ele>
        <time>2014-04-08T13:47:27Z</time>
      </trkpt>
      <trkpt lat="47.12955" lon="-2.04707">
        <ele>6</ele>
        <time>2014-04-08T13:47:32Z</time>
      </trkpt>
      <trkpt lat="47.12952" lon="-2.0474">
        <ele>2</ele>
        <time>2014-04-08T13:47:37Z</time>
      </trkpt>
      <trkpt lat="47.12955" lon="-2.04766">
        <ele>3</ele>
        <time>2014-04-08T13:47:41Z</time>
      </trkpt>
      <trkpt lat="47.12944" lon="-2.04783">
        <ele>2</ele>
        <time>2014-04-08T13:47:47Z</time>
      </trkpt>
      <trkpt lat="47.12936" lon="-2.04784">
        <ele>1</ele>
        <time>2014-04-08T13:47:48Z</time>
      </trkpt>
      <trkpt lat="47.12898" lon="-2.04782">
        <ele>1</ele>
        <time>2014-04-08T13:47:54Z</time>
      </trkpt>
      <trkpt lat="47.12862" lon="-2.04784">
        <ele>2</ele>
        <time>2014-04-08T13:47:58Z</time>
      </trkpt>
      <trkpt lat="47.12831" lon="-2.04782">
        <ele>1</ele>
        <time>2014-04-08T13:48:02Z</time>
      </trkpt>
      <trkpt lat="47.12799" lon="-2.04767">
        <ele>2.8</ele>
        <time>2014-04-08T13:48:06Z</time>
      </trkpt>
      <trkpt lat="47.12784" lon="-2.04759">
        <ele>3.4</ele>
        <time>2014-04-08T13:48:08Z</time>
      </trkpt>
      <trkpt lat="47.1274" lon="-2.04744">
        <ele>4.3</ele>
        <time>2014-04-08T13:48:14Z</time>
      </trkpt>
      <trkpt lat="47.12698" lon="-2.04737">
        <ele>-1</ele>
        <time>2014-04-08T13:48:19Z</time>
      </trkpt>
      <trkpt lat="47.12678" lon="-2.04738">
        <ele>-1</ele>
        <time>2014-04-08T13:48:23Z</time>
      </trkpt>
      <trkpt lat="47.12648" lon="-2.04742">
        <ele>-2</ele>
        <time>2014-04-08T13:48:27Z</time>
      </trkpt>
      <trkpt lat="47.12619" lon="-2.04749">
        <ele>-2</ele>
        <time>2014-04-08T13:48:30Z</time>
      </trkpt>
      <trkpt lat="47.12606" lon="-2.04756">
        <ele>-3</ele>
        <time>2014-04-08T13:48:32Z</time>
      </trkpt>
      <trkpt lat="47.12581" lon="-2.04796">
        <ele>-1</ele>
        <time>2014-04-08T13:48:38Z</time>
      </trkpt>
      <trkpt lat="47.12571" lon="-2.04834">
        <ele>7.4</ele>
        <time>2014-04-08T13:48:42Z</time>
      </trkpt>
      <trkpt lat="47.12561" lon="-2.04861">
        <ele>-3</ele>
        <time>2014-04-08T13:48:45Z</time>
      </trkpt>
      <trkpt lat="47.12539" lon="-2.04913">
        <ele>-3</ele>
        <time>2014-04-08T13:48:51Z</time>
      </trkpt>
      <trkpt lat="47.12528" lon="-2.04947">
        <ele>-3</ele>
        <time>2014-04-08T13:48:55Z</time>
      </trkpt>
      <trkpt lat="47.12513" lon="-2.04975">
        <ele>-2</ele>
        <time>2014-04-08T13:48:59Z</time>
      </trkpt>
      <trkpt lat="47.12488" lon="-2.05001">
        <ele>9</ele>
        <time>2014-04-08T13:49:04Z</time>
      </trkpt>
      <trkpt lat="47.1248" lon="-2.05016">
        <ele>9.4</ele>
        <time>2014-04-08T13:49:05Z</time>
      </trkpt>
      <trkpt lat="47.12456" lon="-2.05043">
        <ele>-1</ele>
        <time>2014-04-08T13:49:10Z</time>
      </trkpt>
      <trkpt lat="47.12424" lon="-2.05079">
        <ele>-2</ele>
        <time>2014-04-08T13:49:17Z</time>
      </trkpt>
      <trkpt lat="47.12405" lon="-2.05101">
        <ele>-3</ele>
        <time>2014-04-08T13:49:19Z</time>
      </trkpt>
      <trkpt lat="47.12396" lon="-2.05115">
        <ele>-2</ele>
        <time>2014-04-08T13:49:22Z</time>
      </trkpt>
      <trkpt lat="47.12371" lon="-2.05146">
        <ele>-1</ele>
        <time>2014-04-08T13:49:27Z</time>
      </trkpt>
      <trkpt lat="47.12345" lon="-2.0518">
        <ele>1</ele>
        <time>2014-04-08T13:49:32Z</time>
      </trkpt>
      <trkpt lat="47.12331" lon="-2.05211">
        <ele>4</ele>
        <time>2014-04-08T13:49:36Z</time>
      </trkpt>
      <trkpt lat="47.12316" lon="-2.05246">
        <ele>3</ele>
        <time>2014-04-08T13:49:40Z</time>
      </trkpt>
      <trkpt lat="47.12313" lon="-2.05277">
        <ele>6</ele>
        <time>2014-04-08T13:49:42Z</time>
      </trkpt>
      <trkpt lat="47.12307" lon="-2.05313">
        <ele>7</ele>
        <time>2014-04-08T13:49:46Z</time>
      </trkpt>
      <trkpt lat="47.12302" lon="-2.05351">
        <ele>9</ele>
        <time>2014-04-08T13:49:51Z</time>
      </trkpt>
      <trkpt lat="47.12294" lon="-2.05381">
        <ele>10</ele>
        <time>2014-04-08T13:49:55Z</time>
      </trkpt>
      <trkpt lat="47.12285" lon="-2.05417">
        <ele>10</ele>
        <time>2014-04-08T13:50:00Z</time>
      </trkpt>
      <trkpt lat="47.12281" lon="-2.05421">
        <ele>11</ele>
        <time>2014-04-08T13:50:02Z</time>
      </trkpt>
      <trkpt lat="47.12262" lon="-2.05445">
        <ele>9</ele>
        <time>2014-04-08T13:50:07Z</time>
      </trkpt>
      <trkpt lat="47.12235" lon="-2.05455">
        <ele>7</ele>
        <time>2014-04-08T13:50:12Z</time>
      </trkpt>
      <trkpt lat="47.12208" lon="-2.05458">
        <ele>7</ele>
        <time>2014-04-08T13:50:16Z</time>
      </trkpt>
      <trkpt lat="47.12189" lon="-2.05461">
        <ele>8</ele>
        <time>2014-04-08T13:50:19Z</time>
      </trkpt>
      <trkpt lat="47.12174" lon="-2.05464">
        <ele>7</ele>
        <time>2014-04-08T13:50:22Z</time>
      </trkpt>
      <trkpt lat="47.12141" lon="-2.05472">
        <ele>7</ele>
        <time>2014-04-08T13:50:28Z</time>
      </trkpt>
      <trkpt lat="47.12125" lon="-2.05476">
        <ele>7</ele>
        <time>2014-04-08T13:50:31Z</time>
      </trkpt>
      <trkpt lat="47.12103" lon="-2.05487">
        <ele>8</ele>
        <time>2014-04-08T13:50:36Z</time>
      </trkpt>
      <trkpt lat="47.12074" lon="-2.05512">
        <ele>9</ele>
        <time>2014-04-08T13:50:41Z</time>
      </trkpt>
      <trkpt lat="47.12066" lon="-2.05515">
        <ele>8</ele>
        <time>2014-04-08T13:50:41Z</time>
      </trkpt>
      <trkpt lat="47.1203" lon="-2.05555">
        <ele>5</ele>
        <time>2014-04-08T13:50:47Z</time>
      </trkpt>
      <trkpt lat="47.12006" lon="-2.0558">
        <ele>7</ele>
        <time>2014-04-08T13:50:51Z</time>
      </trkpt>
      <trkpt lat="47.11987" lon="-2.05594">
        <ele>5</ele>
        <time>2014-04-08T13:50:54Z</time>
      </trkpt>
      <trkpt lat="47.11957" lon="-2.05621">
        <ele>6</ele>
        <time>2014-04-08T13:50:59Z</time>
      </trkpt>
      <trkpt lat="47.11938" lon="-2.05638">
        <ele>7</ele>
        <time>2014-04-08T13:51:02Z</time>
      </trkpt>
      <trkpt lat="47.11898" lon="-2.05674">
        <ele>5</ele>
        <time>2014-04-08T13:51:08Z</time>
      </trkpt>
      <trkpt lat="47.11883" lon="-2.05689">
        <ele>5</ele>
        <time>2014-04-08T13:51:10Z</time>
      </trkpt>
      <trkpt lat="47.11852" lon="-2.05718">
        <ele>9</ele>
        <time>2014-04-08T13:51:15Z</time>
      </trkpt>
      <trkpt lat="47.11824" lon="-2.05751">
        <ele>10</ele>
        <time>2014-04-08T13:51:21Z</time>
      </trkpt>
      <trkpt lat="47.11802" lon="-2.05776">
        <ele>12</ele>
        <time>2014-04-08T13:51:26Z</time>
      </trkpt>
      <trkpt lat="47.11786" lon="-2.05791">
        <ele>11</ele>
        <time>2014-04-08T13:51:29Z</time>
      </trkpt>
      <trkpt lat="47.11769" lon="-2.05811">
        <ele>12</ele>
        <time>2014-04-08T13:51:32Z</time>
      </trkpt>
      <trkpt lat="47.11747" lon="-2.05825">
        <ele>13</ele>
        <time>2014-04-08T13:51:36Z</time>
      </trkpt>
      <trkpt lat="47.11736" lon="-2.05833">
        <ele>12</ele>
        <time>2014-04-08T13:51:38Z</time>
      </trkpt>
      <trkpt lat="47.11709" lon="-2.05855">
        <ele>14</ele>
        <time>2014-04-08T13:51:45Z</time>
      </trkpt>
      <trkpt lat="47.11692" lon="-2.05868">
        <ele>17</ele>
        <time>2014-04-08T13:51:49Z</time>
      </trkpt>
      <trkpt lat="47.11676" lon="-2.05885">
        <ele>24</ele>
        <time>2014-04-08T13:51:54Z</time>
      </trkpt>
      <trkpt lat="47.11657" lon="-2.05902">
        <ele>21</ele>
        <time>2014-04-08T13:51:58Z</time>
      </trkpt>
      <trkpt lat="47.11651" lon="-2.05909">
        <ele>20</ele>
        <time>2014-04-08T13:51:59Z</time>
      </trkpt>
      <trkpt lat="47.11628" lon="-2.05932">
        <ele>22</ele>
        <time>2014-04-08T13:52:05Z</time>
      </trkpt>
      <trkpt lat="47.11615" lon="-2.05945">
        <ele>22</ele>
        <time>2014-04-08T13:52:09Z</time>
      </trkpt>
      <trkpt lat="47.11598" lon="-2.05959">
        <ele>22</ele>
        <time>2014-04-08T13:52:13Z</time>
      </trkpt>
      <trkpt lat="47.11578" lon="-2.05972">
        <ele>20</ele>
        <time>2014-04-08T13:52:17Z</time>
      </trkpt>
      <trkpt lat="47.11569" lon="-2.05978">
        <ele>21</ele>
        <time>2014-04-08T13:52:20Z</time>
      </trkpt>
      <trkpt lat="47.11538" lon="-2.05998">
        <ele>23</ele>
        <time>2014-04-08T13:52:25Z</time>
      </trkpt>
      <trkpt lat="47.11514" lon="-2.06012">
        <ele>23</ele>
        <time>2014-04-08T13:52:29Z</time>
      </trkpt>
      <trkpt lat="47.11489" lon="-2.06033">
        <ele>23</ele>
        <time>2014-04-08T13:52:34Z</time>
      </trkpt>
      <trkpt lat="47.11466" lon="-2.0605">
        <ele>22</ele>
        <time>2014-04-08T13:52:38Z</time>
      </trkpt>
      <trkpt lat="47.11442" lon="-2.0607">
        <ele>23</ele>
        <time>2014-04-08T13:52:41Z</time>
      </trkpt>
      <trkpt lat="47.11417" lon="-2.06095">
        <ele>21</ele>
        <time>2014-04-08T13:52:47Z</time>
      </trkpt>
      <trkpt lat="47.1139" lon="-2.06099">
        <ele>18</ele>
        <time>2014-04-08T13:52:50Z</time>
      </trkpt>
      <trkpt lat="47.11372" lon="-2.06115">
        <ele>18</ele>
        <time>2014-04-08T13:52:53Z</time>
      </trkpt>
      <trkpt lat="47.1135" lon="-2.06152">
        <ele>19</ele>
        <time>2014-04-08T13:52:58Z</time>
      </trkpt>
      <trkpt lat="47.11337" lon="-2.06176">
        <ele>20</ele>
        <time>2014-04-08T13:53:02Z</time>
      </trkpt>
      <trkpt lat="47.1132" lon="-2.06206">
        <ele>21</ele>
        <time>2014-04-08T13:53:06Z</time>
      </trkpt>
      <trkpt lat="47.113" lon="-2.06236">
        <ele>20</ele>
        <time>2014-04-08T13:53:10Z</time>
      </trkpt>
      <trkpt lat="47.11289" lon="-2.06274">
        <ele>21</ele>
        <time>2014-04-08T13:53:14Z</time>
      </trkpt>
      <trkpt lat="47.11288" lon="-2.06316">
        <ele>19</ele>
        <time>2014-04-08T13:53:17Z</time>
      </trkpt>
      <trkpt lat="47.11288" lon="-2.06356">
        <ele>19</ele>
        <time>2014-04-08T13:53:21Z</time>
      </trkpt>
      <trkpt lat="47.11289" lon="-2.06404">
        <ele>18</ele>
        <time>2014-04-08T13:53:26Z</time>
      </trkpt>
      <trkpt lat="47.11294" lon="-2.06432">
        <ele>16</ele>
        <time>2014-04-08T13:53:30Z</time>
      </trkpt>
      <trkpt lat="47.11302" lon="-2.06465">
        <ele>22</ele>
        <time>2014-04-08T13:53:34Z</time>
      </trkpt>
      <trkpt lat="47.11297" lon="-2.06481">
        <ele>24</ele>
        <time>2014-04-08T13:53:38Z</time>
      </trkpt>
      <trkpt lat="47.11298" lon="-2.06513">
        <ele>25</ele>
        <time>2014-04-08T13:53:42Z</time>
      </trkpt>
      <trkpt lat="47.11291" lon="-2.0654">
        <ele>25</ele>
        <time>2014-04-08T13:53:44Z</time>
      </trkpt>
      <trkpt lat="47.11282" lon="-2.06565">
        <ele>25</ele>
        <time>2014-04-08T13:53:48Z</time>
      </trkpt>
      <trkpt lat="47.11271" lon="-2.06624">
        <ele>24</ele>
        <time>2014-04-08T13:53:54Z</time>
      </trkpt>
      <trkpt lat="47.11271" lon="-2.06649">
        <ele>25</ele>
        <time>2014-04-08T13:53:57Z</time>
      </trkpt>
      <trkpt lat="47.11274" lon="-2.06681">
        <ele>23</ele>
        <time>2014-04-08T13:54:02Z</time>
      </trkpt>
      <trkpt lat="47.11273" lon="-2.06713">
        <ele>24</ele>
        <time>2014-04-08T13:54:06Z</time>
      </trkpt>
      <trkpt lat="47.11275" lon="-2.06744">
        <ele>23</ele>
        <time>2014-04-08T13:54:10Z</time>
      </trkpt>
      <trkpt lat="47.11275" lon="-2.06789">
        <ele>22</ele>
        <time>2014-04-08T13:54:15Z</time>
      </trkpt>
      <trkpt lat="47.11276" lon="-2.06822">
        <ele>19</ele>
        <time>2014-04-08T13:54:18Z</time>
      </trkpt>
      <trkpt lat="47.11277" lon="-2.06859">
        <ele>20</ele>
        <time>2014-04-08T13:54:21Z</time>
      </trkpt>
      <trkpt lat="47.11278" lon="-2.06875">
        <ele>21</ele>
        <time>2014-04-08T13:54:23Z</time>
      </trkpt>
      <trkpt lat="47.1128" lon="-2.06943">
        <ele>24</ele>
        <time>2014-04-08T13:54:32Z</time>
      </trkpt>
      <trkpt lat="47.11281" lon="-2.0697">
        <ele>27</ele>
        <time>2014-04-08T13:54:34Z</time>
      </trkpt>
      <trkpt lat="47.1128" lon="-2.07023">
        <ele>27</ele>
        <time>2014-04-08T13:54:39Z</time>
      </trkpt>
      <trkpt lat="47.11281" lon="-2.07044">
        <ele>26</ele>
        <time>2014-04-08T13:54:41Z</time>
      </trkpt>
      <trkpt lat="47.11282" lon="-2.07101">
        <ele>25</ele>
        <time>2014-04-08T13:54:47Z</time>
      </trkpt>
      <trkpt lat="47.11282" lon="-2.07152">
        <ele>21</ele>
        <time>2014-04-08T13:54:52Z</time>
      </trkpt>
      <trkpt lat="47.11283" lon="-2.07186">
        <ele>19</ele>
        <time>2014-04-08T13:54:55Z</time>
      </trkpt>
      <trkpt lat="47.11285" lon="-2.07224">
        <ele>17</ele>
        <time>2014-04-08T13:54:58Z</time>
      </trkpt>
      <trkpt lat="47.11285" lon="-2.07261">
        <ele>17</ele>
        <time>2014-04-08T13:55:02Z</time>
      </trkpt>
      <trkpt lat="47.11296" lon="-2.07295">
        <ele>15</ele>
        <time>2014-04-08T13:55:06Z</time>
      </trkpt>
      <trkpt lat="47.11294" lon="-2.07337">
        <ele>18</ele>
        <time>2014-04-08T13:55:11Z</time>
      </trkpt>
      <trkpt lat="47.1129" lon="-2.07366">
        <ele>21</ele>
        <time>2014-04-08T13:55:14Z</time>
      </trkpt>
      <trkpt lat="47.11289" lon="-2.07405">
        <ele>20</ele>
        <time>2014-04-08T13:55:18Z</time>
      </trkpt>
      <trkpt lat="47.11289" lon="-2.07444">
        <ele>21</ele>
        <time>2014-04-08T13:55:23Z</time>
      </trkpt>
      <trkpt lat="47.11289" lon="-2.07486">
        <ele>20</ele>
        <time>2014-04-08T13:55:27Z</time>
      </trkpt>
      <trkpt lat="47.11288" lon="-2.07526">
        <ele>18</ele>
        <time>2014-04-08T13:55:31Z</time>
      </trkpt>
      <trkpt lat="47.1129" lon="-2.07569">
        <ele>17</ele>
        <time>2014-04-08T13:55:34Z</time>
      </trkpt>
      <trkpt lat="47.11289" lon="-2.07621">
        <ele>15</ele>
        <time>2014-04-08T13:55:40Z</time>
      </trkpt>
      <trkpt lat="47.1129" lon="-2.07632">
        <ele>14</ele>
        <time>2014-04-08T13:55:41Z</time>
      </trkpt>
      <trkpt lat="47.11292" lon="-2.07689">
        <ele>17</ele>
        <time>2014-04-08T13:55:46Z</time>
      </trkpt>
      <trkpt lat="47.11291" lon="-2.0773">
        <ele>19</ele>
        <time>2014-04-08T13:55:51Z</time>
      </trkpt>
      <trkpt lat="47.11292" lon="-2.07769">
        <ele>17</ele>
        <time>2014-04-08T13:55:55Z</time>
      </trkpt>
      <trkpt lat="47.11291" lon="-2.07808">
        <ele>18</ele>
        <time>2014-04-08T13:55:59Z</time>
      </trkpt>
      <trkpt lat="47.11294" lon="-2.07852">
        <ele>16</ele>
        <time>2014-04-08T13:56:02Z</time>
      </trkpt>
      <trkpt lat="47.11294" lon="-2.07893">
        <ele>18</ele>
        <time>2014-04-08T13:56:06Z</time>
      </trkpt>
      <trkpt lat="47.11294" lon="-2.07931">
        <ele>16</ele>
        <time>2014-04-08T13:56:10Z</time>
      </trkpt>
      <trkpt lat="47.11293" lon="-2.07974">
        <ele>15</ele>
        <time>2014-04-08T13:56:14Z</time>
      </trkpt>
      <trkpt lat="47.11294" lon="-2.08008">
        <ele>17</ele>
        <time>2014-04-08T13:56:18Z</time>
      </trkpt>
      <trkpt lat="47.11295" lon="-2.08042">
        <ele>17</ele>
        <time>2014-04-08T13:56:23Z</time>
      </trkpt>
      <trkpt lat="47.11296" lon="-2.08083">
        <ele>17</ele>
        <time>2014-04-08T13:56:27Z</time>
      </trkpt>
      <trkpt lat="47.11295" lon="-2.08102">
        <ele>18</ele>
        <time>2014-04-08T13:56:30Z</time>
      </trkpt>
      <trkpt lat="47.11298" lon="-2.0815">
        <ele>18</ele>
        <time>2014-04-08T13:56:36Z</time>
      </trkpt>
      <trkpt lat="47.11301" lon="-2.08172">
        <ele>20</ele>
        <time>2014-04-08T13:56:38Z</time>
      </trkpt>
      <trkpt lat="47.11302" lon="-2.08204">
        <ele>20</ele>
        <time>2014-04-08T13:56:42Z</time>
      </trkpt>
      <trkpt lat="47.11302" lon="-2.08227">
        <ele>20</ele>
        <time>2014-04-08T13:56:45Z</time>
      </trkpt>
      <trkpt lat="47.11301" lon="-2.08271">
        <ele>21</ele>
        <time>2014-04-08T13:56:51Z</time>
      </trkpt>
      <trkpt lat="47.11302" lon="-2.08294">
        <ele>22</ele>
        <time>2014-04-08T13:56:55Z</time>
      </trkpt>
      <trkpt lat="47.11303" lon="-2.08326">
        <ele>20</ele>
        <time>2014-04-08T13:56:59Z</time>
      </trkpt>
      <trkpt lat="47.11303" lon="-2.08343">
        <ele>20</ele>
        <time>2014-04-08T13:57:00Z</time>
      </trkpt>
      <trkpt lat="47.11302" lon="-2.08397">
        <ele>22</ele>
        <time>2014-04-08T13:57:07Z</time>
      </trkpt>
      <trkpt lat="47.11302" lon="-2.08439">
        <ele>22</ele>
        <time>2014-04-08T13:57:12Z</time>
      </trkpt>
      <trkpt lat="47.11303" lon="-2.08478">
        <ele>24</ele>
        <time>2014-04-08T13:57:16Z</time>
      </trkpt>
      <trkpt lat="47.11305" lon="-2.08522">
        <ele>21</ele>
        <time>2014-04-08T13:57:19Z</time>
      </trkpt>
      <trkpt lat="47.11305" lon="-2.08554">
        <ele>22</ele>
        <time>2014-04-08T13:57:22Z</time>
      </trkpt>
      <trkpt lat="47.11308" lon="-2.08615">
        <ele>20</ele>
        <time>2014-04-08T13:57:27Z</time>
      </trkpt>
      <trkpt lat="47.11308" lon="-2.08658">
        <ele>20</ele>
        <time>2014-04-08T13:57:31Z</time>
      </trkpt>
      <trkpt lat="47.11309" lon="-2.08719">
        <ele>19</ele>
        <time>2014-04-08T13:57:36Z</time>
      </trkpt>
      <trkpt lat="47.1131" lon="-2.08753">
        <ele>17</ele>
        <time>2014-04-08T13:57:39Z</time>
      </trkpt>
      <trkpt lat="47.1131" lon="-2.08797">
        <ele>17</ele>
        <time>2014-04-08T13:57:43Z</time>
      </trkpt>
      <trkpt lat="47.11313" lon="-2.08838">
        <ele>16</ele>
        <time>2014-04-08T13:57:48Z</time>
      </trkpt>
      <trkpt lat="47.11314" lon="-2.08886">
        <ele>16</ele>
        <time>2014-04-08T13:57:52Z</time>
      </trkpt>
      <trkpt lat="47.11312" lon="-2.08923">
        <ele>18</ele>
        <time>2014-04-08T13:57:56Z</time>
      </trkpt>
      <trkpt lat="47.11312" lon="-2.08951">
        <ele>16</ele>
        <time>2014-04-08T13:57:59Z</time>
      </trkpt>
      <trkpt lat="47.11314" lon="-2.08969">
        <ele>17</ele>
        <time>2014-04-08T13:58:02Z</time>
      </trkpt>
      <trkpt lat="47.11316" lon="-2.09023">
        <ele>19</ele>
        <time>2014-04-08T13:58:08Z</time>
      </trkpt>
      <trkpt lat="47.11314" lon="-2.09058">
        <ele>19</ele>
        <time>2014-04-08T13:58:12Z</time>
      </trkpt>
      <trkpt lat="47.11314" lon="-2.09088">
        <ele>19</ele>
        <time>2014-04-08T13:58:15Z</time>
      </trkpt>
      <trkpt lat="47.11315" lon="-2.09128">
        <ele>19</ele>
        <time>2014-04-08T13:58:21Z</time>
      </trkpt>
      <trkpt lat="47.11317" lon="-2.09148">
        <ele>17</ele>
        <time>2014-04-08T13:58:23Z</time>
      </trkpt>
      <trkpt lat="47.11319" lon="-2.09174">
        <ele>15</ele>
        <time>2014-04-08T13:58:27Z</time>
      </trkpt>
      <trkpt lat="47.11323" lon="-2.092">
        <ele>14</ele>
        <time>2014-04-08T13:58:30Z</time>
      </trkpt>
      <trkpt lat="47.11331" lon="-2.0924">
        <ele>15</ele>
        <time>2014-04-08T13:58:35Z</time>
      </trkpt>
      <trkpt lat="47.11334" lon="-2.09259">
        <ele>14</ele>
        <time>2014-04-08T13:58:37Z</time>
      </trkpt>
      <trkpt lat="47.11335" lon="-2.09303">
        <ele>14</ele>
        <time>2014-04-08T13:58:42Z</time>
      </trkpt>
      <trkpt lat="47.11349" lon="-2.09371">
        <ele>13</ele>
        <time>2014-04-08T13:58:48Z</time>
      </trkpt>
      <trkpt lat="47.11364" lon="-2.09397">
        <ele>13</ele>
        <time>2014-04-08T13:58:51Z</time>
      </trkpt>
      <trkpt lat="47.11387" lon="-2.0942">
        <ele>10</ele>
        <time>2014-04-08T13:58:56Z</time>
      </trkpt>
      <trkpt lat="47.11418" lon="-2.09438">
        <ele>12</ele>
        <time>2014-04-08T13:59:00Z</time>
      </trkpt>
      <trkpt lat="47.11436" lon="-2.09467">
        <ele>12</ele>
        <time>2014-04-08T13:59:04Z</time>
      </trkpt>
      <trkpt lat="47.11436" lon="-2.09506">
        <ele>11</ele>
        <time>2014-04-08T13:59:08Z</time>
      </trkpt>
      <trkpt lat="47.11429" lon="-2.09541">
        <ele>10</ele>
        <time>2014-04-08T13:59:11Z</time>
      </trkpt>
      <trkpt lat="47.11424" lon="-2.09601">
        <ele>9</ele>
        <time>2014-04-08T13:59:17Z</time>
      </trkpt>
      <trkpt lat="47.11427" lon="-2.09623">
        <ele>9</ele>
        <time>2014-04-08T13:59:19Z</time>
      </trkpt>
      <trkpt lat="47.11429" lon="-2.09653">
        <ele>9</ele>
        <time>2014-04-08T13:59:22Z</time>
      </trkpt>
      <trkpt lat="47.11429" lon="-2.0973">
        <ele>7</ele>
        <time>2014-04-08T13:59:28Z</time>
      </trkpt>
      <trkpt lat="47.11428" lon="-2.09774">
        <ele>9</ele>
        <time>2014-04-08T13:59:31Z</time>
      </trkpt>
      <trkpt lat="47.11436" lon="-2.09805">
        <ele>8</ele>
        <time>2014-04-08T13:59:35Z</time>
      </trkpt>
      <trkpt lat="47.11448" lon="-2.09831">
        <ele>8</ele>
        <time>2014-04-08T13:59:40Z</time>
      </trkpt>
      <trkpt lat="47.11468" lon="-2.09845">
        <ele>9</ele>
        <time>2014-04-08T13:59:43Z</time>
      </trkpt>
      <trkpt lat="47.11486" lon="-2.09851">
        <ele>8</ele>
        <time>2014-04-08T13:59:47Z</time>
      </trkpt>
      <trkpt lat="47.11504" lon="-2.09861">
        <ele>6</ele>
        <time>2014-04-08T13:59:52Z</time>
      </trkpt>
      <trkpt lat="47.11517" lon="-2.09861">
        <ele>8</ele>
        <time>2014-04-08T13:59:56Z</time>
      </trkpt>
      <trkpt lat="47.1153" lon="-2.09866">
        <ele>8</ele>
        <time>2014-04-08T14:00:00Z</time>
      </trkpt>
      <trkpt lat="47.11544" lon="-2.09871">
        <ele>8</ele>
        <time>2014-04-08T14:00:04Z</time>
      </trkpt>
      <trkpt lat="47.11548" lon="-2.09888">
        <ele>5</ele>
        <time>2014-04-08T14:00:08Z</time>
      </trkpt>
      <trkpt lat="47.11548" lon="-2.09913">
        <ele>6</ele>
        <time>2014-04-08T14:00:12Z</time>
      </trkpt>
      <trkpt lat="47.11548" lon="-2.09931">
        <ele>5</ele>
        <time>2014-04-08T14:00:15Z</time>
      </trkpt>
      <trkpt lat="47.11546" lon="-2.09952">
        <ele>7</ele>
        <time>2014-04-08T14:00:18Z</time>
      </trkpt>
      <trkpt lat="47.11548" lon="-2.09968">
        <ele>6</ele>
        <time>2014-04-08T14:00:21Z</time>
      </trkpt>
      <trkpt lat="47.11533" lon="-2.09988">
        <ele>9</ele>
        <time>2014-04-08T14:00:30Z</time>
      </trkpt>
      <trkpt lat="47.1152" lon="-2.10003">
        <ele>7</ele>
        <time>2014-04-08T14:00:35Z</time>
      </trkpt>
      <trkpt lat="47.11517" lon="-2.10019">
        <ele>4</ele>
        <time>2014-04-08T14:00:40Z</time>
      </trkpt>
      <trkpt lat="47.11511" lon="-2.10031">
        <ele>3</ele>
        <time>2014-04-08T14:00:45Z</time>
      </trkpt>
    </trkseg>
  </trk>
  <trk>
    <name><![CDATA[Sequence 2]]></name>
    <trkseg>
      <trkpt lat="47.11469" lon="-2.09884">
        <ele>-8</ele>
        <time>2014-04-08T14:09:21Z</time>
      </trkpt>
      <trkpt lat="47.11461" lon="-2.09909">
        <ele>-8</ele>
        <time>2014-04-08T14:09:25Z</time>
      </trkpt>
      <trkpt lat="47.11458" lon="-2.09933">
        <ele>-9</ele>
        <time>2014-04-08T14:09:27Z</time>
      </trkpt>
      <trkpt lat="47.11447" lon="-2.09978">
        <ele>-7</ele>
        <time>2014-04-08T14:09:34Z</time>
      </trkpt>
      <trkpt lat="47.11442" lon="-2.09998">
        <ele>-7</ele>
        <time>2014-04-08T14:09:36Z</time>
      </trkpt>
      <trkpt lat="47.1144" lon="-2.10017">
        <ele>-6</ele>
        <time>2014-04-08T14:09:40Z</time>
      </trkpt>
      <trkpt lat="47.11435" lon="-2.10033">
        <ele>-3</ele>
        <time>2014-04-08T14:09:46Z</time>
      </trkpt>
      <trkpt lat="47.11433" lon="-2.10051">
        <ele>4.6</ele>
        <time>2014-04-08T14:09:51Z</time>
      </trkpt>
      <trkpt lat="47.11434" lon="-2.10063">
        <ele>4.7</ele>
        <time>2014-04-08T14:09:53Z</time>
      </trkpt>
      <trkpt lat="47.11433" lon="-2.10107">
        <ele>4.8</ele>
        <time>2014-04-08T14:09:59Z</time>
      </trkpt>
      <trkpt lat="47.11429" lon="-2.10139">
        <ele>4</ele>
        <time>2014-04-08T14:10:03Z</time>
      </trkpt>
      <trkpt lat="47.11425" lon="-2.10176">
        <ele>2.7</ele>
        <time>2014-04-08T14:10:08Z</time>
      </trkpt>
      <trkpt lat="47.11424" lon="-2.10199">
        <ele>1</ele>
        <time>2014-04-08T14:10:12Z</time>
      </trkpt>
      <trkpt lat="47.11418" lon="-2.10231">
        <ele>1.7</ele>
        <time>2014-04-08T14:10:16Z</time>
      </trkpt>
      <trkpt lat="47.11412" lon="-2.10242">
        <ele>1.9</ele>
        <time>2014-04-08T14:10:17Z</time>
      </trkpt>
      <trkpt lat="47.11392" lon="-2.10278">
        <ele>1</ele>
        <time>2014-04-08T14:10:23Z</time>
      </trkpt>
      <trkpt lat="47.11372" lon="-2.10298">
        <ele>1</ele>
        <time>2014-04-08T14:10:29Z</time>
      </trkpt>
      <trkpt lat="47.11362" lon="-2.10315">
        <ele>2</ele>
        <time>2014-04-08T14:10:31Z</time>
      </trkpt>
      <trkpt lat="47.1135" lon="-2.10332">
        <ele>4</ele>
        <time>2014-04-08T14:10:35Z</time>
      </trkpt>
      <trkpt lat="47.11339" lon="-2.10347">
        <ele>5</ele>
        <time>2014-04-08T14:10:38Z</time>
      </trkpt>
      <trkpt lat="47.11313" lon="-2.10366">
        <ele>5</ele>
        <time>2014-04-08T14:10:44Z</time>
      </trkpt>
      <trkpt lat="47.11293" lon="-2.10375">
        <ele>6</ele>
        <time>2014-04-08T14:10:48Z</time>
      </trkpt>
      <trkpt lat="47.1128" lon="-2.10384">
        <ele>12</ele>
        <time>2014-04-08T14:10:52Z</time>
      </trkpt>
      <trkpt lat="47.11265" lon="-2.1039">
        <ele>13</ele>
        <time>2014-04-08T14:10:55Z</time>
      </trkpt>
      <trkpt lat="47.11243" lon="-2.10408">
        <ele>13</ele>
        <time>2014-04-08T14:11:02Z</time>
      </trkpt>
      <trkpt lat="47.1123" lon="-2.10423">
        <ele>9</ele>
        <time>2014-04-08T14:11:04Z</time>
      </trkpt>
      <trkpt lat="47.11211" lon="-2.10446">
        <ele>12</ele>
        <time>2014-04-08T14:11:10Z</time>
      </trkpt>
      <trkpt lat="47.11201" lon="-2.1045">
        <ele>13</ele>
        <time>2014-04-08T14:11:11Z</time>
      </trkpt>
      <trkpt lat="47.1117" lon="-2.10452">
        <ele>8</ele>
        <time>2014-04-08T14:11:16Z</time>
      </trkpt>
      <trkpt lat="47.11149" lon="-2.10434">
        <ele>8</ele>
        <time>2014-04-08T14:11:20Z</time>
      </trkpt>
      <trkpt lat="47.11137" lon="-2.10425">
        <ele>5</ele>
        <time>2014-04-08T14:11:22Z</time>
      </trkpt>
      <trkpt lat="47.11101" lon="-2.10454">
        <ele>4</ele>
        <time>2014-04-08T14:11:29Z</time>
      </trkpt>
      <trkpt lat="47.11087" lon="-2.10487">
        <ele>6</ele>
        <time>2014-04-08T14:11:32Z</time>
      </trkpt>
      <trkpt lat="47.11077" lon="-2.10515">
        <ele>6</ele>
        <time>2014-04-08T14:11:37Z</time>
      </trkpt>
      <trkpt lat="47.11066" lon="-2.1054">
        <ele>7</ele>
        <time>2014-04-08T14:11:40Z</time>
      </trkpt>
      <trkpt lat="47.11054" lon="-2.10552">
        <ele>7</ele>
        <time>2014-04-08T14:11:44Z</time>
      </trkpt>
      <trkpt lat="47.11037" lon="-2.10571">
        <ele>5</ele>
        <time>2014-04-08T14:11:48Z</time>
      </trkpt>
      <trkpt lat="47.11014" lon="-2.10595">
        <ele>4</ele>
        <time>2014-04-08T14:11:53Z</time>
      </trkpt>
      <trkpt lat="47.10998" lon="-2.1063">
        <ele>1</ele>
        <time>2014-04-08T14:11:56Z</time>
      </trkpt>
      <trkpt lat="47.10996" lon="-2.10657">
        <ele>8.3</ele>
        <time>2014-04-08T14:11:59Z</time>
      </trkpt>
      <trkpt lat="47.10982" lon="-2.10688">
        <ele>3</ele>
        <time>2014-04-08T14:12:03Z</time>
      </trkpt>
      <trkpt lat="47.10957" lon="-2.10731">
        <ele>3</ele>
        <time>2014-04-08T14:12:10Z</time>
      </trkpt>
      <trkpt lat="47.10939" lon="-2.10743">
        <ele>4</ele>
        <time>2014-04-08T14:12:12Z</time>
      </trkpt>
      <trkpt lat="47.10914" lon="-2.10733">
        <ele>1</ele>
        <time>2014-04-08T14:12:17Z</time>
      </trkpt>
      <trkpt lat="47.10897" lon="-2.10732">
        <ele>2</ele>
        <time>2014-04-08T14:12:20Z</time>
      </trkpt>
      <trkpt lat="47.10861" lon="-2.10732">
        <ele>2</ele>
        <time>2014-04-08T14:12:26Z</time>
      </trkpt>
      <trkpt lat="47.10846" lon="-2.10713">
        <ele>8.6</ele>
        <time>2014-04-08T14:12:28Z</time>
      </trkpt>
      <trkpt lat="47.10831" lon="-2.10695">
        <ele>9.6</ele>
        <time>2014-04-08T14:12:31Z</time>
      </trkpt>
      <trkpt lat="47.10801" lon="-2.10658">
        <ele>9.7</ele>
        <time>2014-04-08T14:12:37Z</time>
      </trkpt>
      <trkpt lat="47.10784" lon="-2.10643">
        <ele>9.4</ele>
        <time>2014-04-08T14:12:40Z</time>
      </trkpt>
      <trkpt lat="47.10763" lon="-2.10621">
        <ele>9</ele>
        <time>2014-04-08T14:12:45Z</time>
      </trkpt>
      <trkpt lat="47.10748" lon="-2.10599">
        <ele>1</ele>
        <time>2014-04-08T14:12:49Z</time>
      </trkpt>
      <trkpt lat="47.10723" lon="-2.10589">
        <ele>1</ele>
        <time>2014-04-08T14:12:53Z</time>
      </trkpt>
      <trkpt lat="47.10705" lon="-2.10558">
        <ele>8.9</ele>
        <time>2014-04-08T14:12:57Z</time>
      </trkpt>
      <trkpt lat="47.10697" lon="-2.10538">
        <ele>8.8</ele>
        <time>2014-04-08T14:12:59Z</time>
      </trkpt>
      <trkpt lat="47.10683" lon="-2.10479">
        <ele>2</ele>
        <time>2014-04-08T14:13:04Z</time>
      </trkpt>
      <trkpt lat="47.1069" lon="-2.1043">
        <ele>4</ele>
        <time>2014-04-08T14:13:09Z</time>
      </trkpt>
      <trkpt lat="47.10699" lon="-2.10389">
        <ele>6</ele>
        <time>2014-04-08T14:13:14Z</time>
      </trkpt>
      <trkpt lat="47.10701" lon="-2.1036">
        <ele>7</ele>
        <time>2014-04-08T14:13:17Z</time>
      </trkpt>
      <trkpt lat="47.10706" lon="-2.10343">
        <ele>7</ele>
        <time>2014-04-08T14:13:19Z</time>
      </trkpt>
      <trkpt lat="47.10718" lon="-2.10308">
        <ele>11</ele>
        <time>2014-04-08T14:13:26Z</time>
      </trkpt>
      <trkpt lat="47.10728" lon="-2.10281">
        <ele>11</ele>
        <time>2014-04-08T14:13:30Z</time>
      </trkpt>
      <trkpt lat="47.10738" lon="-2.10269">
        <ele>7</ele>
        <time>2014-04-08T14:13:33Z</time>
      </trkpt>
      <trkpt lat="47.1076" lon="-2.10262">
        <ele>7</ele>
        <time>2014-04-08T14:13:38Z</time>
      </trkpt>
      <trkpt lat="47.1078" lon="-2.10258">
        <ele>7</ele>
        <time>2014-04-08T14:13:42Z</time>
      </trkpt>
      <trkpt lat="47.10792" lon="-2.10238">
        <ele>10</ele>
        <time>2014-04-08T14:13:46Z</time>
      </trkpt>
      <trkpt lat="47.10794" lon="-2.10232">
        <ele>11</ele>
        <time>2014-04-08T14:13:47Z</time>
      </trkpt>
      <trkpt lat="47.10803" lon="-2.10198">
        <ele>12</ele>
        <time>2014-04-08T14:13:54Z</time>
      </trkpt>
      <trkpt lat="47.10816" lon="-2.10187">
        <ele>12</ele>
        <time>2014-04-08T14:13:57Z</time>
      </trkpt>
      <trkpt lat="47.1083" lon="-2.10189">
        <ele>17</ele>
        <time>2014-04-08T14:14:02Z</time>
      </trkpt>
      <trkpt lat="47.10833" lon="-2.10191">
        <ele>17</ele>
        <time>2014-04-08T14:14:03Z</time>
      </trkpt>
      <trkpt lat="47.10859" lon="-2.10206">
        <ele>17</ele>
        <time>2014-04-08T14:14:10Z</time>
      </trkpt>
      <trkpt lat="47.10871" lon="-2.10219">
        <ele>21</ele>
        <time>2014-04-08T14:14:13Z</time>
      </trkpt>
      <trkpt lat="47.10888" lon="-2.1023">
        <ele>23</ele>
        <time>2014-04-08T14:14:18Z</time>
      </trkpt>
      <trkpt lat="47.10904" lon="-2.10212">
        <ele>22</ele>
        <time>2014-04-08T14:14:22Z</time>
      </trkpt>
      <trkpt lat="47.10918" lon="-2.10188">
        <ele>23</ele>
        <time>2014-04-08T14:14:26Z</time>
      </trkpt>
      <trkpt lat="47.10929" lon="-2.10168">
        <ele>23</ele>
        <time>2014-04-08T14:14:29Z</time>
      </trkpt>
      <trkpt lat="47.10938" lon="-2.10135">
        <ele>24</ele>
        <time>2014-04-08T14:14:35Z</time>
      </trkpt>
      <trkpt lat="47.10953" lon="-2.10104">
        <ele>23</ele>
        <time>2014-04-08T14:14:38Z</time>
      </trkpt>
      <trkpt lat="47.10972" lon="-2.10069">
        <ele>22</ele>
        <time>2014-04-08T14:14:43Z</time>
      </trkpt>
      <trkpt lat="47.10986" lon="-2.10039">
        <ele>20</ele>
        <time>2014-04-08T14:14:48Z</time>
      </trkpt>
      <trkpt lat="47.10996" lon="-2.1001">
        <ele>19</ele>
        <time>2014-04-08T14:14:51Z</time>
      </trkpt>
      <trkpt lat="47.1101" lon="-2.09975">
        <ele>20</ele>
        <time>2014-04-08T14:14:56Z</time>
      </trkpt>
      <trkpt lat="47.1103" lon="-2.09933">
        <ele>20</ele>
        <time>2014-04-08T14:15:01Z</time>
      </trkpt>
      <trkpt lat="47.11039" lon="-2.09905">
        <ele>22</ele>
        <time>2014-04-08T14:15:03Z</time>
      </trkpt>
      <trkpt lat="47.11048" lon="-2.09866">
        <ele>26</ele>
        <time>2014-04-08T14:15:07Z</time>
      </trkpt>
      <trkpt lat="47.11049" lon="-2.09832">
        <ele>26</ele>
        <time>2014-04-08T14:15:10Z</time>
      </trkpt>
      <trkpt lat="47.11033" lon="-2.09782">
        <ele>28</ele>
        <time>2014-04-08T14:15:15Z</time>
      </trkpt>
      <trkpt lat="47.11025" lon="-2.09749">
        <ele>27</ele>
        <time>2014-04-08T14:15:19Z</time>
      </trkpt>
      <trkpt lat="47.11011" lon="-2.09694">
        <ele>34</ele>
        <time>2014-04-08T14:15:24Z</time>
      </trkpt>
      <trkpt lat="47.11007" lon="-2.09671">
        <ele>34</ele>
        <time>2014-04-08T14:15:25Z</time>
      </trkpt>
      <trkpt lat="47.10989" lon="-2.09608">
        <ele>29</ele>
        <time>2014-04-08T14:15:31Z</time>
      </trkpt>
      <trkpt lat="47.10975" lon="-2.09561">
        <ele>25</ele>
        <time>2014-04-08T14:15:35Z</time>
      </trkpt>
      <trkpt lat="47.10958" lon="-2.09519">
        <ele>26</ele>
        <time>2014-04-08T14:15:39Z</time>
      </trkpt>
      <trkpt lat="47.10945" lon="-2.09477">
        <ele>28</ele>
        <time>2014-04-08T14:15:43Z</time>
      </trkpt>
      <trkpt lat="47.10923" lon="-2.09425">
        <ele>26</ele>
        <time>2014-04-08T14:15:48Z</time>
      </trkpt>
      <trkpt lat="47.1091" lon="-2.09396">
        <ele>25</ele>
        <time>2014-04-08T14:15:52Z</time>
      </trkpt>
      <trkpt lat="47.1089" lon="-2.09362">
        <ele>23</ele>
        <time>2014-04-08T14:15:56Z</time>
      </trkpt>
      <trkpt lat="47.1087" lon="-2.09323">
        <ele>22</ele>
        <time>2014-04-08T14:15:59Z</time>
      </trkpt>
      <trkpt lat="47.10855" lon="-2.09278">
        <ele>23</ele>
        <time>2014-04-08T14:16:03Z</time>
      </trkpt>
      <trkpt lat="47.10846" lon="-2.09246">
        <ele>21</ele>
        <time>2014-04-08T14:16:07Z</time>
      </trkpt>
      <trkpt lat="47.1084" lon="-2.09193">
        <ele>20</ele>
        <time>2014-04-08T14:16:11Z</time>
      </trkpt>
      <trkpt lat="47.10837" lon="-2.09172">
        <ele>20</ele>
        <time>2014-04-08T14:16:13Z</time>
      </trkpt>
      <trkpt lat="47.10821" lon="-2.09116">
        <ele>20</ele>
        <time>2014-04-08T14:16:20Z</time>
      </trkpt>
      <trkpt lat="47.10792" lon="-2.09085">
        <ele>17</ele>
        <time>2014-04-08T14:16:25Z</time>
      </trkpt>
      <trkpt lat="47.10774" lon="-2.09075">
        <ele>16</ele>
        <time>2014-04-08T14:16:28Z</time>
      </trkpt>
      <trkpt lat="47.10761" lon="-2.09044">
        <ele>20</ele>
        <time>2014-04-08T14:16:33Z</time>
      </trkpt>
      <trkpt lat="47.10756" lon="-2.09015">
        <ele>19</ele>
        <time>2014-04-08T14:16:35Z</time>
      </trkpt>
      <trkpt lat="47.10746" lon="-2.08972">
        <ele>19</ele>
        <time>2014-04-08T14:16:39Z</time>
      </trkpt>
      <trkpt lat="47.10747" lon="-2.08951">
        <ele>20</ele>
        <time>2014-04-08T14:16:42Z</time>
      </trkpt>
      <trkpt lat="47.1076" lon="-2.08899">
        <ele>20</ele>
        <time>2014-04-08T14:16:48Z</time>
      </trkpt>
      <trkpt lat="47.1077" lon="-2.0887">
        <ele>21</ele>
        <time>2014-04-08T14:16:51Z</time>
      </trkpt>
      <trkpt lat="47.10771" lon="-2.0882">
        <ele>19</ele>
        <time>2014-04-08T14:16:55Z</time>
      </trkpt>
      <trkpt lat="47.10764" lon="-2.0879">
        <ele>20</ele>
        <time>2014-04-08T14:16:58Z</time>
      </trkpt>
      <trkpt lat="47.10753" lon="-2.08739">
        <ele>24</ele>
        <time>2014-04-08T14:17:03Z</time>
      </trkpt>
      <trkpt lat="47.10743" lon="-2.087">
        <ele>22</ele>
        <time>2014-04-08T14:17:07Z</time>
      </trkpt>
      <trkpt lat="47.10738" lon="-2.08671">
        <ele>22</ele>
        <time>2014-04-08T14:17:11Z</time>
      </trkpt>
      <trkpt lat="47.10726" lon="-2.08638">
        <ele>25</ele>
        <time>2014-04-08T14:17:15Z</time>
      </trkpt>
      <trkpt lat="47.10722" lon="-2.08621">
        <ele>26</ele>
        <time>2014-04-08T14:17:17Z</time>
      </trkpt>
      <trkpt lat="47.10716" lon="-2.08559">
        <ele>23</ele>
        <time>2014-04-08T14:17:23Z</time>
      </trkpt>
      <trkpt lat="47.10705" lon="-2.08498">
        <ele>24</ele>
        <time>2014-04-08T14:17:29Z</time>
      </trkpt>
      <trkpt lat="47.10694" lon="-2.08464">
        <ele>25</ele>
        <time>2014-04-08T14:17:31Z</time>
      </trkpt>
      <trkpt lat="47.10668" lon="-2.08413">
        <ele>23</ele>
        <time>2014-04-08T14:17:37Z</time>
      </trkpt>
      <trkpt lat="47.10651" lon="-2.08382">
        <ele>23</ele>
        <time>2014-04-08T14:17:39Z</time>
      </trkpt>
      <trkpt lat="47.1064" lon="-2.08363">
        <ele>23</ele>
        <time>2014-04-08T14:17:42Z</time>
      </trkpt>
      <trkpt lat="47.10603" lon="-2.08297">
        <ele>22</ele>
        <time>2014-04-08T14:17:48Z</time>
      </trkpt>
      <trkpt lat="47.10593" lon="-2.08281">
        <ele>20</ele>
        <time>2014-04-08T14:17:50Z</time>
      </trkpt>
      <trkpt lat="47.1056" lon="-2.08224">
        <ele>19</ele>
        <time>2014-04-08T14:17:56Z</time>
      </trkpt>
      <trkpt lat="47.1054" lon="-2.08181">
        <ele>21</ele>
        <time>2014-04-08T14:18:01Z</time>
      </trkpt>
      <trkpt lat="47.10515" lon="-2.08128">
        <ele>21</ele>
        <time>2014-04-08T14:18:06Z</time>
      </trkpt>
      <trkpt lat="47.10501" lon="-2.08099">
        <ele>22</ele>
        <time>2014-04-08T14:18:09Z</time>
      </trkpt>
      <trkpt lat="47.10492" lon="-2.08078">
        <ele>23</ele>
        <time>2014-04-08T14:18:10Z</time>
      </trkpt>
      <trkpt lat="47.1046" lon="-2.08029">
        <ele>24</ele>
        <time>2014-04-08T14:18:16Z</time>
      </trkpt>
      <trkpt lat="47.10439" lon="-2.08006">
        <ele>23</ele>
        <time>2014-04-08T14:18:20Z</time>
      </trkpt>
      <trkpt lat="47.10427" lon="-2.07981">
        <ele>23</ele>
        <time>2014-04-08T14:18:24Z</time>
      </trkpt>
      <trkpt lat="47.10402" lon="-2.07914">
        <ele>22</ele>
        <time>2014-04-08T14:18:29Z</time>
      </trkpt>
      <trkpt lat="47.10395" lon="-2.07871">
        <ele>23</ele>
        <time>2014-04-08T14:18:33Z</time>
      </trkpt>
      <trkpt lat="47.10395" lon="-2.0784">
        <ele>21</ele>
        <time>2014-04-08T14:18:36Z</time>
      </trkpt>
      <trkpt lat="47.10393" lon="-2.07814">
        <ele>20</ele>
        <time>2014-04-08T14:18:40Z</time>
      </trkpt>
      <trkpt lat="47.10397" lon="-2.07788">
        <ele>20</ele>
        <time>2014-04-08T14:18:45Z</time>
      </trkpt>
      <trkpt lat="47.10408" lon="-2.07745">
        <ele>17</ele>
        <time>2014-04-08T14:18:50Z</time>
      </trkpt>
      <trkpt lat="47.10411" lon="-2.07736">
        <ele>18</ele>
        <time>2014-04-08T14:18:51Z</time>
      </trkpt>
      <trkpt lat="47.10418" lon="-2.07685">
        <ele>20</ele>
        <time>2014-04-08T14:18:56Z</time>
      </trkpt>
      <trkpt lat="47.1041" lon="-2.07652">
        <ele>18</ele>
        <time>2014-04-08T14:19:00Z</time>
      </trkpt>
      <trkpt lat="47.10401" lon="-2.07618">
        <ele>20</ele>
        <time>2014-04-08T14:19:05Z</time>
      </trkpt>
      <trkpt lat="47.10397" lon="-2.07599">
        <ele>20</ele>
        <time>2014-04-08T14:19:08Z</time>
      </trkpt>
      <trkpt lat="47.10388" lon="-2.07573">
        <ele>21</ele>
        <time>2014-04-08T14:19:10Z</time>
      </trkpt>
      <trkpt lat="47.1037" lon="-2.0752">
        <ele>23</ele>
        <time>2014-04-08T14:19:17Z</time>
      </trkpt>
      <trkpt lat="47.10358" lon="-2.0749">
        <ele>22</ele>
        <time>2014-04-08T14:19:20Z</time>
      </trkpt>
      <trkpt lat="47.10363" lon="-2.0746">
        <ele>23</ele>
        <time>2014-04-08T14:19:24Z</time>
      </trkpt>
      <trkpt lat="47.10367" lon="-2.07445">
        <ele>22</ele>
        <time>2014-04-08T14:19:27Z</time>
      </trkpt>
      <trkpt lat="47.10378" lon="-2.07407">
        <ele>25</ele>
        <time>2014-04-08T14:19:32Z</time>
      </trkpt>
      <trkpt lat="47.10383" lon="-2.07379">
        <ele>23</ele>
        <time>2014-04-08T14:19:37Z</time>
      </trkpt>
      <trkpt lat="47.10389" lon="-2.07337">
        <ele>23</ele>
        <time>2014-04-08T14:19:42Z</time>
      </trkpt>
      <trkpt lat="47.10392" lon="-2.07325">
        <ele>22</ele>
        <time>2014-04-08T14:19:43Z</time>
      </trkpt>
      <trkpt lat="47.10406" lon="-2.07292">
        <ele>22</ele>
        <time>2014-04-08T14:19:49Z</time>
      </trkpt>
      <trkpt lat="47.10418" lon="-2.07269">
        <ele>25</ele>
        <time>2014-04-08T14:19:52Z</time>
      </trkpt>
      <trkpt lat="47.10425" lon="-2.07258">
        <ele>26</ele>
        <time>2014-04-08T14:19:55Z</time>
      </trkpt>
      <trkpt lat="47.1044" lon="-2.07218">
        <ele>27</ele>
        <time>2014-04-08T14:20:00Z</time>
      </trkpt>
      <trkpt lat="47.10446" lon="-2.07204">
        <ele>28</ele>
        <time>2014-04-08T14:20:02Z</time>
      </trkpt>
      <trkpt lat="47.10449" lon="-2.07159">
        <ele>29</ele>
        <time>2014-04-08T14:20:09Z</time>
      </trkpt>
      <trkpt lat="47.10448" lon="-2.07127">
        <ele>32</ele>
        <time>2014-04-08T14:20:13Z</time>
      </trkpt>
      <trkpt lat="47.10449" lon="-2.07102">
        <ele>32</ele>
        <time>2014-04-08T14:20:15Z</time>
      </trkpt>
      <trkpt lat="47.10453" lon="-2.0706">
        <ele>31</ele>
        <time>2014-04-08T14:20:21Z</time>
      </trkpt>
      <trkpt lat="47.10458" lon="-2.07036">
        <ele>32</ele>
        <time>2014-04-08T14:20:23Z</time>
      </trkpt>
      <trkpt lat="47.10468" lon="-2.06997">
        <ele>33</ele>
        <time>2014-04-08T14:20:28Z</time>
      </trkpt>
      <trkpt lat="47.10473" lon="-2.06982">
        <ele>34</ele>
        <time>2014-04-08T14:20:31Z</time>
      </trkpt>
      <trkpt lat="47.10489" lon="-2.06937">
        <ele>33</ele>
        <time>2014-04-08T14:20:37Z</time>
      </trkpt>
      <trkpt lat="47.10498" lon="-2.06917">
        <ele>34</ele>
        <time>2014-04-08T14:20:41Z</time>
      </trkpt>
      <trkpt lat="47.10506" lon="-2.06901">
        <ele>36</ele>
        <time>2014-04-08T14:20:46Z</time>
      </trkpt>
      <trkpt lat="47.10499" lon="-2.06874">
        <ele>36</ele>
        <time>2014-04-08T14:20:50Z</time>
      </trkpt>
      <trkpt lat="47.10493" lon="-2.06839">
        <ele>36</ele>
        <time>2014-04-08T14:20:54Z</time>
      </trkpt>
      <trkpt lat="47.10486" lon="-2.06812">
        <ele>36</ele>
        <time>2014-04-08T14:20:56Z</time>
      </trkpt>
      <trkpt lat="47.10479" lon="-2.06772">
        <ele>35</ele>
        <time>2014-04-08T14:21:00Z</time>
      </trkpt>
      <trkpt lat="47.10466" lon="-2.06727">
        <ele>36</ele>
        <time>2014-04-08T14:21:05Z</time>
      </trkpt>
      <trkpt lat="47.10454" lon="-2.06689">
        <ele>35</ele>
        <time>2014-04-08T14:21:09Z</time>
      </trkpt>
      <trkpt lat="47.10435" lon="-2.06631">
        <ele>35</ele>
        <time>2014-04-08T14:21:15Z</time>
      </trkpt>
      <trkpt lat="47.10426" lon="-2.06603">
        <ele>35</ele>
        <time>2014-04-08T14:21:18Z</time>
      </trkpt>
      <trkpt lat="47.10413" lon="-2.06563">
        <ele>36</ele>
        <time>2014-04-08T14:21:22Z</time>
      </trkpt>
      <trkpt lat="47.10407" lon="-2.06545">
        <ele>35</ele>
        <time>2014-04-08T14:21:25Z</time>
      </trkpt>
      <trkpt lat="47.10388" lon="-2.06486">
        <ele>33</ele>
        <time>2014-04-08T14:21:31Z</time>
      </trkpt>
      <trkpt lat="47.10378" lon="-2.06444">
        <ele>34</ele>
        <time>2014-04-08T14:21:35Z</time>
      </trkpt>
      <trkpt lat="47.10367" lon="-2.064">
        <ele>36</ele>
        <time>2014-04-08T14:21:39Z</time>
      </trkpt>
      <trkpt lat="47.10353" lon="-2.06357">
        <ele>36</ele>
        <time>2014-04-08T14:21:43Z</time>
      </trkpt>
      <trkpt lat="47.1034" lon="-2.06313">
        <ele>36</ele>
        <time>2014-04-08T14:21:46Z</time>
      </trkpt>
      <trkpt lat="47.1033" lon="-2.0627">
        <ele>37</ele>
        <time>2014-04-08T14:21:50Z</time>
      </trkpt>
      <trkpt lat="47.10318" lon="-2.0623">
        <ele>36</ele>
        <time>2014-04-08T14:21:54Z</time>
      </trkpt>
      <trkpt lat="47.10307" lon="-2.06188">
        <ele>36</ele>
        <time>2014-04-08T14:21:59Z</time>
      </trkpt>
      <trkpt lat="47.10295" lon="-2.06143">
        <ele>37</ele>
        <time>2014-04-08T14:22:02Z</time>
      </trkpt>
      <trkpt lat="47.10279" lon="-2.06099">
        <ele>36</ele>
        <time>2014-04-08T14:22:07Z</time>
      </trkpt>
      <trkpt lat="47.10264" lon="-2.06056">
        <ele>35</ele>
        <time>2014-04-08T14:22:11Z</time>
      </trkpt>
      <trkpt lat="47.1025" lon="-2.06012">
        <ele>37</ele>
        <time>2014-04-08T14:22:15Z</time>
      </trkpt>
      <trkpt lat="47.10235" lon="-2.05968">
        <ele>35</ele>
        <time>2014-04-08T14:22:18Z</time>
      </trkpt>
      <trkpt lat="47.1022" lon="-2.05922">
        <ele>36</ele>
        <time>2014-04-08T14:22:22Z</time>
      </trkpt>
      <trkpt lat="47.10205" lon="-2.05881">
        <ele>36</ele>
        <time>2014-04-08T14:22:26Z</time>
      </trkpt>
      <trkpt lat="47.10198" lon="-2.05858">
        <ele>37</ele>
        <time>2014-04-08T14:22:29Z</time>
      </trkpt>
      <trkpt lat="47.10177" lon="-2.05793">
        <ele>39</ele>
        <time>2014-04-08T14:22:34Z</time>
      </trkpt>
      <trkpt lat="47.10163" lon="-2.05749">
        <ele>36</ele>
        <time>2014-04-08T14:22:39Z</time>
      </trkpt>
      <trkpt lat="47.10155" lon="-2.05727">
        <ele>36</ele>
        <time>2014-04-08T14:22:40Z</time>
      </trkpt>
      <trkpt lat="47.10135" lon="-2.05659">
        <ele>37</ele>
        <time>2014-04-08T14:22:46Z</time>
      </trkpt>
      <trkpt lat="47.10119" lon="-2.05617">
        <ele>35</ele>
        <time>2014-04-08T14:22:50Z</time>
      </trkpt>
      <trkpt lat="47.10103" lon="-2.05576">
        <ele>36</ele>
        <time>2014-04-08T14:22:54Z</time>
      </trkpt>
      <trkpt lat="47.10087" lon="-2.05531">
        <ele>33</ele>
        <time>2014-04-08T14:22:58Z</time>
      </trkpt>
      <trkpt lat="47.1007" lon="-2.05473">
        <ele>33</ele>
        <time>2014-04-08T14:23:03Z</time>
      </trkpt>
      <trkpt lat="47.10056" lon="-2.05423">
        <ele>31</ele>
        <time>2014-04-08T14:23:07Z</time>
      </trkpt>
      <trkpt lat="47.1004" lon="-2.05375">
        <ele>31</ele>
        <time>2014-04-08T14:23:11Z</time>
      </trkpt>
      <trkpt lat="47.10025" lon="-2.0533">
        <ele>31</ele>
        <time>2014-04-08T14:23:15Z</time>
      </trkpt>
      <trkpt lat="47.10008" lon="-2.0528">
        <ele>31</ele>
        <time>2014-04-08T14:23:19Z</time>
      </trkpt>
      <trkpt lat="47.09991" lon="-2.05231">
        <ele>30</ele>
        <time>2014-04-08T14:23:24Z</time>
      </trkpt>
      <trkpt lat="47.09974" lon="-2.05184">
        <ele>30</ele>
        <time>2014-04-08T14:23:28Z</time>
      </trkpt>
      <trkpt lat="47.09958" lon="-2.05139">
        <ele>30</ele>
        <time>2014-04-08T14:23:32Z</time>
      </trkpt>
      <trkpt lat="47.09942" lon="-2.05091">
        <ele>32</ele>
        <time>2014-04-08T14:23:35Z</time>
      </trkpt>
      <trkpt lat="47.09929" lon="-2.0504">
        <ele>31</ele>
        <time>2014-04-08T14:23:39Z</time>
      </trkpt>
      <trkpt lat="47.09913" lon="-2.04992">
        <ele>29</ele>
        <time>2014-04-08T14:23:43Z</time>
      </trkpt>
      <trkpt lat="47.09897" lon="-2.04941">
        <ele>30</ele>
        <time>2014-04-08T14:23:48Z</time>
      </trkpt>
      <trkpt lat="47.09888" lon="-2.04915">
        <ele>29</ele>
        <time>2014-04-08T14:23:49Z</time>
      </trkpt>
      <trkpt lat="47.09867" lon="-2.04838">
        <ele>30</ele>
        <time>2014-04-08T14:23:56Z</time>
      </trkpt>
      <trkpt lat="47.09853" lon="-2.04789">
        <ele>30</ele>
        <time>2014-04-08T14:24:00Z</time>
      </trkpt>
      <trkpt lat="47.09838" lon="-2.04744">
        <ele>31</ele>
        <time>2014-04-08T14:24:04Z</time>
      </trkpt>
      <trkpt lat="47.09822" lon="-2.04701">
        <ele>31</ele>
        <time>2014-04-08T14:24:07Z</time>
      </trkpt>
      <trkpt lat="47.09812" lon="-2.04658">
        <ele>32</ele>
        <time>2014-04-08T14:24:11Z</time>
      </trkpt>
      <trkpt lat="47.09798" lon="-2.04612">
        <ele>33</ele>
        <time>2014-04-08T14:24:15Z</time>
      </trkpt>
      <trkpt lat="47.09784" lon="-2.04568">
        <ele>33</ele>
        <time>2014-04-08T14:24:20Z</time>
      </trkpt>
      <trkpt lat="47.09771" lon="-2.04523">
        <ele>32</ele>
        <time>2014-04-08T14:24:24Z</time>
      </trkpt>
      <trkpt lat="47.09759" lon="-2.04478">
        <ele>31</ele>
        <time>2014-04-08T14:24:28Z</time>
      </trkpt>
      <trkpt lat="47.09745" lon="-2.0443">
        <ele>32</ele>
        <time>2014-04-08T14:24:32Z</time>
      </trkpt>
      <trkpt lat="47.09728" lon="-2.04385">
        <ele>31</ele>
        <time>2014-04-08T14:24:36Z</time>
      </trkpt>
      <trkpt lat="47.09712" lon="-2.04339">
        <ele>33</ele>
        <time>2014-04-08T14:24:39Z</time>
      </trkpt>
      <trkpt lat="47.09693" lon="-2.04296">
        <ele>33</ele>
        <time>2014-04-08T14:24:43Z</time>
      </trkpt>
      <trkpt lat="47.09673" lon="-2.04261">
        <ele>33</ele>
        <time>2014-04-08T14:24:47Z</time>
      </trkpt>
      <trkpt lat="47.09651" lon="-2.04226">
        <ele>33</ele>
        <time>2014-04-08T14:24:52Z</time>
      </trkpt>
      <trkpt lat="47.09628" lon="-2.04192">
        <ele>34</ele>
        <time>2014-04-08T14:24:56Z</time>
      </trkpt>
      <trkpt lat="47.09605" lon="-2.04158">
        <ele>34</ele>
        <time>2014-04-08T14:25:00Z</time>
      </trkpt>
      <trkpt lat="47.09594" lon="-2.04141">
        <ele>34</ele>
        <time>2014-04-08T14:25:01Z</time>
      </trkpt>
      <trkpt lat="47.09567" lon="-2.04098">
        <ele>37</ele>
        <time>2014-04-08T14:25:06Z</time>
      </trkpt>
      <trkpt lat="47.09544" lon="-2.04058">
        <ele>36</ele>
        <time>2014-04-08T14:25:11Z</time>
      </trkpt>
      <trkpt lat="47.09521" lon="-2.04026">
        <ele>37</ele>
        <time>2014-04-08T14:25:15Z</time>
      </trkpt>
      <trkpt lat="47.09501" lon="-2.03993">
        <ele>39</ele>
        <time>2014-04-08T14:25:19Z</time>
      </trkpt>
      <trkpt lat="47.09476" lon="-2.03954">
        <ele>37</ele>
        <time>2014-04-08T14:25:24Z</time>
      </trkpt>
      <trkpt lat="47.09464" lon="-2.03938">
        <ele>36</ele>
        <time>2014-04-08T14:25:27Z</time>
      </trkpt>
      <trkpt lat="47.09441" lon="-2.03905">
        <ele>36</ele>
        <time>2014-04-08T14:25:31Z</time>
      </trkpt>
      <trkpt lat="47.09424" lon="-2.03879">
        <ele>37</ele>
        <time>2014-04-08T14:25:33Z</time>
      </trkpt>
      <trkpt lat="47.09392" lon="-2.03826">
        <ele>35</ele>
        <time>2014-04-08T14:25:40Z</time>
      </trkpt>
      <trkpt lat="47.09371" lon="-2.03791">
        <ele>37</ele>
        <time>2014-04-08T14:25:45Z</time>
      </trkpt>
      <trkpt lat="47.09367" lon="-2.03783">
        <ele>36</ele>
        <time>2014-04-08T14:25:46Z</time>
      </trkpt>
      <trkpt lat="47.09327" lon="-2.03726">
        <ele>34</ele>
        <time>2014-04-08T14:25:52Z</time>
      </trkpt>
      <trkpt lat="47.09312" lon="-2.03702">
        <ele>35</ele>
        <time>2014-04-08T14:25:56Z</time>
      </trkpt>
      <trkpt lat="47.09293" lon="-2.0367">
        <ele>35</ele>
        <time>2014-04-08T14:26:00Z</time>
      </trkpt>
      <trkpt lat="47.09272" lon="-2.0364">
        <ele>36</ele>
        <time>2014-04-08T14:26:04Z</time>
      </trkpt>
      <trkpt lat="47.0925" lon="-2.03609">
        <ele>37</ele>
        <time>2014-04-08T14:26:08Z</time>
      </trkpt>
      <trkpt lat="47.09229" lon="-2.03574">
        <ele>39</ele>
        <time>2014-04-08T14:26:12Z</time>
      </trkpt>
      <trkpt lat="47.09207" lon="-2.03546">
        <ele>39</ele>
        <time>2014-04-08T14:26:15Z</time>
      </trkpt>
      <trkpt lat="47.09185" lon="-2.03513">
        <ele>40</ele>
        <time>2014-04-08T14:26:19Z</time>
      </trkpt>
      <trkpt lat="47.09175" lon="-2.03496">
        <ele>42</ele>
        <time>2014-04-08T14:26:22Z</time>
      </trkpt>
      <trkpt lat="47.09133" lon="-2.03427">
        <ele>42</ele>
        <time>2014-04-08T14:26:29Z</time>
      </trkpt>
      <trkpt lat="47.09127" lon="-2.03418">
        <ele>41</ele>
        <time>2014-04-08T14:26:31Z</time>
      </trkpt>
      <trkpt lat="47.09102" lon="-2.03375">
        <ele>39</ele>
        <time>2014-04-08T14:26:37Z</time>
      </trkpt>
      <trkpt lat="47.09094" lon="-2.03358">
        <ele>38</ele>
        <time>2014-04-08T14:26:38Z</time>
      </trkpt>
      <trkpt lat="47.09078" lon="-2.03317">
        <ele>39</ele>
        <time>2014-04-08T14:26:44Z</time>
      </trkpt>
      <trkpt lat="47.09065" lon="-2.03292">
        <ele>38</ele>
        <time>2014-04-08T14:26:46Z</time>
      </trkpt>
      <trkpt lat="47.09024" lon="-2.03252">
        <ele>37</ele>
        <time>2014-04-08T14:26:52Z</time>
      </trkpt>
      <trkpt lat="47.09004" lon="-2.0322">
        <ele>38</ele>
        <time>2014-04-08T14:26:56Z</time>
      </trkpt>
      <trkpt lat="47.08994" lon="-2.03207">
        <ele>37</ele>
        <time>2014-04-08T14:26:59Z</time>
      </trkpt>
      <trkpt lat="47.08954" lon="-2.03152">
        <ele>39</ele>
        <time>2014-04-08T14:27:05Z</time>
      </trkpt>
      <trkpt lat="47.08938" lon="-2.03125">
        <ele>39</ele>
        <time>2014-04-08T14:27:09Z</time>
      </trkpt>
      <trkpt lat="47.08915" lon="-2.03086">
        <ele>39</ele>
        <time>2014-04-08T14:27:12Z</time>
      </trkpt>
      <trkpt lat="47.08891" lon="-2.0305">
        <ele>39</ele>
        <time>2014-04-08T14:27:16Z</time>
      </trkpt>
      <trkpt lat="47.08863" lon="-2.03003">
        <ele>38</ele>
        <time>2014-04-08T14:27:22Z</time>
      </trkpt>
      <trkpt lat="47.08857" lon="-2.02993">
        <ele>38</ele>
        <time>2014-04-08T14:27:23Z</time>
      </trkpt>
      <trkpt lat="47.08814" lon="-2.02929">
        <ele>36</ele>
        <time>2014-04-08T14:27:30Z</time>
      </trkpt>
      <trkpt lat="47.08794" lon="-2.02897">
        <ele>35</ele>
        <time>2014-04-08T14:27:32Z</time>
      </trkpt>
      <trkpt lat="47.08767" lon="-2.02851">
        <ele>37</ele>
        <time>2014-04-08T14:27:36Z</time>
      </trkpt>
      <trkpt lat="47.08741" lon="-2.02806">
        <ele>35</ele>
        <time>2014-04-08T14:27:41Z</time>
      </trkpt>
      <trkpt lat="47.08714" lon="-2.02764">
        <ele>33</ele>
        <time>2014-04-08T14:27:45Z</time>
      </trkpt>
      <trkpt lat="47.08695" lon="-2.02733">
        <ele>32</ele>
        <time>2014-04-08T14:27:47Z</time>
      </trkpt>
      <trkpt lat="47.08658" lon="-2.02671">
        <ele>32</ele>
        <time>2014-04-08T14:27:53Z</time>
      </trkpt>
      <trkpt lat="47.0864" lon="-2.02638">
        <ele>33</ele>
        <time>2014-04-08T14:27:56Z</time>
      </trkpt>
      <trkpt lat="47.08608" lon="-2.02587">
        <ele>32</ele>
        <time>2014-04-08T14:28:02Z</time>
      </trkpt>
      <trkpt lat="47.08588" lon="-2.02555">
        <ele>32</ele>
        <time>2014-04-08T14:28:05Z</time>
      </trkpt>
      <trkpt lat="47.08562" lon="-2.02515">
        <ele>32</ele>
        <time>2014-04-08T14:28:09Z</time>
      </trkpt>
      <trkpt lat="47.08536" lon="-2.02475">
        <ele>33</ele>
        <time>2014-04-08T14:28:13Z</time>
      </trkpt>
      <trkpt lat="47.08511" lon="-2.02435">
        <ele>31</ele>
        <time>2014-04-08T14:28:17Z</time>
      </trkpt>
      <trkpt lat="47.08485" lon="-2.02395">
        <ele>30</ele>
        <time>2014-04-08T14:28:21Z</time>
      </trkpt>
      <trkpt lat="47.08459" lon="-2.02355">
        <ele>30</ele>
        <time>2014-04-08T14:28:25Z</time>
      </trkpt>
      <trkpt lat="47.08432" lon="-2.02312">
        <ele>27</ele>
        <time>2014-04-08T14:28:29Z</time>
      </trkpt>
      <trkpt lat="47.08405" lon="-2.02268">
        <ele>27</ele>
        <time>2014-04-08T14:28:33Z</time>
      </trkpt>
      <trkpt lat="47.08371" lon="-2.02212">
        <ele>27</ele>
        <time>2014-04-08T14:28:38Z</time>
      </trkpt>
      <trkpt lat="47.0835" lon="-2.02179">
        <ele>26</ele>
        <time>2014-04-08T14:28:41Z</time>
      </trkpt>
      <trkpt lat="47.08335" lon="-2.02156">
        <ele>26</ele>
        <time>2014-04-08T14:28:42Z</time>
      </trkpt>
      <trkpt lat="47.08297" lon="-2.02094">
        <ele>25</ele>
        <time>2014-04-08T14:28:48Z</time>
      </trkpt>
      <trkpt lat="47.08271" lon="-2.02049">
        <ele>24</ele>
        <time>2014-04-08T14:28:52Z</time>
      </trkpt>
      <trkpt lat="47.08247" lon="-2.02005">
        <ele>25</ele>
        <time>2014-04-08T14:28:57Z</time>
      </trkpt>
      <trkpt lat="47.08225" lon="-2.01965">
        <ele>24</ele>
        <time>2014-04-08T14:29:00Z</time>
      </trkpt>
      <trkpt lat="47.08204" lon="-2.01927">
        <ele>24</ele>
        <time>2014-04-08T14:29:04Z</time>
      </trkpt>
      <trkpt lat="47.08182" lon="-2.0189">
        <ele>25</ele>
        <time>2014-04-08T14:29:08Z</time>
      </trkpt>
      <trkpt lat="47.08154" lon="-2.01841">
        <ele>27</ele>
        <time>2014-04-08T14:29:13Z</time>
      </trkpt>
      <trkpt lat="47.08133" lon="-2.01804">
        <ele>27</ele>
        <time>2014-04-08T14:29:17Z</time>
      </trkpt>
      <trkpt lat="47.08111" lon="-2.0177">
        <ele>26</ele>
        <time>2014-04-08T14:29:22Z</time>
      </trkpt>
      <trkpt lat="47.0809" lon="-2.01732">
        <ele>27</ele>
        <time>2014-04-08T14:29:26Z</time>
      </trkpt>
      <trkpt lat="47.08069" lon="-2.01693">
        <ele>27</ele>
        <time>2014-04-08T14:29:30Z</time>
      </trkpt>
      <trkpt lat="47.08047" lon="-2.01653">
        <ele>28</ele>
        <time>2014-04-08T14:29:34Z</time>
      </trkpt>
      <trkpt lat="47.08025" lon="-2.01613">
        <ele>30</ele>
        <time>2014-04-08T14:29:38Z</time>
      </trkpt>
      <trkpt lat="47.08003" lon="-2.01574">
        <ele>28</ele>
        <time>2014-04-08T14:29:41Z</time>
      </trkpt>
      <trkpt lat="47.07978" lon="-2.01534">
        <ele>26</ele>
        <time>2014-04-08T14:29:45Z</time>
      </trkpt>
      <trkpt lat="47.07955" lon="-2.01492">
        <ele>25</ele>
        <time>2014-04-08T14:29:49Z</time>
      </trkpt>
      <trkpt lat="47.07934" lon="-2.0145">
        <ele>24</ele>
        <time>2014-04-08T14:29:53Z</time>
      </trkpt>
      <trkpt lat="47.07912" lon="-2.01406">
        <ele>24</ele>
        <time>2014-04-08T14:29:57Z</time>
      </trkpt>
      <trkpt lat="47.07897" lon="-2.01373">
        <ele>25</ele>
        <time>2014-04-08T14:30:00Z</time>
      </trkpt>
      <trkpt lat="47.07874" lon="-2.01319">
        <ele>26</ele>
        <time>2014-04-08T14:30:05Z</time>
      </trkpt>
      <trkpt lat="47.07864" lon="-2.01297">
        <ele>27</ele>
        <time>2014-04-08T14:30:07Z</time>
      </trkpt>
      <trkpt lat="47.07845" lon="-2.01254">
        <ele>27</ele>
        <time>2014-04-08T14:30:11Z</time>
      </trkpt>
      <trkpt lat="47.07823" lon="-2.01193">
        <ele>25</ele>
        <time>2014-04-08T14:30:18Z</time>
      </trkpt>
      <trkpt lat="47.07806" lon="-2.01155">
        <ele>29</ele>
        <time>2014-04-08T14:30:22Z</time>
      </trkpt>
      <trkpt lat="47.07793" lon="-2.01127">
        <ele>30</ele>
        <time>2014-04-08T14:30:25Z</time>
      </trkpt>
      <trkpt lat="47.07773" lon="-2.01083">
        <ele>30</ele>
        <time>2014-04-08T14:30:30Z</time>
      </trkpt>
      <trkpt lat="47.07766" lon="-2.01066">
        <ele>30</ele>
        <time>2014-04-08T14:30:31Z</time>
      </trkpt>
      <trkpt lat="47.07745" lon="-2.01014">
        <ele>30</ele>
        <time>2014-04-08T14:30:38Z</time>
      </trkpt>
      <trkpt lat="47.07739" lon="-2.00999">
        <ele>33</ele>
        <time>2014-04-08T14:30:39Z</time>
      </trkpt>
      <trkpt lat="47.07723" lon="-2.00961">
        <ele>34</ele>
        <time>2014-04-08T14:30:44Z</time>
      </trkpt>
      <trkpt lat="47.07713" lon="-2.0093">
        <ele>34</ele>
        <time>2014-04-08T14:30:47Z</time>
      </trkpt>
      <trkpt lat="47.07702" lon="-2.0089">
        <ele>33</ele>
        <time>2014-04-08T14:30:52Z</time>
      </trkpt>
      <trkpt lat="47.07682" lon="-2.00818">
        <ele>33</ele>
        <time>2014-04-08T14:30:58Z</time>
      </trkpt>
      <trkpt lat="47.07679" lon="-2.00809">
        <ele>32</ele>
        <time>2014-04-08T14:30:59Z</time>
      </trkpt>
      <trkpt lat="47.07665" lon="-2.00736">
        <ele>33</ele>
        <time>2014-04-08T14:31:07Z</time>
      </trkpt>
      <trkpt lat="47.07658" lon="-2.00688">
        <ele>31</ele>
        <time>2014-04-08T14:31:10Z</time>
      </trkpt>
      <trkpt lat="47.07648" lon="-2.00641">
        <ele>31</ele>
        <time>2014-04-08T14:31:14Z</time>
      </trkpt>
      <trkpt lat="47.07642" lon="-2.00616">
        <ele>31</ele>
        <time>2014-04-08T14:31:17Z</time>
      </trkpt>
      <trkpt lat="47.07626" lon="-2.00539">
        <ele>32</ele>
        <time>2014-04-08T14:31:23Z</time>
      </trkpt>
      <trkpt lat="47.07617" lon="-2.00483">
        <ele>30</ele>
        <time>2014-04-08T14:31:26Z</time>
      </trkpt>
      <trkpt lat="47.07605" lon="-2.00426">
        <ele>29</ele>
        <time>2014-04-08T14:31:30Z</time>
      </trkpt>
      <trkpt lat="47.07592" lon="-2.00369">
        <ele>29</ele>
        <time>2014-04-08T14:31:34Z</time>
      </trkpt>
      <trkpt lat="47.07579" lon="-2.00307">
        <ele>26</ele>
        <time>2014-04-08T14:31:39Z</time>
      </trkpt>
      <trkpt lat="47.07557" lon="-2.00235">
        <ele>22</ele>
        <time>2014-04-08T14:31:44Z</time>
      </trkpt>
      <trkpt lat="47.07541" lon="-2.00192">
        <ele>22</ele>
        <time>2014-04-08T14:31:46Z</time>
      </trkpt>
      <trkpt lat="47.07516" lon="-2.00138">
        <ele>22</ele>
        <time>2014-04-08T14:31:50Z</time>
      </trkpt>
      <trkpt lat="47.07504" lon="-2.00111">
        <ele>22</ele>
        <time>2014-04-08T14:31:53Z</time>
      </trkpt>
      <trkpt lat="47.07469" lon="-2.00029">
        <ele>19</ele>
        <time>2014-04-08T14:31:58Z</time>
      </trkpt>
      <trkpt lat="47.07443" lon="-1.99978">
        <ele>19</ele>
        <time>2014-04-08T14:32:02Z</time>
      </trkpt>
      <trkpt lat="47.07421" lon="-1.99928">
        <ele>18</ele>
        <time>2014-04-08T14:32:06Z</time>
      </trkpt>
      <trkpt lat="47.07411" lon="-1.99906">
        <ele>18</ele>
        <time>2014-04-08T14:32:08Z</time>
      </trkpt>
      <trkpt lat="47.07379" lon="-1.99837">
        <ele>21</ele>
        <time>2014-04-08T14:32:14Z</time>
      </trkpt>
      <trkpt lat="47.0736" lon="-1.99794">
        <ele>22</ele>
        <time>2014-04-08T14:32:18Z</time>
      </trkpt>
      <trkpt lat="47.0734" lon="-1.99752">
        <ele>23</ele>
        <time>2014-04-08T14:32:22Z</time>
      </trkpt>
      <trkpt lat="47.07319" lon="-1.99709">
        <ele>24</ele>
        <time>2014-04-08T14:32:26Z</time>
      </trkpt>
      <trkpt lat="47.07301" lon="-1.99668">
        <ele>23</ele>
        <time>2014-04-08T14:32:31Z</time>
      </trkpt>
      <trkpt lat="47.07281" lon="-1.99627">
        <ele>23</ele>
        <time>2014-04-08T14:32:35Z</time>
      </trkpt>
      <trkpt lat="47.07263" lon="-1.99589">
        <ele>23</ele>
        <time>2014-04-08T14:32:39Z</time>
      </trkpt>
      <trkpt lat="47.07245" lon="-1.99548">
        <ele>25</ele>
        <time>2014-04-08T14:32:43Z</time>
      </trkpt>
      <trkpt lat="47.07232" lon="-1.9952">
        <ele>25</ele>
        <time>2014-04-08T14:32:45Z</time>
      </trkpt>
      <trkpt lat="47.07209" lon="-1.99473">
        <ele>24</ele>
        <time>2014-04-08T14:32:50Z</time>
      </trkpt>
      <trkpt lat="47.07192" lon="-1.99432">
        <ele>24</ele>
        <time>2014-04-08T14:32:54Z</time>
      </trkpt>
      <trkpt lat="47.07175" lon="-1.9939">
        <ele>25</ele>
        <time>2014-04-08T14:32:59Z</time>
      </trkpt>
      <trkpt lat="47.07157" lon="-1.99351">
        <ele>24</ele>
        <time>2014-04-08T14:33:02Z</time>
      </trkpt>
      <trkpt lat="47.07137" lon="-1.99311">
        <ele>23</ele>
        <time>2014-04-08T14:33:07Z</time>
      </trkpt>
      <trkpt lat="47.07113" lon="-1.99261">
        <ele>22</ele>
        <time>2014-04-08T14:33:12Z</time>
      </trkpt>
      <trkpt lat="47.07096" lon="-1.99223">
        <ele>22</ele>
        <time>2014-04-08T14:33:16Z</time>
      </trkpt>
      <trkpt lat="47.0708" lon="-1.9919">
        <ele>22</ele>
        <time>2014-04-08T14:33:18Z</time>
      </trkpt>
      <trkpt lat="47.0706" lon="-1.99149">
        <ele>21</ele>
        <time>2014-04-08T14:33:22Z</time>
      </trkpt>
      <trkpt lat="47.0704" lon="-1.99104">
        <ele>21</ele>
        <time>2014-04-08T14:33:26Z</time>
      </trkpt>
      <trkpt lat="47.07018" lon="-1.9906">
        <ele>20</ele>
        <time>2014-04-08T14:33:31Z</time>
      </trkpt>
      <trkpt lat="47.06995" lon="-1.99018">
        <ele>21</ele>
        <time>2014-04-08T14:33:35Z</time>
      </trkpt>
      <trkpt lat="47.06969" lon="-1.98979">
        <ele>20</ele>
        <time>2014-04-08T14:33:39Z</time>
      </trkpt>
      <trkpt lat="47.06944" lon="-1.98943">
        <ele>19</ele>
        <time>2014-04-08T14:33:43Z</time>
      </trkpt>
      <trkpt lat="47.06915" lon="-1.98909">
        <ele>18</ele>
        <time>2014-04-08T14:33:46Z</time>
      </trkpt>
      <trkpt lat="47.06881" lon="-1.98865">
        <ele>18</ele>
        <time>2014-04-08T14:33:52Z</time>
      </trkpt>
      <trkpt lat="47.0686" lon="-1.98841">
        <ele>19</ele>
        <time>2014-04-08T14:33:54Z</time>
      </trkpt>
      <trkpt lat="47.06833" lon="-1.98809">
        <ele>19</ele>
        <time>2014-04-08T14:33:58Z</time>
      </trkpt>
      <trkpt lat="47.06805" lon="-1.98776">
        <ele>17</ele>
        <time>2014-04-08T14:34:02Z</time>
      </trkpt>
      <trkpt lat="47.06776" lon="-1.98744">
        <ele>18</ele>
        <time>2014-04-08T14:34:07Z</time>
      </trkpt>
      <trkpt lat="47.06749" lon="-1.9871">
        <ele>17</ele>
        <time>2014-04-08T14:34:11Z</time>
      </trkpt>
      <trkpt lat="47.06723" lon="-1.9868">
        <ele>18</ele>
        <time>2014-04-08T14:34:15Z</time>
      </trkpt>
      <trkpt lat="47.06699" lon="-1.98651">
        <ele>17</ele>
        <time>2014-04-08T14:34:18Z</time>
      </trkpt>
      <trkpt lat="47.06675" lon="-1.98626">
        <ele>16</ele>
        <time>2014-04-08T14:34:22Z</time>
      </trkpt>
      <trkpt lat="47.06653" lon="-1.98601">
        <ele>15</ele>
        <time>2014-04-08T14:34:26Z</time>
      </trkpt>
      <trkpt lat="47.06629" lon="-1.98577">
        <ele>14</ele>
        <time>2014-04-08T14:34:31Z</time>
      </trkpt>
      <trkpt lat="47.06599" lon="-1.98556">
        <ele>13</ele>
        <time>2014-04-08T14:34:35Z</time>
      </trkpt>
      <trkpt lat="47.06562" lon="-1.98549">
        <ele>12</ele>
        <time>2014-04-08T14:34:39Z</time>
      </trkpt>
      <trkpt lat="47.06525" lon="-1.98559">
        <ele>10</ele>
        <time>2014-04-08T14:34:43Z</time>
      </trkpt>
      <trkpt lat="47.06494" lon="-1.98561">
        <ele>8</ele>
        <time>2014-04-08T14:34:48Z</time>
      </trkpt>
      <trkpt lat="47.06486" lon="-1.98546">
        <ele>10</ele>
        <time>2014-04-08T14:34:56Z</time>
      </trkpt>
      <trkpt lat="47.06489" lon="-1.98518">
        <ele>10</ele>
        <time>2014-04-08T14:34:59Z</time>
      </trkpt>
      <trkpt lat="47.06493" lon="-1.98478">
        <ele>8</ele>
        <time>2014-04-08T14:35:03Z</time>
      </trkpt>
      <trkpt lat="47.06497" lon="-1.9844">
        <ele>7</ele>
        <time>2014-04-08T14:35:07Z</time>
      </trkpt>
      <trkpt lat="47.06503" lon="-1.98362">
        <ele>5</ele>
        <time>2014-04-08T14:35:12Z</time>
      </trkpt>
      <trkpt lat="47.06505" lon="-1.98323">
        <ele>6</ele>
        <time>2014-04-08T14:35:16Z</time>
      </trkpt>
      <trkpt lat="47.06515" lon="-1.98286">
        <ele>6</ele>
        <time>2014-04-08T14:35:19Z</time>
      </trkpt>
      <trkpt lat="47.06532" lon="-1.98245">
        <ele>8</ele>
        <time>2014-04-08T14:35:23Z</time>
      </trkpt>
      <trkpt lat="47.06544" lon="-1.98216">
        <ele>9</ele>
        <time>2014-04-08T14:35:26Z</time>
      </trkpt>
      <trkpt lat="47.06557" lon="-1.98178">
        <ele>10</ele>
        <time>2014-04-08T14:35:31Z</time>
      </trkpt>
      <trkpt lat="47.06571" lon="-1.98154">
        <ele>11</ele>
        <time>2014-04-08T14:35:35Z</time>
      </trkpt>
      <trkpt lat="47.06579" lon="-1.98143">
        <ele>11</ele>
        <time>2014-04-08T14:35:37Z</time>
      </trkpt>
      <trkpt lat="47.06597" lon="-1.9813">
        <ele>9</ele>
        <time>2014-04-08T14:35:41Z</time>
      </trkpt>
      <trkpt lat="47.06615" lon="-1.98117">
        <ele>10</ele>
        <time>2014-04-08T14:35:45Z</time>
      </trkpt>
      <trkpt lat="47.06634" lon="-1.98108">
        <ele>10</ele>
        <time>2014-04-08T14:35:51Z</time>
      </trkpt>
      <trkpt lat="47.06648" lon="-1.981">
        <ele>10</ele>
        <time>2014-04-08T14:35:54Z</time>
      </trkpt>
      <trkpt lat="47.06677" lon="-1.9808">
        <ele>15</ele>
        <time>2014-04-08T14:35:59Z</time>
      </trkpt>
      <trkpt lat="47.06701" lon="-1.98061">
        <ele>15</ele>
        <time>2014-04-08T14:36:05Z</time>
      </trkpt>
      <trkpt lat="47.0671" lon="-1.98055">
        <ele>16</ele>
        <time>2014-04-08T14:36:06Z</time>
      </trkpt>
      <trkpt lat="47.06739" lon="-1.98018">
        <ele>17</ele>
        <time>2014-04-08T14:36:12Z</time>
      </trkpt>
      <trkpt lat="47.06773" lon="-1.97981">
        <ele>16</ele>
        <time>2014-04-08T14:36:18Z</time>
      </trkpt>
      <trkpt lat="47.06791" lon="-1.97957">
        <ele>14</ele>
        <time>2014-04-08T14:36:20Z</time>
      </trkpt>
      <trkpt lat="47.06821" lon="-1.97928">
        <ele>13</ele>
        <time>2014-04-08T14:36:25Z</time>
      </trkpt>
      <trkpt lat="47.06852" lon="-1.97894">
        <ele>11</ele>
        <time>2014-04-08T14:36:29Z</time>
      </trkpt>
      <trkpt lat="47.06876" lon="-1.97873">
        <ele>12</ele>
        <time>2014-04-08T14:36:31Z</time>
      </trkpt>
      <trkpt lat="47.06903" lon="-1.97857">
        <ele>9</ele>
        <time>2014-04-08T14:36:34Z</time>
      </trkpt>
      <trkpt lat="47.06951" lon="-1.9783">
        <ele>6</ele>
        <time>2014-04-08T14:36:39Z</time>
      </trkpt>
      <trkpt lat="47.06999" lon="-1.97804">
        <ele>7</ele>
        <time>2014-04-08T14:36:44Z</time>
      </trkpt>
      <trkpt lat="47.07026" lon="-1.97788">
        <ele>4</ele>
        <time>2014-04-08T14:36:47Z</time>
      </trkpt>
      <trkpt lat="47.07084" lon="-1.97757">
        <ele>7</ele>
        <time>2014-04-08T14:36:53Z</time>
      </trkpt>
      <trkpt lat="47.07115" lon="-1.97749">
        <ele>7</ele>
        <time>2014-04-08T14:36:56Z</time>
      </trkpt>
      <trkpt lat="47.07155" lon="-1.97746">
        <ele>6</ele>
        <time>2014-04-08T14:37:00Z</time>
      </trkpt>
      <trkpt lat="47.07174" lon="-1.97742">
        <ele>7</ele>
        <time>2014-04-08T14:37:02Z</time>
      </trkpt>
      <trkpt lat="47.07233" lon="-1.97745">
        <ele>9</ele>
        <time>2014-04-08T14:37:08Z</time>
      </trkpt>
      <trkpt lat="47.07271" lon="-1.97751">
        <ele>6</ele>
        <time>2014-04-08T14:37:12Z</time>
      </trkpt>
      <trkpt lat="47.07288" lon="-1.97753">
        <ele>6</ele>
        <time>2014-04-08T14:37:14Z</time>
      </trkpt>
      <trkpt lat="47.07337" lon="-1.97745">
        <ele>6</ele>
        <time>2014-04-08T14:37:21Z</time>
      </trkpt>
      <trkpt lat="47.07368" lon="-1.97739">
        <ele>6</ele>
        <time>2014-04-08T14:37:25Z</time>
      </trkpt>
      <trkpt lat="47.07392" lon="-1.97733">
        <ele>6</ele>
        <time>2014-04-08T14:37:29Z</time>
      </trkpt>
      <trkpt lat="47.07411" lon="-1.97724">
        <ele>7</ele>
        <time>2014-04-08T14:37:32Z</time>
      </trkpt>
      <trkpt lat="47.07433" lon="-1.97717">
        <ele>7</ele>
        <time>2014-04-08T14:37:36Z</time>
      </trkpt>
      <trkpt lat="47.07443" lon="-1.97706">
        <ele>7</ele>
        <time>2014-04-08T14:37:38Z</time>
      </trkpt>
      <trkpt lat="47.07474" lon="-1.97688">
        <ele>4</ele>
        <time>2014-04-08T14:37:44Z</time>
      </trkpt>
      <trkpt lat="47.07483" lon="-1.97686">
        <ele>4</ele>
        <time>2014-04-08T14:37:47Z</time>
      </trkpt>
      <trkpt lat="47.07508" lon="-1.97666">
        <ele>8</ele>
        <time>2014-04-08T14:37:53Z</time>
      </trkpt>
      <trkpt lat="47.07538" lon="-1.97644">
        <ele>9</ele>
        <time>2014-04-08T14:37:58Z</time>
      </trkpt>
      <trkpt lat="47.07565" lon="-1.97626">
        <ele>8</ele>
        <time>2014-04-08T14:38:02Z</time>
      </trkpt>
      <trkpt lat="47.07587" lon="-1.97617">
        <ele>11</ele>
        <time>2014-04-08T14:38:06Z</time>
      </trkpt>
      <trkpt lat="47.07601" lon="-1.97611">
        <ele>14</ele>
        <time>2014-04-08T14:38:07Z</time>
      </trkpt>
      <trkpt lat="47.07635" lon="-1.97606">
        <ele>12</ele>
        <time>2014-04-08T14:38:11Z</time>
      </trkpt>
      <trkpt lat="47.07696" lon="-1.97592">
        <ele>15</ele>
        <time>2014-04-08T14:38:20Z</time>
      </trkpt>
      <trkpt lat="47.07721" lon="-1.97585">
        <ele>15</ele>
        <time>2014-04-08T14:38:22Z</time>
      </trkpt>
      <trkpt lat="47.0775" lon="-1.97576">
        <ele>14</ele>
        <time>2014-04-08T14:38:26Z</time>
      </trkpt>
      <trkpt lat="47.07786" lon="-1.97567">
        <ele>16</ele>
        <time>2014-04-08T14:38:31Z</time>
      </trkpt>
      <trkpt lat="47.07809" lon="-1.97559">
        <ele>16</ele>
        <time>2014-04-08T14:38:35Z</time>
      </trkpt>
      <trkpt lat="47.07835" lon="-1.97551">
        <ele>16</ele>
        <time>2014-04-08T14:38:39Z</time>
      </trkpt>
      <trkpt lat="47.07864" lon="-1.97538">
        <ele>15</ele>
        <time>2014-04-08T14:38:43Z</time>
      </trkpt>
      <trkpt lat="47.07889" lon="-1.97521">
        <ele>14</ele>
        <time>2014-04-08T14:38:47Z</time>
      </trkpt>
      <trkpt lat="47.07904" lon="-1.97512">
        <ele>13</ele>
        <time>2014-04-08T14:38:48Z</time>
      </trkpt>
      <trkpt lat="47.07946" lon="-1.97489">
        <ele>13</ele>
        <time>2014-04-08T14:38:54Z</time>
      </trkpt>
      <trkpt lat="47.07973" lon="-1.97474">
        <ele>12</ele>
        <time>2014-04-08T14:38:59Z</time>
      </trkpt>
      <trkpt lat="47.08" lon="-1.97458">
        <ele>13</ele>
        <time>2014-04-08T14:39:02Z</time>
      </trkpt>
      <trkpt lat="47.08019" lon="-1.97447">
        <ele>14</ele>
        <time>2014-04-08T14:39:05Z</time>
      </trkpt>
      <trkpt lat="47.0805" lon="-1.9743">
        <ele>13</ele>
        <time>2014-04-08T14:39:10Z</time>
      </trkpt>
      <trkpt lat="47.08062" lon="-1.97422">
        <ele>12</ele>
        <time>2014-04-08T14:39:13Z</time>
      </trkpt>
      <trkpt lat="47.08103" lon="-1.97396">
        <ele>10</ele>
        <time>2014-04-08T14:39:20Z</time>
      </trkpt>
      <trkpt lat="47.08108" lon="-1.97393">
        <ele>12</ele>
        <time>2014-04-08T14:39:21Z</time>
      </trkpt>
      <trkpt lat="47.08138" lon="-1.97378">
        <ele>14</ele>
        <time>2014-04-08T14:39:25Z</time>
      </trkpt>
      <trkpt lat="47.08165" lon="-1.9736">
        <ele>14</ele>
        <time>2014-04-08T14:39:30Z</time>
      </trkpt>
      <trkpt lat="47.08188" lon="-1.97346">
        <ele>14</ele>
        <time>2014-04-08T14:39:35Z</time>
      </trkpt>
      <trkpt lat="47.08207" lon="-1.97333">
        <ele>15</ele>
        <time>2014-04-08T14:39:39Z</time>
      </trkpt>
      <trkpt lat="47.08229" lon="-1.97313">
        <ele>15</ele>
        <time>2014-04-08T14:39:43Z</time>
      </trkpt>
      <trkpt lat="47.08253" lon="-1.97294">
        <ele>15</ele>
        <time>2014-04-08T14:39:47Z</time>
      </trkpt>
      <trkpt lat="47.08275" lon="-1.97273">
        <ele>16</ele>
        <time>2014-04-08T14:39:51Z</time>
      </trkpt>
      <trkpt lat="47.08298" lon="-1.97252">
        <ele>15</ele>
        <time>2014-04-08T14:39:54Z</time>
      </trkpt>
      <trkpt lat="47.08324" lon="-1.97226">
        <ele>15</ele>
        <time>2014-04-08T14:39:58Z</time>
      </trkpt>
      <trkpt lat="47.08352" lon="-1.97203">
        <ele>14</ele>
        <time>2014-04-08T14:40:02Z</time>
      </trkpt>
      <trkpt lat="47.08379" lon="-1.9718">
        <ele>14</ele>
        <time>2014-04-08T14:40:06Z</time>
      </trkpt>
      <trkpt lat="47.08393" lon="-1.97168">
        <ele>14</ele>
        <time>2014-04-08T14:40:08Z</time>
      </trkpt>
      <trkpt lat="47.08436" lon="-1.97136">
        <ele>15</ele>
        <time>2014-04-08T14:40:14Z</time>
      </trkpt>
      <trkpt lat="47.08461" lon="-1.97114">
        <ele>18</ele>
        <time>2014-04-08T14:40:18Z</time>
      </trkpt>
      <trkpt lat="47.08488" lon="-1.97093">
        <ele>20</ele>
        <time>2014-04-08T14:40:22Z</time>
      </trkpt>
      <trkpt lat="47.08509" lon="-1.97078">
        <ele>19</ele>
        <time>2014-04-08T14:40:25Z</time>
      </trkpt>
      <trkpt lat="47.08545" lon="-1.97048">
        <ele>18</ele>
        <time>2014-04-08T14:40:30Z</time>
      </trkpt>
      <trkpt lat="47.08575" lon="-1.97023">
        <ele>19</ele>
        <time>2014-04-08T14:40:34Z</time>
      </trkpt>
      <trkpt lat="47.08599" lon="-1.96996">
        <ele>20</ele>
        <time>2014-04-08T14:40:38Z</time>
      </trkpt>
      <trkpt lat="47.08621" lon="-1.96966">
        <ele>20</ele>
        <time>2014-04-08T14:40:42Z</time>
      </trkpt>
      <trkpt lat="47.08642" lon="-1.96937">
        <ele>20</ele>
        <time>2014-04-08T14:40:47Z</time>
      </trkpt>
      <trkpt lat="47.08671" lon="-1.96897">
        <ele>20</ele>
        <time>2014-04-08T14:40:52Z</time>
      </trkpt>
      <trkpt lat="47.08688" lon="-1.96875">
        <ele>21</ele>
        <time>2014-04-08T14:40:54Z</time>
      </trkpt>
      <trkpt lat="47.08706" lon="-1.96854">
        <ele>22</ele>
        <time>2014-04-08T14:40:58Z</time>
      </trkpt>
      <trkpt lat="47.08735" lon="-1.96827">
        <ele>21</ele>
        <time>2014-04-08T14:41:01Z</time>
      </trkpt>
      <trkpt lat="47.08762" lon="-1.968">
        <ele>21</ele>
        <time>2014-04-08T14:41:06Z</time>
      </trkpt>
      <trkpt lat="47.08781" lon="-1.96781">
        <ele>22</ele>
        <time>2014-04-08T14:41:08Z</time>
      </trkpt>
      <trkpt lat="47.08813" lon="-1.96748">
        <ele>20</ele>
        <time>2014-04-08T14:41:14Z</time>
      </trkpt>
      <trkpt lat="47.08846" lon="-1.96714">
        <ele>19</ele>
        <time>2014-04-08T14:41:18Z</time>
      </trkpt>
      <trkpt lat="47.08871" lon="-1.96687">
        <ele>19</ele>
        <time>2014-04-08T14:41:22Z</time>
      </trkpt>
      <trkpt lat="47.08905" lon="-1.96653">
        <ele>17</ele>
        <time>2014-04-08T14:41:27Z</time>
      </trkpt>
      <trkpt lat="47.08931" lon="-1.96624">
        <ele>17</ele>
        <time>2014-04-08T14:41:32Z</time>
      </trkpt>
      <trkpt lat="47.08951" lon="-1.96605">
        <ele>17</ele>
        <time>2014-04-08T14:41:34Z</time>
      </trkpt>
      <trkpt lat="47.0898" lon="-1.96576">
        <ele>17</ele>
        <time>2014-04-08T14:41:38Z</time>
      </trkpt>
      <trkpt lat="47.08995" lon="-1.96561">
        <ele>17</ele>
        <time>2014-04-08T14:41:41Z</time>
      </trkpt>
      <trkpt lat="47.09023" lon="-1.96532">
        <ele>18</ele>
        <time>2014-04-08T14:41:44Z</time>
      </trkpt>
      <trkpt lat="47.09067" lon="-1.96488">
        <ele>18</ele>
        <time>2014-04-08T14:41:51Z</time>
      </trkpt>
      <trkpt lat="47.09096" lon="-1.96458">
        <ele>19</ele>
        <time>2014-04-08T14:41:55Z</time>
      </trkpt>
      <trkpt lat="47.09142" lon="-1.96413">
        <ele>18</ele>
        <time>2014-04-08T14:42:01Z</time>
      </trkpt>
      <trkpt lat="47.09165" lon="-1.96389">
        <ele>17</ele>
        <time>2014-04-08T14:42:03Z</time>
      </trkpt>
      <trkpt lat="47.09198" lon="-1.96357">
        <ele>15</ele>
        <time>2014-04-08T14:42:07Z</time>
      </trkpt>
      <trkpt lat="47.0923" lon="-1.96326">
        <ele>14</ele>
        <time>2014-04-08T14:42:11Z</time>
      </trkpt>
      <trkpt lat="47.09262" lon="-1.963">
        <ele>14</ele>
        <time>2014-04-08T14:42:15Z</time>
      </trkpt>
      <trkpt lat="47.09296" lon="-1.96276">
        <ele>14</ele>
        <time>2014-04-08T14:42:19Z</time>
      </trkpt>
      <trkpt lat="47.09328" lon="-1.96261">
        <ele>14</ele>
        <time>2014-04-08T14:42:24Z</time>
      </trkpt>
      <trkpt lat="47.0936" lon="-1.96248">
        <ele>15</ele>
        <time>2014-04-08T14:42:28Z</time>
      </trkpt>
      <trkpt lat="47.09391" lon="-1.96239">
        <ele>16</ele>
        <time>2014-04-08T14:42:32Z</time>
      </trkpt>
      <trkpt lat="47.09425" lon="-1.96234">
        <ele>16</ele>
        <time>2014-04-08T14:42:36Z</time>
      </trkpt>
      <trkpt lat="47.09458" lon="-1.9623">
        <ele>17</ele>
        <time>2014-04-08T14:42:39Z</time>
      </trkpt>
      <trkpt lat="47.09491" lon="-1.96229">
        <ele>17</ele>
        <time>2014-04-08T14:42:43Z</time>
      </trkpt>
      <trkpt lat="47.09522" lon="-1.9623">
        <ele>18</ele>
        <time>2014-04-08T14:42:47Z</time>
      </trkpt>
      <trkpt lat="47.09549" lon="-1.96225">
        <ele>19</ele>
        <time>2014-04-08T14:42:51Z</time>
      </trkpt>
      <trkpt lat="47.09564" lon="-1.96221">
        <ele>19</ele>
        <time>2014-04-08T14:42:54Z</time>
      </trkpt>
      <trkpt lat="47.09606" lon="-1.96201">
        <ele>19</ele>
        <time>2014-04-08T14:43:00Z</time>
      </trkpt>
      <trkpt lat="47.09634" lon="-1.9619">
        <ele>19</ele>
        <time>2014-04-08T14:43:04Z</time>
      </trkpt>
      <trkpt lat="47.09663" lon="-1.96177">
        <ele>18</ele>
        <time>2014-04-08T14:43:08Z</time>
      </trkpt>
      <trkpt lat="47.09691" lon="-1.96161">
        <ele>18</ele>
        <time>2014-04-08T14:43:11Z</time>
      </trkpt>
      <trkpt lat="47.09718" lon="-1.96149">
        <ele>21</ele>
        <time>2014-04-08T14:43:15Z</time>
      </trkpt>
      <trkpt lat="47.09748" lon="-1.96133">
        <ele>22</ele>
        <time>2014-04-08T14:43:19Z</time>
      </trkpt>
      <trkpt lat="47.09769" lon="-1.96119">
        <ele>22</ele>
        <time>2014-04-08T14:43:23Z</time>
      </trkpt>
      <trkpt lat="47.0979" lon="-1.96105">
        <ele>21</ele>
        <time>2014-04-08T14:43:26Z</time>
      </trkpt>
      <trkpt lat="47.09839" lon="-1.96073">
        <ele>19</ele>
        <time>2014-04-08T14:43:32Z</time>
      </trkpt>
      <trkpt lat="47.09868" lon="-1.96054">
        <ele>18</ele>
        <time>2014-04-08T14:43:37Z</time>
      </trkpt>
      <trkpt lat="47.09893" lon="-1.96037">
        <ele>18</ele>
        <time>2014-04-08T14:43:40Z</time>
      </trkpt>
      <trkpt lat="47.09934" lon="-1.96009">
        <ele>15</ele>
        <time>2014-04-08T14:43:45Z</time>
      </trkpt>
      <trkpt lat="47.09968" lon="-1.95981">
        <ele>14</ele>
        <time>2014-04-08T14:43:49Z</time>
      </trkpt>
      <trkpt lat="47.10011" lon="-1.95955">
        <ele>14</ele>
        <time>2014-04-08T14:43:53Z</time>
      </trkpt>
      <trkpt lat="47.10033" lon="-1.95938">
        <ele>14</ele>
        <time>2014-04-08T14:43:56Z</time>
      </trkpt>
      <trkpt lat="47.10062" lon="-1.95913">
        <ele>14</ele>
        <time>2014-04-08T14:44:00Z</time>
      </trkpt>
      <trkpt lat="47.10076" lon="-1.95903">
        <ele>16</ele>
        <time>2014-04-08T14:44:02Z</time>
      </trkpt>
      <trkpt lat="47.10116" lon="-1.95873">
        <ele>15</ele>
        <time>2014-04-08T14:44:09Z</time>
      </trkpt>
      <trkpt lat="47.10144" lon="-1.9585">
        <ele>17</ele>
        <time>2014-04-08T14:44:12Z</time>
      </trkpt>
      <trkpt lat="47.10172" lon="-1.95831">
        <ele>15</ele>
        <time>2014-04-08T14:44:17Z</time>
      </trkpt>
      <trkpt lat="47.10201" lon="-1.95811">
        <ele>15</ele>
        <time>2014-04-08T14:44:21Z</time>
      </trkpt>
      <trkpt lat="47.10229" lon="-1.95791">
        <ele>16</ele>
        <time>2014-04-08T14:44:24Z</time>
      </trkpt>
      <trkpt lat="47.10261" lon="-1.95777">
        <ele>17</ele>
        <time>2014-04-08T14:44:28Z</time>
      </trkpt>
      <trkpt lat="47.1029" lon="-1.95763">
        <ele>18</ele>
        <time>2014-04-08T14:44:32Z</time>
      </trkpt>
      <trkpt lat="47.1032" lon="-1.95746">
        <ele>18</ele>
        <time>2014-04-08T14:44:37Z</time>
      </trkpt>
      <trkpt lat="47.10351" lon="-1.95733">
        <ele>15</ele>
        <time>2014-04-08T14:44:41Z</time>
      </trkpt>
      <trkpt lat="47.10379" lon="-1.95719">
        <ele>17</ele>
        <time>2014-04-08T14:44:45Z</time>
      </trkpt>
      <trkpt lat="47.10409" lon="-1.95706">
        <ele>18</ele>
        <time>2014-04-08T14:44:49Z</time>
      </trkpt>
      <trkpt lat="47.10439" lon="-1.95692">
        <ele>17</ele>
        <time>2014-04-08T14:44:52Z</time>
      </trkpt>
      <trkpt lat="47.10469" lon="-1.95677">
        <ele>18</ele>
        <time>2014-04-08T14:44:56Z</time>
      </trkpt>
      <trkpt lat="47.1049" lon="-1.95667">
        <ele>18</ele>
        <time>2014-04-08T14:44:59Z</time>
      </trkpt>
      <trkpt lat="47.10528" lon="-1.95648">
        <ele>18</ele>
        <time>2014-04-08T14:45:04Z</time>
      </trkpt>
      <trkpt lat="47.10557" lon="-1.95631">
        <ele>18</ele>
        <time>2014-04-08T14:45:09Z</time>
      </trkpt>
      <trkpt lat="47.10578" lon="-1.95622">
        <ele>19</ele>
        <time>2014-04-08T14:45:12Z</time>
      </trkpt>
      <trkpt lat="47.10617" lon="-1.95599">
        <ele>18</ele>
        <time>2014-04-08T14:45:16Z</time>
      </trkpt>
      <trkpt lat="47.10631" lon="-1.95589">
        <ele>17</ele>
        <time>2014-04-08T14:45:18Z</time>
      </trkpt>
      <trkpt lat="47.10672" lon="-1.95548">
        <ele>18</ele>
        <time>2014-04-08T14:45:25Z</time>
      </trkpt>
      <trkpt lat="47.107" lon="-1.95517">
        <ele>16</ele>
        <time>2014-04-08T14:45:28Z</time>
      </trkpt>
      <trkpt lat="47.10726" lon="-1.95483">
        <ele>14</ele>
        <time>2014-04-08T14:45:32Z</time>
      </trkpt>
      <trkpt lat="47.10753" lon="-1.95445">
        <ele>17</ele>
        <time>2014-04-08T14:45:36Z</time>
      </trkpt>
      <trkpt lat="47.10782" lon="-1.95399">
        <ele>16</ele>
        <time>2014-04-08T14:45:41Z</time>
      </trkpt>
      <trkpt lat="47.10798" lon="-1.95368">
        <ele>16</ele>
        <time>2014-04-08T14:45:44Z</time>
      </trkpt>
      <trkpt lat="47.10822" lon="-1.95331">
        <ele>14</ele>
        <time>2014-04-08T14:45:49Z</time>
      </trkpt>
      <trkpt lat="47.10845" lon="-1.95289">
        <ele>13</ele>
        <time>2014-04-08T14:45:53Z</time>
      </trkpt>
      <trkpt lat="47.10869" lon="-1.95249">
        <ele>14</ele>
        <time>2014-04-08T14:45:57Z</time>
      </trkpt>
      <trkpt lat="47.10897" lon="-1.95201">
        <ele>13</ele>
        <time>2014-04-08T14:46:01Z</time>
      </trkpt>
      <trkpt lat="47.10907" lon="-1.95182">
        <ele>13</ele>
        <time>2014-04-08T14:46:03Z</time>
      </trkpt>
      <trkpt lat="47.10938" lon="-1.95124">
        <ele>12</ele>
        <time>2014-04-08T14:46:09Z</time>
      </trkpt>
      <trkpt lat="47.10967" lon="-1.95077">
        <ele>8</ele>
        <time>2014-04-08T14:46:15Z</time>
      </trkpt>
      <trkpt lat="47.10986" lon="-1.95049">
        <ele>8</ele>
        <time>2014-04-08T14:46:17Z</time>
      </trkpt>
      <trkpt lat="47.11016" lon="-1.95003">
        <ele>9</ele>
        <time>2014-04-08T14:46:22Z</time>
      </trkpt>
      <trkpt lat="47.11038" lon="-1.94982">
        <ele>8</ele>
        <time>2014-04-08T14:46:26Z</time>
      </trkpt>
      <trkpt lat="47.11066" lon="-1.94951">
        <ele>7</ele>
        <time>2014-04-08T14:46:30Z</time>
      </trkpt>
      <trkpt lat="47.11083" lon="-1.94927">
        <ele>7</ele>
        <time>2014-04-08T14:46:32Z</time>
      </trkpt>
      <trkpt lat="47.11103" lon="-1.94892">
        <ele>7</ele>
        <time>2014-04-08T14:46:36Z</time>
      </trkpt>
      <trkpt lat="47.11123" lon="-1.94843">
        <ele>9</ele>
        <time>2014-04-08T14:46:41Z</time>
      </trkpt>
      <trkpt lat="47.11132" lon="-1.94824">
        <ele>9</ele>
        <time>2014-04-08T14:46:44Z</time>
      </trkpt>
      <trkpt lat="47.11156" lon="-1.94783">
        <ele>9</ele>
        <time>2014-04-08T14:46:49Z</time>
      </trkpt>
      <trkpt lat="47.11187" lon="-1.94739">
        <ele>9</ele>
        <time>2014-04-08T14:46:55Z</time>
      </trkpt>
      <trkpt lat="47.11201" lon="-1.94713">
        <ele>11</ele>
        <time>2014-04-08T14:46:58Z</time>
      </trkpt>
      <trkpt lat="47.1122" lon="-1.94669">
        <ele>12</ele>
        <time>2014-04-08T14:47:02Z</time>
      </trkpt>
      <trkpt lat="47.11223" lon="-1.9466">
        <ele>12</ele>
        <time>2014-04-08T14:47:04Z</time>
      </trkpt>
      <trkpt lat="47.11234" lon="-1.94618">
        <ele>11</ele>
        <time>2014-04-08T14:47:07Z</time>
      </trkpt>
      <trkpt lat="47.11255" lon="-1.94552">
        <ele>13</ele>
        <time>2014-04-08T14:47:13Z</time>
      </trkpt>
      <trkpt lat="47.11274" lon="-1.94511">
        <ele>13</ele>
        <time>2014-04-08T14:47:18Z</time>
      </trkpt>
      <trkpt lat="47.1129" lon="-1.94475">
        <ele>12</ele>
        <time>2014-04-08T14:47:22Z</time>
      </trkpt>
      <trkpt lat="47.11304" lon="-1.94435">
        <ele>9</ele>
        <time>2014-04-08T14:47:26Z</time>
      </trkpt>
      <trkpt lat="47.11319" lon="-1.94392">
        <ele>8</ele>
        <time>2014-04-08T14:47:30Z</time>
      </trkpt>
      <trkpt lat="47.11337" lon="-1.94351">
        <ele>7</ele>
        <time>2014-04-08T14:47:34Z</time>
      </trkpt>
      <trkpt lat="47.11364" lon="-1.94329">
        <ele>8</ele>
        <time>2014-04-08T14:47:38Z</time>
      </trkpt>
      <trkpt lat="47.11394" lon="-1.94318">
        <ele>7</ele>
        <time>2014-04-08T14:47:41Z</time>
      </trkpt>
      <trkpt lat="47.11426" lon="-1.94309">
        <ele>9</ele>
        <time>2014-04-08T14:47:45Z</time>
      </trkpt>
      <trkpt lat="47.11456" lon="-1.943">
        <ele>9</ele>
        <time>2014-04-08T14:47:49Z</time>
      </trkpt>
      <trkpt lat="47.11488" lon="-1.94291">
        <ele>8</ele>
        <time>2014-04-08T14:47:54Z</time>
      </trkpt>
      <trkpt lat="47.11519" lon="-1.9428">
        <ele>10</ele>
        <time>2014-04-08T14:47:57Z</time>
      </trkpt>
      <trkpt lat="47.11548" lon="-1.94261">
        <ele>9</ele>
        <time>2014-04-08T14:48:02Z</time>
      </trkpt>
      <trkpt lat="47.11574" lon="-1.94236">
        <ele>10</ele>
        <time>2014-04-08T14:48:06Z</time>
      </trkpt>
      <trkpt lat="47.11596" lon="-1.94214">
        <ele>9</ele>
        <time>2014-04-08T14:48:10Z</time>
      </trkpt>
      <trkpt lat="47.11613" lon="-1.94195">
        <ele>10</ele>
        <time>2014-04-08T14:48:13Z</time>
      </trkpt>
      <trkpt lat="47.11611" lon="-1.94181">
        <ele>10</ele>
        <time>2014-04-08T14:48:17Z</time>
      </trkpt>
      <trkpt lat="47.11594" lon="-1.94141">
        <ele>9</ele>
        <time>2014-04-08T14:48:22Z</time>
      </trkpt>
      <trkpt lat="47.11579" lon="-1.94114">
        <ele>8</ele>
        <time>2014-04-08T14:48:26Z</time>
      </trkpt>
      <trkpt lat="47.11559" lon="-1.94072">
        <ele>9</ele>
        <time>2014-04-08T14:48:30Z</time>
      </trkpt>
      <trkpt lat="47.11546" lon="-1.94046">
        <ele>8</ele>
        <time>2014-04-08T14:48:34Z</time>
      </trkpt>
      <trkpt lat="47.1153" lon="-1.94021">
        <ele>6</ele>
        <time>2014-04-08T14:48:38Z</time>
      </trkpt>
      <trkpt lat="47.11512" lon="-1.93992">
        <ele>6</ele>
        <time>2014-04-08T14:48:42Z</time>
      </trkpt>
      <trkpt lat="47.11488" lon="-1.93965">
        <ele>7</ele>
        <time>2014-04-08T14:48:45Z</time>
      </trkpt>
      <trkpt lat="47.11471" lon="-1.93934">
        <ele>6</ele>
        <time>2014-04-08T14:48:49Z</time>
      </trkpt>
      <trkpt lat="47.11454" lon="-1.93908">
        <ele>5</ele>
        <time>2014-04-08T14:48:54Z</time>
      </trkpt>
      <trkpt lat="47.11437" lon="-1.93878">
        <ele>4</ele>
        <time>2014-04-08T14:48:58Z</time>
      </trkpt>
      <trkpt lat="47.11424" lon="-1.9386">
        <ele>5</ele>
        <time>2014-04-08T14:49:01Z</time>
      </trkpt>
      <trkpt lat="47.11403" lon="-1.93824">
        <ele>3</ele>
        <time>2014-04-08T14:49:06Z</time>
      </trkpt>
      <trkpt lat="47.11388" lon="-1.93792">
        <ele>5</ele>
        <time>2014-04-08T14:49:11Z</time>
      </trkpt>
      <trkpt lat="47.11393" lon="-1.93771">
        <ele>7</ele>
        <time>2014-04-08T14:49:14Z</time>
      </trkpt>
      <trkpt lat="47.11408" lon="-1.93762">
        <ele>6</ele>
        <time>2014-04-08T14:49:17Z</time>
      </trkpt>
      <trkpt lat="47.11428" lon="-1.93764">
        <ele>8</ele>
        <time>2014-04-08T14:49:21Z</time>
      </trkpt>
      <trkpt lat="47.11436" lon="-1.93788">
        <ele>9</ele>
        <time>2014-04-08T14:49:26Z</time>
      </trkpt>
      <trkpt lat="47.11441" lon="-1.93803">
        <ele>9</ele>
        <time>2014-04-08T14:49:29Z</time>
      </trkpt>
      <trkpt lat="47.11455" lon="-1.93812">
        <ele>9</ele>
        <time>2014-04-08T14:49:35Z</time>
      </trkpt>
      <trkpt lat="47.11463" lon="-1.93797">
        <ele>10</ele>
        <time>2014-04-08T14:49:40Z</time>
      </trkpt>
      <trkpt lat="47.1147" lon="-1.93777">
        <ele>11</ele>
        <time>2014-04-08T14:49:51Z</time>
      </trkpt>
    </trkseg>
  </trk>
  <trk>
    <name><![CDATA[Sequence 3]]></name>
    <trkseg>
      <trkpt lat="47.11515" lon="-1.93683">
        <ele>21</ele>
        <time>2014-04-08T14:56:04Z</time>
      </trkpt>
      <trkpt lat="47.11533" lon="-1.93652">
        <ele>24</ele>
        <time>2014-04-08T14:56:08Z</time>
      </trkpt>
      <trkpt lat="47.11547" lon="-1.93615">
        <ele>23</ele>
        <time>2014-04-08T14:56:12Z</time>
      </trkpt>
      <trkpt lat="47.11555" lon="-1.93598">
        <ele>24</ele>
        <time>2014-04-08T14:56:15Z</time>
      </trkpt>
      <trkpt lat="47.11564" lon="-1.93571">
        <ele>25</ele>
        <time>2014-04-08T14:56:17Z</time>
      </trkpt>
      <trkpt lat="47.11585" lon="-1.93508">
        <ele>27</ele>
        <time>2014-04-08T14:56:24Z</time>
      </trkpt>
      <trkpt lat="47.1159" lon="-1.93484">
        <ele>25</ele>
        <time>2014-04-08T14:56:25Z</time>
      </trkpt>
      <trkpt lat="47.11654" lon="-1.93288">
        <ele>27</ele>
        <time>2014-04-08T14:56:44Z</time>
      </trkpt>
      <trkpt lat="47.11718" lon="-1.93066">
        <ele>34</ele>
        <time>2014-04-08T14:57:06Z</time>
      </trkpt>
      <trkpt lat="47.11728" lon="-1.93033">
        <ele>36</ele>
        <time>2014-04-08T14:57:08Z</time>
      </trkpt>
      <trkpt lat="47.1174" lon="-1.92991">
        <ele>38</ele>
        <time>2014-04-08T14:57:12Z</time>
      </trkpt>
      <trkpt lat="47.11747" lon="-1.92961">
        <ele>37</ele>
        <time>2014-04-08T14:57:15Z</time>
      </trkpt>
      <trkpt lat="47.11788" lon="-1.92826">
        <ele>31</ele>
        <time>2014-04-08T14:57:25Z</time>
      </trkpt>
      <trkpt lat="47.11803" lon="-1.92796">
        <ele>30</ele>
        <time>2014-04-08T14:57:28Z</time>
      </trkpt>
      <trkpt lat="47.11821" lon="-1.92742">
        <ele>32</ele>
        <time>2014-04-08T14:57:33Z</time>
      </trkpt>
      <trkpt lat="47.11836" lon="-1.92695">
        <ele>31</ele>
        <time>2014-04-08T14:57:37Z</time>
      </trkpt>
      <trkpt lat="47.11846" lon="-1.92663">
        <ele>30</ele>
        <time>2014-04-08T14:57:40Z</time>
      </trkpt>
      <trkpt lat="47.11859" lon="-1.92618">
        <ele>32</ele>
        <time>2014-04-08T14:57:44Z</time>
      </trkpt>
      <trkpt lat="47.11872" lon="-1.9257">
        <ele>28</ele>
        <time>2014-04-08T14:57:48Z</time>
      </trkpt>
      <trkpt lat="47.1188" lon="-1.92546">
        <ele>28</ele>
        <time>2014-04-08T14:57:51Z</time>
      </trkpt>
      <trkpt lat="47.11894" lon="-1.92492">
        <ele>27</ele>
        <time>2014-04-08T14:57:55Z</time>
      </trkpt>
      <trkpt lat="47.11907" lon="-1.92453">
        <ele>28</ele>
        <time>2014-04-08T14:57:58Z</time>
      </trkpt>
      <trkpt lat="47.11923" lon="-1.92402">
        <ele>28</ele>
        <time>2014-04-08T14:58:03Z</time>
      </trkpt>
      <trkpt lat="47.11984" lon="-1.92214">
        <ele>33</ele>
        <time>2014-04-08T14:58:21Z</time>
      </trkpt>
      <trkpt lat="47.11993" lon="-1.9218">
        <ele>32</ele>
        <time>2014-04-08T14:58:25Z</time>
      </trkpt>
      <trkpt lat="47.11998" lon="-1.92151">
        <ele>30</ele>
        <time>2014-04-08T14:58:29Z</time>
      </trkpt>
      <trkpt lat="47.12" lon="-1.92133">
        <ele>30</ele>
        <time>2014-04-08T14:58:30Z</time>
      </trkpt>
      <trkpt lat="47.12021" lon="-1.92069">
        <ele>30</ele>
        <time>2014-04-08T14:58:37Z</time>
      </trkpt>
      <trkpt lat="47.12028" lon="-1.92048">
        <ele>30</ele>
        <time>2014-04-08T14:58:39Z</time>
      </trkpt>
      <trkpt lat="47.12057" lon="-1.91975">
        <ele>31</ele>
        <time>2014-04-08T14:58:46Z</time>
      </trkpt>
      <trkpt lat="47.12062" lon="-1.91968">
        <ele>32</ele>
        <time>2014-04-08T14:58:47Z</time>
      </trkpt>
      <trkpt lat="47.12077" lon="-1.91911">
        <ele>30</ele>
        <time>2014-04-08T14:58:52Z</time>
      </trkpt>
      <trkpt lat="47.12104" lon="-1.91845">
        <ele>29</ele>
        <time>2014-04-08T14:58:57Z</time>
      </trkpt>
      <trkpt lat="47.1212" lon="-1.91812">
        <ele>29</ele>
        <time>2014-04-08T14:59:01Z</time>
      </trkpt>
      <trkpt lat="47.12134" lon="-1.91766">
        <ele>28</ele>
        <time>2014-04-08T14:59:05Z</time>
      </trkpt>
      <trkpt lat="47.12147" lon="-1.91736">
        <ele>28</ele>
        <time>2014-04-08T14:59:08Z</time>
      </trkpt>
      <trkpt lat="47.12168" lon="-1.91668">
        <ele>26</ele>
        <time>2014-04-08T14:59:13Z</time>
      </trkpt>
      <trkpt lat="47.1218" lon="-1.91623">
        <ele>20</ele>
        <time>2014-04-08T14:59:17Z</time>
      </trkpt>
      <trkpt lat="47.12195" lon="-1.91587">
        <ele>19</ele>
        <time>2014-04-08T14:59:20Z</time>
      </trkpt>
      <trkpt lat="47.12213" lon="-1.91532">
        <ele>18</ele>
        <time>2014-04-08T14:59:25Z</time>
      </trkpt>
      <trkpt lat="47.12215" lon="-1.91526">
        <ele>17</ele>
        <time>2014-04-08T14:59:26Z</time>
      </trkpt>
      <trkpt lat="47.12216" lon="-1.91462">
        <ele>18</ele>
        <time>2014-04-08T14:59:33Z</time>
      </trkpt>
      <trkpt lat="47.1223" lon="-1.91419">
        <ele>18</ele>
        <time>2014-04-08T14:59:37Z</time>
      </trkpt>
      <trkpt lat="47.12249" lon="-1.91377">
        <ele>19</ele>
        <time>2014-04-08T14:59:41Z</time>
      </trkpt>
      <trkpt lat="47.12256" lon="-1.91372">
        <ele>19</ele>
        <time>2014-04-08T14:59:42Z</time>
      </trkpt>
      <trkpt lat="47.1229" lon="-1.91308">
        <ele>19</ele>
        <time>2014-04-08T14:59:48Z</time>
      </trkpt>
      <trkpt lat="47.12326" lon="-1.91254">
        <ele>19</ele>
        <time>2014-04-08T14:59:54Z</time>
      </trkpt>
      <trkpt lat="47.1233" lon="-1.91244">
        <ele>18</ele>
        <time>2014-04-08T14:59:55Z</time>
      </trkpt>
      <trkpt lat="47.12354" lon="-1.9119">
        <ele>19</ele>
        <time>2014-04-08T15:00:01Z</time>
      </trkpt>
      <trkpt lat="47.12378" lon="-1.91148">
        <ele>18</ele>
        <time>2014-04-08T15:00:06Z</time>
      </trkpt>
      <trkpt lat="47.12393" lon="-1.91126">
        <ele>20</ele>
        <time>2014-04-08T15:00:09Z</time>
      </trkpt>
      <trkpt lat="47.12403" lon="-1.91106">
        <ele>19</ele>
        <time>2014-04-08T15:00:14Z</time>
      </trkpt>
      <trkpt lat="47.12416" lon="-1.91099">
        <ele>18</ele>
        <time>2014-04-08T15:00:17Z</time>
      </trkpt>
      <trkpt lat="47.12437" lon="-1.91084">
        <ele>14</ele>
        <time>2014-04-08T15:00:20Z</time>
      </trkpt>
      <trkpt lat="47.12472" lon="-1.91065">
        <ele>12</ele>
        <time>2014-04-08T15:00:27Z</time>
      </trkpt>
      <trkpt lat="47.12489" lon="-1.91059">
        <ele>12</ele>
        <time>2014-04-08T15:00:29Z</time>
      </trkpt>
      <trkpt lat="47.12517" lon="-1.91053">
        <ele>13</ele>
        <time>2014-04-08T15:00:33Z</time>
      </trkpt>
      <trkpt lat="47.12543" lon="-1.91052">
        <ele>14</ele>
        <time>2014-04-08T15:00:37Z</time>
      </trkpt>
      <trkpt lat="47.12568" lon="-1.91049">
        <ele>14</ele>
        <time>2014-04-08T15:00:41Z</time>
      </trkpt>
      <trkpt lat="47.12553" lon="-1.9106">
        <ele>13</ele>
        <time>2014-04-08T15:00:48Z</time>
      </trkpt>
      <trkpt lat="47.12534" lon="-1.91062">
        <ele>13</ele>
        <time>2014-04-08T15:00:51Z</time>
      </trkpt>
      <trkpt lat="47.12523" lon="-1.91049">
        <ele>14</ele>
        <time>2014-04-08T15:00:55Z</time>
      </trkpt>
      <trkpt lat="47.12533" lon="-1.91007">
        <ele>16</ele>
        <time>2014-04-08T15:01:02Z</time>
      </trkpt>
      <trkpt lat="47.12547" lon="-1.90976">
        <ele>17</ele>
        <time>2014-04-08T15:01:05Z</time>
      </trkpt>
      <trkpt lat="47.12559" lon="-1.90952">
        <ele>17</ele>
        <time>2014-04-08T15:01:08Z</time>
      </trkpt>
      <trkpt lat="47.12589" lon="-1.90913">
        <ele>20</ele>
        <time>2014-04-08T15:01:13Z</time>
      </trkpt>
      <trkpt lat="47.1261" lon="-1.90891">
        <ele>22</ele>
        <time>2014-04-08T15:01:17Z</time>
      </trkpt>
      <trkpt lat="47.12627" lon="-1.90876">
        <ele>23</ele>
        <time>2014-04-08T15:01:21Z</time>
      </trkpt>
      <trkpt lat="47.12644" lon="-1.90863">
        <ele>25</ele>
        <time>2014-04-08T15:01:23Z</time>
      </trkpt>
      <trkpt lat="47.12668" lon="-1.90816">
        <ele>24</ele>
        <time>2014-04-08T15:01:30Z</time>
      </trkpt>
      <trkpt lat="47.12671" lon="-1.90778">
        <ele>25</ele>
        <time>2014-04-08T15:01:34Z</time>
      </trkpt>
      <trkpt lat="47.1267" lon="-1.90767">
        <ele>25</ele>
        <time>2014-04-08T15:01:35Z</time>
      </trkpt>
      <trkpt lat="47.12663" lon="-1.90723">
        <ele>24</ele>
        <time>2014-04-08T15:01:39Z</time>
      </trkpt>
      <trkpt lat="47.12652" lon="-1.90637">
        <ele>25</ele>
        <time>2014-04-08T15:01:45Z</time>
      </trkpt>
      <trkpt lat="47.12647" lon="-1.90581">
        <ele>24</ele>
        <time>2014-04-08T15:01:49Z</time>
      </trkpt>
      <trkpt lat="47.12646" lon="-1.90564">
        <ele>24</ele>
        <time>2014-04-08T15:01:50Z</time>
      </trkpt>
      <trkpt lat="47.12645" lon="-1.90469">
        <ele>25</ele>
        <time>2014-04-08T15:01:58Z</time>
      </trkpt>
      <trkpt lat="47.12645" lon="-1.90458">
        <ele>25</ele>
        <time>2014-04-08T15:01:58Z</time>
      </trkpt>
      <trkpt lat="47.12646" lon="-1.90359">
        <ele>23</ele>
        <time>2014-04-08T15:02:05Z</time>
      </trkpt>
      <trkpt lat="47.12645" lon="-1.90304">
        <ele>21</ele>
        <time>2014-04-08T15:02:09Z</time>
      </trkpt>
      <trkpt lat="47.12653" lon="-1.90254">
        <ele>21</ele>
        <time>2014-04-08T15:02:13Z</time>
      </trkpt>
      <trkpt lat="47.12656" lon="-1.90211">
        <ele>19</ele>
        <time>2014-04-08T15:02:16Z</time>
      </trkpt>
      <trkpt lat="47.12658" lon="-1.90166">
        <ele>19</ele>
        <time>2014-04-08T15:02:20Z</time>
      </trkpt>
      <trkpt lat="47.12664" lon="-1.90117">
        <ele>19</ele>
        <time>2014-04-08T15:02:24Z</time>
      </trkpt>
      <trkpt lat="47.12664" lon="-1.90078">
        <ele>19</ele>
        <time>2014-04-08T15:02:26Z</time>
      </trkpt>
      <trkpt lat="47.12673" lon="-1.8999">
        <ele>18</ele>
        <time>2014-04-08T15:02:34Z</time>
      </trkpt>
      <trkpt lat="47.12681" lon="-1.8995">
        <ele>17</ele>
        <time>2014-04-08T15:02:36Z</time>
      </trkpt>
      <trkpt lat="47.12687" lon="-1.89901">
        <ele>15</ele>
        <time>2014-04-08T15:02:40Z</time>
      </trkpt>
      <trkpt lat="47.12694" lon="-1.89851">
        <ele>15</ele>
        <time>2014-04-08T15:02:45Z</time>
      </trkpt>
      <trkpt lat="47.127" lon="-1.89811">
        <ele>15</ele>
        <time>2014-04-08T15:02:48Z</time>
      </trkpt>
      <trkpt lat="47.12705" lon="-1.89769">
        <ele>16</ele>
        <time>2014-04-08T15:02:50Z</time>
      </trkpt>
      <trkpt lat="47.12714" lon="-1.89696">
        <ele>15</ele>
        <time>2014-04-08T15:02:56Z</time>
      </trkpt>
      <trkpt lat="47.12716" lon="-1.89677">
        <ele>15</ele>
        <time>2014-04-08T15:02:58Z</time>
      </trkpt>
      <trkpt lat="47.12729" lon="-1.89594">
        <ele>16</ele>
        <time>2014-04-08T15:03:04Z</time>
      </trkpt>
      <trkpt lat="47.12744" lon="-1.89534">
        <ele>14</ele>
        <time>2014-04-08T15:03:10Z</time>
      </trkpt>
      <trkpt lat="47.12756" lon="-1.89484">
        <ele>15</ele>
        <time>2014-04-08T15:03:13Z</time>
      </trkpt>
      <trkpt lat="47.12769" lon="-1.89423">
        <ele>15</ele>
        <time>2014-04-08T15:03:18Z</time>
      </trkpt>
      <trkpt lat="47.12778" lon="-1.89381">
        <ele>15</ele>
        <time>2014-04-08T15:03:21Z</time>
      </trkpt>
      <trkpt lat="47.12789" lon="-1.89335">
        <ele>16</ele>
        <time>2014-04-08T15:03:25Z</time>
      </trkpt>
      <trkpt lat="47.12797" lon="-1.89263">
        <ele>15</ele>
        <time>2014-04-08T15:03:30Z</time>
      </trkpt>
      <trkpt lat="47.12797" lon="-1.89235">
        <ele>15</ele>
        <time>2014-04-08T15:03:33Z</time>
      </trkpt>
      <trkpt lat="47.12805" lon="-1.89169">
        <ele>15</ele>
        <time>2014-04-08T15:03:38Z</time>
      </trkpt>
      <trkpt lat="47.12809" lon="-1.89119">
        <ele>14</ele>
        <time>2014-04-08T15:03:42Z</time>
      </trkpt>
      <trkpt lat="47.12812" lon="-1.8907">
        <ele>14</ele>
        <time>2014-04-08T15:03:45Z</time>
      </trkpt>
      <trkpt lat="47.12818" lon="-1.89006">
        <ele>15</ele>
        <time>2014-04-08T15:03:51Z</time>
      </trkpt>
      <trkpt lat="47.12821" lon="-1.88965">
        <ele>16</ele>
        <time>2014-04-08T15:03:53Z</time>
      </trkpt>
      <trkpt lat="47.12825" lon="-1.88922">
        <ele>17</ele>
        <time>2014-04-08T15:03:56Z</time>
      </trkpt>
      <trkpt lat="47.12836" lon="-1.88863">
        <ele>20</ele>
        <time>2014-04-08T15:04:01Z</time>
      </trkpt>
      <trkpt lat="47.12847" lon="-1.8881">
        <ele>21</ele>
        <time>2014-04-08T15:04:06Z</time>
      </trkpt>
      <trkpt lat="47.12853" lon="-1.8878">
        <ele>20</ele>
        <time>2014-04-08T15:04:07Z</time>
      </trkpt>
      <trkpt lat="47.12873" lon="-1.88702">
        <ele>20</ele>
        <time>2014-04-08T15:04:14Z</time>
      </trkpt>
      <trkpt lat="47.12887" lon="-1.88659">
        <ele>21</ele>
        <time>2014-04-08T15:04:17Z</time>
      </trkpt>
      <trkpt lat="47.12903" lon="-1.88615">
        <ele>22</ele>
        <time>2014-04-08T15:04:21Z</time>
      </trkpt>
      <trkpt lat="47.12919" lon="-1.88571">
        <ele>23</ele>
        <time>2014-04-08T15:04:25Z</time>
      </trkpt>
      <trkpt lat="47.12928" lon="-1.88549">
        <ele>22</ele>
        <time>2014-04-08T15:04:28Z</time>
      </trkpt>
      <trkpt lat="47.1296" lon="-1.88492">
        <ele>25</ele>
        <time>2014-04-08T15:04:34Z</time>
      </trkpt>
      <trkpt lat="47.12986" lon="-1.88443">
        <ele>24</ele>
        <time>2014-04-08T15:04:39Z</time>
      </trkpt>
      <trkpt lat="47.12997" lon="-1.88416">
        <ele>27</ele>
        <time>2014-04-08T15:04:42Z</time>
      </trkpt>
      <trkpt lat="47.13025" lon="-1.88363">
        <ele>26</ele>
        <time>2014-04-08T15:04:47Z</time>
      </trkpt>
      <trkpt lat="47.13038" lon="-1.88338">
        <ele>27</ele>
        <time>2014-04-08T15:04:49Z</time>
      </trkpt>
      <trkpt lat="47.13057" lon="-1.88297">
        <ele>26</ele>
        <time>2014-04-08T15:04:53Z</time>
      </trkpt>
      <trkpt lat="47.13073" lon="-1.88268">
        <ele>26</ele>
        <time>2014-04-08T15:04:57Z</time>
      </trkpt>
      <trkpt lat="47.13096" lon="-1.88224">
        <ele>25</ele>
        <time>2014-04-08T15:05:01Z</time>
      </trkpt>
      <trkpt lat="47.13113" lon="-1.88183">
        <ele>29</ele>
        <time>2014-04-08T15:05:05Z</time>
      </trkpt>
      <trkpt lat="47.13136" lon="-1.88136">
        <ele>31</ele>
        <time>2014-04-08T15:05:10Z</time>
      </trkpt>
      <trkpt lat="47.13152" lon="-1.88089">
        <ele>29</ele>
        <time>2014-04-08T15:05:14Z</time>
      </trkpt>
      <trkpt lat="47.13169" lon="-1.88049">
        <ele>28</ele>
        <time>2014-04-08T15:05:18Z</time>
      </trkpt>
      <trkpt lat="47.13178" lon="-1.88004">
        <ele>27</ele>
        <time>2014-04-08T15:05:21Z</time>
      </trkpt>
      <trkpt lat="47.13193" lon="-1.8796">
        <ele>27</ele>
        <time>2014-04-08T15:05:25Z</time>
      </trkpt>
      <trkpt lat="47.13211" lon="-1.87904">
        <ele>26</ele>
        <time>2014-04-08T15:05:30Z</time>
      </trkpt>
      <trkpt lat="47.13214" lon="-1.87892">
        <ele>24</ele>
        <time>2014-04-08T15:05:32Z</time>
      </trkpt>
      <trkpt lat="47.13232" lon="-1.87821">
        <ele>24</ele>
        <time>2014-04-08T15:05:38Z</time>
      </trkpt>
      <trkpt lat="47.13242" lon="-1.87761">
        <ele>23</ele>
        <time>2014-04-08T15:05:43Z</time>
      </trkpt>
      <trkpt lat="47.13247" lon="-1.87737">
        <ele>22</ele>
        <time>2014-04-08T15:05:44Z</time>
      </trkpt>
      <trkpt lat="47.13255" lon="-1.87674">
        <ele>24</ele>
        <time>2014-04-08T15:05:50Z</time>
      </trkpt>
      <trkpt lat="47.13256" lon="-1.87652">
        <ele>25</ele>
        <time>2014-04-08T15:05:51Z</time>
      </trkpt>
      <trkpt lat="47.13263" lon="-1.87564">
        <ele>26</ele>
        <time>2014-04-08T15:05:59Z</time>
      </trkpt>
      <trkpt lat="47.13264" lon="-1.87515">
        <ele>25</ele>
        <time>2014-04-08T15:06:02Z</time>
      </trkpt>
      <trkpt lat="47.13261" lon="-1.87454">
        <ele>23</ele>
        <time>2014-04-08T15:06:06Z</time>
      </trkpt>
      <trkpt lat="47.13258" lon="-1.87412">
        <ele>19</ele>
        <time>2014-04-08T15:06:10Z</time>
      </trkpt>
      <trkpt lat="47.13256" lon="-1.87355">
        <ele>19</ele>
        <time>2014-04-08T15:06:14Z</time>
      </trkpt>
      <trkpt lat="47.13256" lon="-1.87328">
        <ele>18</ele>
        <time>2014-04-08T15:06:15Z</time>
      </trkpt>
      <trkpt lat="47.13248" lon="-1.8723">
        <ele>17</ele>
        <time>2014-04-08T15:06:23Z</time>
      </trkpt>
      <trkpt lat="47.13244" lon="-1.87187">
        <ele>17</ele>
        <time>2014-04-08T15:06:25Z</time>
      </trkpt>
      <trkpt lat="47.13239" lon="-1.87127">
        <ele>18</ele>
        <time>2014-04-08T15:06:29Z</time>
      </trkpt>
      <trkpt lat="47.13235" lon="-1.87068">
        <ele>18</ele>
        <time>2014-04-08T15:06:33Z</time>
      </trkpt>
      <trkpt lat="47.13231" lon="-1.86994">
        <ele>19</ele>
        <time>2014-04-08T15:06:38Z</time>
      </trkpt>
      <trkpt lat="47.13226" lon="-1.86939">
        <ele>18</ele>
        <time>2014-04-08T15:06:42Z</time>
      </trkpt>
      <trkpt lat="47.13221" lon="-1.86878">
        <ele>17</ele>
        <time>2014-04-08T15:06:47Z</time>
      </trkpt>
      <trkpt lat="47.13218" lon="-1.86837">
        <ele>20</ele>
        <time>2014-04-08T15:06:50Z</time>
      </trkpt>
      <trkpt lat="47.13214" lon="-1.8679">
        <ele>20</ele>
        <time>2014-04-08T15:06:52Z</time>
      </trkpt>
      <trkpt lat="47.13204" lon="-1.86697">
        <ele>15</ele>
        <time>2014-04-08T15:06:59Z</time>
      </trkpt>
      <trkpt lat="47.13203" lon="-1.86666">
        <ele>16</ele>
        <time>2014-04-08T15:07:00Z</time>
      </trkpt>
      <trkpt lat="47.13195" lon="-1.86568">
        <ele>14</ele>
        <time>2014-04-08T15:07:08Z</time>
      </trkpt>
      <trkpt lat="47.13192" lon="-1.86527">
        <ele>12</ele>
        <time>2014-04-08T15:07:10Z</time>
      </trkpt>
      <trkpt lat="47.13191" lon="-1.86463">
        <ele>14</ele>
        <time>2014-04-08T15:07:14Z</time>
      </trkpt>
      <trkpt lat="47.13192" lon="-1.86415">
        <ele>13</ele>
        <time>2014-04-08T15:07:18Z</time>
      </trkpt>
      <trkpt lat="47.13196" lon="-1.86355">
        <ele>12</ele>
        <time>2014-04-08T15:07:22Z</time>
      </trkpt>
      <trkpt lat="47.13197" lon="-1.86284">
        <ele>14</ele>
        <time>2014-04-08T15:07:27Z</time>
      </trkpt>
      <trkpt lat="47.13196" lon="-1.86225">
        <ele>15</ele>
        <time>2014-04-08T15:07:31Z</time>
      </trkpt>
      <trkpt lat="47.13202" lon="-1.86165">
        <ele>14</ele>
        <time>2014-04-08T15:07:34Z</time>
      </trkpt>
      <trkpt lat="47.13206" lon="-1.86127">
        <ele>14</ele>
        <time>2014-04-08T15:07:37Z</time>
      </trkpt>
      <trkpt lat="47.13218" lon="-1.86042">
        <ele>15</ele>
        <time>2014-04-08T15:07:44Z</time>
      </trkpt>
      <trkpt lat="47.13228" lon="-1.85999">
        <ele>14</ele>
        <time>2014-04-08T15:07:46Z</time>
      </trkpt>
      <trkpt lat="47.13235" lon="-1.85943">
        <ele>14</ele>
        <time>2014-04-08T15:07:51Z</time>
      </trkpt>
      <trkpt lat="47.13237" lon="-1.85891">
        <ele>13</ele>
        <time>2014-04-08T15:07:55Z</time>
      </trkpt>
      <trkpt lat="47.13243" lon="-1.85848">
        <ele>13</ele>
        <time>2014-04-08T15:07:58Z</time>
      </trkpt>
      <trkpt lat="47.13248" lon="-1.85784">
        <ele>15</ele>
        <time>2014-04-08T15:08:02Z</time>
      </trkpt>
      <trkpt lat="47.13248" lon="-1.8573">
        <ele>16</ele>
        <time>2014-04-08T15:08:07Z</time>
      </trkpt>
      <trkpt lat="47.13244" lon="-1.85657">
        <ele>13</ele>
        <time>2014-04-08T15:08:12Z</time>
      </trkpt>
      <trkpt lat="47.13242" lon="-1.85613">
        <ele>14</ele>
        <time>2014-04-08T15:08:14Z</time>
      </trkpt>
      <trkpt lat="47.13242" lon="-1.85573">
        <ele>13</ele>
        <time>2014-04-08T15:08:18Z</time>
      </trkpt>
      <trkpt lat="47.13239" lon="-1.85484">
        <ele>16</ele>
        <time>2014-04-08T15:08:23Z</time>
      </trkpt>
      <trkpt lat="47.13238" lon="-1.85433">
        <ele>15</ele>
        <time>2014-04-08T15:08:27Z</time>
      </trkpt>
      <trkpt lat="47.13236" lon="-1.85396">
        <ele>16</ele>
        <time>2014-04-08T15:08:31Z</time>
      </trkpt>
      <trkpt lat="47.13234" lon="-1.85356">
        <ele>15</ele>
        <time>2014-04-08T15:08:33Z</time>
      </trkpt>
      <trkpt lat="47.1323" lon="-1.85269">
        <ele>12</ele>
        <time>2014-04-08T15:08:40Z</time>
      </trkpt>
      <trkpt lat="47.13229" lon="-1.85241">
        <ele>11</ele>
        <time>2014-04-08T15:08:41Z</time>
      </trkpt>
      <trkpt lat="47.13224" lon="-1.85171">
        <ele>12</ele>
        <time>2014-04-08T15:08:46Z</time>
      </trkpt>
      <trkpt lat="47.13223" lon="-1.8514">
        <ele>10</ele>
        <time>2014-04-08T15:08:49Z</time>
      </trkpt>
      <trkpt lat="47.13218" lon="-1.85051">
        <ele>5</ele>
        <time>2014-04-08T15:08:55Z</time>
      </trkpt>
      <trkpt lat="47.13217" lon="-1.85018">
        <ele>3</ele>
        <time>2014-04-08T15:08:56Z</time>
      </trkpt>
      <trkpt lat="47.13215" lon="-1.84935">
        <ele>2</ele>
        <time>2014-04-08T15:09:02Z</time>
      </trkpt>
      <trkpt lat="47.13213" lon="-1.84864">
        <ele>1</ele>
        <time>2014-04-08T15:09:08Z</time>
      </trkpt>
      <trkpt lat="47.13211" lon="-1.84823">
        <ele>13.2</ele>
        <time>2014-04-08T15:09:11Z</time>
      </trkpt>
      <trkpt lat="47.13209" lon="-1.84771">
        <ele>2</ele>
        <time>2014-04-08T15:09:14Z</time>
      </trkpt>
      <trkpt lat="47.13206" lon="-1.84715">
        <ele>5</ele>
        <time>2014-04-08T15:09:18Z</time>
      </trkpt>
      <trkpt lat="47.13202" lon="-1.84651">
        <ele>3</ele>
        <time>2014-04-08T15:09:23Z</time>
      </trkpt>
      <trkpt lat="47.13201" lon="-1.84612">
        <ele>3</ele>
        <time>2014-04-08T15:09:27Z</time>
      </trkpt>
      <trkpt lat="47.13199" lon="-1.84557">
        <ele>4</ele>
        <time>2014-04-08T15:09:30Z</time>
      </trkpt>
      <trkpt lat="47.13197" lon="-1.84494">
        <ele>6</ele>
        <time>2014-04-08T15:09:36Z</time>
      </trkpt>
      <trkpt lat="47.13193" lon="-1.84445">
        <ele>7</ele>
        <time>2014-04-08T15:09:40Z</time>
      </trkpt>
      <trkpt lat="47.13192" lon="-1.84406">
        <ele>6</ele>
        <time>2014-04-08T15:09:43Z</time>
      </trkpt>
      <trkpt lat="47.13192" lon="-1.84379">
        <ele>6</ele>
        <time>2014-04-08T15:09:44Z</time>
      </trkpt>
      <trkpt lat="47.13192" lon="-1.84282">
        <ele>5</ele>
        <time>2014-04-08T15:09:51Z</time>
      </trkpt>
      <trkpt lat="47.1318" lon="-1.84246">
        <ele>9</ele>
        <time>2014-04-08T15:09:55Z</time>
      </trkpt>
      <trkpt lat="47.13176" lon="-1.84208">
        <ele>13</ele>
        <time>2014-04-08T15:09:59Z</time>
      </trkpt>
      <trkpt lat="47.1317" lon="-1.84157">
        <ele>16</ele>
        <time>2014-04-08T15:10:02Z</time>
      </trkpt>
      <trkpt lat="47.13162" lon="-1.84101">
        <ele>14</ele>
        <time>2014-04-08T15:10:07Z</time>
      </trkpt>
      <trkpt lat="47.13152" lon="-1.84022">
        <ele>13</ele>
        <time>2014-04-08T15:10:12Z</time>
      </trkpt>
      <trkpt lat="47.13144" lon="-1.83981">
        <ele>11</ele>
        <time>2014-04-08T15:10:15Z</time>
      </trkpt>
      <trkpt lat="47.13132" lon="-1.83913">
        <ele>9</ele>
        <time>2014-04-08T15:10:20Z</time>
      </trkpt>
      <trkpt lat="47.13126" lon="-1.83868">
        <ele>8</ele>
        <time>2014-04-08T15:10:23Z</time>
      </trkpt>
      <trkpt lat="47.1312" lon="-1.83833">
        <ele>7</ele>
        <time>2014-04-08T15:10:25Z</time>
      </trkpt>
      <trkpt lat="47.13106" lon="-1.83748">
        <ele>3</ele>
        <time>2014-04-08T15:10:32Z</time>
      </trkpt>
      <trkpt lat="47.13088" lon="-1.83689">
        <ele>2</ele>
        <time>2014-04-08T15:10:36Z</time>
      </trkpt>
      <trkpt lat="47.13079" lon="-1.83655">
        <ele>2</ele>
        <time>2014-04-08T15:10:40Z</time>
      </trkpt>
      <trkpt lat="47.13059" lon="-1.83612">
        <ele>1</ele>
        <time>2014-04-08T15:10:45Z</time>
      </trkpt>
      <trkpt lat="47.13037" lon="-1.83608">
        <ele>1</ele>
        <time>2014-04-08T15:10:47Z</time>
      </trkpt>
      <trkpt lat="47.13017" lon="-1.83571">
        <ele>2</ele>
        <time>2014-04-08T15:10:53Z</time>
      </trkpt>
      <trkpt lat="47.13007" lon="-1.83527">
        <ele>2</ele>
        <time>2014-04-08T15:10:56Z</time>
      </trkpt>
      <trkpt lat="47.13001" lon="-1.8349">
        <ele>1</ele>
        <time>2014-04-08T15:11:00Z</time>
      </trkpt>
      <trkpt lat="47.12997" lon="-1.8345">
        <ele>7.8</ele>
        <time>2014-04-08T15:11:02Z</time>
      </trkpt>
      <trkpt lat="47.12999" lon="-1.83356">
        <ele>-3</ele>
        <time>2014-04-08T15:11:08Z</time>
      </trkpt>
      <trkpt lat="47.13" lon="-1.83326">
        <ele>-4</ele>
        <time>2014-04-08T15:11:11Z</time>
      </trkpt>
      <trkpt lat="47.13001" lon="-1.83248">
        <ele>10</ele>
        <time>2014-04-08T15:11:16Z</time>
      </trkpt>
      <trkpt lat="47.13003" lon="-1.83234">
        <ele>10.5</ele>
        <time>2014-04-08T15:11:17Z</time>
      </trkpt>
      <trkpt lat="47.13007" lon="-1.83162">
        <ele>4</ele>
        <time>2014-04-08T15:11:24Z</time>
      </trkpt>
      <trkpt lat="47.13004" lon="-1.83139">
        <ele>4</ele>
        <time>2014-04-08T15:11:25Z</time>
      </trkpt>
      <trkpt lat="47.12978" lon="-1.83125">
        <ele>3</ele>
        <time>2014-04-08T15:11:29Z</time>
      </trkpt>
      <trkpt lat="47.12951" lon="-1.83143">
        <ele>6</ele>
        <time>2014-04-08T15:11:33Z</time>
      </trkpt>
      <trkpt lat="47.12923" lon="-1.8318">
        <ele>7</ele>
        <time>2014-04-08T15:11:39Z</time>
      </trkpt>
      <trkpt lat="47.12902" lon="-1.83209">
        <ele>9</ele>
        <time>2014-04-08T15:11:42Z</time>
      </trkpt>
      <trkpt lat="47.12862" lon="-1.83243">
        <ele>10</ele>
        <time>2014-04-08T15:11:47Z</time>
      </trkpt>
      <trkpt lat="47.12821" lon="-1.83252">
        <ele>7</ele>
        <time>2014-04-08T15:11:52Z</time>
      </trkpt>
      <trkpt lat="47.12783" lon="-1.83236">
        <ele>6</ele>
        <time>2014-04-08T15:11:57Z</time>
      </trkpt>
      <trkpt lat="47.12753" lon="-1.83213">
        <ele>5</ele>
        <time>2014-04-08T15:12:01Z</time>
      </trkpt>
      <trkpt lat="47.12728" lon="-1.83196">
        <ele>5</ele>
        <time>2014-04-08T15:12:04Z</time>
      </trkpt>
      <trkpt lat="47.12711" lon="-1.83186">
        <ele>4</ele>
        <time>2014-04-08T15:12:06Z</time>
      </trkpt>
      <trkpt lat="47.12681" lon="-1.83165">
        <ele>5</ele>
        <time>2014-04-08T15:12:09Z</time>
      </trkpt>
      <trkpt lat="47.12635" lon="-1.83126">
        <ele>3</ele>
        <time>2014-04-08T15:12:15Z</time>
      </trkpt>
      <trkpt lat="47.12605" lon="-1.83103">
        <ele>5</ele>
        <time>2014-04-08T15:12:19Z</time>
      </trkpt>
      <trkpt lat="47.12565" lon="-1.83081">
        <ele>6</ele>
        <time>2014-04-08T15:12:25Z</time>
      </trkpt>
      <trkpt lat="47.12549" lon="-1.83069">
        <ele>6</ele>
        <time>2014-04-08T15:12:26Z</time>
      </trkpt>
      <trkpt lat="47.1251" lon="-1.83031">
        <ele>6</ele>
        <time>2014-04-08T15:12:32Z</time>
      </trkpt>
      <trkpt lat="47.1248" lon="-1.83004">
        <ele>4</ele>
        <time>2014-04-08T15:12:35Z</time>
      </trkpt>
      <trkpt lat="47.12447" lon="-1.82983">
        <ele>4</ele>
        <time>2014-04-08T15:12:39Z</time>
      </trkpt>
      <trkpt lat="47.1242" lon="-1.8296">
        <ele>3</ele>
        <time>2014-04-08T15:12:43Z</time>
      </trkpt>
      <trkpt lat="47.1239" lon="-1.82949">
        <ele>2</ele>
        <time>2014-04-08T15:12:47Z</time>
      </trkpt>
      <trkpt lat="47.12362" lon="-1.82926">
        <ele>4</ele>
        <time>2014-04-08T15:12:51Z</time>
      </trkpt>
      <trkpt lat="47.12333" lon="-1.82921">
        <ele>5</ele>
        <time>2014-04-08T15:12:54Z</time>
      </trkpt>
      <trkpt lat="47.12304" lon="-1.82911">
        <ele>4</ele>
        <time>2014-04-08T15:12:59Z</time>
      </trkpt>
      <trkpt lat="47.12282" lon="-1.82902">
        <ele>3</ele>
        <time>2014-04-08T15:13:01Z</time>
      </trkpt>
      <trkpt lat="47.12232" lon="-1.82882">
        <ele>1</ele>
        <time>2014-04-08T15:13:08Z</time>
      </trkpt>
      <trkpt lat="47.12214" lon="-1.8288">
        <ele>2</ele>
        <time>2014-04-08T15:13:10Z</time>
      </trkpt>
      <trkpt lat="47.12176" lon="-1.82878">
        <ele>2</ele>
        <time>2014-04-08T15:13:15Z</time>
      </trkpt>
      <trkpt lat="47.12138" lon="-1.82868">
        <ele>6</ele>
        <time>2014-04-08T15:13:21Z</time>
      </trkpt>
      <trkpt lat="47.12124" lon="-1.82862">
        <ele>3</ele>
        <time>2014-04-08T15:13:24Z</time>
      </trkpt>
      <trkpt lat="47.12091" lon="-1.82853">
        <ele>2</ele>
        <time>2014-04-08T15:13:28Z</time>
      </trkpt>
      <trkpt lat="47.12065" lon="-1.82846">
        <ele>2</ele>
        <time>2014-04-08T15:13:32Z</time>
      </trkpt>
      <trkpt lat="47.12041" lon="-1.82843">
        <ele>1</ele>
        <time>2014-04-08T15:13:36Z</time>
      </trkpt>
      <trkpt lat="47.12013" lon="-1.82843">
        <ele>13.5</ele>
        <time>2014-04-08T15:13:41Z</time>
      </trkpt>
      <trkpt lat="47.11997" lon="-1.82834">
        <ele>3</ele>
        <time>2014-04-08T15:13:46Z</time>
      </trkpt>
      <trkpt lat="47.11975" lon="-1.8283">
        <ele>6</ele>
        <time>2014-04-08T15:13:51Z</time>
      </trkpt>
      <trkpt lat="47.1196" lon="-1.82826">
        <ele>11</ele>
        <time>2014-04-08T15:13:54Z</time>
      </trkpt>
      <trkpt lat="47.11942" lon="-1.82817">
        <ele>12</ele>
        <time>2014-04-08T15:13:59Z</time>
      </trkpt>
      <trkpt lat="47.11927" lon="-1.82811">
        <ele>11</ele>
        <time>2014-04-08T15:14:01Z</time>
      </trkpt>
      <trkpt lat="47.11905" lon="-1.82805">
        <ele>13</ele>
        <time>2014-04-08T15:14:07Z</time>
      </trkpt>
      <trkpt lat="47.11895" lon="-1.828">
        <ele>13</ele>
        <time>2014-04-08T15:14:08Z</time>
      </trkpt>
      <trkpt lat="47.11871" lon="-1.82786">
        <ele>15</ele>
        <time>2014-04-08T15:14:14Z</time>
      </trkpt>
      <trkpt lat="47.11841" lon="-1.82771">
        <ele>15</ele>
        <time>2014-04-08T15:14:20Z</time>
      </trkpt>
      <trkpt lat="47.11827" lon="-1.82759">
        <ele>14</ele>
        <time>2014-04-08T15:14:22Z</time>
      </trkpt>
      <trkpt lat="47.11805" lon="-1.82747">
        <ele>16</ele>
        <time>2014-04-08T15:14:27Z</time>
      </trkpt>
      <trkpt lat="47.11789" lon="-1.82739">
        <ele>16</ele>
        <time>2014-04-08T15:14:30Z</time>
      </trkpt>
      <trkpt lat="47.1177" lon="-1.82731">
        <ele>16</ele>
        <time>2014-04-08T15:14:34Z</time>
      </trkpt>
      <trkpt lat="47.11754" lon="-1.82721">
        <ele>18</ele>
        <time>2014-04-08T15:14:38Z</time>
      </trkpt>
      <trkpt lat="47.11729" lon="-1.82707">
        <ele>19</ele>
        <time>2014-04-08T15:14:42Z</time>
      </trkpt>
      <trkpt lat="47.11703" lon="-1.8268">
        <ele>17</ele>
        <time>2014-04-08T15:14:47Z</time>
      </trkpt>
      <trkpt lat="47.11686" lon="-1.82667">
        <ele>17</ele>
        <time>2014-04-08T15:14:50Z</time>
      </trkpt>
      <trkpt lat="47.11665" lon="-1.82645">
        <ele>18</ele>
        <time>2014-04-08T15:14:55Z</time>
      </trkpt>
      <trkpt lat="47.11656" lon="-1.82636">
        <ele>17</ele>
        <time>2014-04-08T15:14:56Z</time>
      </trkpt>
      <trkpt lat="47.11625" lon="-1.82612">
        <ele>18</ele>
        <time>2014-04-08T15:15:02Z</time>
      </trkpt>
      <trkpt lat="47.11601" lon="-1.82584">
        <ele>18</ele>
        <time>2014-04-08T15:15:08Z</time>
      </trkpt>
      <trkpt lat="47.11585" lon="-1.82571">
        <ele>18</ele>
        <time>2014-04-08T15:15:09Z</time>
      </trkpt>
      <trkpt lat="47.1155" lon="-1.82532">
        <ele>17</ele>
        <time>2014-04-08T15:15:16Z</time>
      </trkpt>
      <trkpt lat="47.11525" lon="-1.82505">
        <ele>17</ele>
        <time>2014-04-08T15:15:19Z</time>
      </trkpt>
      <trkpt lat="47.11516" lon="-1.82493">
        <ele>17</ele>
        <time>2014-04-08T15:15:22Z</time>
      </trkpt>
      <trkpt lat="47.11478" lon="-1.82457">
        <ele>17</ele>
        <time>2014-04-08T15:15:27Z</time>
      </trkpt>
      <trkpt lat="47.11453" lon="-1.82424">
        <ele>19</ele>
        <time>2014-04-08T15:15:32Z</time>
      </trkpt>
      <trkpt lat="47.11434" lon="-1.82395">
        <ele>20</ele>
        <time>2014-04-08T15:15:35Z</time>
      </trkpt>
      <trkpt lat="47.11416" lon="-1.82372">
        <ele>21</ele>
        <time>2014-04-08T15:15:37Z</time>
      </trkpt>
      <trkpt lat="47.11382" lon="-1.82328">
        <ele>19</ele>
        <time>2014-04-08T15:15:44Z</time>
      </trkpt>
      <trkpt lat="47.11363" lon="-1.82307">
        <ele>19</ele>
        <time>2014-04-08T15:15:46Z</time>
      </trkpt>
      <trkpt lat="47.11337" lon="-1.82279">
        <ele>21</ele>
        <time>2014-04-08T15:15:50Z</time>
      </trkpt>
      <trkpt lat="47.11329" lon="-1.82263">
        <ele>22</ele>
        <time>2014-04-08T15:15:53Z</time>
      </trkpt>
      <trkpt lat="47.11306" lon="-1.822">
        <ele>20</ele>
        <time>2014-04-08T15:15:59Z</time>
      </trkpt>
      <trkpt lat="47.11293" lon="-1.82155">
        <ele>21</ele>
        <time>2014-04-08T15:16:02Z</time>
      </trkpt>
      <trkpt lat="47.11286" lon="-1.82135">
        <ele>21</ele>
        <time>2014-04-08T15:16:04Z</time>
      </trkpt>
      <trkpt lat="47.11256" lon="-1.82076">
        <ele>19</ele>
        <time>2014-04-08T15:16:11Z</time>
      </trkpt>
      <trkpt lat="47.11238" lon="-1.82025">
        <ele>17</ele>
        <time>2014-04-08T15:16:16Z</time>
      </trkpt>
      <trkpt lat="47.1122" lon="-1.81985">
        <ele>17</ele>
        <time>2014-04-08T15:16:20Z</time>
      </trkpt>
      <trkpt lat="47.11205" lon="-1.81953">
        <ele>15</ele>
        <time>2014-04-08T15:16:22Z</time>
      </trkpt>
      <trkpt lat="47.11195" lon="-1.81935">
        <ele>15</ele>
        <time>2014-04-08T15:16:24Z</time>
      </trkpt>
      <trkpt lat="47.11156" lon="-1.81879">
        <ele>14</ele>
        <time>2014-04-08T15:16:31Z</time>
      </trkpt>
      <trkpt lat="47.11135" lon="-1.81846">
        <ele>15</ele>
        <time>2014-04-08T15:16:35Z</time>
      </trkpt>
      <trkpt lat="47.11117" lon="-1.8182">
        <ele>15</ele>
        <time>2014-04-08T15:16:39Z</time>
      </trkpt>
      <trkpt lat="47.11087" lon="-1.81779">
        <ele>18</ele>
        <time>2014-04-08T15:16:44Z</time>
      </trkpt>
      <trkpt lat="47.1106" lon="-1.81737">
        <ele>18</ele>
        <time>2014-04-08T15:16:49Z</time>
      </trkpt>
      <trkpt lat="47.11041" lon="-1.817">
        <ele>17</ele>
        <time>2014-04-08T15:16:53Z</time>
      </trkpt>
      <trkpt lat="47.11026" lon="-1.81674">
        <ele>17</ele>
        <time>2014-04-08T15:16:56Z</time>
      </trkpt>
      <trkpt lat="47.10993" lon="-1.81634">
        <ele>16</ele>
        <time>2014-04-08T15:17:01Z</time>
      </trkpt>
      <trkpt lat="47.10971" lon="-1.81609">
        <ele>15</ele>
        <time>2014-04-08T15:17:03Z</time>
      </trkpt>
      <trkpt lat="47.10942" lon="-1.81581">
        <ele>14</ele>
        <time>2014-04-08T15:17:08Z</time>
      </trkpt>
      <trkpt lat="47.10907" lon="-1.8155">
        <ele>15</ele>
        <time>2014-04-08T15:17:12Z</time>
      </trkpt>
      <trkpt lat="47.10879" lon="-1.81528">
        <ele>14</ele>
        <time>2014-04-08T15:17:16Z</time>
      </trkpt>
      <trkpt lat="47.10854" lon="-1.81518">
        <ele>13</ele>
        <time>2014-04-08T15:17:20Z</time>
      </trkpt>
      <trkpt lat="47.10838" lon="-1.8151">
        <ele>14</ele>
        <time>2014-04-08T15:17:21Z</time>
      </trkpt>
      <trkpt lat="47.10806" lon="-1.81493">
        <ele>12</ele>
        <time>2014-04-08T15:17:26Z</time>
      </trkpt>
      <trkpt lat="47.10759" lon="-1.81475">
        <ele>10</ele>
        <time>2014-04-08T15:17:31Z</time>
      </trkpt>
      <trkpt lat="47.10727" lon="-1.81457">
        <ele>9</ele>
        <time>2014-04-08T15:17:35Z</time>
      </trkpt>
      <trkpt lat="47.10709" lon="-1.81445">
        <ele>9</ele>
        <time>2014-04-08T15:17:38Z</time>
      </trkpt>
      <trkpt lat="47.1067" lon="-1.81389">
        <ele>7</ele>
        <time>2014-04-08T15:17:44Z</time>
      </trkpt>
      <trkpt lat="47.10643" lon="-1.81359">
        <ele>9</ele>
        <time>2014-04-08T15:17:49Z</time>
      </trkpt>
      <trkpt lat="47.10625" lon="-1.8133">
        <ele>11</ele>
        <time>2014-04-08T15:17:52Z</time>
      </trkpt>
      <trkpt lat="47.106" lon="-1.81304">
        <ele>14</ele>
        <time>2014-04-08T15:17:56Z</time>
      </trkpt>
      <trkpt lat="47.1058" lon="-1.81287">
        <ele>14</ele>
        <time>2014-04-08T15:17:58Z</time>
      </trkpt>
      <trkpt lat="47.10545" lon="-1.81259">
        <ele>15</ele>
        <time>2014-04-08T15:18:05Z</time>
      </trkpt>
      <trkpt lat="47.10531" lon="-1.81252">
        <ele>16</ele>
        <time>2014-04-08T15:18:08Z</time>
      </trkpt>
      <trkpt lat="47.10522" lon="-1.81244">
        <ele>15</ele>
        <time>2014-04-08T15:18:10Z</time>
      </trkpt>
      <trkpt lat="47.10501" lon="-1.81223">
        <ele>13</ele>
        <time>2014-04-08T15:18:16Z</time>
      </trkpt>
      <trkpt lat="47.10493" lon="-1.81218">
        <ele>13</ele>
        <time>2014-04-08T15:18:19Z</time>
      </trkpt>
      <trkpt lat="47.10476" lon="-1.81204">
        <ele>16</ele>
        <time>2014-04-08T15:18:25Z</time>
      </trkpt>
      <trkpt lat="47.10457" lon="-1.8119">
        <ele>15</ele>
        <time>2014-04-08T15:18:34Z</time>
      </trkpt>
      <trkpt lat="47.10432" lon="-1.81175">
        <ele>14</ele>
        <time>2014-04-08T15:18:39Z</time>
      </trkpt>
      <trkpt lat="47.10423" lon="-1.81163">
        <ele>14</ele>
        <time>2014-04-08T15:18:40Z</time>
      </trkpt>
      <trkpt lat="47.10405" lon="-1.81163">
        <ele>13</ele>
        <time>2014-04-08T15:18:44Z</time>
      </trkpt>
      <trkpt lat="47.10383" lon="-1.81182">
        <ele>14</ele>
        <time>2014-04-08T15:18:48Z</time>
      </trkpt>
      <trkpt lat="47.10362" lon="-1.81201">
        <ele>16</ele>
        <time>2014-04-08T15:18:53Z</time>
      </trkpt>
      <trkpt lat="47.10349" lon="-1.81234">
        <ele>17</ele>
        <time>2014-04-08T15:18:57Z</time>
      </trkpt>
      <trkpt lat="47.10335" lon="-1.81259">
        <ele>18</ele>
        <time>2014-04-08T15:19:00Z</time>
      </trkpt>
      <trkpt lat="47.10304" lon="-1.81331">
        <ele>19</ele>
        <time>2014-04-08T15:19:07Z</time>
      </trkpt>
      <trkpt lat="47.10298" lon="-1.8135">
        <ele>20</ele>
        <time>2014-04-08T15:19:09Z</time>
      </trkpt>
      <trkpt lat="47.10272" lon="-1.81413">
        <ele>16</ele>
        <time>2014-04-08T15:19:14Z</time>
      </trkpt>
      <trkpt lat="47.10266" lon="-1.81434">
        <ele>16</ele>
        <time>2014-04-08T15:19:16Z</time>
      </trkpt>
      <trkpt lat="47.10262" lon="-1.81488">
        <ele>14</ele>
        <time>2014-04-08T15:19:21Z</time>
      </trkpt>
      <trkpt lat="47.10254" lon="-1.81528">
        <ele>12</ele>
        <time>2014-04-08T15:19:27Z</time>
      </trkpt>
      <trkpt lat="47.10227" lon="-1.81527">
        <ele>13</ele>
        <time>2014-04-08T15:19:30Z</time>
      </trkpt>
      <trkpt lat="47.10214" lon="-1.81526">
        <ele>13</ele>
        <time>2014-04-08T15:19:32Z</time>
      </trkpt>
      <trkpt lat="47.10165" lon="-1.81553">
        <ele>13</ele>
        <time>2014-04-08T15:19:39Z</time>
      </trkpt>
      <trkpt lat="47.10146" lon="-1.81567">
        <ele>15</ele>
        <time>2014-04-08T15:19:43Z</time>
      </trkpt>
      <trkpt lat="47.10119" lon="-1.81577">
        <ele>13</ele>
        <time>2014-04-08T15:19:47Z</time>
      </trkpt>
      <trkpt lat="47.10092" lon="-1.81597">
        <ele>15</ele>
        <time>2014-04-08T15:19:51Z</time>
      </trkpt>
      <trkpt lat="47.10069" lon="-1.81615">
        <ele>11</ele>
        <time>2014-04-08T15:19:55Z</time>
      </trkpt>
      <trkpt lat="47.10042" lon="-1.81637">
        <ele>11</ele>
        <time>2014-04-08T15:20:00Z</time>
      </trkpt>
      <trkpt lat="47.10027" lon="-1.8165">
        <ele>14</ele>
        <time>2014-04-08T15:20:02Z</time>
      </trkpt>
      <trkpt lat="47.1001" lon="-1.81671">
        <ele>14</ele>
        <time>2014-04-08T15:20:06Z</time>
      </trkpt>
      <trkpt lat="47.09989" lon="-1.81695">
        <ele>14</ele>
        <time>2014-04-08T15:20:11Z</time>
      </trkpt>
      <trkpt lat="47.09976" lon="-1.81707">
        <ele>14</ele>
        <time>2014-04-08T15:20:15Z</time>
      </trkpt>
      <trkpt lat="47.09955" lon="-1.81728">
        <ele>15</ele>
        <time>2014-04-08T15:20:19Z</time>
      </trkpt>
      <trkpt lat="47.09945" lon="-1.81736">
        <ele>16</ele>
        <time>2014-04-08T15:20:22Z</time>
      </trkpt>
      <trkpt lat="47.09922" lon="-1.8176">
        <ele>15</ele>
        <time>2014-04-08T15:20:27Z</time>
      </trkpt>
      <trkpt lat="47.09905" lon="-1.8178">
        <ele>18</ele>
        <time>2014-04-08T15:20:31Z</time>
      </trkpt>
      <trkpt lat="47.09884" lon="-1.81803">
        <ele>17</ele>
        <time>2014-04-08T15:20:34Z</time>
      </trkpt>
      <trkpt lat="47.09868" lon="-1.81821">
        <ele>17</ele>
        <time>2014-04-08T15:20:38Z</time>
      </trkpt>
      <trkpt lat="47.09842" lon="-1.81822">
        <ele>19</ele>
        <time>2014-04-08T15:20:43Z</time>
      </trkpt>
      <trkpt lat="47.09831" lon="-1.81817">
        <ele>19</ele>
        <time>2014-04-08T15:20:46Z</time>
      </trkpt>
      <trkpt lat="47.0981" lon="-1.81818">
        <ele>18</ele>
        <time>2014-04-08T15:20:52Z</time>
      </trkpt>
      <trkpt lat="47.0981" lon="-1.81798">
        <ele>18</ele>
        <time>2014-04-08T15:20:55Z</time>
      </trkpt>
      <trkpt lat="47.09811" lon="-1.81792">
        <ele>18</ele>
        <time>2014-04-08T15:20:56Z</time>
      </trkpt>
      <trkpt lat="47.09831" lon="-1.81763">
        <ele>21</ele>
        <time>2014-04-08T15:21:02Z</time>
      </trkpt>
      <trkpt lat="47.09848" lon="-1.81732">
        <ele>22</ele>
        <time>2014-04-08T15:21:06Z</time>
      </trkpt>
      <trkpt lat="47.0986" lon="-1.81703">
        <ele>21</ele>
        <time>2014-04-08T15:21:10Z</time>
      </trkpt>
      <trkpt lat="47.09874" lon="-1.81675">
        <ele>19</ele>
        <time>2014-04-08T15:21:13Z</time>
      </trkpt>
      <trkpt lat="47.09898" lon="-1.81606">
        <ele>19</ele>
        <time>2014-04-08T15:21:19Z</time>
      </trkpt>
      <trkpt lat="47.09914" lon="-1.81566">
        <ele>18</ele>
        <time>2014-04-08T15:21:23Z</time>
      </trkpt>
      <trkpt lat="47.09926" lon="-1.81534">
        <ele>17</ele>
        <time>2014-04-08T15:21:27Z</time>
      </trkpt>
      <trkpt lat="47.09945" lon="-1.815">
        <ele>17</ele>
        <time>2014-04-08T15:21:30Z</time>
      </trkpt>
      <trkpt lat="47.0997" lon="-1.81469">
        <ele>15</ele>
        <time>2014-04-08T15:21:35Z</time>
      </trkpt>
      <trkpt lat="47.09991" lon="-1.81437">
        <ele>15</ele>
        <time>2014-04-08T15:21:38Z</time>
      </trkpt>
      <trkpt lat="47.10015" lon="-1.81406">
        <ele>15</ele>
        <time>2014-04-08T15:21:42Z</time>
      </trkpt>
      <trkpt lat="47.10027" lon="-1.81385">
        <ele>14</ele>
        <time>2014-04-08T15:21:45Z</time>
      </trkpt>
      <trkpt lat="47.1006" lon="-1.81337">
        <ele>11</ele>
        <time>2014-04-08T15:21:51Z</time>
      </trkpt>
      <trkpt lat="47.10069" lon="-1.81322">
        <ele>11</ele>
        <time>2014-04-08T15:21:52Z</time>
      </trkpt>
      <trkpt lat="47.10111" lon="-1.81278">
        <ele>9</ele>
        <time>2014-04-08T15:21:59Z</time>
      </trkpt>
      <trkpt lat="47.10136" lon="-1.81255">
        <ele>9</ele>
        <time>2014-04-08T15:22:02Z</time>
      </trkpt>
      <trkpt lat="47.10152" lon="-1.8124">
        <ele>10</ele>
        <time>2014-04-08T15:22:05Z</time>
      </trkpt>
      <trkpt lat="47.10189" lon="-1.81212">
        <ele>12</ele>
        <time>2014-04-08T15:22:10Z</time>
      </trkpt>
      <trkpt lat="47.10216" lon="-1.81195">
        <ele>10</ele>
        <time>2014-04-08T15:22:14Z</time>
      </trkpt>
      <trkpt lat="47.10239" lon="-1.81169">
        <ele>10</ele>
        <time>2014-04-08T15:22:19Z</time>
      </trkpt>
      <trkpt lat="47.10261" lon="-1.81147">
        <ele>11</ele>
        <time>2014-04-08T15:22:23Z</time>
      </trkpt>
      <trkpt lat="47.10285" lon="-1.81129">
        <ele>13</ele>
        <time>2014-04-08T15:22:27Z</time>
      </trkpt>
      <trkpt lat="47.10308" lon="-1.81108">
        <ele>13</ele>
        <time>2014-04-08T15:22:31Z</time>
      </trkpt>
      <trkpt lat="47.10316" lon="-1.81096">
        <ele>13</ele>
        <time>2014-04-08T15:22:32Z</time>
      </trkpt>
      <trkpt lat="47.10351" lon="-1.81052">
        <ele>12</ele>
        <time>2014-04-08T15:22:40Z</time>
      </trkpt>
      <trkpt lat="47.10368" lon="-1.81012">
        <ele>17</ele>
        <time>2014-04-08T15:22:45Z</time>
      </trkpt>
      <trkpt lat="47.10371" lon="-1.8098">
        <ele>17</ele>
        <time>2014-04-08T15:22:48Z</time>
      </trkpt>
      <trkpt lat="47.10368" lon="-1.80961">
        <ele>16</ele>
        <time>2014-04-08T15:22:50Z</time>
      </trkpt>
      <trkpt lat="47.10357" lon="-1.80893">
        <ele>13</ele>
        <time>2014-04-08T15:22:55Z</time>
      </trkpt>
      <trkpt lat="47.10356" lon="-1.80844">
        <ele>13</ele>
        <time>2014-04-08T15:22:59Z</time>
      </trkpt>
      <trkpt lat="47.10357" lon="-1.80793">
        <ele>13</ele>
        <time>2014-04-08T15:23:04Z</time>
      </trkpt>
      <trkpt lat="47.10356" lon="-1.80766">
        <ele>12</ele>
        <time>2014-04-08T15:23:05Z</time>
      </trkpt>
      <trkpt lat="47.10352" lon="-1.80693">
        <ele>13</ele>
        <time>2014-04-08T15:23:13Z</time>
      </trkpt>
      <trkpt lat="47.1035" lon="-1.80662">
        <ele>14</ele>
        <time>2014-04-08T15:23:16Z</time>
      </trkpt>
      <trkpt lat="47.10348" lon="-1.80633">
        <ele>16</ele>
        <time>2014-04-08T15:23:18Z</time>
      </trkpt>
      <trkpt lat="47.1035" lon="-1.80585">
        <ele>19</ele>
        <time>2014-04-08T15:23:23Z</time>
      </trkpt>
      <trkpt lat="47.10347" lon="-1.80549">
        <ele>18</ele>
        <time>2014-04-08T15:23:27Z</time>
      </trkpt>
      <trkpt lat="47.10343" lon="-1.80503">
        <ele>18</ele>
        <time>2014-04-08T15:23:32Z</time>
      </trkpt>
      <trkpt lat="47.1034" lon="-1.80462">
        <ele>16</ele>
        <time>2014-04-08T15:23:36Z</time>
      </trkpt>
      <trkpt lat="47.10338" lon="-1.80441">
        <ele>16</ele>
        <time>2014-04-08T15:23:38Z</time>
      </trkpt>
      <trkpt lat="47.10328" lon="-1.80391">
        <ele>15</ele>
        <time>2014-04-08T15:23:44Z</time>
      </trkpt>
      <trkpt lat="47.10328" lon="-1.80383">
        <ele>16</ele>
        <time>2014-04-08T15:23:45Z</time>
      </trkpt>
      <trkpt lat="47.10321" lon="-1.80349">
        <ele>17</ele>
        <time>2014-04-08T15:23:50Z</time>
      </trkpt>
      <trkpt lat="47.10319" lon="-1.80291">
        <ele>18</ele>
        <time>2014-04-08T15:23:55Z</time>
      </trkpt>
      <trkpt lat="47.10317" lon="-1.80239">
        <ele>20</ele>
        <time>2014-04-08T15:24:00Z</time>
      </trkpt>
      <trkpt lat="47.10319" lon="-1.8021">
        <ele>19</ele>
        <time>2014-04-08T15:24:03Z</time>
      </trkpt>
      <trkpt lat="47.10318" lon="-1.80172">
        <ele>22</ele>
        <time>2014-04-08T15:24:07Z</time>
      </trkpt>
      <trkpt lat="47.10315" lon="-1.80127">
        <ele>23</ele>
        <time>2014-04-08T15:24:12Z</time>
      </trkpt>
      <trkpt lat="47.10313" lon="-1.80081">
        <ele>22</ele>
        <time>2014-04-08T15:24:15Z</time>
      </trkpt>
      <trkpt lat="47.10315" lon="-1.80024">
        <ele>21</ele>
        <time>2014-04-08T15:24:20Z</time>
      </trkpt>
      <trkpt lat="47.10316" lon="-1.79985">
        <ele>21</ele>
        <time>2014-04-08T15:24:24Z</time>
      </trkpt>
      <trkpt lat="47.10322" lon="-1.79947">
        <ele>22</ele>
        <time>2014-04-08T15:24:27Z</time>
      </trkpt>
      <trkpt lat="47.1034" lon="-1.79865">
        <ele>21</ele>
        <time>2014-04-08T15:24:32Z</time>
      </trkpt>
      <trkpt lat="47.10353" lon="-1.79796">
        <ele>21</ele>
        <time>2014-04-08T15:24:37Z</time>
      </trkpt>
      <trkpt lat="47.10359" lon="-1.79761">
        <ele>21</ele>
        <time>2014-04-08T15:24:41Z</time>
      </trkpt>
      <trkpt lat="47.10367" lon="-1.79708">
        <ele>21</ele>
        <time>2014-04-08T15:24:44Z</time>
      </trkpt>
      <trkpt lat="47.10374" lon="-1.79651">
        <ele>20</ele>
        <time>2014-04-08T15:24:48Z</time>
      </trkpt>
      <trkpt lat="47.1038" lon="-1.79598">
        <ele>21</ele>
        <time>2014-04-08T15:24:52Z</time>
      </trkpt>
      <trkpt lat="47.10384" lon="-1.79543">
        <ele>20</ele>
        <time>2014-04-08T15:24:56Z</time>
      </trkpt>
      <trkpt lat="47.10391" lon="-1.7949">
        <ele>21</ele>
        <time>2014-04-08T15:25:01Z</time>
      </trkpt>
      <trkpt lat="47.104" lon="-1.79441">
        <ele>19</ele>
        <time>2014-04-08T15:25:05Z</time>
      </trkpt>
      <trkpt lat="47.10416" lon="-1.7939">
        <ele>19</ele>
        <time>2014-04-08T15:25:09Z</time>
      </trkpt>
      <trkpt lat="47.10435" lon="-1.79338">
        <ele>17</ele>
        <time>2014-04-08T15:25:13Z</time>
      </trkpt>
      <trkpt lat="47.10455" lon="-1.79283">
        <ele>14</ele>
        <time>2014-04-08T15:25:16Z</time>
      </trkpt>
      <trkpt lat="47.10469" lon="-1.79242">
        <ele>13</ele>
        <time>2014-04-08T15:25:19Z</time>
      </trkpt>
      <trkpt lat="47.10487" lon="-1.79185">
        <ele>13</ele>
        <time>2014-04-08T15:25:24Z</time>
      </trkpt>
      <trkpt lat="47.10517" lon="-1.79117">
        <ele>10</ele>
        <time>2014-04-08T15:25:28Z</time>
      </trkpt>
      <trkpt lat="47.10538" lon="-1.79063">
        <ele>9</ele>
        <time>2014-04-08T15:25:32Z</time>
      </trkpt>
      <trkpt lat="47.10551" lon="-1.79039">
        <ele>9</ele>
        <time>2014-04-08T15:25:34Z</time>
      </trkpt>
      <trkpt lat="47.10607" lon="-1.78978">
        <ele>9</ele>
        <time>2014-04-08T15:25:41Z</time>
      </trkpt>
      <trkpt lat="47.10615" lon="-1.7897">
        <ele>9</ele>
        <time>2014-04-08T15:25:42Z</time>
      </trkpt>
      <trkpt lat="47.10656" lon="-1.78925">
        <ele>13</ele>
        <time>2014-04-08T15:25:49Z</time>
      </trkpt>
      <trkpt lat="47.10681" lon="-1.78895">
        <ele>13</ele>
        <time>2014-04-08T15:25:52Z</time>
      </trkpt>
      <trkpt lat="47.10705" lon="-1.78863">
        <ele>16</ele>
        <time>2014-04-08T15:25:56Z</time>
      </trkpt>
      <trkpt lat="47.1073" lon="-1.78832">
        <ele>13</ele>
        <time>2014-04-08T15:26:00Z</time>
      </trkpt>
      <trkpt lat="47.10746" lon="-1.78814">
        <ele>12</ele>
        <time>2014-04-08T15:26:02Z</time>
      </trkpt>
      <trkpt lat="47.1079" lon="-1.78768">
        <ele>10</ele>
        <time>2014-04-08T15:26:09Z</time>
      </trkpt>
      <trkpt lat="47.10815" lon="-1.78745">
        <ele>8</ele>
        <time>2014-04-08T15:26:11Z</time>
      </trkpt>
      <trkpt lat="47.10853" lon="-1.78702">
        <ele>8</ele>
        <time>2014-04-08T15:26:16Z</time>
      </trkpt>
      <trkpt lat="47.10883" lon="-1.78669">
        <ele>9</ele>
        <time>2014-04-08T15:26:20Z</time>
      </trkpt>
      <trkpt lat="47.10896" lon="-1.78651">
        <ele>9</ele>
        <time>2014-04-08T15:26:22Z</time>
      </trkpt>
      <trkpt lat="47.10937" lon="-1.78599">
        <ele>7</ele>
        <time>2014-04-08T15:26:29Z</time>
      </trkpt>
      <trkpt lat="47.10948" lon="-1.7858">
        <ele>7</ele>
        <time>2014-04-08T15:26:30Z</time>
      </trkpt>
      <trkpt lat="47.1098" lon="-1.78515">
        <ele>3</ele>
        <time>2014-04-08T15:26:37Z</time>
      </trkpt>
      <trkpt lat="47.11002" lon="-1.78454">
        <ele>5</ele>
        <time>2014-04-08T15:26:42Z</time>
      </trkpt>
      <trkpt lat="47.1101" lon="-1.78434">
        <ele>7</ele>
        <time>2014-04-08T15:26:45Z</time>
      </trkpt>
      <trkpt lat="47.11025" lon="-1.78383">
        <ele>12</ele>
        <time>2014-04-08T15:26:50Z</time>
      </trkpt>
      <trkpt lat="47.11037" lon="-1.78337">
        <ele>12</ele>
        <time>2014-04-08T15:26:55Z</time>
      </trkpt>
      <trkpt lat="47.11044" lon="-1.78308">
        <ele>13</ele>
        <time>2014-04-08T15:26:58Z</time>
      </trkpt>
      <trkpt lat="47.11054" lon="-1.78265">
        <ele>15</ele>
        <time>2014-04-08T15:27:02Z</time>
      </trkpt>
      <trkpt lat="47.11067" lon="-1.78229">
        <ele>16</ele>
        <time>2014-04-08T15:27:07Z</time>
      </trkpt>
      <trkpt lat="47.11076" lon="-1.782">
        <ele>16</ele>
        <time>2014-04-08T15:27:09Z</time>
      </trkpt>
      <trkpt lat="47.11084" lon="-1.7818">
        <ele>16</ele>
        <time>2014-04-08T15:27:12Z</time>
      </trkpt>
      <trkpt lat="47.1111" lon="-1.78127">
        <ele>16</ele>
        <time>2014-04-08T15:27:17Z</time>
      </trkpt>
      <trkpt lat="47.11131" lon="-1.7809">
        <ele>16</ele>
        <time>2014-04-08T15:27:21Z</time>
      </trkpt>
      <trkpt lat="47.1115" lon="-1.78057">
        <ele>18</ele>
        <time>2014-04-08T15:27:25Z</time>
      </trkpt>
      <trkpt lat="47.11171" lon="-1.78025">
        <ele>18</ele>
        <time>2014-04-08T15:27:29Z</time>
      </trkpt>
      <trkpt lat="47.11194" lon="-1.77995">
        <ele>17</ele>
        <time>2014-04-08T15:27:34Z</time>
      </trkpt>
      <trkpt lat="47.11206" lon="-1.77979">
        <ele>19</ele>
        <time>2014-04-08T15:27:35Z</time>
      </trkpt>
      <trkpt lat="47.11244" lon="-1.77927">
        <ele>20</ele>
        <time>2014-04-08T15:27:42Z</time>
      </trkpt>
      <trkpt lat="47.11267" lon="-1.77898">
        <ele>20</ele>
        <time>2014-04-08T15:27:46Z</time>
      </trkpt>
      <trkpt lat="47.11288" lon="-1.77869">
        <ele>22</ele>
        <time>2014-04-08T15:27:50Z</time>
      </trkpt>
      <trkpt lat="47.11312" lon="-1.77837">
        <ele>21</ele>
        <time>2014-04-08T15:27:53Z</time>
      </trkpt>
      <trkpt lat="47.11332" lon="-1.77804">
        <ele>21</ele>
        <time>2014-04-08T15:27:57Z</time>
      </trkpt>
      <trkpt lat="47.11359" lon="-1.77759">
        <ele>21</ele>
        <time>2014-04-08T15:28:02Z</time>
      </trkpt>
      <trkpt lat="47.11371" lon="-1.77732">
        <ele>22</ele>
        <time>2014-04-08T15:28:06Z</time>
      </trkpt>
      <trkpt lat="47.11384" lon="-1.77704">
        <ele>23</ele>
        <time>2014-04-08T15:28:09Z</time>
      </trkpt>
      <trkpt lat="47.1141" lon="-1.77658">
        <ele>21</ele>
        <time>2014-04-08T15:28:13Z</time>
      </trkpt>
      <trkpt lat="47.11432" lon="-1.77612">
        <ele>20</ele>
        <time>2014-04-08T15:28:18Z</time>
      </trkpt>
      <trkpt lat="47.11436" lon="-1.77607">
        <ele>20</ele>
        <time>2014-04-08T15:28:19Z</time>
      </trkpt>
      <trkpt lat="47.11468" lon="-1.77531">
        <ele>18</ele>
        <time>2014-04-08T15:28:28Z</time>
      </trkpt>
      <trkpt lat="47.11479" lon="-1.77507">
        <ele>20</ele>
        <time>2014-04-08T15:28:31Z</time>
      </trkpt>
      <trkpt lat="47.11491" lon="-1.7748">
        <ele>20</ele>
        <time>2014-04-08T15:28:33Z</time>
      </trkpt>
      <trkpt lat="47.1151" lon="-1.7744">
        <ele>19</ele>
        <time>2014-04-08T15:28:38Z</time>
      </trkpt>
      <trkpt lat="47.11524" lon="-1.77399">
        <ele>17</ele>
        <time>2014-04-08T15:28:42Z</time>
      </trkpt>
      <trkpt lat="47.11537" lon="-1.77357">
        <ele>18</ele>
        <time>2014-04-08T15:28:47Z</time>
      </trkpt>
      <trkpt lat="47.11549" lon="-1.77325">
        <ele>19</ele>
        <time>2014-04-08T15:28:50Z</time>
      </trkpt>
      <trkpt lat="47.11566" lon="-1.77266">
        <ele>18</ele>
        <time>2014-04-08T15:28:54Z</time>
      </trkpt>
      <trkpt lat="47.11586" lon="-1.77209">
        <ele>16</ele>
        <time>2014-04-08T15:28:59Z</time>
      </trkpt>
      <trkpt lat="47.11597" lon="-1.77171">
        <ele>14</ele>
        <time>2014-04-08T15:29:02Z</time>
      </trkpt>
      <trkpt lat="47.11612" lon="-1.77122">
        <ele>12</ele>
        <time>2014-04-08T15:29:07Z</time>
      </trkpt>
      <trkpt lat="47.11633" lon="-1.77056">
        <ele>12</ele>
        <time>2014-04-08T15:29:12Z</time>
      </trkpt>
      <trkpt lat="47.11647" lon="-1.77018">
        <ele>13</ele>
        <time>2014-04-08T15:29:14Z</time>
      </trkpt>
      <trkpt lat="47.11666" lon="-1.7697">
        <ele>13</ele>
        <time>2014-04-08T15:29:19Z</time>
      </trkpt>
      <trkpt lat="47.11686" lon="-1.76929">
        <ele>16</ele>
        <time>2014-04-08T15:29:22Z</time>
      </trkpt>
      <trkpt lat="47.11716" lon="-1.76873">
        <ele>17</ele>
        <time>2014-04-08T15:29:27Z</time>
      </trkpt>
      <trkpt lat="47.11737" lon="-1.76844">
        <ele>17</ele>
        <time>2014-04-08T15:29:31Z</time>
      </trkpt>
      <trkpt lat="47.11772" lon="-1.76799">
        <ele>18</ele>
        <time>2014-04-08T15:29:35Z</time>
      </trkpt>
      <trkpt lat="47.11793" lon="-1.76774">
        <ele>18</ele>
        <time>2014-04-08T15:29:39Z</time>
      </trkpt>
      <trkpt lat="47.11815" lon="-1.76749">
        <ele>19</ele>
        <time>2014-04-08T15:29:42Z</time>
      </trkpt>
      <trkpt lat="47.11836" lon="-1.76728">
        <ele>19</ele>
        <time>2014-04-08T15:29:44Z</time>
      </trkpt>
      <trkpt lat="47.11874" lon="-1.76686">
        <ele>20</ele>
        <time>2014-04-08T15:29:51Z</time>
      </trkpt>
      <trkpt lat="47.11904" lon="-1.76655">
        <ele>21</ele>
        <time>2014-04-08T15:29:56Z</time>
      </trkpt>
      <trkpt lat="47.11922" lon="-1.76637">
        <ele>21</ele>
        <time>2014-04-08T15:29:58Z</time>
      </trkpt>
      <trkpt lat="47.11946" lon="-1.76615">
        <ele>22</ele>
        <time>2014-04-08T15:30:02Z</time>
      </trkpt>
      <trkpt lat="47.11969" lon="-1.76593">
        <ele>22</ele>
        <time>2014-04-08T15:30:06Z</time>
      </trkpt>
      <trkpt lat="47.11992" lon="-1.76576">
        <ele>23</ele>
        <time>2014-04-08T15:30:11Z</time>
      </trkpt>
      <trkpt lat="47.1201" lon="-1.7656">
        <ele>23</ele>
        <time>2014-04-08T15:30:14Z</time>
      </trkpt>
      <trkpt lat="47.12036" lon="-1.76539">
        <ele>21</ele>
        <time>2014-04-08T15:30:17Z</time>
      </trkpt>
      <trkpt lat="47.12068" lon="-1.76516">
        <ele>23</ele>
        <time>2014-04-08T15:30:23Z</time>
      </trkpt>
      <trkpt lat="47.12098" lon="-1.76499">
        <ele>23</ele>
        <time>2014-04-08T15:30:26Z</time>
      </trkpt>
      <trkpt lat="47.12126" lon="-1.76485">
        <ele>24</ele>
        <time>2014-04-08T15:30:30Z</time>
      </trkpt>
      <trkpt lat="47.12156" lon="-1.76473">
        <ele>23</ele>
        <time>2014-04-08T15:30:35Z</time>
      </trkpt>
      <trkpt lat="47.12186" lon="-1.76461">
        <ele>24</ele>
        <time>2014-04-08T15:30:39Z</time>
      </trkpt>
      <trkpt lat="47.12215" lon="-1.7645">
        <ele>23</ele>
        <time>2014-04-08T15:30:43Z</time>
      </trkpt>
      <trkpt lat="47.12242" lon="-1.76438">
        <ele>24</ele>
        <time>2014-04-08T15:30:47Z</time>
      </trkpt>
      <trkpt lat="47.1227" lon="-1.76429">
        <ele>25</ele>
        <time>2014-04-08T15:30:51Z</time>
      </trkpt>
      <trkpt lat="47.12301" lon="-1.7642">
        <ele>27</ele>
        <time>2014-04-08T15:30:56Z</time>
      </trkpt>
      <trkpt lat="47.12309" lon="-1.76418">
        <ele>27</ele>
        <time>2014-04-08T15:30:57Z</time>
      </trkpt>
      <trkpt lat="47.12356" lon="-1.76394">
        <ele>27</ele>
        <time>2014-04-08T15:31:03Z</time>
      </trkpt>
      <trkpt lat="47.12373" lon="-1.76388">
        <ele>26</ele>
        <time>2014-04-08T15:31:07Z</time>
      </trkpt>
      <trkpt lat="47.12395" lon="-1.76376">
        <ele>26</ele>
        <time>2014-04-08T15:31:11Z</time>
      </trkpt>
      <trkpt lat="47.12425" lon="-1.76361">
        <ele>28</ele>
        <time>2014-04-08T15:31:16Z</time>
      </trkpt>
      <trkpt lat="47.12459" lon="-1.76341">
        <ele>29</ele>
        <time>2014-04-08T15:31:20Z</time>
      </trkpt>
      <trkpt lat="47.12479" lon="-1.76329">
        <ele>30</ele>
        <time>2014-04-08T15:31:24Z</time>
      </trkpt>
      <trkpt lat="47.12503" lon="-1.76314">
        <ele>28</ele>
        <time>2014-04-08T15:31:27Z</time>
      </trkpt>
      <trkpt lat="47.12527" lon="-1.763">
        <ele>28</ele>
        <time>2014-04-08T15:31:32Z</time>
      </trkpt>
      <trkpt lat="47.1255" lon="-1.76289">
        <ele>29</ele>
        <time>2014-04-08T15:31:35Z</time>
      </trkpt>
      <trkpt lat="47.12575" lon="-1.76274">
        <ele>30</ele>
        <time>2014-04-08T15:31:39Z</time>
      </trkpt>
      <trkpt lat="47.12601" lon="-1.7626">
        <ele>31</ele>
        <time>2014-04-08T15:31:43Z</time>
      </trkpt>
      <trkpt lat="47.12626" lon="-1.76248">
        <ele>31</ele>
        <time>2014-04-08T15:31:47Z</time>
      </trkpt>
      <trkpt lat="47.12651" lon="-1.76232">
        <ele>31</ele>
        <time>2014-04-08T15:31:51Z</time>
      </trkpt>
      <trkpt lat="47.12675" lon="-1.76215">
        <ele>30</ele>
        <time>2014-04-08T15:31:56Z</time>
      </trkpt>
      <trkpt lat="47.12698" lon="-1.76199">
        <ele>27</ele>
        <time>2014-04-08T15:32:00Z</time>
      </trkpt>
      <trkpt lat="47.12722" lon="-1.7618">
        <ele>26</ele>
        <time>2014-04-08T15:32:04Z</time>
      </trkpt>
      <trkpt lat="47.12744" lon="-1.76157">
        <ele>26</ele>
        <time>2014-04-08T15:32:08Z</time>
      </trkpt>
      <trkpt lat="47.12765" lon="-1.76134">
        <ele>28</ele>
        <time>2014-04-08T15:32:11Z</time>
      </trkpt>
      <trkpt lat="47.12787" lon="-1.7611">
        <ele>29</ele>
        <time>2014-04-08T15:32:15Z</time>
      </trkpt>
      <trkpt lat="47.12804" lon="-1.76092">
        <ele>30</ele>
        <time>2014-04-08T15:32:19Z</time>
      </trkpt>
      <trkpt lat="47.1283" lon="-1.76061">
        <ele>29</ele>
        <time>2014-04-08T15:32:24Z</time>
      </trkpt>
      <trkpt lat="47.1285" lon="-1.76034">
        <ele>30</ele>
        <time>2014-04-08T15:32:28Z</time>
      </trkpt>
      <trkpt lat="47.12869" lon="-1.76009">
        <ele>31</ele>
        <time>2014-04-08T15:32:32Z</time>
      </trkpt>
      <trkpt lat="47.12888" lon="-1.75983">
        <ele>30</ele>
        <time>2014-04-08T15:32:36Z</time>
      </trkpt>
      <trkpt lat="47.12909" lon="-1.75954">
        <ele>30</ele>
        <time>2014-04-08T15:32:39Z</time>
      </trkpt>
      <trkpt lat="47.1293" lon="-1.75922">
        <ele>31</ele>
        <time>2014-04-08T15:32:43Z</time>
      </trkpt>
      <trkpt lat="47.12951" lon="-1.75891">
        <ele>30</ele>
        <time>2014-04-08T15:32:47Z</time>
      </trkpt>
      <trkpt lat="47.12973" lon="-1.75844">
        <ele>31</ele>
        <time>2014-04-08T15:32:52Z</time>
      </trkpt>
      <trkpt lat="47.12982" lon="-1.75815">
        <ele>30</ele>
        <time>2014-04-08T15:32:55Z</time>
      </trkpt>
      <trkpt lat="47.1301" lon="-1.75796">
        <ele>28</ele>
        <time>2014-04-08T15:32:59Z</time>
      </trkpt>
      <trkpt lat="47.13034" lon="-1.75768">
        <ele>24</ele>
        <time>2014-04-08T15:33:03Z</time>
      </trkpt>
      <trkpt lat="47.13055" lon="-1.75734">
        <ele>24</ele>
        <time>2014-04-08T15:33:08Z</time>
      </trkpt>
      <trkpt lat="47.13069" lon="-1.7569">
        <ele>25</ele>
        <time>2014-04-08T15:33:12Z</time>
      </trkpt>
      <trkpt lat="47.1308" lon="-1.75643">
        <ele>24</ele>
        <time>2014-04-08T15:33:15Z</time>
      </trkpt>
      <trkpt lat="47.13088" lon="-1.75599">
        <ele>25</ele>
        <time>2014-04-08T15:33:19Z</time>
      </trkpt>
      <trkpt lat="47.13096" lon="-1.75552">
        <ele>24</ele>
        <time>2014-04-08T15:33:23Z</time>
      </trkpt>
      <trkpt lat="47.13104" lon="-1.75502">
        <ele>24</ele>
        <time>2014-04-08T15:33:28Z</time>
      </trkpt>
      <trkpt lat="47.13099" lon="-1.75461">
        <ele>20</ele>
        <time>2014-04-08T15:33:32Z</time>
      </trkpt>
      <trkpt lat="47.13103" lon="-1.75424">
        <ele>20</ele>
        <time>2014-04-08T15:33:36Z</time>
      </trkpt>
      <trkpt lat="47.13122" lon="-1.7539">
        <ele>20</ele>
        <time>2014-04-08T15:33:40Z</time>
      </trkpt>
      <trkpt lat="47.13128" lon="-1.75364">
        <ele>20</ele>
        <time>2014-04-08T15:33:42Z</time>
      </trkpt>
      <trkpt lat="47.13138" lon="-1.75276">
        <ele>21</ele>
        <time>2014-04-08T15:33:49Z</time>
      </trkpt>
      <trkpt lat="47.13148" lon="-1.75239">
        <ele>21</ele>
        <time>2014-04-08T15:33:51Z</time>
      </trkpt>
      <trkpt lat="47.13161" lon="-1.75189">
        <ele>24</ele>
        <time>2014-04-08T15:33:56Z</time>
      </trkpt>
      <trkpt lat="47.13178" lon="-1.75144">
        <ele>26</ele>
        <time>2014-04-08T15:34:00Z</time>
      </trkpt>
      <trkpt lat="47.13202" lon="-1.75101">
        <ele>25</ele>
        <time>2014-04-08T15:34:04Z</time>
      </trkpt>
      <trkpt lat="47.13219" lon="-1.75081">
        <ele>25</ele>
        <time>2014-04-08T15:34:05Z</time>
      </trkpt>
      <trkpt lat="47.13274" lon="-1.7503">
        <ele>22</ele>
        <time>2014-04-08T15:34:13Z</time>
      </trkpt>
      <trkpt lat="47.13305" lon="-1.75006">
        <ele>21</ele>
        <time>2014-04-08T15:34:17Z</time>
      </trkpt>
      <trkpt lat="47.13332" lon="-1.74971">
        <ele>19</ele>
        <time>2014-04-08T15:34:21Z</time>
      </trkpt>
      <trkpt lat="47.13351" lon="-1.7493">
        <ele>17</ele>
        <time>2014-04-08T15:34:24Z</time>
      </trkpt>
      <trkpt lat="47.13359" lon="-1.74908">
        <ele>17</ele>
        <time>2014-04-08T15:34:27Z</time>
      </trkpt>
      <trkpt lat="47.13386" lon="-1.74829">
        <ele>15</ele>
        <time>2014-04-08T15:34:33Z</time>
      </trkpt>
      <trkpt lat="47.13393" lon="-1.74819">
        <ele>14</ele>
        <time>2014-04-08T15:34:34Z</time>
      </trkpt>
      <trkpt lat="47.13427" lon="-1.74776">
        <ele>13</ele>
        <time>2014-04-08T15:34:41Z</time>
      </trkpt>
      <trkpt lat="47.13439" lon="-1.74761">
        <ele>11</ele>
        <time>2014-04-08T15:34:42Z</time>
      </trkpt>
      <trkpt lat="47.1348" lon="-1.74705">
        <ele>7</ele>
        <time>2014-04-08T15:34:50Z</time>
      </trkpt>
      <trkpt lat="47.13483" lon="-1.74693">
        <ele>7</ele>
        <time>2014-04-08T15:34:50Z</time>
      </trkpt>
      <trkpt lat="47.13515" lon="-1.74633">
        <ele>4</ele>
        <time>2014-04-08T15:34:55Z</time>
      </trkpt>
      <trkpt lat="47.13572" lon="-1.74579">
        <ele>4</ele>
        <time>2014-04-08T15:35:02Z</time>
      </trkpt>
      <trkpt lat="47.1358" lon="-1.7457">
        <ele>4</ele>
        <time>2014-04-08T15:35:02Z</time>
      </trkpt>
      <trkpt lat="47.13629" lon="-1.74523">
        <ele>3</ele>
        <time>2014-04-08T15:35:09Z</time>
      </trkpt>
      <trkpt lat="47.1366" lon="-1.74494">
        <ele>5</ele>
        <time>2014-04-08T15:35:13Z</time>
      </trkpt>
      <trkpt lat="47.13691" lon="-1.74454">
        <ele>4</ele>
        <time>2014-04-08T15:35:18Z</time>
      </trkpt>
      <trkpt lat="47.13703" lon="-1.74438">
        <ele>4</ele>
        <time>2014-04-08T15:35:21Z</time>
      </trkpt>
      <trkpt lat="47.13718" lon="-1.7441">
        <ele>6</ele>
        <time>2014-04-08T15:35:25Z</time>
      </trkpt>
      <trkpt lat="47.13724" lon="-1.74391">
        <ele>6</ele>
        <time>2014-04-08T15:35:27Z</time>
      </trkpt>
      <trkpt lat="47.13743" lon="-1.74345">
        <ele>6</ele>
        <time>2014-04-08T15:35:32Z</time>
      </trkpt>
      <trkpt lat="47.13758" lon="-1.74321">
        <ele>6</ele>
        <time>2014-04-08T15:35:36Z</time>
      </trkpt>
      <trkpt lat="47.1377" lon="-1.74298">
        <ele>4</ele>
        <time>2014-04-08T15:35:40Z</time>
      </trkpt>
      <trkpt lat="47.13777" lon="-1.74288">
        <ele>6</ele>
        <time>2014-04-08T15:35:43Z</time>
      </trkpt>
      <trkpt lat="47.13801" lon="-1.74251">
        <ele>10</ele>
        <time>2014-04-08T15:35:49Z</time>
      </trkpt>
      <trkpt lat="47.13803" lon="-1.74245">
        <ele>9</ele>
        <time>2014-04-08T15:35:50Z</time>
      </trkpt>
      <trkpt lat="47.13826" lon="-1.74208">
        <ele>11</ele>
        <time>2014-04-08T15:35:58Z</time>
      </trkpt>
      <trkpt lat="47.13842" lon="-1.74193">
        <ele>11</ele>
        <time>2014-04-08T15:36:02Z</time>
      </trkpt>
      <trkpt lat="47.13855" lon="-1.74181">
        <ele>11</ele>
        <time>2014-04-08T15:36:04Z</time>
      </trkpt>
      <trkpt lat="47.13867" lon="-1.74166">
        <ele>12</ele>
        <time>2014-04-08T15:36:08Z</time>
      </trkpt>
      <trkpt lat="47.13885" lon="-1.74149">
        <ele>14</ele>
        <time>2014-04-08T15:36:13Z</time>
      </trkpt>
      <trkpt lat="47.139" lon="-1.74133">
        <ele>14</ele>
        <time>2014-04-08T15:36:17Z</time>
      </trkpt>
      <trkpt lat="47.13915" lon="-1.74114">
        <ele>14</ele>
        <time>2014-04-08T15:36:20Z</time>
      </trkpt>
      <trkpt lat="47.13929" lon="-1.74091">
        <ele>16</ele>
        <time>2014-04-08T15:36:25Z</time>
      </trkpt>
      <trkpt lat="47.13946" lon="-1.74058">
        <ele>16</ele>
        <time>2014-04-08T15:36:30Z</time>
      </trkpt>
      <trkpt lat="47.13958" lon="-1.74036">
        <ele>17</ele>
        <time>2014-04-08T15:36:32Z</time>
      </trkpt>
      <trkpt lat="47.13976" lon="-1.74016">
        <ele>18</ele>
        <time>2014-04-08T15:36:36Z</time>
      </trkpt>
      <trkpt lat="47.14003" lon="-1.73991">
        <ele>18</ele>
        <time>2014-04-08T15:36:41Z</time>
      </trkpt>
      <trkpt lat="47.14009" lon="-1.73986">
        <ele>18</ele>
        <time>2014-04-08T15:36:43Z</time>
      </trkpt>
      <trkpt lat="47.14031" lon="-1.73967">
        <ele>19</ele>
        <time>2014-04-08T15:36:47Z</time>
      </trkpt>
      <trkpt lat="47.14072" lon="-1.73931">
        <ele>20</ele>
        <time>2014-04-08T15:36:54Z</time>
      </trkpt>
      <trkpt lat="47.14083" lon="-1.73918">
        <ele>20</ele>
        <time>2014-04-08T15:36:56Z</time>
      </trkpt>
      <trkpt lat="47.1412" lon="-1.73879">
        <ele>20</ele>
        <time>2014-04-08T15:37:02Z</time>
      </trkpt>
      <trkpt lat="47.14138" lon="-1.73859">
        <ele>18</ele>
        <time>2014-04-08T15:37:04Z</time>
      </trkpt>
      <trkpt lat="47.14165" lon="-1.73831">
        <ele>17</ele>
        <time>2014-04-08T15:37:08Z</time>
      </trkpt>
      <trkpt lat="47.14188" lon="-1.73808">
        <ele>19</ele>
        <time>2014-04-08T15:37:12Z</time>
      </trkpt>
      <trkpt lat="47.142" lon="-1.73799">
        <ele>20</ele>
        <time>2014-04-08T15:37:15Z</time>
      </trkpt>
      <trkpt lat="47.14251" lon="-1.73758">
        <ele>20</ele>
        <time>2014-04-08T15:37:22Z</time>
      </trkpt>
      <trkpt lat="47.14271" lon="-1.73741">
        <ele>21</ele>
        <time>2014-04-08T15:37:26Z</time>
      </trkpt>
      <trkpt lat="47.14296" lon="-1.73723">
        <ele>22</ele>
        <time>2014-04-08T15:37:29Z</time>
      </trkpt>
      <trkpt lat="47.14321" lon="-1.73703">
        <ele>23</ele>
        <time>2014-04-08T15:37:34Z</time>
      </trkpt>
      <trkpt lat="47.14344" lon="-1.73684">
        <ele>24</ele>
        <time>2014-04-08T15:37:38Z</time>
      </trkpt>
      <trkpt lat="47.14367" lon="-1.7366">
        <ele>24</ele>
        <time>2014-04-08T15:37:42Z</time>
      </trkpt>
      <trkpt lat="47.14391" lon="-1.73624">
        <ele>25</ele>
        <time>2014-04-08T15:37:46Z</time>
      </trkpt>
      <trkpt lat="47.14405" lon="-1.736">
        <ele>27</ele>
        <time>2014-04-08T15:37:50Z</time>
      </trkpt>
      <trkpt lat="47.14424" lon="-1.73564">
        <ele>28</ele>
        <time>2014-04-08T15:37:54Z</time>
      </trkpt>
      <trkpt lat="47.14443" lon="-1.73529">
        <ele>29</ele>
        <time>2014-04-08T15:37:58Z</time>
      </trkpt>
      <trkpt lat="47.14464" lon="-1.73495">
        <ele>30</ele>
        <time>2014-04-08T15:38:02Z</time>
      </trkpt>
      <trkpt lat="47.14485" lon="-1.7346">
        <ele>30</ele>
        <time>2014-04-08T15:38:05Z</time>
      </trkpt>
      <trkpt lat="47.14508" lon="-1.73431">
        <ele>30</ele>
        <time>2014-04-08T15:38:09Z</time>
      </trkpt>
      <trkpt lat="47.14529" lon="-1.734">
        <ele>29</ele>
        <time>2014-04-08T15:38:13Z</time>
      </trkpt>
      <trkpt lat="47.14556" lon="-1.73374">
        <ele>28</ele>
        <time>2014-04-08T15:38:18Z</time>
      </trkpt>
      <trkpt lat="47.14583" lon="-1.73351">
        <ele>29</ele>
        <time>2014-04-08T15:38:22Z</time>
      </trkpt>
      <trkpt lat="47.1461" lon="-1.73333">
        <ele>31</ele>
        <time>2014-04-08T15:38:26Z</time>
      </trkpt>
      <trkpt lat="47.14638" lon="-1.7331">
        <ele>31</ele>
        <time>2014-04-08T15:38:30Z</time>
      </trkpt>
      <trkpt lat="47.14661" lon="-1.73281">
        <ele>31</ele>
        <time>2014-04-08T15:38:34Z</time>
      </trkpt>
      <trkpt lat="47.14685" lon="-1.73251">
        <ele>30</ele>
        <time>2014-04-08T15:38:37Z</time>
      </trkpt>
      <trkpt lat="47.14709" lon="-1.73221">
        <ele>32</ele>
        <time>2014-04-08T15:38:41Z</time>
      </trkpt>
      <trkpt lat="47.14738" lon="-1.73199">
        <ele>31</ele>
        <time>2014-04-08T15:38:46Z</time>
      </trkpt>
      <trkpt lat="47.14766" lon="-1.73175">
        <ele>30</ele>
        <time>2014-04-08T15:38:50Z</time>
      </trkpt>
      <trkpt lat="47.148" lon="-1.73143">
        <ele>31</ele>
        <time>2014-04-08T15:38:55Z</time>
      </trkpt>
      <trkpt lat="47.1482" lon="-1.73125">
        <ele>32</ele>
        <time>2014-04-08T15:38:58Z</time>
      </trkpt>
      <trkpt lat="47.14848" lon="-1.731">
        <ele>31</ele>
        <time>2014-04-08T15:39:02Z</time>
      </trkpt>
      <trkpt lat="47.14876" lon="-1.73075">
        <ele>33</ele>
        <time>2014-04-08T15:39:06Z</time>
      </trkpt>
      <trkpt lat="47.14906" lon="-1.73048">
        <ele>33</ele>
        <time>2014-04-08T15:39:09Z</time>
      </trkpt>
      <trkpt lat="47.14936" lon="-1.73025">
        <ele>33</ele>
        <time>2014-04-08T15:39:13Z</time>
      </trkpt>
      <trkpt lat="47.14967" lon="-1.73003">
        <ele>32</ele>
        <time>2014-04-08T15:39:17Z</time>
      </trkpt>
      <trkpt lat="47.14995" lon="-1.72976">
        <ele>33</ele>
        <time>2014-04-08T15:39:22Z</time>
      </trkpt>
      <trkpt lat="47.15011" lon="-1.72969">
        <ele>33</ele>
        <time>2014-04-08T15:39:23Z</time>
      </trkpt>
      <trkpt lat="47.15077" lon="-1.72937">
        <ele>29</ele>
        <time>2014-04-08T15:39:30Z</time>
      </trkpt>
      <trkpt lat="47.151" lon="-1.72924">
        <ele>26</ele>
        <time>2014-04-08T15:39:32Z</time>
      </trkpt>
      <trkpt lat="47.15152" lon="-1.72892">
        <ele>25</ele>
        <time>2014-04-08T15:39:38Z</time>
      </trkpt>
      <trkpt lat="47.15198" lon="-1.72868">
        <ele>23</ele>
        <time>2014-04-08T15:39:41Z</time>
      </trkpt>
      <trkpt lat="47.15256" lon="-1.72836">
        <ele>25</ele>
        <time>2014-04-08T15:39:47Z</time>
      </trkpt>
      <trkpt lat="47.15306" lon="-1.72809">
        <ele>18</ele>
        <time>2014-04-08T15:39:50Z</time>
      </trkpt>
      <trkpt lat="47.1533" lon="-1.72793">
        <ele>16</ele>
        <time>2014-04-08T15:39:53Z</time>
      </trkpt>
      <trkpt lat="47.15393" lon="-1.72749">
        <ele>16</ele>
        <time>2014-04-08T15:39:59Z</time>
      </trkpt>
      <trkpt lat="47.15429" lon="-1.72722">
        <ele>18</ele>
        <time>2014-04-08T15:40:02Z</time>
      </trkpt>
      <trkpt lat="47.1546" lon="-1.72701">
        <ele>14</ele>
        <time>2014-04-08T15:40:07Z</time>
      </trkpt>
      <trkpt lat="47.15481" lon="-1.72685">
        <ele>15</ele>
        <time>2014-04-08T15:40:10Z</time>
      </trkpt>
      <trkpt lat="47.15494" lon="-1.72673">
        <ele>14</ele>
        <time>2014-04-08T15:40:11Z</time>
      </trkpt>
      <trkpt lat="47.15519" lon="-1.72648">
        <ele>15</ele>
        <time>2014-04-08T15:40:17Z</time>
      </trkpt>
      <trkpt lat="47.15536" lon="-1.7263">
        <ele>18</ele>
        <time>2014-04-08T15:40:22Z</time>
      </trkpt>
      <trkpt lat="47.15552" lon="-1.72621">
        <ele>20</ele>
        <time>2014-04-08T15:40:26Z</time>
      </trkpt>
      <trkpt lat="47.15563" lon="-1.72612">
        <ele>22</ele>
        <time>2014-04-08T15:40:30Z</time>
      </trkpt>
      <trkpt lat="47.15586" lon="-1.72598">
        <ele>26</ele>
        <time>2014-04-08T15:40:35Z</time>
      </trkpt>
      <trkpt lat="47.15602" lon="-1.72591">
        <ele>28</ele>
        <time>2014-04-08T15:40:39Z</time>
      </trkpt>
      <trkpt lat="47.15619" lon="-1.72592">
        <ele>28</ele>
        <time>2014-04-08T15:40:43Z</time>
      </trkpt>
      <trkpt lat="47.15635" lon="-1.72591">
        <ele>27</ele>
        <time>2014-04-08T15:40:47Z</time>
      </trkpt>
      <trkpt lat="47.15647" lon="-1.72587">
        <ele>25</ele>
        <time>2014-04-08T15:40:49Z</time>
      </trkpt>
      <trkpt lat="47.15673" lon="-1.7259">
        <ele>27</ele>
        <time>2014-04-08T15:40:56Z</time>
      </trkpt>
      <trkpt lat="47.15693" lon="-1.72585">
        <ele>22</ele>
        <time>2014-04-08T15:41:01Z</time>
      </trkpt>
      <trkpt lat="47.15709" lon="-1.72583">
        <ele>25</ele>
        <time>2014-04-08T15:41:03Z</time>
      </trkpt>
      <trkpt lat="47.15731" lon="-1.72581">
        <ele>25</ele>
        <time>2014-04-08T15:41:07Z</time>
      </trkpt>
      <trkpt lat="47.15754" lon="-1.72581">
        <ele>26</ele>
        <time>2014-04-08T15:41:12Z</time>
      </trkpt>
      <trkpt lat="47.15764" lon="-1.7258">
        <ele>26</ele>
        <time>2014-04-08T15:41:14Z</time>
      </trkpt>
      <trkpt lat="47.15804" lon="-1.72579">
        <ele>26</ele>
        <time>2014-04-08T15:41:20Z</time>
      </trkpt>
      <trkpt lat="47.15836" lon="-1.72572">
        <ele>25</ele>
        <time>2014-04-08T15:41:25Z</time>
      </trkpt>
      <trkpt lat="47.15849" lon="-1.72548">
        <ele>26</ele>
        <time>2014-04-08T15:41:28Z</time>
      </trkpt>
      <trkpt lat="47.15862" lon="-1.72511">
        <ele>26</ele>
        <time>2014-04-08T15:41:31Z</time>
      </trkpt>
      <trkpt lat="47.15871" lon="-1.72492">
        <ele>25</ele>
        <time>2014-04-08T15:41:34Z</time>
      </trkpt>
      <trkpt lat="47.15894" lon="-1.72419">
        <ele>24</ele>
        <time>2014-04-08T15:41:40Z</time>
      </trkpt>
      <trkpt lat="47.15914" lon="-1.72383">
        <ele>23</ele>
        <time>2014-04-08T15:41:44Z</time>
      </trkpt>
      <trkpt lat="47.15929" lon="-1.72347">
        <ele>22</ele>
        <time>2014-04-08T15:41:49Z</time>
      </trkpt>
      <trkpt lat="47.15942" lon="-1.7232">
        <ele>23</ele>
        <time>2014-04-08T15:41:52Z</time>
      </trkpt>
      <trkpt lat="47.15955" lon="-1.72293">
        <ele>26</ele>
        <time>2014-04-08T15:41:55Z</time>
      </trkpt>
      <trkpt lat="47.15976" lon="-1.72247">
        <ele>29</ele>
        <time>2014-04-08T15:42:00Z</time>
      </trkpt>
      <trkpt lat="47.15996" lon="-1.72207">
        <ele>26</ele>
        <time>2014-04-08T15:42:03Z</time>
      </trkpt>
      <trkpt lat="47.16012" lon="-1.72169">
        <ele>24</ele>
        <time>2014-04-08T15:42:07Z</time>
      </trkpt>
      <trkpt lat="47.16031" lon="-1.72131">
        <ele>23</ele>
        <time>2014-04-08T15:42:11Z</time>
      </trkpt>
      <trkpt lat="47.1605" lon="-1.72094">
        <ele>25</ele>
        <time>2014-04-08T15:42:16Z</time>
      </trkpt>
      <trkpt lat="47.16067" lon="-1.72057">
        <ele>24</ele>
        <time>2014-04-08T15:42:20Z</time>
      </trkpt>
      <trkpt lat="47.16081" lon="-1.72029">
        <ele>26</ele>
        <time>2014-04-08T15:42:23Z</time>
      </trkpt>
      <trkpt lat="47.16109" lon="-1.71984">
        <ele>26</ele>
        <time>2014-04-08T15:42:28Z</time>
      </trkpt>
      <trkpt lat="47.16134" lon="-1.71949">
        <ele>23</ele>
        <time>2014-04-08T15:42:32Z</time>
      </trkpt>
      <trkpt lat="47.16158" lon="-1.71918">
        <ele>24</ele>
        <time>2014-04-08T15:42:35Z</time>
      </trkpt>
      <trkpt lat="47.16182" lon="-1.71888">
        <ele>23</ele>
        <time>2014-04-08T15:42:39Z</time>
      </trkpt>
      <trkpt lat="47.16204" lon="-1.71857">
        <ele>23</ele>
        <time>2014-04-08T15:42:43Z</time>
      </trkpt>
      <trkpt lat="47.16224" lon="-1.71831">
        <ele>23</ele>
        <time>2014-04-08T15:42:47Z</time>
      </trkpt>
      <trkpt lat="47.16238" lon="-1.71817">
        <ele>24</ele>
        <time>2014-04-08T15:42:51Z</time>
      </trkpt>
      <trkpt lat="47.16246" lon="-1.71816">
        <ele>24</ele>
        <time>2014-04-08T15:42:53Z</time>
      </trkpt>
      <trkpt lat="47.16273" lon="-1.71838">
        <ele>23</ele>
        <time>2014-04-08T15:42:58Z</time>
      </trkpt>
      <trkpt lat="47.1631" lon="-1.7186">
        <ele>20</ele>
        <time>2014-04-08T15:43:04Z</time>
      </trkpt>
      <trkpt lat="47.16338" lon="-1.71884">
        <ele>19</ele>
        <time>2014-04-08T15:43:07Z</time>
      </trkpt>
      <trkpt lat="47.16358" lon="-1.71907">
        <ele>20</ele>
        <time>2014-04-08T15:43:10Z</time>
      </trkpt>
      <trkpt lat="47.16377" lon="-1.71925">
        <ele>20</ele>
        <time>2014-04-08T15:43:13Z</time>
      </trkpt>
      <trkpt lat="47.16429" lon="-1.71963">
        <ele>19</ele>
        <time>2014-04-08T15:43:20Z</time>
      </trkpt>
      <trkpt lat="47.16458" lon="-1.71983">
        <ele>19</ele>
        <time>2014-04-08T15:43:24Z</time>
      </trkpt>
      <trkpt lat="47.16509" lon="-1.71999">
        <ele>16</ele>
        <time>2014-04-08T15:43:29Z</time>
      </trkpt>
      <trkpt lat="47.16541" lon="-1.72008">
        <ele>12</ele>
        <time>2014-04-08T15:43:32Z</time>
      </trkpt>
      <trkpt lat="47.16569" lon="-1.72008">
        <ele>15</ele>
        <time>2014-04-08T15:43:36Z</time>
      </trkpt>
      <trkpt lat="47.16601" lon="-1.72008">
        <ele>13</ele>
        <time>2014-04-08T15:43:39Z</time>
      </trkpt>
      <trkpt lat="47.16631" lon="-1.72007">
        <ele>13</ele>
        <time>2014-04-08T15:43:44Z</time>
      </trkpt>
      <trkpt lat="47.16661" lon="-1.72009">
        <ele>12</ele>
        <time>2014-04-08T15:43:48Z</time>
      </trkpt>
      <trkpt lat="47.16696" lon="-1.7201">
        <ele>10</ele>
        <time>2014-04-08T15:43:53Z</time>
      </trkpt>
      <trkpt lat="47.16714" lon="-1.72008">
        <ele>9</ele>
        <time>2014-04-08T15:43:56Z</time>
      </trkpt>
      <trkpt lat="47.16739" lon="-1.7201">
        <ele>9</ele>
        <time>2014-04-08T15:44:00Z</time>
      </trkpt>
      <trkpt lat="47.16759" lon="-1.72007">
        <ele>11</ele>
        <time>2014-04-08T15:44:04Z</time>
      </trkpt>
      <trkpt lat="47.16775" lon="-1.72004">
        <ele>12</ele>
        <time>2014-04-08T15:44:06Z</time>
      </trkpt>
      <trkpt lat="47.16798" lon="-1.72002">
        <ele>13</ele>
        <time>2014-04-08T15:44:10Z</time>
      </trkpt>
      <trkpt lat="47.16831" lon="-1.72005">
        <ele>16</ele>
        <time>2014-04-08T15:44:17Z</time>
      </trkpt>
      <trkpt lat="47.16852" lon="-1.7201">
        <ele>17</ele>
        <time>2014-04-08T15:44:20Z</time>
      </trkpt>
      <trkpt lat="47.16868" lon="-1.72014">
        <ele>17</ele>
        <time>2014-04-08T15:44:24Z</time>
      </trkpt>
      <trkpt lat="47.16888" lon="-1.72019">
        <ele>16</ele>
        <time>2014-04-08T15:44:27Z</time>
      </trkpt>
      <trkpt lat="47.16904" lon="-1.72021">
        <ele>17</ele>
        <time>2014-04-08T15:44:32Z</time>
      </trkpt>
      <trkpt lat="47.16922" lon="-1.72014">
        <ele>20</ele>
        <time>2014-04-08T15:44:36Z</time>
      </trkpt>
      <trkpt lat="47.16939" lon="-1.72011">
        <ele>21</ele>
        <time>2014-04-08T15:44:40Z</time>
      </trkpt>
      <trkpt lat="47.16954" lon="-1.72002">
        <ele>22</ele>
        <time>2014-04-08T15:44:44Z</time>
      </trkpt>
      <trkpt lat="47.16973" lon="-1.7199">
        <ele>20</ele>
        <time>2014-04-08T15:44:49Z</time>
      </trkpt>
      <trkpt lat="47.16994" lon="-1.71977">
        <ele>20</ele>
        <time>2014-04-08T15:44:53Z</time>
      </trkpt>
      <trkpt lat="47.17018" lon="-1.71957">
        <ele>21</ele>
        <time>2014-04-08T15:44:57Z</time>
      </trkpt>
      <trkpt lat="47.17037" lon="-1.71944">
        <ele>21</ele>
        <time>2014-04-08T15:45:00Z</time>
      </trkpt>
      <trkpt lat="47.17066" lon="-1.71912">
        <ele>17</ele>
        <time>2014-04-08T15:45:05Z</time>
      </trkpt>
      <trkpt lat="47.17083" lon="-1.71878">
        <ele>19</ele>
        <time>2014-04-08T15:45:08Z</time>
      </trkpt>
      <trkpt lat="47.17093" lon="-1.71825">
        <ele>20</ele>
        <time>2014-04-08T15:45:13Z</time>
      </trkpt>
      <trkpt lat="47.17096" lon="-1.71791">
        <ele>18</ele>
        <time>2014-04-08T15:45:16Z</time>
      </trkpt>
      <trkpt lat="47.17096" lon="-1.71736">
        <ele>18</ele>
        <time>2014-04-08T15:45:21Z</time>
      </trkpt>
      <trkpt lat="47.17099" lon="-1.71707">
        <ele>17</ele>
        <time>2014-04-08T15:45:22Z</time>
      </trkpt>
      <trkpt lat="47.17105" lon="-1.71634">
        <ele>16</ele>
        <time>2014-04-08T15:45:28Z</time>
      </trkpt>
      <trkpt lat="47.17122" lon="-1.71554">
        <ele>21</ele>
        <time>2014-04-08T15:45:34Z</time>
      </trkpt>
      <trkpt lat="47.17131" lon="-1.71516">
        <ele>21</ele>
        <time>2014-04-08T15:45:37Z</time>
      </trkpt>
      <trkpt lat="47.17139" lon="-1.71493">
        <ele>21</ele>
        <time>2014-04-08T15:45:39Z</time>
      </trkpt>
      <trkpt lat="47.17165" lon="-1.71414">
        <ele>23</ele>
        <time>2014-04-08T15:45:46Z</time>
      </trkpt>
      <trkpt lat="47.17172" lon="-1.71385">
        <ele>23</ele>
        <time>2014-04-08T15:45:48Z</time>
      </trkpt>
      <trkpt lat="47.17191" lon="-1.71332">
        <ele>24</ele>
        <time>2014-04-08T15:45:53Z</time>
      </trkpt>
      <trkpt lat="47.17199" lon="-1.71301">
        <ele>24</ele>
        <time>2014-04-08T15:45:57Z</time>
      </trkpt>
      <trkpt lat="47.17212" lon="-1.71271">
        <ele>25</ele>
        <time>2014-04-08T15:46:00Z</time>
      </trkpt>
      <trkpt lat="47.17225" lon="-1.71227">
        <ele>26</ele>
        <time>2014-04-08T15:46:05Z</time>
      </trkpt>
      <trkpt lat="47.17237" lon="-1.71186">
        <ele>26</ele>
        <time>2014-04-08T15:46:08Z</time>
      </trkpt>
      <trkpt lat="47.17243" lon="-1.71167">
        <ele>25</ele>
        <time>2014-04-08T15:46:10Z</time>
      </trkpt>
      <trkpt lat="47.17256" lon="-1.71131">
        <ele>23</ele>
        <time>2014-04-08T15:46:15Z</time>
      </trkpt>
      <trkpt lat="47.1728" lon="-1.71065">
        <ele>25</ele>
        <time>2014-04-08T15:46:21Z</time>
      </trkpt>
      <trkpt lat="47.17291" lon="-1.71039">
        <ele>25</ele>
        <time>2014-04-08T15:46:25Z</time>
      </trkpt>
      <trkpt lat="47.17304" lon="-1.71002">
        <ele>26</ele>
        <time>2014-04-08T15:46:29Z</time>
      </trkpt>
      <trkpt lat="47.17311" lon="-1.70984">
        <ele>26</ele>
        <time>2014-04-08T15:46:30Z</time>
      </trkpt>
      <trkpt lat="47.17325" lon="-1.70945">
        <ele>27</ele>
        <time>2014-04-08T15:46:34Z</time>
      </trkpt>
      <trkpt lat="47.17347" lon="-1.7089">
        <ele>29</ele>
        <time>2014-04-08T15:46:41Z</time>
      </trkpt>
      <trkpt lat="47.17367" lon="-1.70839">
        <ele>28</ele>
        <time>2014-04-08T15:46:46Z</time>
      </trkpt>
      <trkpt lat="47.17379" lon="-1.70808">
        <ele>29</ele>
        <time>2014-04-08T15:46:48Z</time>
      </trkpt>
      <trkpt lat="47.17397" lon="-1.70769">
        <ele>29</ele>
        <time>2014-04-08T15:46:52Z</time>
      </trkpt>
      <trkpt lat="47.17415" lon="-1.70732">
        <ele>29</ele>
        <time>2014-04-08T15:46:57Z</time>
      </trkpt>
      <trkpt lat="47.17434" lon="-1.70697">
        <ele>29</ele>
        <time>2014-04-08T15:47:01Z</time>
      </trkpt>
      <trkpt lat="47.17461" lon="-1.70645">
        <ele>29</ele>
        <time>2014-04-08T15:47:06Z</time>
      </trkpt>
      <trkpt lat="47.17478" lon="-1.70609">
        <ele>27</ele>
        <time>2014-04-08T15:47:11Z</time>
      </trkpt>
      <trkpt lat="47.17493" lon="-1.70583">
        <ele>28</ele>
        <time>2014-04-08T15:47:13Z</time>
      </trkpt>
      <trkpt lat="47.17513" lon="-1.70542">
        <ele>27</ele>
        <time>2014-04-08T15:47:18Z</time>
      </trkpt>
      <trkpt lat="47.17531" lon="-1.70502">
        <ele>28</ele>
        <time>2014-04-08T15:47:22Z</time>
      </trkpt>
      <trkpt lat="47.17545" lon="-1.70478">
        <ele>29</ele>
        <time>2014-04-08T15:47:24Z</time>
      </trkpt>
      <trkpt lat="47.1756" lon="-1.70452">
        <ele>30</ele>
        <time>2014-04-08T15:47:28Z</time>
      </trkpt>
      <trkpt lat="47.17579" lon="-1.70397">
        <ele>30</ele>
        <time>2014-04-08T15:47:34Z</time>
      </trkpt>
      <trkpt lat="47.17601" lon="-1.70372">
        <ele>33</ele>
        <time>2014-04-08T15:47:38Z</time>
      </trkpt>
      <trkpt lat="47.17625" lon="-1.70363">
        <ele>31</ele>
        <time>2014-04-08T15:47:41Z</time>
      </trkpt>
      <trkpt lat="47.17646" lon="-1.70336">
        <ele>32</ele>
        <time>2014-04-08T15:47:46Z</time>
      </trkpt>
      <trkpt lat="47.17667" lon="-1.70311">
        <ele>32</ele>
        <time>2014-04-08T15:47:50Z</time>
      </trkpt>
      <trkpt lat="47.17683" lon="-1.70293">
        <ele>30</ele>
        <time>2014-04-08T15:47:52Z</time>
      </trkpt>
      <trkpt lat="47.1771" lon="-1.70257">
        <ele>32</ele>
        <time>2014-04-08T15:47:57Z</time>
      </trkpt>
      <trkpt lat="47.17717" lon="-1.70236">
        <ele>32</ele>
        <time>2014-04-08T15:47:59Z</time>
      </trkpt>
      <trkpt lat="47.17741" lon="-1.70208">
        <ele>32</ele>
        <time>2014-04-08T15:48:03Z</time>
      </trkpt>
      <trkpt lat="47.17726" lon="-1.70144">
        <ele>30</ele>
        <time>2014-04-08T15:48:10Z</time>
      </trkpt>
      <trkpt lat="47.17699" lon="-1.70107">
        <ele>32</ele>
        <time>2014-04-08T15:48:14Z</time>
      </trkpt>
      <trkpt lat="47.17674" lon="-1.70069">
        <ele>31</ele>
        <time>2014-04-08T15:48:18Z</time>
      </trkpt>
      <trkpt lat="47.17652" lon="-1.70023">
        <ele>31</ele>
        <time>2014-04-08T15:48:22Z</time>
      </trkpt>
      <trkpt lat="47.17633" lon="-1.69975">
        <ele>30</ele>
        <time>2014-04-08T15:48:26Z</time>
      </trkpt>
      <trkpt lat="47.17612" lon="-1.69915">
        <ele>30</ele>
        <time>2014-04-08T15:48:31Z</time>
      </trkpt>
      <trkpt lat="47.17605" lon="-1.69889">
        <ele>29</ele>
        <time>2014-04-08T15:48:33Z</time>
      </trkpt>
      <trkpt lat="47.17593" lon="-1.69828">
        <ele>30</ele>
        <time>2014-04-08T15:48:37Z</time>
      </trkpt>
      <trkpt lat="47.17587" lon="-1.69776">
        <ele>30</ele>
        <time>2014-04-08T15:48:42Z</time>
      </trkpt>
      <trkpt lat="47.17586" lon="-1.6972">
        <ele>29</ele>
        <time>2014-04-08T15:48:46Z</time>
      </trkpt>
      <trkpt lat="47.17582" lon="-1.69663">
        <ele>30</ele>
        <time>2014-04-08T15:48:50Z</time>
      </trkpt>
      <trkpt lat="47.1758" lon="-1.69603">
        <ele>31</ele>
        <time>2014-04-08T15:48:55Z</time>
      </trkpt>
      <trkpt lat="47.17591" lon="-1.69595">
        <ele>30</ele>
        <time>2014-04-08T15:48:56Z</time>
      </trkpt>
      <trkpt lat="47.17628" lon="-1.69574">
        <ele>31</ele>
        <time>2014-04-08T15:49:02Z</time>
      </trkpt>
      <trkpt lat="47.17669" lon="-1.69557">
        <ele>32</ele>
        <time>2014-04-08T15:49:07Z</time>
      </trkpt>
      <trkpt lat="47.17696" lon="-1.69547">
        <ele>30</ele>
        <time>2014-04-08T15:49:09Z</time>
      </trkpt>
      <trkpt lat="47.17731" lon="-1.69537">
        <ele>28</ele>
        <time>2014-04-08T15:49:13Z</time>
      </trkpt>
      <trkpt lat="47.17764" lon="-1.69519">
        <ele>26</ele>
        <time>2014-04-08T15:49:18Z</time>
      </trkpt>
      <trkpt lat="47.1779" lon="-1.6951">
        <ele>24</ele>
        <time>2014-04-08T15:49:21Z</time>
      </trkpt>
      <trkpt lat="47.17837" lon="-1.69495">
        <ele>25</ele>
        <time>2014-04-08T15:49:26Z</time>
      </trkpt>
      <trkpt lat="47.17867" lon="-1.69487">
        <ele>25</ele>
        <time>2014-04-08T15:49:28Z</time>
      </trkpt>
      <trkpt lat="47.1791" lon="-1.69482">
        <ele>23</ele>
        <time>2014-04-08T15:49:34Z</time>
      </trkpt>
      <trkpt lat="47.17957" lon="-1.6948">
        <ele>23</ele>
        <time>2014-04-08T15:49:38Z</time>
      </trkpt>
      <trkpt lat="47.17992" lon="-1.69475">
        <ele>20</ele>
        <time>2014-04-08T15:49:43Z</time>
      </trkpt>
      <trkpt lat="47.18011" lon="-1.69475">
        <ele>20</ele>
        <time>2014-04-08T15:49:45Z</time>
      </trkpt>
      <trkpt lat="47.18062" lon="-1.69464">
        <ele>22</ele>
        <time>2014-04-08T15:49:50Z</time>
      </trkpt>
      <trkpt lat="47.18071" lon="-1.69461">
        <ele>23</ele>
        <time>2014-04-08T15:49:52Z</time>
      </trkpt>
      <trkpt lat="47.18132" lon="-1.69441">
        <ele>22</ele>
        <time>2014-04-08T15:49:59Z</time>
      </trkpt>
      <trkpt lat="47.18156" lon="-1.69432">
        <ele>21</ele>
        <time>2014-04-08T15:50:02Z</time>
      </trkpt>
      <trkpt lat="47.18197" lon="-1.69416">
        <ele>21</ele>
        <time>2014-04-08T15:50:07Z</time>
      </trkpt>
      <trkpt lat="47.1822" lon="-1.69409">
        <ele>21</ele>
        <time>2014-04-08T15:50:09Z</time>
      </trkpt>
      <trkpt lat="47.18257" lon="-1.69396">
        <ele>20</ele>
        <time>2014-04-08T15:50:14Z</time>
      </trkpt>
      <trkpt lat="47.18293" lon="-1.6938">
        <ele>21</ele>
        <time>2014-04-08T15:50:20Z</time>
      </trkpt>
      <trkpt lat="47.18314" lon="-1.69369">
        <ele>20</ele>
        <time>2014-04-08T15:50:22Z</time>
      </trkpt>
      <trkpt lat="47.18336" lon="-1.69354">
        <ele>21</ele>
        <time>2014-04-08T15:50:26Z</time>
      </trkpt>
      <trkpt lat="47.18373" lon="-1.69322">
        <ele>22</ele>
        <time>2014-04-08T15:50:31Z</time>
      </trkpt>
      <trkpt lat="47.18405" lon="-1.69302">
        <ele>22</ele>
        <time>2014-04-08T15:50:34Z</time>
      </trkpt>
      <trkpt lat="47.18449" lon="-1.69271">
        <ele>21</ele>
        <time>2014-04-08T15:50:39Z</time>
      </trkpt>
      <trkpt lat="47.18476" lon="-1.6926">
        <ele>20</ele>
        <time>2014-04-08T15:50:43Z</time>
      </trkpt>
      <trkpt lat="47.18522" lon="-1.69234">
        <ele>21</ele>
        <time>2014-04-08T15:50:48Z</time>
      </trkpt>
      <trkpt lat="47.1856" lon="-1.69218">
        <ele>21</ele>
        <time>2014-04-08T15:50:52Z</time>
      </trkpt>
      <trkpt lat="47.18588" lon="-1.69203">
        <ele>22</ele>
        <time>2014-04-08T15:50:54Z</time>
      </trkpt>
      <trkpt lat="47.18621" lon="-1.69178">
        <ele>20</ele>
        <time>2014-04-08T15:50:58Z</time>
      </trkpt>
      <trkpt lat="47.18652" lon="-1.69149">
        <ele>19</ele>
        <time>2014-04-08T15:51:02Z</time>
      </trkpt>
      <trkpt lat="47.18682" lon="-1.69125">
        <ele>18</ele>
        <time>2014-04-08T15:51:07Z</time>
      </trkpt>
      <trkpt lat="47.18726" lon="-1.69093">
        <ele>16</ele>
        <time>2014-04-08T15:51:12Z</time>
      </trkpt>
      <trkpt lat="47.18752" lon="-1.69075">
        <ele>16</ele>
        <time>2014-04-08T15:51:15Z</time>
      </trkpt>
      <trkpt lat="47.18787" lon="-1.69052">
        <ele>15</ele>
        <time>2014-04-08T15:51:19Z</time>
      </trkpt>
      <trkpt lat="47.18819" lon="-1.69028">
        <ele>13</ele>
        <time>2014-04-08T15:51:23Z</time>
      </trkpt>
      <trkpt lat="47.18837" lon="-1.68999">
        <ele>15</ele>
        <time>2014-04-08T15:51:25Z</time>
      </trkpt>
      <trkpt lat="47.18848" lon="-1.68967">
        <ele>17</ele>
        <time>2014-04-08T15:51:29Z</time>
      </trkpt>
      <trkpt lat="47.18849" lon="-1.68911">
        <ele>19</ele>
        <time>2014-04-08T15:51:34Z</time>
      </trkpt>
      <trkpt lat="47.18836" lon="-1.68863">
        <ele>21</ele>
        <time>2014-04-08T15:51:38Z</time>
      </trkpt>
      <trkpt lat="47.1883" lon="-1.68816">
        <ele>24</ele>
        <time>2014-04-08T15:51:43Z</time>
      </trkpt>
      <trkpt lat="47.18844" lon="-1.68802">
        <ele>25</ele>
        <time>2014-04-08T15:51:47Z</time>
      </trkpt>
    </trkseg>
  </trk>
</gpx>